<?xml version="1.0" encoding="UTF-8" standalone="no" ?>
<gpx xmlns="http://www.topografix.com/GPX/1/1" xmlns:xsi="http://www.w3.org/2001/XMLSchema-instance" xsi:schemaLocation="http://www.topografix.com/GPX/1/1 http://www.topografix.com/GPX/1/1/gpx.xsd" version="1.1" creator="VisuGPX - https://www.visugpx.com">
  <metadata>
    <name>04-DA-St Laurent du Verdon</name>
    <desc><![CDATA[04-DA-St Laurent du Verdon : les deux lacs
2025-09-14-JG]]></desc>
  </metadata>
  <trk>
    <name><![CDATA[2025-09-14-DA-St Laurent du V]]></name>
    <extensions>
      <line xmlns="http://www.topografix.com/GPX/gpx_style/0/2">
        <width>4</width>
      </line>
    </extensions>
    <trkseg>
      <trkpt lat="43.72504" lon="6.06908">
        <ele>459.8</ele>
        <time>2025-09-14T08:29:46.000Z</time>
      </trkpt>
      <trkpt lat="43.72504" lon="6.06908">
        <ele>459.8</ele>
        <time>2025-09-14T08:29:47.000Z</time>
      </trkpt>
      <trkpt lat="43.72504" lon="6.06908">
        <ele>459.8</ele>
        <time>2025-09-14T08:29:48.000Z</time>
      </trkpt>
      <trkpt lat="43.72504" lon="6.06908">
        <ele>459.9</ele>
        <time>2025-09-14T08:29:49.000Z</time>
      </trkpt>
      <trkpt lat="43.72504" lon="6.06908">
        <ele>459.9</ele>
        <time>2025-09-14T08:29:50.000Z</time>
      </trkpt>
      <trkpt lat="43.72504" lon="6.06908">
        <ele>459.9</ele>
        <time>2025-09-14T08:29:55.000Z</time>
      </trkpt>
      <trkpt lat="43.72504" lon="6.06909">
        <ele>459.9</ele>
        <time>2025-09-14T08:29:56.000Z</time>
      </trkpt>
      <trkpt lat="43.72505" lon="6.06908">
        <ele>459.9</ele>
        <time>2025-09-14T08:30:20.000Z</time>
      </trkpt>
      <trkpt lat="43.72505" lon="6.06908">
        <ele>459.9</ele>
        <time>2025-09-14T08:30:21.000Z</time>
      </trkpt>
      <trkpt lat="43.72504" lon="6.06908">
        <ele>459.9</ele>
        <time>2025-09-14T08:30:32.000Z</time>
      </trkpt>
      <trkpt lat="43.72504" lon="6.06908">
        <ele>459.9</ele>
        <time>2025-09-14T08:30:33.000Z</time>
      </trkpt>
      <trkpt lat="43.72504" lon="6.06908">
        <ele>459.9</ele>
        <time>2025-09-14T08:30:34.000Z</time>
      </trkpt>
      <trkpt lat="43.72503" lon="6.06908">
        <ele>459.9</ele>
        <time>2025-09-14T08:30:35.000Z</time>
      </trkpt>
      <trkpt lat="43.72503" lon="6.06908">
        <ele>459.9</ele>
        <time>2025-09-14T08:30:36.000Z</time>
      </trkpt>
      <trkpt lat="43.72502" lon="6.06908">
        <ele>459.9</ele>
        <time>2025-09-14T08:30:37.000Z</time>
      </trkpt>
      <trkpt lat="43.72501" lon="6.06909">
        <ele>459.9</ele>
        <time>2025-09-14T08:30:38.000Z</time>
      </trkpt>
      <trkpt lat="43.72501" lon="6.06909">
        <ele>459.9</ele>
        <time>2025-09-14T08:30:38.000Z</time>
      </trkpt>
      <trkpt lat="43.725" lon="6.06909">
        <ele>459.9</ele>
        <time>2025-09-14T08:30:39.000Z</time>
      </trkpt>
      <trkpt lat="43.72498" lon="6.06909">
        <ele>459.9</ele>
        <time>2025-09-14T08:30:45.000Z</time>
      </trkpt>
      <trkpt lat="43.72498" lon="6.06909">
        <ele>459.9</ele>
        <time>2025-09-14T08:30:46.000Z</time>
      </trkpt>
      <trkpt lat="43.72499" lon="6.06909">
        <ele>459.8</ele>
        <time>2025-09-14T08:31:00.000Z</time>
      </trkpt>
      <trkpt lat="43.72499" lon="6.06909">
        <ele>459.8</ele>
        <time>2025-09-14T08:31:01.000Z</time>
      </trkpt>
      <trkpt lat="43.72499" lon="6.06909">
        <ele>459.8</ele>
        <time>2025-09-14T08:31:02.000Z</time>
      </trkpt>
      <trkpt lat="43.72499" lon="6.06909">
        <ele>459.8</ele>
        <time>2025-09-14T08:31:03.000Z</time>
      </trkpt>
      <trkpt lat="43.72499" lon="6.06909">
        <ele>459.8</ele>
        <time>2025-09-14T08:31:04.000Z</time>
      </trkpt>
      <trkpt lat="43.725" lon="6.0691">
        <ele>459.8</ele>
        <time>2025-09-14T08:31:07.000Z</time>
      </trkpt>
      <trkpt lat="43.725" lon="6.06911">
        <ele>459.8</ele>
        <time>2025-09-14T08:31:08.000Z</time>
      </trkpt>
      <trkpt lat="43.72501" lon="6.06912">
        <ele>459.8</ele>
        <time>2025-09-14T08:31:09.000Z</time>
      </trkpt>
      <trkpt lat="43.72504" lon="6.06913">
        <ele>459.8</ele>
        <time>2025-09-14T08:31:18.000Z</time>
      </trkpt>
      <trkpt lat="43.72504" lon="6.06913">
        <ele>459.8</ele>
        <time>2025-09-14T08:31:19.000Z</time>
      </trkpt>
      <trkpt lat="43.72504" lon="6.06911">
        <ele>459.9</ele>
        <time>2025-09-14T08:31:26.000Z</time>
      </trkpt>
      <trkpt lat="43.72503" lon="6.06911">
        <ele>459.9</ele>
        <time>2025-09-14T08:31:27.000Z</time>
      </trkpt>
      <trkpt lat="43.72497" lon="6.06915">
        <ele>459.8</ele>
        <time>2025-09-14T08:31:51.000Z</time>
      </trkpt>
      <trkpt lat="43.72497" lon="6.06915">
        <ele>459.8</ele>
        <time>2025-09-14T08:31:52.000Z</time>
      </trkpt>
      <trkpt lat="43.72497" lon="6.06917">
        <ele>459.8</ele>
        <time>2025-09-14T08:31:55.000Z</time>
      </trkpt>
      <trkpt lat="43.72497" lon="6.06917">
        <ele>459.8</ele>
        <time>2025-09-14T08:31:56.000Z</time>
      </trkpt>
      <trkpt lat="43.72497" lon="6.06917">
        <ele>459.8</ele>
        <time>2025-09-14T08:31:57.000Z</time>
      </trkpt>
      <trkpt lat="43.72497" lon="6.06917">
        <ele>459.8</ele>
        <time>2025-09-14T08:31:58.000Z</time>
      </trkpt>
      <trkpt lat="43.72497" lon="6.06917">
        <ele>459.8</ele>
        <time>2025-09-14T08:31:59.000Z</time>
      </trkpt>
      <trkpt lat="43.72498" lon="6.06918">
        <ele>459.8</ele>
        <time>2025-09-14T08:32:12.000Z</time>
      </trkpt>
      <trkpt lat="43.72498" lon="6.06918">
        <ele>459.8</ele>
        <time>2025-09-14T08:32:13.000Z</time>
      </trkpt>
      <trkpt lat="43.72498" lon="6.06917">
        <ele>459.8</ele>
        <time>2025-09-14T08:32:14.000Z</time>
      </trkpt>
      <trkpt lat="43.72498" lon="6.06917">
        <ele>459.8</ele>
        <time>2025-09-14T08:32:15.000Z</time>
      </trkpt>
      <trkpt lat="43.72498" lon="6.06917">
        <ele>459.8</ele>
        <time>2025-09-14T08:32:16.000Z</time>
      </trkpt>
      <trkpt lat="43.72498" lon="6.06917">
        <ele>459.8</ele>
        <time>2025-09-14T08:32:23.000Z</time>
      </trkpt>
      <trkpt lat="43.72498" lon="6.06917">
        <ele>459.8</ele>
        <time>2025-09-14T08:32:24.000Z</time>
      </trkpt>
      <trkpt lat="43.72498" lon="6.06917">
        <ele>459.8</ele>
        <time>2025-09-14T08:32:25.000Z</time>
      </trkpt>
      <trkpt lat="43.72498" lon="6.06917">
        <ele>459.8</ele>
        <time>2025-09-14T08:32:26.000Z</time>
      </trkpt>
      <trkpt lat="43.72498" lon="6.06917">
        <ele>459.8</ele>
        <time>2025-09-14T08:32:27.000Z</time>
      </trkpt>
      <trkpt lat="43.72499" lon="6.06917">
        <ele>459.8</ele>
        <time>2025-09-14T08:32:36.000Z</time>
      </trkpt>
      <trkpt lat="43.72499" lon="6.06916">
        <ele>459.8</ele>
        <time>2025-09-14T08:32:37.000Z</time>
      </trkpt>
      <trkpt lat="43.72499" lon="6.06916">
        <ele>459.8</ele>
        <time>2025-09-14T08:32:41.000Z</time>
      </trkpt>
      <trkpt lat="43.72499" lon="6.06916">
        <ele>459.8</ele>
        <time>2025-09-14T08:32:42.000Z</time>
      </trkpt>
      <trkpt lat="43.72499" lon="6.06916">
        <ele>459.8</ele>
        <time>2025-09-14T08:32:45.000Z</time>
      </trkpt>
      <trkpt lat="43.72499" lon="6.06915">
        <ele>459.9</ele>
        <time>2025-09-14T08:32:46.000Z</time>
      </trkpt>
      <trkpt lat="43.72499" lon="6.06915">
        <ele>459.9</ele>
        <time>2025-09-14T08:32:47.000Z</time>
      </trkpt>
      <trkpt lat="43.72499" lon="6.06915">
        <ele>459.9</ele>
        <time>2025-09-14T08:32:48.000Z</time>
      </trkpt>
      <trkpt lat="43.72499" lon="6.06915">
        <ele>459.9</ele>
        <time>2025-09-14T08:32:49.000Z</time>
      </trkpt>
      <trkpt lat="43.72499" lon="6.06915">
        <ele>459.9</ele>
        <time>2025-09-14T08:32:50.000Z</time>
      </trkpt>
      <trkpt lat="43.72499" lon="6.06915">
        <ele>459.9</ele>
        <time>2025-09-14T08:32:51.000Z</time>
      </trkpt>
      <trkpt lat="43.72499" lon="6.06914">
        <ele>459.9</ele>
        <time>2025-09-14T08:32:52.000Z</time>
      </trkpt>
      <trkpt lat="43.72499" lon="6.06915">
        <ele>459.9</ele>
        <time>2025-09-14T08:32:53.000Z</time>
      </trkpt>
      <trkpt lat="43.72499" lon="6.06914">
        <ele>459.9</ele>
        <time>2025-09-14T08:32:54.000Z</time>
      </trkpt>
      <trkpt lat="43.72499" lon="6.06915">
        <ele>459.9</ele>
        <time>2025-09-14T08:32:55.000Z</time>
      </trkpt>
      <trkpt lat="43.72499" lon="6.06915">
        <ele>459.9</ele>
        <time>2025-09-14T08:32:56.000Z</time>
      </trkpt>
      <trkpt lat="43.72499" lon="6.06914">
        <ele>459.9</ele>
        <time>2025-09-14T08:33:00.000Z</time>
      </trkpt>
      <trkpt lat="43.72499" lon="6.06914">
        <ele>459.9</ele>
        <time>2025-09-14T08:33:01.000Z</time>
      </trkpt>
      <trkpt lat="43.725" lon="6.06913">
        <ele>459.9</ele>
        <time>2025-09-14T08:33:32.000Z</time>
      </trkpt>
      <trkpt lat="43.725" lon="6.06913">
        <ele>459.9</ele>
        <time>2025-09-14T08:33:33.000Z</time>
      </trkpt>
      <trkpt lat="43.725" lon="6.06912">
        <ele>460</ele>
        <time>2025-09-14T08:33:34.000Z</time>
      </trkpt>
      <trkpt lat="43.72502" lon="6.06912">
        <ele>460</ele>
        <time>2025-09-14T08:33:48.000Z</time>
      </trkpt>
      <trkpt lat="43.72502" lon="6.06912">
        <ele>460</ele>
        <time>2025-09-14T08:33:49.000Z</time>
      </trkpt>
      <trkpt lat="43.72502" lon="6.06913">
        <ele>460</ele>
        <time>2025-09-14T08:33:53.000Z</time>
      </trkpt>
      <trkpt lat="43.72502" lon="6.06913">
        <ele>460</ele>
        <time>2025-09-14T08:33:54.000Z</time>
      </trkpt>
      <trkpt lat="43.72502" lon="6.06913">
        <ele>460</ele>
        <time>2025-09-14T08:33:57.000Z</time>
      </trkpt>
      <trkpt lat="43.72502" lon="6.06912">
        <ele>460</ele>
        <time>2025-09-14T08:33:58.000Z</time>
      </trkpt>
      <trkpt lat="43.72502" lon="6.06912">
        <ele>460</ele>
        <time>2025-09-14T08:33:59.000Z</time>
      </trkpt>
      <trkpt lat="43.72502" lon="6.06912">
        <ele>460</ele>
        <time>2025-09-14T08:34:00.000Z</time>
      </trkpt>
      <trkpt lat="43.72502" lon="6.06912">
        <ele>460</ele>
        <time>2025-09-14T08:34:01.000Z</time>
      </trkpt>
      <trkpt lat="43.72502" lon="6.06912">
        <ele>460.1</ele>
        <time>2025-09-14T08:34:13.000Z</time>
      </trkpt>
      <trkpt lat="43.72502" lon="6.06912">
        <ele>460.1</ele>
        <time>2025-09-14T08:34:14.000Z</time>
      </trkpt>
      <trkpt lat="43.72502" lon="6.06912">
        <ele>460.1</ele>
        <time>2025-09-14T08:34:15.000Z</time>
      </trkpt>
      <trkpt lat="43.72502" lon="6.06912">
        <ele>460.1</ele>
        <time>2025-09-14T08:34:16.000Z</time>
      </trkpt>
      <trkpt lat="43.72509" lon="6.06903">
        <ele>460.1</ele>
        <time>2025-09-14T08:34:29.000Z</time>
      </trkpt>
      <trkpt lat="43.72511" lon="6.06903">
        <ele>460.2</ele>
        <time>2025-09-14T08:34:35.000Z</time>
      </trkpt>
      <trkpt lat="43.72511" lon="6.06903">
        <ele>460.2</ele>
        <time>2025-09-14T08:34:36.000Z</time>
      </trkpt>
      <trkpt lat="43.72511" lon="6.06903">
        <ele>460.2</ele>
        <time>2025-09-14T08:34:40.000Z</time>
      </trkpt>
      <trkpt lat="43.72511" lon="6.06903">
        <ele>460.2</ele>
        <time>2025-09-14T08:34:41.000Z</time>
      </trkpt>
      <trkpt lat="43.7252" lon="6.069">
        <ele>460.3</ele>
        <time>2025-09-14T08:34:50.000Z</time>
      </trkpt>
      <trkpt lat="43.72521" lon="6.06899">
        <ele>460.4</ele>
        <time>2025-09-14T08:34:56.000Z</time>
      </trkpt>
      <trkpt lat="43.72521" lon="6.06899">
        <ele>460.4</ele>
        <time>2025-09-14T08:34:57.000Z</time>
      </trkpt>
      <trkpt lat="43.72522" lon="6.06899">
        <ele>460.4</ele>
        <time>2025-09-14T08:34:58.000Z</time>
      </trkpt>
      <trkpt lat="43.72522" lon="6.069">
        <ele>460.5</ele>
        <time>2025-09-14T08:34:59.000Z</time>
      </trkpt>
      <trkpt lat="43.72531" lon="6.06904">
        <ele>460.7</ele>
        <time>2025-09-14T08:35:11.000Z</time>
      </trkpt>
      <trkpt lat="43.72534" lon="6.06903">
        <ele>460.9</ele>
        <time>2025-09-14T08:35:17.000Z</time>
      </trkpt>
      <trkpt lat="43.72534" lon="6.06902">
        <ele>460.9</ele>
        <time>2025-09-14T08:35:18.000Z</time>
      </trkpt>
      <trkpt lat="43.72533" lon="6.06901">
        <ele>460.9</ele>
        <time>2025-09-14T08:35:19.000Z</time>
      </trkpt>
      <trkpt lat="43.72533" lon="6.06899">
        <ele>461</ele>
        <time>2025-09-14T08:35:20.000Z</time>
      </trkpt>
      <trkpt lat="43.72533" lon="6.06898">
        <ele>461</ele>
        <time>2025-09-14T08:35:21.000Z</time>
      </trkpt>
      <trkpt lat="43.72532" lon="6.06897">
        <ele>461</ele>
        <time>2025-09-14T08:35:22.000Z</time>
      </trkpt>
      <trkpt lat="43.72532" lon="6.06897">
        <ele>461.1</ele>
        <time>2025-09-14T08:35:25.000Z</time>
      </trkpt>
      <trkpt lat="43.72532" lon="6.06897">
        <ele>461.1</ele>
        <time>2025-09-14T08:35:26.000Z</time>
      </trkpt>
      <trkpt lat="43.72532" lon="6.06897">
        <ele>461.1</ele>
        <time>2025-09-14T08:35:27.000Z</time>
      </trkpt>
      <trkpt lat="43.72533" lon="6.06897">
        <ele>461.2</ele>
        <time>2025-09-14T08:35:28.000Z</time>
      </trkpt>
      <trkpt lat="43.72533" lon="6.06898">
        <ele>461.2</ele>
        <time>2025-09-14T08:35:29.000Z</time>
      </trkpt>
      <trkpt lat="43.72524" lon="6.06896">
        <ele>461.2</ele>
        <time>2025-09-14T08:35:42.000Z</time>
      </trkpt>
      <trkpt lat="43.72518" lon="6.06895">
        <ele>461.1</ele>
        <time>2025-09-14T08:35:50.000Z</time>
      </trkpt>
      <trkpt lat="43.72518" lon="6.06895">
        <ele>461.1</ele>
        <time>2025-09-14T08:35:51.000Z</time>
      </trkpt>
      <trkpt lat="43.72518" lon="6.06895">
        <ele>461.1</ele>
        <time>2025-09-14T08:35:52.000Z</time>
      </trkpt>
      <trkpt lat="43.72517" lon="6.06895">
        <ele>461.1</ele>
        <time>2025-09-14T08:35:53.000Z</time>
      </trkpt>
      <trkpt lat="43.72517" lon="6.06894">
        <ele>461</ele>
        <time>2025-09-14T08:35:54.000Z</time>
      </trkpt>
      <trkpt lat="43.72517" lon="6.06894">
        <ele>461</ele>
        <time>2025-09-14T08:35:55.000Z</time>
      </trkpt>
      <trkpt lat="43.72517" lon="6.06894">
        <ele>461</ele>
        <time>2025-09-14T08:36:08.000Z</time>
      </trkpt>
      <trkpt lat="43.72517" lon="6.06894">
        <ele>461</ele>
        <time>2025-09-14T08:36:09.000Z</time>
      </trkpt>
      <trkpt lat="43.72517" lon="6.06894">
        <ele>460.9</ele>
        <time>2025-09-14T08:36:17.000Z</time>
      </trkpt>
      <trkpt lat="43.72516" lon="6.06894">
        <ele>460.9</ele>
        <time>2025-09-14T08:36:18.000Z</time>
      </trkpt>
      <trkpt lat="43.72516" lon="6.06894">
        <ele>461</ele>
        <time>2025-09-14T08:36:19.000Z</time>
      </trkpt>
      <trkpt lat="43.72517" lon="6.06894">
        <ele>461</ele>
        <time>2025-09-14T08:36:20.000Z</time>
      </trkpt>
      <trkpt lat="43.72517" lon="6.06894">
        <ele>461</ele>
        <time>2025-09-14T08:36:21.000Z</time>
      </trkpt>
      <trkpt lat="43.72517" lon="6.06894">
        <ele>461</ele>
        <time>2025-09-14T08:36:22.000Z</time>
      </trkpt>
      <trkpt lat="43.72517" lon="6.06893">
        <ele>461.1</ele>
        <time>2025-09-14T08:37:07.000Z</time>
      </trkpt>
      <trkpt lat="43.72517" lon="6.06893">
        <ele>461.1</ele>
        <time>2025-09-14T08:37:08.000Z</time>
      </trkpt>
      <trkpt lat="43.72517" lon="6.06892">
        <ele>461.1</ele>
        <time>2025-09-14T08:37:09.000Z</time>
      </trkpt>
      <trkpt lat="43.72517" lon="6.06887">
        <ele>461.1</ele>
        <time>2025-09-14T08:37:22.000Z</time>
      </trkpt>
      <trkpt lat="43.72517" lon="6.06887">
        <ele>461.1</ele>
        <time>2025-09-14T08:37:23.000Z</time>
      </trkpt>
      <trkpt lat="43.72518" lon="6.06887">
        <ele>461.1</ele>
        <time>2025-09-14T08:37:24.000Z</time>
      </trkpt>
      <trkpt lat="43.72518" lon="6.06887">
        <ele>461.1</ele>
        <time>2025-09-14T08:37:25.000Z</time>
      </trkpt>
      <trkpt lat="43.72518" lon="6.06886">
        <ele>461.1</ele>
        <time>2025-09-14T08:37:26.000Z</time>
      </trkpt>
      <trkpt lat="43.72518" lon="6.06885">
        <ele>461.1</ele>
        <time>2025-09-14T08:37:27.000Z</time>
      </trkpt>
      <trkpt lat="43.72513" lon="6.06872">
        <ele>461</ele>
        <time>2025-09-14T08:37:36.000Z</time>
      </trkpt>
      <trkpt lat="43.72507" lon="6.06862">
        <ele>461</ele>
        <time>2025-09-14T08:37:44.000Z</time>
      </trkpt>
      <trkpt lat="43.725" lon="6.06852">
        <ele>461</ele>
        <time>2025-09-14T08:37:52.000Z</time>
      </trkpt>
      <trkpt lat="43.72496" lon="6.06845">
        <ele>460.9</ele>
        <time>2025-09-14T08:38:02.000Z</time>
      </trkpt>
      <trkpt lat="43.72496" lon="6.06845">
        <ele>460.9</ele>
        <time>2025-09-14T08:38:03.000Z</time>
      </trkpt>
      <trkpt lat="43.72496" lon="6.06845">
        <ele>460.9</ele>
        <time>2025-09-14T08:38:04.000Z</time>
      </trkpt>
      <trkpt lat="43.72495" lon="6.06844">
        <ele>460.6</ele>
        <time>2025-09-14T08:38:25.000Z</time>
      </trkpt>
      <trkpt lat="43.72494" lon="6.06843">
        <ele>460.6</ele>
        <time>2025-09-14T08:38:26.000Z</time>
      </trkpt>
      <trkpt lat="43.72487" lon="6.06832">
        <ele>460.5</ele>
        <time>2025-09-14T08:38:33.000Z</time>
      </trkpt>
      <trkpt lat="43.72479" lon="6.06826">
        <ele>460.4</ele>
        <time>2025-09-14T08:38:40.000Z</time>
      </trkpt>
      <trkpt lat="43.72471" lon="6.06818">
        <ele>460.1</ele>
        <time>2025-09-14T08:38:48.000Z</time>
      </trkpt>
      <trkpt lat="43.72463" lon="6.06813">
        <ele>459.8</ele>
        <time>2025-09-14T08:38:54.000Z</time>
      </trkpt>
      <trkpt lat="43.72455" lon="6.06808">
        <ele>459.3</ele>
        <time>2025-09-14T08:39:00.000Z</time>
      </trkpt>
      <trkpt lat="43.72446" lon="6.06802">
        <ele>458.7</ele>
        <time>2025-09-14T08:39:07.000Z</time>
      </trkpt>
      <trkpt lat="43.72438" lon="6.06796">
        <ele>458.4</ele>
        <time>2025-09-14T08:39:13.000Z</time>
      </trkpt>
      <trkpt lat="43.7243" lon="6.06789">
        <ele>458.3</ele>
        <time>2025-09-14T08:39:20.000Z</time>
      </trkpt>
      <trkpt lat="43.72423" lon="6.0678">
        <ele>458.4</ele>
        <time>2025-09-14T08:39:27.000Z</time>
      </trkpt>
      <trkpt lat="43.72415" lon="6.06774">
        <ele>458.6</ele>
        <time>2025-09-14T08:39:36.000Z</time>
      </trkpt>
      <trkpt lat="43.72409" lon="6.06765">
        <ele>458.8</ele>
        <time>2025-09-14T08:39:43.000Z</time>
      </trkpt>
      <trkpt lat="43.72402" lon="6.06756">
        <ele>459.1</ele>
        <time>2025-09-14T08:39:50.000Z</time>
      </trkpt>
      <trkpt lat="43.72398" lon="6.06745">
        <ele>459.4</ele>
        <time>2025-09-14T08:39:57.000Z</time>
      </trkpt>
      <trkpt lat="43.7239" lon="6.06738">
        <ele>459.7</ele>
        <time>2025-09-14T08:40:04.000Z</time>
      </trkpt>
      <trkpt lat="43.72381" lon="6.06731">
        <ele>460.1</ele>
        <time>2025-09-14T08:40:12.000Z</time>
      </trkpt>
      <trkpt lat="43.72373" lon="6.06724">
        <ele>460.3</ele>
        <time>2025-09-14T08:40:22.000Z</time>
      </trkpt>
      <trkpt lat="43.72364" lon="6.06717">
        <ele>460.5</ele>
        <time>2025-09-14T08:40:30.000Z</time>
      </trkpt>
      <trkpt lat="43.72355" lon="6.06712">
        <ele>460.8</ele>
        <time>2025-09-14T08:40:40.000Z</time>
      </trkpt>
      <trkpt lat="43.72346" lon="6.06708">
        <ele>461.1</ele>
        <time>2025-09-14T08:40:57.000Z</time>
      </trkpt>
      <trkpt lat="43.72339" lon="6.06701">
        <ele>461.3</ele>
        <time>2025-09-14T08:41:09.000Z</time>
      </trkpt>
      <trkpt lat="43.7233" lon="6.06695">
        <ele>461.4</ele>
        <time>2025-09-14T08:41:19.000Z</time>
      </trkpt>
      <trkpt lat="43.72323" lon="6.06688">
        <ele>461.7</ele>
        <time>2025-09-14T08:41:30.000Z</time>
      </trkpt>
      <trkpt lat="43.72315" lon="6.06681">
        <ele>461.9</ele>
        <time>2025-09-14T08:41:42.000Z</time>
      </trkpt>
      <trkpt lat="43.72307" lon="6.06673">
        <ele>462.3</ele>
        <time>2025-09-14T08:41:55.000Z</time>
      </trkpt>
      <trkpt lat="43.723" lon="6.06665">
        <ele>462.6</ele>
        <time>2025-09-14T08:42:05.000Z</time>
      </trkpt>
      <trkpt lat="43.72293" lon="6.06656">
        <ele>463</ele>
        <time>2025-09-14T08:42:16.000Z</time>
      </trkpt>
      <trkpt lat="43.72287" lon="6.0665">
        <ele>463.2</ele>
        <time>2025-09-14T08:42:32.000Z</time>
      </trkpt>
      <trkpt lat="43.72287" lon="6.0665">
        <ele>463.2</ele>
        <time>2025-09-14T08:42:33.000Z</time>
      </trkpt>
      <trkpt lat="43.72287" lon="6.0665">
        <ele>463.2</ele>
        <time>2025-09-14T08:42:34.000Z</time>
      </trkpt>
      <trkpt lat="43.72287" lon="6.06649">
        <ele>463.3</ele>
        <time>2025-09-14T08:42:40.000Z</time>
      </trkpt>
      <trkpt lat="43.72287" lon="6.06648">
        <ele>463.3</ele>
        <time>2025-09-14T08:42:41.000Z</time>
      </trkpt>
      <trkpt lat="43.72286" lon="6.06647">
        <ele>463.3</ele>
        <time>2025-09-14T08:42:42.000Z</time>
      </trkpt>
      <trkpt lat="43.72277" lon="6.06643">
        <ele>463.4</ele>
        <time>2025-09-14T08:42:53.000Z</time>
      </trkpt>
      <trkpt lat="43.72269" lon="6.06647">
        <ele>463.4</ele>
        <time>2025-09-14T08:43:02.000Z</time>
      </trkpt>
      <trkpt lat="43.7226" lon="6.0665">
        <ele>463.3</ele>
        <time>2025-09-14T08:43:11.000Z</time>
      </trkpt>
      <trkpt lat="43.72251" lon="6.06655">
        <ele>463</ele>
        <time>2025-09-14T08:43:21.000Z</time>
      </trkpt>
      <trkpt lat="43.72241" lon="6.06659">
        <ele>462.5</ele>
        <time>2025-09-14T08:43:34.000Z</time>
      </trkpt>
      <trkpt lat="43.72233" lon="6.06666">
        <ele>462</ele>
        <time>2025-09-14T08:43:44.000Z</time>
      </trkpt>
      <trkpt lat="43.72225" lon="6.06669">
        <ele>461.6</ele>
        <time>2025-09-14T08:43:54.000Z</time>
      </trkpt>
      <trkpt lat="43.7222" lon="6.06672">
        <ele>461.1</ele>
        <time>2025-09-14T08:44:05.000Z</time>
      </trkpt>
      <trkpt lat="43.7222" lon="6.06672">
        <ele>461.1</ele>
        <time>2025-09-14T08:44:06.000Z</time>
      </trkpt>
      <trkpt lat="43.7222" lon="6.06672">
        <ele>461.1</ele>
        <time>2025-09-14T08:44:07.000Z</time>
      </trkpt>
      <trkpt lat="43.72218" lon="6.06672">
        <ele>460.9</ele>
        <time>2025-09-14T08:44:15.000Z</time>
      </trkpt>
      <trkpt lat="43.72217" lon="6.06673">
        <ele>460.9</ele>
        <time>2025-09-14T08:44:16.000Z</time>
      </trkpt>
      <trkpt lat="43.72208" lon="6.06678">
        <ele>460.8</ele>
        <time>2025-09-14T08:44:25.000Z</time>
      </trkpt>
      <trkpt lat="43.72207" lon="6.06679">
        <ele>460.7</ele>
        <time>2025-09-14T08:44:30.000Z</time>
      </trkpt>
      <trkpt lat="43.72207" lon="6.06679">
        <ele>460.7</ele>
        <time>2025-09-14T08:44:31.000Z</time>
      </trkpt>
      <trkpt lat="43.72206" lon="6.06679">
        <ele>460.5</ele>
        <time>2025-09-14T08:44:51.000Z</time>
      </trkpt>
      <trkpt lat="43.72206" lon="6.0668">
        <ele>460.5</ele>
        <time>2025-09-14T08:44:52.000Z</time>
      </trkpt>
      <trkpt lat="43.72197" lon="6.06685">
        <ele>460.3</ele>
        <time>2025-09-14T08:45:01.000Z</time>
      </trkpt>
      <trkpt lat="43.72189" lon="6.06689">
        <ele>460</ele>
        <time>2025-09-14T08:45:10.000Z</time>
      </trkpt>
      <trkpt lat="43.72179" lon="6.06694">
        <ele>459.5</ele>
        <time>2025-09-14T08:45:19.000Z</time>
      </trkpt>
      <trkpt lat="43.72171" lon="6.06697">
        <ele>458.8</ele>
        <time>2025-09-14T08:45:27.000Z</time>
      </trkpt>
      <trkpt lat="43.72161" lon="6.06702">
        <ele>457.9</ele>
        <time>2025-09-14T08:45:36.000Z</time>
      </trkpt>
      <trkpt lat="43.72152" lon="6.06706">
        <ele>456.6</ele>
        <time>2025-09-14T08:45:46.000Z</time>
      </trkpt>
      <trkpt lat="43.72142" lon="6.0671">
        <ele>455.5</ele>
        <time>2025-09-14T08:45:55.000Z</time>
      </trkpt>
      <trkpt lat="43.72135" lon="6.06717">
        <ele>454.7</ele>
        <time>2025-09-14T08:46:03.000Z</time>
      </trkpt>
      <trkpt lat="43.72127" lon="6.06724">
        <ele>453.9</ele>
        <time>2025-09-14T08:46:11.000Z</time>
      </trkpt>
      <trkpt lat="43.72119" lon="6.06731">
        <ele>452.8</ele>
        <time>2025-09-14T08:46:20.000Z</time>
      </trkpt>
      <trkpt lat="43.72111" lon="6.06737">
        <ele>452</ele>
        <time>2025-09-14T08:46:28.000Z</time>
      </trkpt>
      <trkpt lat="43.72104" lon="6.06745">
        <ele>451.2</ele>
        <time>2025-09-14T08:46:37.000Z</time>
      </trkpt>
      <trkpt lat="43.72098" lon="6.06755">
        <ele>450.7</ele>
        <time>2025-09-14T08:46:46.000Z</time>
      </trkpt>
      <trkpt lat="43.72093" lon="6.06762">
        <ele>450</ele>
        <time>2025-09-14T08:46:57.000Z</time>
      </trkpt>
      <trkpt lat="43.72093" lon="6.06762">
        <ele>450</ele>
        <time>2025-09-14T08:46:58.000Z</time>
      </trkpt>
      <trkpt lat="43.72093" lon="6.06762">
        <ele>450</ele>
        <time>2025-09-14T08:46:59.000Z</time>
      </trkpt>
      <trkpt lat="43.72092" lon="6.06764">
        <ele>449.6</ele>
        <time>2025-09-14T08:48:16.000Z</time>
      </trkpt>
      <trkpt lat="43.72092" lon="6.06765">
        <ele>449.6</ele>
        <time>2025-09-14T08:48:17.000Z</time>
      </trkpt>
      <trkpt lat="43.72083" lon="6.06771">
        <ele>449.6</ele>
        <time>2025-09-14T08:48:32.000Z</time>
      </trkpt>
      <trkpt lat="43.72074" lon="6.0677">
        <ele>449.3</ele>
        <time>2025-09-14T08:48:43.000Z</time>
      </trkpt>
      <trkpt lat="43.72065" lon="6.06768">
        <ele>449.2</ele>
        <time>2025-09-14T08:48:54.000Z</time>
      </trkpt>
      <trkpt lat="43.72056" lon="6.06768">
        <ele>449</ele>
        <time>2025-09-14T08:49:09.000Z</time>
      </trkpt>
      <trkpt lat="43.72046" lon="6.06769">
        <ele>448.9</ele>
        <time>2025-09-14T08:49:19.000Z</time>
      </trkpt>
      <trkpt lat="43.72037" lon="6.06771">
        <ele>448.7</ele>
        <time>2025-09-14T08:49:28.000Z</time>
      </trkpt>
      <trkpt lat="43.72028" lon="6.06772">
        <ele>448.6</ele>
        <time>2025-09-14T08:49:38.000Z</time>
      </trkpt>
      <trkpt lat="43.72019" lon="6.06773">
        <ele>448.5</ele>
        <time>2025-09-14T08:49:48.000Z</time>
      </trkpt>
      <trkpt lat="43.7201" lon="6.06777">
        <ele>448.4</ele>
        <time>2025-09-14T08:50:00.000Z</time>
      </trkpt>
      <trkpt lat="43.72" lon="6.06777">
        <ele>448.3</ele>
        <time>2025-09-14T08:50:11.000Z</time>
      </trkpt>
      <trkpt lat="43.71991" lon="6.06778">
        <ele>448.2</ele>
        <time>2025-09-14T08:50:22.000Z</time>
      </trkpt>
      <trkpt lat="43.71982" lon="6.06782">
        <ele>448</ele>
        <time>2025-09-14T08:50:32.000Z</time>
      </trkpt>
      <trkpt lat="43.71972" lon="6.06784">
        <ele>447.9</ele>
        <time>2025-09-14T08:50:43.000Z</time>
      </trkpt>
      <trkpt lat="43.71963" lon="6.06786">
        <ele>447.8</ele>
        <time>2025-09-14T08:50:53.000Z</time>
      </trkpt>
      <trkpt lat="43.71953" lon="6.06788">
        <ele>447.8</ele>
        <time>2025-09-14T08:51:03.000Z</time>
      </trkpt>
      <trkpt lat="43.71944" lon="6.0679">
        <ele>447.7</ele>
        <time>2025-09-14T08:51:12.000Z</time>
      </trkpt>
      <trkpt lat="43.71935" lon="6.06793">
        <ele>447.8</ele>
        <time>2025-09-14T08:51:23.000Z</time>
      </trkpt>
      <trkpt lat="43.71926" lon="6.06795">
        <ele>447.8</ele>
        <time>2025-09-14T08:51:34.000Z</time>
      </trkpt>
      <trkpt lat="43.71917" lon="6.068">
        <ele>447.9</ele>
        <time>2025-09-14T08:51:45.000Z</time>
      </trkpt>
      <trkpt lat="43.71908" lon="6.06805">
        <ele>448</ele>
        <time>2025-09-14T08:51:58.000Z</time>
      </trkpt>
      <trkpt lat="43.71899" lon="6.06808">
        <ele>447.9</ele>
        <time>2025-09-14T08:52:07.000Z</time>
      </trkpt>
      <trkpt lat="43.71889" lon="6.0681">
        <ele>447.9</ele>
        <time>2025-09-14T08:52:17.000Z</time>
      </trkpt>
      <trkpt lat="43.71881" lon="6.06814">
        <ele>447.8</ele>
        <time>2025-09-14T08:52:26.000Z</time>
      </trkpt>
      <trkpt lat="43.71871" lon="6.06818">
        <ele>447.8</ele>
        <time>2025-09-14T08:52:36.000Z</time>
      </trkpt>
      <trkpt lat="43.71862" lon="6.06821">
        <ele>447.8</ele>
        <time>2025-09-14T08:52:46.000Z</time>
      </trkpt>
      <trkpt lat="43.71858" lon="6.06822">
        <ele>447.8</ele>
        <time>2025-09-14T08:52:53.000Z</time>
      </trkpt>
      <trkpt lat="43.71858" lon="6.06822">
        <ele>447.8</ele>
        <time>2025-09-14T08:52:54.000Z</time>
      </trkpt>
      <trkpt lat="43.71858" lon="6.06822">
        <ele>447.8</ele>
        <time>2025-09-14T08:53:01.000Z</time>
      </trkpt>
      <trkpt lat="43.71857" lon="6.06823">
        <ele>447.8</ele>
        <time>2025-09-14T08:53:02.000Z</time>
      </trkpt>
      <trkpt lat="43.71856" lon="6.06824">
        <ele>447.8</ele>
        <time>2025-09-14T08:53:10.000Z</time>
      </trkpt>
      <trkpt lat="43.71856" lon="6.06824">
        <ele>447.8</ele>
        <time>2025-09-14T08:53:11.000Z</time>
      </trkpt>
      <trkpt lat="43.71856" lon="6.06824">
        <ele>447.8</ele>
        <time>2025-09-14T08:53:12.000Z</time>
      </trkpt>
      <trkpt lat="43.71853" lon="6.06824">
        <ele>447.8</ele>
        <time>2025-09-14T08:53:26.000Z</time>
      </trkpt>
      <trkpt lat="43.71853" lon="6.06824">
        <ele>447.9</ele>
        <time>2025-09-14T08:53:27.000Z</time>
      </trkpt>
      <trkpt lat="43.71853" lon="6.06824">
        <ele>447.9</ele>
        <time>2025-09-14T08:53:31.000Z</time>
      </trkpt>
      <trkpt lat="43.71853" lon="6.06824">
        <ele>447.9</ele>
        <time>2025-09-14T08:53:32.000Z</time>
      </trkpt>
      <trkpt lat="43.71852" lon="6.06824">
        <ele>447.9</ele>
        <time>2025-09-14T08:53:35.000Z</time>
      </trkpt>
      <trkpt lat="43.71851" lon="6.06825">
        <ele>447.9</ele>
        <time>2025-09-14T08:53:36.000Z</time>
      </trkpt>
      <trkpt lat="43.71841" lon="6.06826">
        <ele>447.9</ele>
        <time>2025-09-14T08:53:43.000Z</time>
      </trkpt>
      <trkpt lat="43.71833" lon="6.06831">
        <ele>447.9</ele>
        <time>2025-09-14T08:53:50.000Z</time>
      </trkpt>
      <trkpt lat="43.71823" lon="6.06836">
        <ele>447.9</ele>
        <time>2025-09-14T08:53:58.000Z</time>
      </trkpt>
      <trkpt lat="43.71814" lon="6.0684">
        <ele>448</ele>
        <time>2025-09-14T08:54:04.000Z</time>
      </trkpt>
      <trkpt lat="43.71805" lon="6.06843">
        <ele>448</ele>
        <time>2025-09-14T08:54:11.000Z</time>
      </trkpt>
      <trkpt lat="43.71794" lon="6.06845">
        <ele>448</ele>
        <time>2025-09-14T08:54:17.000Z</time>
      </trkpt>
      <trkpt lat="43.71785" lon="6.06846">
        <ele>448</ele>
        <time>2025-09-14T08:54:28.000Z</time>
      </trkpt>
      <trkpt lat="43.71776" lon="6.06847">
        <ele>448</ele>
        <time>2025-09-14T08:54:37.000Z</time>
      </trkpt>
      <trkpt lat="43.71766" lon="6.06847">
        <ele>448</ele>
        <time>2025-09-14T08:54:47.000Z</time>
      </trkpt>
      <trkpt lat="43.71757" lon="6.06844">
        <ele>448</ele>
        <time>2025-09-14T08:54:58.000Z</time>
      </trkpt>
      <trkpt lat="43.71748" lon="6.06841">
        <ele>448</ele>
        <time>2025-09-14T08:55:09.000Z</time>
      </trkpt>
      <trkpt lat="43.71739" lon="6.06841">
        <ele>448</ele>
        <time>2025-09-14T08:55:18.000Z</time>
      </trkpt>
      <trkpt lat="43.71729" lon="6.0684">
        <ele>448.1</ele>
        <time>2025-09-14T08:55:28.000Z</time>
      </trkpt>
      <trkpt lat="43.7172" lon="6.06838">
        <ele>449</ele>
        <time>2025-09-14T08:55:42.000Z</time>
      </trkpt>
      <trkpt lat="43.71711" lon="6.06839">
        <ele>451.1</ele>
        <time>2025-09-14T08:55:58.000Z</time>
      </trkpt>
      <trkpt lat="43.71702" lon="6.06836">
        <ele>452.2</ele>
        <time>2025-09-14T08:56:10.000Z</time>
      </trkpt>
      <trkpt lat="43.71693" lon="6.0683">
        <ele>453.4</ele>
        <time>2025-09-14T08:56:24.000Z</time>
      </trkpt>
      <trkpt lat="43.71684" lon="6.06828">
        <ele>454.3</ele>
        <time>2025-09-14T08:56:37.000Z</time>
      </trkpt>
      <trkpt lat="43.71678" lon="6.06825">
        <ele>455.1</ele>
        <time>2025-09-14T08:56:50.000Z</time>
      </trkpt>
      <trkpt lat="43.71678" lon="6.06825">
        <ele>455.1</ele>
        <time>2025-09-14T08:56:51.000Z</time>
      </trkpt>
      <trkpt lat="43.71677" lon="6.06825">
        <ele>455.2</ele>
        <time>2025-09-14T08:56:52.000Z</time>
      </trkpt>
      <trkpt lat="43.71676" lon="6.06825">
        <ele>455.2</ele>
        <time>2025-09-14T08:56:53.000Z</time>
      </trkpt>
      <trkpt lat="43.71676" lon="6.06825">
        <ele>455.2</ele>
        <time>2025-09-14T08:56:54.000Z</time>
      </trkpt>
      <trkpt lat="43.71666" lon="6.06825">
        <ele>455.7</ele>
        <time>2025-09-14T08:57:05.000Z</time>
      </trkpt>
      <trkpt lat="43.71656" lon="6.06825">
        <ele>456.4</ele>
        <time>2025-09-14T08:57:18.000Z</time>
      </trkpt>
      <trkpt lat="43.71647" lon="6.0682">
        <ele>457</ele>
        <time>2025-09-14T08:57:29.000Z</time>
      </trkpt>
      <trkpt lat="43.71638" lon="6.06823">
        <ele>457.7</ele>
        <time>2025-09-14T08:57:41.000Z</time>
      </trkpt>
      <trkpt lat="43.71638" lon="6.06823">
        <ele>458</ele>
        <time>2025-09-14T08:57:46.000Z</time>
      </trkpt>
      <trkpt lat="43.71637" lon="6.06823">
        <ele>458.1</ele>
        <time>2025-09-14T08:57:47.000Z</time>
      </trkpt>
      <trkpt lat="43.71637" lon="6.06823">
        <ele>458.1</ele>
        <time>2025-09-14T08:57:48.000Z</time>
      </trkpt>
      <trkpt lat="43.71637" lon="6.06823">
        <ele>458.1</ele>
        <time>2025-09-14T08:57:49.000Z</time>
      </trkpt>
      <trkpt lat="43.71636" lon="6.06823">
        <ele>458.2</ele>
        <time>2025-09-14T08:57:50.000Z</time>
      </trkpt>
      <trkpt lat="43.71632" lon="6.06822">
        <ele>458.7</ele>
        <time>2025-09-14T08:58:13.000Z</time>
      </trkpt>
      <trkpt lat="43.71632" lon="6.06822">
        <ele>458.7</ele>
        <time>2025-09-14T08:58:14.000Z</time>
      </trkpt>
      <trkpt lat="43.71632" lon="6.06822">
        <ele>458.7</ele>
        <time>2025-09-14T08:58:15.000Z</time>
      </trkpt>
      <trkpt lat="43.71631" lon="6.06822">
        <ele>458.7</ele>
        <time>2025-09-14T08:58:18.000Z</time>
      </trkpt>
      <trkpt lat="43.7163" lon="6.06823">
        <ele>458.7</ele>
        <time>2025-09-14T08:58:19.000Z</time>
      </trkpt>
      <trkpt lat="43.71622" lon="6.06818">
        <ele>458.9</ele>
        <time>2025-09-14T08:58:31.000Z</time>
      </trkpt>
      <trkpt lat="43.71613" lon="6.06813">
        <ele>459.1</ele>
        <time>2025-09-14T08:58:40.000Z</time>
      </trkpt>
      <trkpt lat="43.71603" lon="6.0681">
        <ele>459.4</ele>
        <time>2025-09-14T08:58:50.000Z</time>
      </trkpt>
      <trkpt lat="43.71593" lon="6.06808">
        <ele>459.7</ele>
        <time>2025-09-14T08:59:00.000Z</time>
      </trkpt>
      <trkpt lat="43.71585" lon="6.06802">
        <ele>460.1</ele>
        <time>2025-09-14T08:59:10.000Z</time>
      </trkpt>
      <trkpt lat="43.71576" lon="6.068">
        <ele>460.6</ele>
        <time>2025-09-14T08:59:23.000Z</time>
      </trkpt>
      <trkpt lat="43.71566" lon="6.06796">
        <ele>460.9</ele>
        <time>2025-09-14T08:59:32.000Z</time>
      </trkpt>
      <trkpt lat="43.71557" lon="6.06794">
        <ele>461.3</ele>
        <time>2025-09-14T08:59:44.000Z</time>
      </trkpt>
      <trkpt lat="43.71548" lon="6.06791">
        <ele>461.5</ele>
        <time>2025-09-14T08:59:54.000Z</time>
      </trkpt>
      <trkpt lat="43.7154" lon="6.06786">
        <ele>461.8</ele>
        <time>2025-09-14T09:00:06.000Z</time>
      </trkpt>
      <trkpt lat="43.71531" lon="6.0678">
        <ele>462.2</ele>
        <time>2025-09-14T09:00:18.000Z</time>
      </trkpt>
      <trkpt lat="43.71522" lon="6.06778">
        <ele>462.4</ele>
        <time>2025-09-14T09:00:30.000Z</time>
      </trkpt>
      <trkpt lat="43.71513" lon="6.06772">
        <ele>462.5</ele>
        <time>2025-09-14T09:00:43.000Z</time>
      </trkpt>
      <trkpt lat="43.71504" lon="6.0677">
        <ele>462.7</ele>
        <time>2025-09-14T09:00:54.000Z</time>
      </trkpt>
      <trkpt lat="43.71495" lon="6.06766">
        <ele>462.7</ele>
        <time>2025-09-14T09:01:05.000Z</time>
      </trkpt>
      <trkpt lat="43.71486" lon="6.06763">
        <ele>462.8</ele>
        <time>2025-09-14T09:01:16.000Z</time>
      </trkpt>
      <trkpt lat="43.71478" lon="6.06756">
        <ele>462.8</ele>
        <time>2025-09-14T09:01:27.000Z</time>
      </trkpt>
      <trkpt lat="43.71469" lon="6.06752">
        <ele>462.9</ele>
        <time>2025-09-14T09:01:39.000Z</time>
      </trkpt>
      <trkpt lat="43.71461" lon="6.06744">
        <ele>462.8</ele>
        <time>2025-09-14T09:01:50.000Z</time>
      </trkpt>
      <trkpt lat="43.71453" lon="6.06738">
        <ele>462.8</ele>
        <time>2025-09-14T09:02:01.000Z</time>
      </trkpt>
      <trkpt lat="43.71444" lon="6.06735">
        <ele>462.7</ele>
        <time>2025-09-14T09:02:10.000Z</time>
      </trkpt>
      <trkpt lat="43.71436" lon="6.06731">
        <ele>462.6</ele>
        <time>2025-09-14T09:02:24.000Z</time>
      </trkpt>
      <trkpt lat="43.71426" lon="6.06732">
        <ele>462.7</ele>
        <time>2025-09-14T09:02:36.000Z</time>
      </trkpt>
      <trkpt lat="43.71417" lon="6.06732">
        <ele>462.8</ele>
        <time>2025-09-14T09:02:47.000Z</time>
      </trkpt>
      <trkpt lat="43.71407" lon="6.0673">
        <ele>463</ele>
        <time>2025-09-14T09:02:57.000Z</time>
      </trkpt>
      <trkpt lat="43.71398" lon="6.06731">
        <ele>463.1</ele>
        <time>2025-09-14T09:03:08.000Z</time>
      </trkpt>
      <trkpt lat="43.71389" lon="6.06731">
        <ele>463.3</ele>
        <time>2025-09-14T09:03:20.000Z</time>
      </trkpt>
      <trkpt lat="43.7138" lon="6.06731">
        <ele>463.6</ele>
        <time>2025-09-14T09:03:32.000Z</time>
      </trkpt>
      <trkpt lat="43.71373" lon="6.0674">
        <ele>463.8</ele>
        <time>2025-09-14T09:03:46.000Z</time>
      </trkpt>
      <trkpt lat="43.71366" lon="6.0675">
        <ele>463.8</ele>
        <time>2025-09-14T09:03:55.000Z</time>
      </trkpt>
      <trkpt lat="43.7136" lon="6.0676">
        <ele>463.9</ele>
        <time>2025-09-14T09:04:03.000Z</time>
      </trkpt>
      <trkpt lat="43.71354" lon="6.0677">
        <ele>464.1</ele>
        <time>2025-09-14T09:04:13.000Z</time>
      </trkpt>
      <trkpt lat="43.71349" lon="6.06781">
        <ele>464.2</ele>
        <time>2025-09-14T09:04:23.000Z</time>
      </trkpt>
      <trkpt lat="43.71345" lon="6.06791">
        <ele>464.9</ele>
        <time>2025-09-14T09:04:39.000Z</time>
      </trkpt>
      <trkpt lat="43.71338" lon="6.06801">
        <ele>466.1</ele>
        <time>2025-09-14T09:04:55.000Z</time>
      </trkpt>
      <trkpt lat="43.71337" lon="6.06811">
        <ele>466.9</ele>
        <time>2025-09-14T09:05:11.000Z</time>
      </trkpt>
      <trkpt lat="43.71337" lon="6.06811">
        <ele>466.9</ele>
        <time>2025-09-14T09:05:12.000Z</time>
      </trkpt>
      <trkpt lat="43.71337" lon="6.06811">
        <ele>467</ele>
        <time>2025-09-14T09:05:17.000Z</time>
      </trkpt>
      <trkpt lat="43.71337" lon="6.06811">
        <ele>467.1</ele>
        <time>2025-09-14T09:05:18.000Z</time>
      </trkpt>
      <trkpt lat="43.71337" lon="6.06811">
        <ele>467.1</ele>
        <time>2025-09-14T09:05:19.000Z</time>
      </trkpt>
      <trkpt lat="43.71337" lon="6.06811">
        <ele>467.1</ele>
        <time>2025-09-14T09:05:20.000Z</time>
      </trkpt>
      <trkpt lat="43.71337" lon="6.06811">
        <ele>467.1</ele>
        <time>2025-09-14T09:05:21.000Z</time>
      </trkpt>
      <trkpt lat="43.71337" lon="6.06811">
        <ele>467.1</ele>
        <time>2025-09-14T09:05:22.000Z</time>
      </trkpt>
      <trkpt lat="43.71337" lon="6.06811">
        <ele>467.1</ele>
        <time>2025-09-14T09:05:23.000Z</time>
      </trkpt>
      <trkpt lat="43.71336" lon="6.06812">
        <ele>467.1</ele>
        <time>2025-09-14T09:05:24.000Z</time>
      </trkpt>
      <trkpt lat="43.71331" lon="6.06822">
        <ele>467.6</ele>
        <time>2025-09-14T09:05:37.000Z</time>
      </trkpt>
      <trkpt lat="43.71325" lon="6.06833">
        <ele>469.5</ele>
        <time>2025-09-14T09:05:53.000Z</time>
      </trkpt>
      <trkpt lat="43.71321" lon="6.06844">
        <ele>470.6</ele>
        <time>2025-09-14T09:06:03.000Z</time>
      </trkpt>
      <trkpt lat="43.71317" lon="6.06855">
        <ele>471.7</ele>
        <time>2025-09-14T09:06:14.000Z</time>
      </trkpt>
      <trkpt lat="43.71313" lon="6.06867">
        <ele>472.5</ele>
        <time>2025-09-14T09:06:24.000Z</time>
      </trkpt>
      <trkpt lat="43.71311" lon="6.0688">
        <ele>473.7</ele>
        <time>2025-09-14T09:06:39.000Z</time>
      </trkpt>
      <trkpt lat="43.71303" lon="6.06887">
        <ele>474.4</ele>
        <time>2025-09-14T09:06:50.000Z</time>
      </trkpt>
      <trkpt lat="43.71296" lon="6.06895">
        <ele>474.7</ele>
        <time>2025-09-14T09:07:02.000Z</time>
      </trkpt>
      <trkpt lat="43.71293" lon="6.06897">
        <ele>474.7</ele>
        <time>2025-09-14T09:07:10.000Z</time>
      </trkpt>
      <trkpt lat="43.71293" lon="6.06897">
        <ele>474.7</ele>
        <time>2025-09-14T09:07:11.000Z</time>
      </trkpt>
      <trkpt lat="43.71293" lon="6.06897">
        <ele>474.7</ele>
        <time>2025-09-14T09:07:12.000Z</time>
      </trkpt>
      <trkpt lat="43.71293" lon="6.069">
        <ele>474.7</ele>
        <time>2025-09-14T09:07:16.000Z</time>
      </trkpt>
      <trkpt lat="43.71293" lon="6.06902">
        <ele>474.7</ele>
        <time>2025-09-14T09:07:17.000Z</time>
      </trkpt>
      <trkpt lat="43.71296" lon="6.06907">
        <ele>474.8</ele>
        <time>2025-09-14T09:07:35.000Z</time>
      </trkpt>
      <trkpt lat="43.71296" lon="6.06907">
        <ele>474.8</ele>
        <time>2025-09-14T09:07:36.000Z</time>
      </trkpt>
      <trkpt lat="43.71296" lon="6.06907">
        <ele>474.9</ele>
        <time>2025-09-14T09:07:37.000Z</time>
      </trkpt>
      <trkpt lat="43.71296" lon="6.06907">
        <ele>474.9</ele>
        <time>2025-09-14T09:07:38.000Z</time>
      </trkpt>
      <trkpt lat="43.71296" lon="6.06907">
        <ele>474.9</ele>
        <time>2025-09-14T09:07:39.000Z</time>
      </trkpt>
      <trkpt lat="43.71296" lon="6.06907">
        <ele>474.9</ele>
        <time>2025-09-14T09:07:40.000Z</time>
      </trkpt>
      <trkpt lat="43.71296" lon="6.06907">
        <ele>474.9</ele>
        <time>2025-09-14T09:07:41.000Z</time>
      </trkpt>
      <trkpt lat="43.71296" lon="6.06907">
        <ele>474.9</ele>
        <time>2025-09-14T09:07:42.000Z</time>
      </trkpt>
      <trkpt lat="43.71295" lon="6.06907">
        <ele>475</ele>
        <time>2025-09-14T09:07:56.000Z</time>
      </trkpt>
      <trkpt lat="43.71295" lon="6.06907">
        <ele>475</ele>
        <time>2025-09-14T09:07:57.000Z</time>
      </trkpt>
      <trkpt lat="43.71291" lon="6.06919">
        <ele>475</ele>
        <time>2025-09-14T09:08:10.000Z</time>
      </trkpt>
      <trkpt lat="43.71291" lon="6.06933">
        <ele>475</ele>
        <time>2025-09-14T09:08:18.000Z</time>
      </trkpt>
      <trkpt lat="43.71297" lon="6.06942">
        <ele>474.9</ele>
        <time>2025-09-14T09:08:26.000Z</time>
      </trkpt>
      <trkpt lat="43.71302" lon="6.06944">
        <ele>474.9</ele>
        <time>2025-09-14T09:08:33.000Z</time>
      </trkpt>
      <trkpt lat="43.71302" lon="6.06944">
        <ele>474.9</ele>
        <time>2025-09-14T09:08:34.000Z</time>
      </trkpt>
      <trkpt lat="43.71302" lon="6.06943">
        <ele>474.8</ele>
        <time>2025-09-14T09:08:37.000Z</time>
      </trkpt>
      <trkpt lat="43.71302" lon="6.06941">
        <ele>474.8</ele>
        <time>2025-09-14T09:08:38.000Z</time>
      </trkpt>
      <trkpt lat="43.71302" lon="6.0694">
        <ele>474.8</ele>
        <time>2025-09-14T09:08:39.000Z</time>
      </trkpt>
      <trkpt lat="43.71306" lon="6.06929">
        <ele>474.9</ele>
        <time>2025-09-14T09:08:47.000Z</time>
      </trkpt>
      <trkpt lat="43.71308" lon="6.06916">
        <ele>475</ele>
        <time>2025-09-14T09:08:56.000Z</time>
      </trkpt>
      <trkpt lat="43.71312" lon="6.0691">
        <ele>475.1</ele>
        <time>2025-09-14T09:09:07.000Z</time>
      </trkpt>
      <trkpt lat="43.71312" lon="6.0691">
        <ele>475.1</ele>
        <time>2025-09-14T09:09:08.000Z</time>
      </trkpt>
      <trkpt lat="43.71312" lon="6.0691">
        <ele>475.1</ele>
        <time>2025-09-14T09:09:09.000Z</time>
      </trkpt>
      <trkpt lat="43.71311" lon="6.0691">
        <ele>475.2</ele>
        <time>2025-09-14T09:09:12.000Z</time>
      </trkpt>
      <trkpt lat="43.7131" lon="6.06909">
        <ele>475.2</ele>
        <time>2025-09-14T09:09:13.000Z</time>
      </trkpt>
      <trkpt lat="43.7131" lon="6.06909">
        <ele>475.2</ele>
        <time>2025-09-14T09:09:14.000Z</time>
      </trkpt>
      <trkpt lat="43.7131" lon="6.06909">
        <ele>475.2</ele>
        <time>2025-09-14T09:09:17.000Z</time>
      </trkpt>
      <trkpt lat="43.7131" lon="6.06909">
        <ele>475.2</ele>
        <time>2025-09-14T09:09:18.000Z</time>
      </trkpt>
      <trkpt lat="43.7131" lon="6.06909">
        <ele>475.2</ele>
        <time>2025-09-14T09:09:19.000Z</time>
      </trkpt>
      <trkpt lat="43.7131" lon="6.06909">
        <ele>475.2</ele>
        <time>2025-09-14T09:09:27.000Z</time>
      </trkpt>
      <trkpt lat="43.7131" lon="6.06909">
        <ele>475.2</ele>
        <time>2025-09-14T09:09:28.000Z</time>
      </trkpt>
      <trkpt lat="43.71309" lon="6.06909">
        <ele>475.2</ele>
        <time>2025-09-14T09:09:29.000Z</time>
      </trkpt>
      <trkpt lat="43.71305" lon="6.06907">
        <ele>475.2</ele>
        <time>2025-09-14T09:09:40.000Z</time>
      </trkpt>
      <trkpt lat="43.71305" lon="6.06907">
        <ele>475.2</ele>
        <time>2025-09-14T09:09:41.000Z</time>
      </trkpt>
      <trkpt lat="43.71305" lon="6.06907">
        <ele>475.3</ele>
        <time>2025-09-14T09:10:12.000Z</time>
      </trkpt>
      <trkpt lat="43.71305" lon="6.06907">
        <ele>475.3</ele>
        <time>2025-09-14T09:10:13.000Z</time>
      </trkpt>
      <trkpt lat="43.71305" lon="6.06907">
        <ele>475.3</ele>
        <time>2025-09-14T09:10:14.000Z</time>
      </trkpt>
      <trkpt lat="43.71305" lon="6.06907">
        <ele>475.3</ele>
        <time>2025-09-14T09:10:18.000Z</time>
      </trkpt>
      <trkpt lat="43.71305" lon="6.06907">
        <ele>475.3</ele>
        <time>2025-09-14T09:10:19.000Z</time>
      </trkpt>
      <trkpt lat="43.71304" lon="6.06906">
        <ele>475.2</ele>
        <time>2025-09-14T09:11:02.000Z</time>
      </trkpt>
      <trkpt lat="43.71304" lon="6.06906">
        <ele>475.2</ele>
        <time>2025-09-14T09:11:03.000Z</time>
      </trkpt>
      <trkpt lat="43.71304" lon="6.06906">
        <ele>475.2</ele>
        <time>2025-09-14T09:11:04.000Z</time>
      </trkpt>
      <trkpt lat="43.71295" lon="6.06907">
        <ele>475.2</ele>
        <time>2025-09-14T09:11:19.000Z</time>
      </trkpt>
      <trkpt lat="43.71288" lon="6.06916">
        <ele>474.9</ele>
        <time>2025-09-14T09:11:32.000Z</time>
      </trkpt>
      <trkpt lat="43.71283" lon="6.06927">
        <ele>473.8</ele>
        <time>2025-09-14T09:11:47.000Z</time>
      </trkpt>
      <trkpt lat="43.71279" lon="6.06939">
        <ele>472.1</ele>
        <time>2025-09-14T09:12:00.000Z</time>
      </trkpt>
      <trkpt lat="43.71276" lon="6.06951">
        <ele>470.7</ele>
        <time>2025-09-14T09:12:13.000Z</time>
      </trkpt>
      <trkpt lat="43.71272" lon="6.06963">
        <ele>469.7</ele>
        <time>2025-09-14T09:12:24.000Z</time>
      </trkpt>
      <trkpt lat="43.71267" lon="6.06974">
        <ele>468.7</ele>
        <time>2025-09-14T09:12:38.000Z</time>
      </trkpt>
      <trkpt lat="43.71263" lon="6.06985">
        <ele>467.4</ele>
        <time>2025-09-14T09:12:52.000Z</time>
      </trkpt>
      <trkpt lat="43.71258" lon="6.06996">
        <ele>466.1</ele>
        <time>2025-09-14T09:13:04.000Z</time>
      </trkpt>
      <trkpt lat="43.71253" lon="6.07007">
        <ele>465.2</ele>
        <time>2025-09-14T09:13:16.000Z</time>
      </trkpt>
      <trkpt lat="43.71248" lon="6.07019">
        <ele>464.4</ele>
        <time>2025-09-14T09:13:28.000Z</time>
      </trkpt>
      <trkpt lat="43.71242" lon="6.07029">
        <ele>463.8</ele>
        <time>2025-09-14T09:13:39.000Z</time>
      </trkpt>
      <trkpt lat="43.71237" lon="6.0704">
        <ele>462.9</ele>
        <time>2025-09-14T09:13:52.000Z</time>
      </trkpt>
      <trkpt lat="43.71229" lon="6.07048">
        <ele>462.3</ele>
        <time>2025-09-14T09:14:04.000Z</time>
      </trkpt>
      <trkpt lat="43.71223" lon="6.07057">
        <ele>462</ele>
        <time>2025-09-14T09:14:14.000Z</time>
      </trkpt>
      <trkpt lat="43.71215" lon="6.07067">
        <ele>461.5</ele>
        <time>2025-09-14T09:14:25.000Z</time>
      </trkpt>
      <trkpt lat="43.71208" lon="6.07075">
        <ele>461.2</ele>
        <time>2025-09-14T09:14:38.000Z</time>
      </trkpt>
      <trkpt lat="43.71201" lon="6.07084">
        <ele>460.9</ele>
        <time>2025-09-14T09:14:51.000Z</time>
      </trkpt>
      <trkpt lat="43.71193" lon="6.07092">
        <ele>460.5</ele>
        <time>2025-09-14T09:15:03.000Z</time>
      </trkpt>
      <trkpt lat="43.71184" lon="6.07092">
        <ele>460</ele>
        <time>2025-09-14T09:15:14.000Z</time>
      </trkpt>
      <trkpt lat="43.71178" lon="6.07102">
        <ele>459.8</ele>
        <time>2025-09-14T09:15:23.000Z</time>
      </trkpt>
      <trkpt lat="43.7118" lon="6.07115">
        <ele>459.9</ele>
        <time>2025-09-14T09:15:32.000Z</time>
      </trkpt>
      <trkpt lat="43.71182" lon="6.07122">
        <ele>460.2</ele>
        <time>2025-09-14T09:15:42.000Z</time>
      </trkpt>
      <trkpt lat="43.71182" lon="6.07122">
        <ele>460.2</ele>
        <time>2025-09-14T09:15:43.000Z</time>
      </trkpt>
      <trkpt lat="43.71182" lon="6.07123">
        <ele>460.2</ele>
        <time>2025-09-14T09:15:44.000Z</time>
      </trkpt>
      <trkpt lat="43.71182" lon="6.07124">
        <ele>460.3</ele>
        <time>2025-09-14T09:15:45.000Z</time>
      </trkpt>
      <trkpt lat="43.71182" lon="6.07125">
        <ele>460.3</ele>
        <time>2025-09-14T09:15:46.000Z</time>
      </trkpt>
      <trkpt lat="43.71183" lon="6.07126">
        <ele>460.4</ele>
        <time>2025-09-14T09:15:47.000Z</time>
      </trkpt>
      <trkpt lat="43.71188" lon="6.07137">
        <ele>461</ele>
        <time>2025-09-14T09:15:56.000Z</time>
      </trkpt>
      <trkpt lat="43.7119" lon="6.07149">
        <ele>461.8</ele>
        <time>2025-09-14T09:16:07.000Z</time>
      </trkpt>
      <trkpt lat="43.71192" lon="6.07163">
        <ele>462.5</ele>
        <time>2025-09-14T09:16:20.000Z</time>
      </trkpt>
      <trkpt lat="43.71195" lon="6.07175">
        <ele>463.3</ele>
        <time>2025-09-14T09:16:32.000Z</time>
      </trkpt>
      <trkpt lat="43.712" lon="6.07186">
        <ele>464.1</ele>
        <time>2025-09-14T09:16:43.000Z</time>
      </trkpt>
      <trkpt lat="43.71202" lon="6.07199">
        <ele>464.8</ele>
        <time>2025-09-14T09:16:57.000Z</time>
      </trkpt>
      <trkpt lat="43.71206" lon="6.07211">
        <ele>465.6</ele>
        <time>2025-09-14T09:17:10.000Z</time>
      </trkpt>
      <trkpt lat="43.7121" lon="6.07223">
        <ele>466.2</ele>
        <time>2025-09-14T09:17:19.000Z</time>
      </trkpt>
      <trkpt lat="43.71212" lon="6.07226">
        <ele>467</ele>
        <time>2025-09-14T09:17:33.000Z</time>
      </trkpt>
      <trkpt lat="43.71212" lon="6.07226">
        <ele>467</ele>
        <time>2025-09-14T09:17:34.000Z</time>
      </trkpt>
      <trkpt lat="43.71212" lon="6.07226">
        <ele>467</ele>
        <time>2025-09-14T09:17:35.000Z</time>
      </trkpt>
      <trkpt lat="43.71212" lon="6.07226">
        <ele>467.1</ele>
        <time>2025-09-14T09:17:36.000Z</time>
      </trkpt>
      <trkpt lat="43.71212" lon="6.07226">
        <ele>467.1</ele>
        <time>2025-09-14T09:17:37.000Z</time>
      </trkpt>
      <trkpt lat="43.71213" lon="6.07224">
        <ele>467.2</ele>
        <time>2025-09-14T09:17:45.000Z</time>
      </trkpt>
      <trkpt lat="43.71213" lon="6.07224">
        <ele>467.2</ele>
        <time>2025-09-14T09:17:46.000Z</time>
      </trkpt>
      <trkpt lat="43.71213" lon="6.07225">
        <ele>467.4</ele>
        <time>2025-09-14T09:18:12.000Z</time>
      </trkpt>
      <trkpt lat="43.71214" lon="6.07225">
        <ele>467.4</ele>
        <time>2025-09-14T09:18:13.000Z</time>
      </trkpt>
      <trkpt lat="43.71214" lon="6.07225">
        <ele>467.4</ele>
        <time>2025-09-14T09:18:14.000Z</time>
      </trkpt>
      <trkpt lat="43.71214" lon="6.07225">
        <ele>467.3</ele>
        <time>2025-09-14T09:18:17.000Z</time>
      </trkpt>
      <trkpt lat="43.71214" lon="6.07225">
        <ele>467.4</ele>
        <time>2025-09-14T09:18:18.000Z</time>
      </trkpt>
      <trkpt lat="43.71214" lon="6.07225">
        <ele>467.4</ele>
        <time>2025-09-14T09:18:19.000Z</time>
      </trkpt>
      <trkpt lat="43.71214" lon="6.07225">
        <ele>467.4</ele>
        <time>2025-09-14T09:18:22.000Z</time>
      </trkpt>
      <trkpt lat="43.71214" lon="6.07225">
        <ele>467.4</ele>
        <time>2025-09-14T09:18:23.000Z</time>
      </trkpt>
      <trkpt lat="43.71214" lon="6.07225">
        <ele>467.4</ele>
        <time>2025-09-14T09:18:24.000Z</time>
      </trkpt>
      <trkpt lat="43.71214" lon="6.07225">
        <ele>467.4</ele>
        <time>2025-09-14T09:18:27.000Z</time>
      </trkpt>
      <trkpt lat="43.71214" lon="6.07225">
        <ele>467.4</ele>
        <time>2025-09-14T09:18:28.000Z</time>
      </trkpt>
      <trkpt lat="43.71214" lon="6.07225">
        <ele>467.5</ele>
        <time>2025-09-14T09:18:29.000Z</time>
      </trkpt>
      <trkpt lat="43.71214" lon="6.07225">
        <ele>467.5</ele>
        <time>2025-09-14T09:18:32.000Z</time>
      </trkpt>
      <trkpt lat="43.71214" lon="6.07225">
        <ele>467.5</ele>
        <time>2025-09-14T09:18:33.000Z</time>
      </trkpt>
      <trkpt lat="43.71214" lon="6.07226">
        <ele>467.5</ele>
        <time>2025-09-14T09:18:34.000Z</time>
      </trkpt>
      <trkpt lat="43.71214" lon="6.07226">
        <ele>467.5</ele>
        <time>2025-09-14T09:18:38.000Z</time>
      </trkpt>
      <trkpt lat="43.71214" lon="6.07226">
        <ele>467.5</ele>
        <time>2025-09-14T09:18:39.000Z</time>
      </trkpt>
      <trkpt lat="43.71214" lon="6.07228">
        <ele>467.5</ele>
        <time>2025-09-14T09:18:48.000Z</time>
      </trkpt>
      <trkpt lat="43.71214" lon="6.07229">
        <ele>467.5</ele>
        <time>2025-09-14T09:18:49.000Z</time>
      </trkpt>
      <trkpt lat="43.71214" lon="6.0723">
        <ele>467.5</ele>
        <time>2025-09-14T09:18:50.000Z</time>
      </trkpt>
      <trkpt lat="43.71212" lon="6.07232">
        <ele>467.5</ele>
        <time>2025-09-14T09:19:00.000Z</time>
      </trkpt>
      <trkpt lat="43.71212" lon="6.07232">
        <ele>467.5</ele>
        <time>2025-09-14T09:19:01.000Z</time>
      </trkpt>
      <trkpt lat="43.71212" lon="6.07233">
        <ele>467.5</ele>
        <time>2025-09-14T09:19:02.000Z</time>
      </trkpt>
      <trkpt lat="43.71211" lon="6.07233">
        <ele>467.5</ele>
        <time>2025-09-14T09:19:03.000Z</time>
      </trkpt>
      <trkpt lat="43.71211" lon="6.07233">
        <ele>467.5</ele>
        <time>2025-09-14T09:19:04.000Z</time>
      </trkpt>
      <trkpt lat="43.71206" lon="6.07235">
        <ele>467.4</ele>
        <time>2025-09-14T09:19:17.000Z</time>
      </trkpt>
      <trkpt lat="43.71206" lon="6.07235">
        <ele>467.3</ele>
        <time>2025-09-14T09:19:18.000Z</time>
      </trkpt>
      <trkpt lat="43.71206" lon="6.07235">
        <ele>467.3</ele>
        <time>2025-09-14T09:19:19.000Z</time>
      </trkpt>
      <trkpt lat="43.71206" lon="6.07235">
        <ele>467.3</ele>
        <time>2025-09-14T09:19:20.000Z</time>
      </trkpt>
      <trkpt lat="43.71205" lon="6.07235">
        <ele>467.3</ele>
        <time>2025-09-14T09:19:21.000Z</time>
      </trkpt>
      <trkpt lat="43.71196" lon="6.07236">
        <ele>467</ele>
        <time>2025-09-14T09:19:32.000Z</time>
      </trkpt>
      <trkpt lat="43.71187" lon="6.07239">
        <ele>466</ele>
        <time>2025-09-14T09:19:51.000Z</time>
      </trkpt>
      <trkpt lat="43.71178" lon="6.07238">
        <ele>465.4</ele>
        <time>2025-09-14T09:20:01.000Z</time>
      </trkpt>
      <trkpt lat="43.71169" lon="6.07241">
        <ele>464.8</ele>
        <time>2025-09-14T09:20:11.000Z</time>
      </trkpt>
      <trkpt lat="43.7116" lon="6.07246">
        <ele>464.3</ele>
        <time>2025-09-14T09:20:20.000Z</time>
      </trkpt>
      <trkpt lat="43.71152" lon="6.07252">
        <ele>463.9</ele>
        <time>2025-09-14T09:20:31.000Z</time>
      </trkpt>
      <trkpt lat="43.71143" lon="6.07255">
        <ele>463.6</ele>
        <time>2025-09-14T09:20:39.000Z</time>
      </trkpt>
      <trkpt lat="43.71135" lon="6.07261">
        <ele>463.1</ele>
        <time>2025-09-14T09:20:50.000Z</time>
      </trkpt>
      <trkpt lat="43.71126" lon="6.07266">
        <ele>462.8</ele>
        <time>2025-09-14T09:21:02.000Z</time>
      </trkpt>
      <trkpt lat="43.71119" lon="6.07272">
        <ele>462.7</ele>
        <time>2025-09-14T09:21:12.000Z</time>
      </trkpt>
      <trkpt lat="43.7111" lon="6.07277">
        <ele>462.5</ele>
        <time>2025-09-14T09:21:26.000Z</time>
      </trkpt>
      <trkpt lat="43.71102" lon="6.07282">
        <ele>462.3</ele>
        <time>2025-09-14T09:21:35.000Z</time>
      </trkpt>
      <trkpt lat="43.71095" lon="6.07291">
        <ele>462.1</ele>
        <time>2025-09-14T09:21:45.000Z</time>
      </trkpt>
      <trkpt lat="43.71091" lon="6.07298">
        <ele>462</ele>
        <time>2025-09-14T09:21:58.000Z</time>
      </trkpt>
      <trkpt lat="43.71091" lon="6.07298">
        <ele>461.9</ele>
        <time>2025-09-14T09:21:59.000Z</time>
      </trkpt>
      <trkpt lat="43.71091" lon="6.07298">
        <ele>461.9</ele>
        <time>2025-09-14T09:22:00.000Z</time>
      </trkpt>
      <trkpt lat="43.7109" lon="6.07299">
        <ele>461.7</ele>
        <time>2025-09-14T09:22:22.000Z</time>
      </trkpt>
      <trkpt lat="43.7109" lon="6.07299">
        <ele>461.7</ele>
        <time>2025-09-14T09:22:23.000Z</time>
      </trkpt>
      <trkpt lat="43.7109" lon="6.073">
        <ele>461.7</ele>
        <time>2025-09-14T09:22:24.000Z</time>
      </trkpt>
      <trkpt lat="43.71089" lon="6.07312">
        <ele>461.7</ele>
        <time>2025-09-14T09:22:45.000Z</time>
      </trkpt>
      <trkpt lat="43.71089" lon="6.07312">
        <ele>461.7</ele>
        <time>2025-09-14T09:22:46.000Z</time>
      </trkpt>
      <trkpt lat="43.71089" lon="6.07312">
        <ele>461.7</ele>
        <time>2025-09-14T09:22:47.000Z</time>
      </trkpt>
      <trkpt lat="43.71089" lon="6.07312">
        <ele>461.7</ele>
        <time>2025-09-14T09:22:52.000Z</time>
      </trkpt>
      <trkpt lat="43.71089" lon="6.07313">
        <ele>461.7</ele>
        <time>2025-09-14T09:22:53.000Z</time>
      </trkpt>
      <trkpt lat="43.7109" lon="6.07314">
        <ele>461.7</ele>
        <time>2025-09-14T09:22:54.000Z</time>
      </trkpt>
      <trkpt lat="43.71092" lon="6.07326">
        <ele>461.6</ele>
        <time>2025-09-14T09:23:08.000Z</time>
      </trkpt>
      <trkpt lat="43.71092" lon="6.07339">
        <ele>461.4</ele>
        <time>2025-09-14T09:23:22.000Z</time>
      </trkpt>
      <trkpt lat="43.71099" lon="6.07348">
        <ele>461.1</ele>
        <time>2025-09-14T09:23:32.000Z</time>
      </trkpt>
      <trkpt lat="43.71103" lon="6.0736">
        <ele>460.8</ele>
        <time>2025-09-14T09:23:47.000Z</time>
      </trkpt>
      <trkpt lat="43.71109" lon="6.0737">
        <ele>460.7</ele>
        <time>2025-09-14T09:24:02.000Z</time>
      </trkpt>
      <trkpt lat="43.71114" lon="6.07381">
        <ele>460.6</ele>
        <time>2025-09-14T09:24:18.000Z</time>
      </trkpt>
      <trkpt lat="43.71118" lon="6.07393">
        <ele>460.5</ele>
        <time>2025-09-14T09:24:32.000Z</time>
      </trkpt>
      <trkpt lat="43.71123" lon="6.07404">
        <ele>460.5</ele>
        <time>2025-09-14T09:24:47.000Z</time>
      </trkpt>
      <trkpt lat="43.71124" lon="6.07416">
        <ele>460.2</ele>
        <time>2025-09-14T09:25:04.000Z</time>
      </trkpt>
      <trkpt lat="43.71129" lon="6.07427">
        <ele>459.8</ele>
        <time>2025-09-14T09:25:19.000Z</time>
      </trkpt>
      <trkpt lat="43.71134" lon="6.07438">
        <ele>459.2</ele>
        <time>2025-09-14T09:25:36.000Z</time>
      </trkpt>
      <trkpt lat="43.7114" lon="6.07447">
        <ele>458.6</ele>
        <time>2025-09-14T09:26:00.000Z</time>
      </trkpt>
      <trkpt lat="43.71138" lon="6.0746">
        <ele>456.7</ele>
        <time>2025-09-14T09:26:24.000Z</time>
      </trkpt>
      <trkpt lat="43.71145" lon="6.07467">
        <ele>455.4</ele>
        <time>2025-09-14T09:26:44.000Z</time>
      </trkpt>
      <trkpt lat="43.71146" lon="6.07466">
        <ele>455.4</ele>
        <time>2025-09-14T09:26:52.000Z</time>
      </trkpt>
      <trkpt lat="43.71146" lon="6.07466">
        <ele>455.4</ele>
        <time>2025-09-14T09:26:53.000Z</time>
      </trkpt>
      <trkpt lat="43.71146" lon="6.07466">
        <ele>455.4</ele>
        <time>2025-09-14T09:26:54.000Z</time>
      </trkpt>
      <trkpt lat="43.71146" lon="6.07467">
        <ele>455.4</ele>
        <time>2025-09-14T09:27:32.000Z</time>
      </trkpt>
      <trkpt lat="43.71146" lon="6.07467">
        <ele>455.4</ele>
        <time>2025-09-14T09:27:33.000Z</time>
      </trkpt>
      <trkpt lat="43.71146" lon="6.07468">
        <ele>455.4</ele>
        <time>2025-09-14T09:27:34.000Z</time>
      </trkpt>
      <trkpt lat="43.71147" lon="6.0747">
        <ele>455.3</ele>
        <time>2025-09-14T09:27:45.000Z</time>
      </trkpt>
      <trkpt lat="43.71147" lon="6.0747">
        <ele>455.2</ele>
        <time>2025-09-14T09:27:46.000Z</time>
      </trkpt>
      <trkpt lat="43.71147" lon="6.07472">
        <ele>455</ele>
        <time>2025-09-14T09:28:10.000Z</time>
      </trkpt>
      <trkpt lat="43.71148" lon="6.07473">
        <ele>454.9</ele>
        <time>2025-09-14T09:28:11.000Z</time>
      </trkpt>
      <trkpt lat="43.71154" lon="6.07483">
        <ele>454.5</ele>
        <time>2025-09-14T09:28:23.000Z</time>
      </trkpt>
      <trkpt lat="43.71152" lon="6.07495">
        <ele>451.7</ele>
        <time>2025-09-14T09:28:50.000Z</time>
      </trkpt>
      <trkpt lat="43.71149" lon="6.07507">
        <ele>449</ele>
        <time>2025-09-14T09:29:11.000Z</time>
      </trkpt>
      <trkpt lat="43.71148" lon="6.07519">
        <ele>446.1</ele>
        <time>2025-09-14T09:29:43.000Z</time>
      </trkpt>
      <trkpt lat="43.71148" lon="6.0752">
        <ele>445.8</ele>
        <time>2025-09-14T09:29:47.000Z</time>
      </trkpt>
      <trkpt lat="43.71148" lon="6.0752">
        <ele>445.7</ele>
        <time>2025-09-14T09:29:48.000Z</time>
      </trkpt>
      <trkpt lat="43.71148" lon="6.0752">
        <ele>445.7</ele>
        <time>2025-09-14T09:29:49.000Z</time>
      </trkpt>
      <trkpt lat="43.71148" lon="6.07521">
        <ele>445.3</ele>
        <time>2025-09-14T09:30:00.000Z</time>
      </trkpt>
      <trkpt lat="43.71149" lon="6.07522">
        <ele>445.3</ele>
        <time>2025-09-14T09:30:01.000Z</time>
      </trkpt>
      <trkpt lat="43.71155" lon="6.07531">
        <ele>444.7</ele>
        <time>2025-09-14T09:30:16.000Z</time>
      </trkpt>
      <trkpt lat="43.71164" lon="6.07535">
        <ele>444.4</ele>
        <time>2025-09-14T09:30:34.000Z</time>
      </trkpt>
      <trkpt lat="43.71164" lon="6.07535">
        <ele>444.3</ele>
        <time>2025-09-14T09:30:40.000Z</time>
      </trkpt>
      <trkpt lat="43.71164" lon="6.07535">
        <ele>444.2</ele>
        <time>2025-09-14T09:30:41.000Z</time>
      </trkpt>
      <trkpt lat="43.71164" lon="6.07535">
        <ele>444.2</ele>
        <time>2025-09-14T09:30:42.000Z</time>
      </trkpt>
      <trkpt lat="43.71165" lon="6.07535">
        <ele>444.2</ele>
        <time>2025-09-14T09:30:43.000Z</time>
      </trkpt>
      <trkpt lat="43.71165" lon="6.07535">
        <ele>444.2</ele>
        <time>2025-09-14T09:30:44.000Z</time>
      </trkpt>
      <trkpt lat="43.71165" lon="6.07535">
        <ele>444.1</ele>
        <time>2025-09-14T09:30:45.000Z</time>
      </trkpt>
      <trkpt lat="43.71174" lon="6.07539">
        <ele>443.7</ele>
        <time>2025-09-14T09:31:15.000Z</time>
      </trkpt>
      <trkpt lat="43.71174" lon="6.07539">
        <ele>443.7</ele>
        <time>2025-09-14T09:31:18.000Z</time>
      </trkpt>
      <trkpt lat="43.71174" lon="6.07539">
        <ele>443.6</ele>
        <time>2025-09-14T09:31:19.000Z</time>
      </trkpt>
      <trkpt lat="43.71175" lon="6.07539">
        <ele>443.6</ele>
        <time>2025-09-14T09:31:20.000Z</time>
      </trkpt>
      <trkpt lat="43.71175" lon="6.07539">
        <ele>443.6</ele>
        <time>2025-09-14T09:31:21.000Z</time>
      </trkpt>
      <trkpt lat="43.71176" lon="6.07539">
        <ele>443.6</ele>
        <time>2025-09-14T09:31:22.000Z</time>
      </trkpt>
      <trkpt lat="43.71179" lon="6.07542">
        <ele>443.1</ele>
        <time>2025-09-14T09:31:42.000Z</time>
      </trkpt>
      <trkpt lat="43.71179" lon="6.07542">
        <ele>443</ele>
        <time>2025-09-14T09:31:43.000Z</time>
      </trkpt>
      <trkpt lat="43.71179" lon="6.07542">
        <ele>443</ele>
        <time>2025-09-14T09:31:44.000Z</time>
      </trkpt>
      <trkpt lat="43.71179" lon="6.07543">
        <ele>442.9</ele>
        <time>2025-09-14T09:31:51.000Z</time>
      </trkpt>
      <trkpt lat="43.7118" lon="6.07544">
        <ele>442.8</ele>
        <time>2025-09-14T09:31:52.000Z</time>
      </trkpt>
      <trkpt lat="43.71182" lon="6.07551">
        <ele>442.1</ele>
        <time>2025-09-14T09:32:07.000Z</time>
      </trkpt>
      <trkpt lat="43.71182" lon="6.07551">
        <ele>442</ele>
        <time>2025-09-14T09:32:08.000Z</time>
      </trkpt>
      <trkpt lat="43.71182" lon="6.07552">
        <ele>442</ele>
        <time>2025-09-14T09:32:09.000Z</time>
      </trkpt>
      <trkpt lat="43.71182" lon="6.07552">
        <ele>441.9</ele>
        <time>2025-09-14T09:32:10.000Z</time>
      </trkpt>
      <trkpt lat="43.71182" lon="6.07553">
        <ele>441.9</ele>
        <time>2025-09-14T09:32:11.000Z</time>
      </trkpt>
      <trkpt lat="43.71183" lon="6.07555">
        <ele>441.3</ele>
        <time>2025-09-14T09:32:20.000Z</time>
      </trkpt>
      <trkpt lat="43.71183" lon="6.07555">
        <ele>441.2</ele>
        <time>2025-09-14T09:32:21.000Z</time>
      </trkpt>
      <trkpt lat="43.71184" lon="6.07555">
        <ele>441</ele>
        <time>2025-09-14T09:32:25.000Z</time>
      </trkpt>
      <trkpt lat="43.71184" lon="6.07556">
        <ele>440.9</ele>
        <time>2025-09-14T09:32:26.000Z</time>
      </trkpt>
      <trkpt lat="43.71186" lon="6.07568">
        <ele>439.2</ele>
        <time>2025-09-14T09:32:55.000Z</time>
      </trkpt>
      <trkpt lat="43.71189" lon="6.07572">
        <ele>438.5</ele>
        <time>2025-09-14T09:33:07.000Z</time>
      </trkpt>
      <trkpt lat="43.71189" lon="6.07572">
        <ele>438.5</ele>
        <time>2025-09-14T09:33:08.000Z</time>
      </trkpt>
      <trkpt lat="43.71189" lon="6.07572">
        <ele>438.4</ele>
        <time>2025-09-14T09:33:09.000Z</time>
      </trkpt>
      <trkpt lat="43.71189" lon="6.07571">
        <ele>438.2</ele>
        <time>2025-09-14T09:33:12.000Z</time>
      </trkpt>
      <trkpt lat="43.71189" lon="6.07571">
        <ele>438.1</ele>
        <time>2025-09-14T09:33:13.000Z</time>
      </trkpt>
      <trkpt lat="43.71189" lon="6.07571">
        <ele>438.1</ele>
        <time>2025-09-14T09:33:14.000Z</time>
      </trkpt>
      <trkpt lat="43.71189" lon="6.07571">
        <ele>438.1</ele>
        <time>2025-09-14T09:33:15.000Z</time>
      </trkpt>
      <trkpt lat="43.71189" lon="6.07571">
        <ele>438</ele>
        <time>2025-09-14T09:33:16.000Z</time>
      </trkpt>
      <trkpt lat="43.71189" lon="6.07571">
        <ele>438</ele>
        <time>2025-09-14T09:33:17.000Z</time>
      </trkpt>
      <trkpt lat="43.71189" lon="6.07571">
        <ele>438</ele>
        <time>2025-09-14T09:33:25.000Z</time>
      </trkpt>
      <trkpt lat="43.71189" lon="6.07571">
        <ele>438</ele>
        <time>2025-09-14T09:33:26.000Z</time>
      </trkpt>
      <trkpt lat="43.71189" lon="6.07571">
        <ele>437.9</ele>
        <time>2025-09-14T09:33:27.000Z</time>
      </trkpt>
      <trkpt lat="43.71189" lon="6.07571">
        <ele>437.9</ele>
        <time>2025-09-14T09:33:28.000Z</time>
      </trkpt>
      <trkpt lat="43.71189" lon="6.07571">
        <ele>438</ele>
        <time>2025-09-14T09:33:29.000Z</time>
      </trkpt>
      <trkpt lat="43.71189" lon="6.07571">
        <ele>438</ele>
        <time>2025-09-14T09:33:32.000Z</time>
      </trkpt>
      <trkpt lat="43.71189" lon="6.07571">
        <ele>438</ele>
        <time>2025-09-14T09:33:33.000Z</time>
      </trkpt>
      <trkpt lat="43.71189" lon="6.07571">
        <ele>438</ele>
        <time>2025-09-14T09:33:34.000Z</time>
      </trkpt>
      <trkpt lat="43.71189" lon="6.07571">
        <ele>437.9</ele>
        <time>2025-09-14T09:33:35.000Z</time>
      </trkpt>
      <trkpt lat="43.71189" lon="6.07571">
        <ele>437.9</ele>
        <time>2025-09-14T09:33:36.000Z</time>
      </trkpt>
      <trkpt lat="43.71189" lon="6.07571">
        <ele>437.9</ele>
        <time>2025-09-14T09:33:37.000Z</time>
      </trkpt>
      <trkpt lat="43.71189" lon="6.07571">
        <ele>437.8</ele>
        <time>2025-09-14T09:33:38.000Z</time>
      </trkpt>
      <trkpt lat="43.71189" lon="6.07571">
        <ele>437.8</ele>
        <time>2025-09-14T09:33:39.000Z</time>
      </trkpt>
      <trkpt lat="43.71189" lon="6.07571">
        <ele>437.8</ele>
        <time>2025-09-14T09:33:42.000Z</time>
      </trkpt>
      <trkpt lat="43.71189" lon="6.07571">
        <ele>437.8</ele>
        <time>2025-09-14T09:33:43.000Z</time>
      </trkpt>
      <trkpt lat="43.71189" lon="6.07571">
        <ele>437.8</ele>
        <time>2025-09-14T09:33:44.000Z</time>
      </trkpt>
      <trkpt lat="43.71189" lon="6.07571">
        <ele>437.9</ele>
        <time>2025-09-14T09:33:47.000Z</time>
      </trkpt>
      <trkpt lat="43.71189" lon="6.07571">
        <ele>437.9</ele>
        <time>2025-09-14T09:33:48.000Z</time>
      </trkpt>
      <trkpt lat="43.71189" lon="6.07572">
        <ele>437.9</ele>
        <time>2025-09-14T09:33:49.000Z</time>
      </trkpt>
      <trkpt lat="43.71196" lon="6.07582">
        <ele>437.5</ele>
        <time>2025-09-14T09:34:05.000Z</time>
      </trkpt>
      <trkpt lat="43.71199" lon="6.07594">
        <ele>435.6</ele>
        <time>2025-09-14T09:34:21.000Z</time>
      </trkpt>
      <trkpt lat="43.712" lon="6.07605">
        <ele>433.8</ele>
        <time>2025-09-14T09:34:38.000Z</time>
      </trkpt>
      <trkpt lat="43.712" lon="6.07605">
        <ele>433.7</ele>
        <time>2025-09-14T09:34:39.000Z</time>
      </trkpt>
      <trkpt lat="43.712" lon="6.07605">
        <ele>433.7</ele>
        <time>2025-09-14T09:34:40.000Z</time>
      </trkpt>
      <trkpt lat="43.712" lon="6.07605">
        <ele>433.7</ele>
        <time>2025-09-14T09:34:41.000Z</time>
      </trkpt>
      <trkpt lat="43.712" lon="6.07605">
        <ele>433.6</ele>
        <time>2025-09-14T09:34:42.000Z</time>
      </trkpt>
      <trkpt lat="43.712" lon="6.07605">
        <ele>433.6</ele>
        <time>2025-09-14T09:34:43.000Z</time>
      </trkpt>
      <trkpt lat="43.712" lon="6.07606">
        <ele>433.6</ele>
        <time>2025-09-14T09:34:44.000Z</time>
      </trkpt>
      <trkpt lat="43.71201" lon="6.07606">
        <ele>433.6</ele>
        <time>2025-09-14T09:34:45.000Z</time>
      </trkpt>
      <trkpt lat="43.71201" lon="6.07607">
        <ele>433.5</ele>
        <time>2025-09-14T09:34:46.000Z</time>
      </trkpt>
      <trkpt lat="43.71202" lon="6.07608">
        <ele>433.5</ele>
        <time>2025-09-14T09:34:47.000Z</time>
      </trkpt>
      <trkpt lat="43.71209" lon="6.07616">
        <ele>433.1</ele>
        <time>2025-09-14T09:34:58.000Z</time>
      </trkpt>
      <trkpt lat="43.71216" lon="6.07625">
        <ele>431.7</ele>
        <time>2025-09-14T09:35:13.000Z</time>
      </trkpt>
      <trkpt lat="43.7122" lon="6.07635">
        <ele>429.5</ele>
        <time>2025-09-14T09:35:32.000Z</time>
      </trkpt>
      <trkpt lat="43.7122" lon="6.07635">
        <ele>429.5</ele>
        <time>2025-09-14T09:35:33.000Z</time>
      </trkpt>
      <trkpt lat="43.7122" lon="6.07635">
        <ele>429.4</ele>
        <time>2025-09-14T09:35:34.000Z</time>
      </trkpt>
      <trkpt lat="43.7122" lon="6.07635">
        <ele>429.4</ele>
        <time>2025-09-14T09:35:35.000Z</time>
      </trkpt>
      <trkpt lat="43.7122" lon="6.07635">
        <ele>429.3</ele>
        <time>2025-09-14T09:35:36.000Z</time>
      </trkpt>
      <trkpt lat="43.7122" lon="6.07635">
        <ele>429.3</ele>
        <time>2025-09-14T09:35:37.000Z</time>
      </trkpt>
      <trkpt lat="43.7122" lon="6.07635">
        <ele>429.3</ele>
        <time>2025-09-14T09:35:38.000Z</time>
      </trkpt>
      <trkpt lat="43.7122" lon="6.07635">
        <ele>429.2</ele>
        <time>2025-09-14T09:35:39.000Z</time>
      </trkpt>
      <trkpt lat="43.71221" lon="6.07635">
        <ele>429.2</ele>
        <time>2025-09-14T09:35:40.000Z</time>
      </trkpt>
      <trkpt lat="43.71221" lon="6.07636">
        <ele>429.2</ele>
        <time>2025-09-14T09:35:41.000Z</time>
      </trkpt>
      <trkpt lat="43.71226" lon="6.07647">
        <ele>428.1</ele>
        <time>2025-09-14T09:35:54.000Z</time>
      </trkpt>
      <trkpt lat="43.71231" lon="6.07659">
        <ele>426.1</ele>
        <time>2025-09-14T09:36:05.000Z</time>
      </trkpt>
      <trkpt lat="43.71235" lon="6.0767">
        <ele>424</ele>
        <time>2025-09-14T09:36:18.000Z</time>
      </trkpt>
      <trkpt lat="43.7124" lon="6.07682">
        <ele>422.5</ele>
        <time>2025-09-14T09:36:28.000Z</time>
      </trkpt>
      <trkpt lat="43.71245" lon="6.07693">
        <ele>420.9</ele>
        <time>2025-09-14T09:36:42.000Z</time>
      </trkpt>
      <trkpt lat="43.7125" lon="6.07703">
        <ele>419.8</ele>
        <time>2025-09-14T09:36:54.000Z</time>
      </trkpt>
      <trkpt lat="43.71254" lon="6.07715">
        <ele>418.8</ele>
        <time>2025-09-14T09:37:04.000Z</time>
      </trkpt>
      <trkpt lat="43.71257" lon="6.07727">
        <ele>417.7</ele>
        <time>2025-09-14T09:37:17.000Z</time>
      </trkpt>
      <trkpt lat="43.71263" lon="6.07737">
        <ele>416.6</ele>
        <time>2025-09-14T09:37:29.000Z</time>
      </trkpt>
      <trkpt lat="43.71262" lon="6.0774">
        <ele>415.5</ele>
        <time>2025-09-14T09:37:48.000Z</time>
      </trkpt>
      <trkpt lat="43.71262" lon="6.0774">
        <ele>415.5</ele>
        <time>2025-09-14T09:37:49.000Z</time>
      </trkpt>
      <trkpt lat="43.71262" lon="6.0774">
        <ele>415.3</ele>
        <time>2025-09-14T09:38:16.000Z</time>
      </trkpt>
      <trkpt lat="43.71262" lon="6.0774">
        <ele>415.3</ele>
        <time>2025-09-14T09:38:17.000Z</time>
      </trkpt>
      <trkpt lat="43.71262" lon="6.0774">
        <ele>415.3</ele>
        <time>2025-09-14T09:38:20.000Z</time>
      </trkpt>
      <trkpt lat="43.71262" lon="6.0774">
        <ele>415.3</ele>
        <time>2025-09-14T09:38:21.000Z</time>
      </trkpt>
      <trkpt lat="43.71262" lon="6.07739">
        <ele>415.3</ele>
        <time>2025-09-14T09:38:28.000Z</time>
      </trkpt>
      <trkpt lat="43.71263" lon="6.07739">
        <ele>415.3</ele>
        <time>2025-09-14T09:38:29.000Z</time>
      </trkpt>
      <trkpt lat="43.71263" lon="6.07739">
        <ele>415.2</ele>
        <time>2025-09-14T09:38:30.000Z</time>
      </trkpt>
      <trkpt lat="43.71266" lon="6.07751">
        <ele>415.1</ele>
        <time>2025-09-14T09:38:38.000Z</time>
      </trkpt>
      <trkpt lat="43.71271" lon="6.07762">
        <ele>414.8</ele>
        <time>2025-09-14T09:38:45.000Z</time>
      </trkpt>
      <trkpt lat="43.71277" lon="6.07774">
        <ele>414.1</ele>
        <time>2025-09-14T09:38:52.000Z</time>
      </trkpt>
      <trkpt lat="43.71283" lon="6.07785">
        <ele>412.9</ele>
        <time>2025-09-14T09:39:00.000Z</time>
      </trkpt>
      <trkpt lat="43.71287" lon="6.07796">
        <ele>411.9</ele>
        <time>2025-09-14T09:39:08.000Z</time>
      </trkpt>
      <trkpt lat="43.71288" lon="6.07796">
        <ele>411.4</ele>
        <time>2025-09-14T09:39:13.000Z</time>
      </trkpt>
      <trkpt lat="43.71288" lon="6.07796">
        <ele>411.4</ele>
        <time>2025-09-14T09:39:14.000Z</time>
      </trkpt>
      <trkpt lat="43.71288" lon="6.07796">
        <ele>411.3</ele>
        <time>2025-09-14T09:39:15.000Z</time>
      </trkpt>
      <trkpt lat="43.71289" lon="6.07796">
        <ele>411.2</ele>
        <time>2025-09-14T09:39:18.000Z</time>
      </trkpt>
      <trkpt lat="43.71289" lon="6.07797">
        <ele>411.1</ele>
        <time>2025-09-14T09:39:19.000Z</time>
      </trkpt>
      <trkpt lat="43.71293" lon="6.07808">
        <ele>410.1</ele>
        <time>2025-09-14T09:39:33.000Z</time>
      </trkpt>
      <trkpt lat="43.71293" lon="6.07808">
        <ele>410</ele>
        <time>2025-09-14T09:39:34.000Z</time>
      </trkpt>
      <trkpt lat="43.71293" lon="6.07808">
        <ele>410</ele>
        <time>2025-09-14T09:39:35.000Z</time>
      </trkpt>
      <trkpt lat="43.71292" lon="6.07808">
        <ele>409.3</ele>
        <time>2025-09-14T09:40:01.000Z</time>
      </trkpt>
      <trkpt lat="43.71292" lon="6.07808">
        <ele>409.3</ele>
        <time>2025-09-14T09:40:02.000Z</time>
      </trkpt>
      <trkpt lat="43.71292" lon="6.07808">
        <ele>409.3</ele>
        <time>2025-09-14T09:40:03.000Z</time>
      </trkpt>
      <trkpt lat="43.71292" lon="6.07808">
        <ele>409.3</ele>
        <time>2025-09-14T09:40:04.000Z</time>
      </trkpt>
      <trkpt lat="43.71293" lon="6.07808">
        <ele>409.3</ele>
        <time>2025-09-14T09:40:11.000Z</time>
      </trkpt>
      <trkpt lat="43.71294" lon="6.07808">
        <ele>409.3</ele>
        <time>2025-09-14T09:40:12.000Z</time>
      </trkpt>
      <trkpt lat="43.71296" lon="6.0781">
        <ele>409.2</ele>
        <time>2025-09-14T09:40:18.000Z</time>
      </trkpt>
      <trkpt lat="43.71296" lon="6.0781">
        <ele>409.2</ele>
        <time>2025-09-14T09:40:19.000Z</time>
      </trkpt>
      <trkpt lat="43.71296" lon="6.0781">
        <ele>409.2</ele>
        <time>2025-09-14T09:40:20.000Z</time>
      </trkpt>
      <trkpt lat="43.71296" lon="6.07809">
        <ele>409.1</ele>
        <time>2025-09-14T09:40:35.000Z</time>
      </trkpt>
      <trkpt lat="43.71296" lon="6.07809">
        <ele>409.1</ele>
        <time>2025-09-14T09:40:36.000Z</time>
      </trkpt>
      <trkpt lat="43.71296" lon="6.07809">
        <ele>409.1</ele>
        <time>2025-09-14T09:40:37.000Z</time>
      </trkpt>
      <trkpt lat="43.71296" lon="6.07809">
        <ele>409</ele>
        <time>2025-09-14T09:40:48.000Z</time>
      </trkpt>
      <trkpt lat="43.71296" lon="6.07809">
        <ele>409</ele>
        <time>2025-09-14T09:40:49.000Z</time>
      </trkpt>
      <trkpt lat="43.71296" lon="6.07809">
        <ele>409</ele>
        <time>2025-09-14T09:40:50.000Z</time>
      </trkpt>
      <trkpt lat="43.71296" lon="6.07809">
        <ele>409</ele>
        <time>2025-09-14T09:40:51.000Z</time>
      </trkpt>
      <trkpt lat="43.71296" lon="6.07809">
        <ele>409</ele>
        <time>2025-09-14T09:40:52.000Z</time>
      </trkpt>
      <trkpt lat="43.71296" lon="6.07809">
        <ele>409</ele>
        <time>2025-09-14T09:40:53.000Z</time>
      </trkpt>
      <trkpt lat="43.71296" lon="6.07809">
        <ele>409</ele>
        <time>2025-09-14T09:40:54.000Z</time>
      </trkpt>
      <trkpt lat="43.71296" lon="6.07809">
        <ele>409</ele>
        <time>2025-09-14T09:40:55.000Z</time>
      </trkpt>
      <trkpt lat="43.71296" lon="6.0781">
        <ele>408.9</ele>
        <time>2025-09-14T09:41:15.000Z</time>
      </trkpt>
      <trkpt lat="43.71297" lon="6.0781">
        <ele>408.9</ele>
        <time>2025-09-14T09:41:16.000Z</time>
      </trkpt>
      <trkpt lat="43.71297" lon="6.0781">
        <ele>408.9</ele>
        <time>2025-09-14T09:41:22.000Z</time>
      </trkpt>
      <trkpt lat="43.71297" lon="6.0781">
        <ele>408.9</ele>
        <time>2025-09-14T09:41:23.000Z</time>
      </trkpt>
      <trkpt lat="43.71297" lon="6.0781">
        <ele>408.9</ele>
        <time>2025-09-14T09:41:24.000Z</time>
      </trkpt>
      <trkpt lat="43.71297" lon="6.0781">
        <ele>408.8</ele>
        <time>2025-09-14T09:41:30.000Z</time>
      </trkpt>
      <trkpt lat="43.71297" lon="6.0781">
        <ele>408.8</ele>
        <time>2025-09-14T09:41:31.000Z</time>
      </trkpt>
      <trkpt lat="43.71297" lon="6.0781">
        <ele>408.8</ele>
        <time>2025-09-14T09:41:32.000Z</time>
      </trkpt>
      <trkpt lat="43.71297" lon="6.0781">
        <ele>408.8</ele>
        <time>2025-09-14T09:41:33.000Z</time>
      </trkpt>
      <trkpt lat="43.71297" lon="6.0781">
        <ele>408.8</ele>
        <time>2025-09-14T09:41:34.000Z</time>
      </trkpt>
      <trkpt lat="43.71297" lon="6.0781">
        <ele>408.8</ele>
        <time>2025-09-14T09:41:38.000Z</time>
      </trkpt>
      <trkpt lat="43.71297" lon="6.0781">
        <ele>408.8</ele>
        <time>2025-09-14T09:41:39.000Z</time>
      </trkpt>
      <trkpt lat="43.71297" lon="6.0781">
        <ele>408.8</ele>
        <time>2025-09-14T09:41:40.000Z</time>
      </trkpt>
      <trkpt lat="43.71297" lon="6.0781">
        <ele>408.8</ele>
        <time>2025-09-14T09:41:41.000Z</time>
      </trkpt>
      <trkpt lat="43.71297" lon="6.0781">
        <ele>408.8</ele>
        <time>2025-09-14T09:41:42.000Z</time>
      </trkpt>
      <trkpt lat="43.71297" lon="6.0781">
        <ele>408.7</ele>
        <time>2025-09-14T09:41:55.000Z</time>
      </trkpt>
      <trkpt lat="43.71297" lon="6.0781">
        <ele>408.7</ele>
        <time>2025-09-14T09:41:56.000Z</time>
      </trkpt>
      <trkpt lat="43.71297" lon="6.0781">
        <ele>408.7</ele>
        <time>2025-09-14T09:41:57.000Z</time>
      </trkpt>
      <trkpt lat="43.71297" lon="6.0781">
        <ele>408.8</ele>
        <time>2025-09-14T09:41:58.000Z</time>
      </trkpt>
      <trkpt lat="43.71297" lon="6.0781">
        <ele>408.8</ele>
        <time>2025-09-14T09:41:59.000Z</time>
      </trkpt>
      <trkpt lat="43.71297" lon="6.0781">
        <ele>408.7</ele>
        <time>2025-09-14T09:42:00.000Z</time>
      </trkpt>
      <trkpt lat="43.71297" lon="6.0781">
        <ele>408.7</ele>
        <time>2025-09-14T09:42:07.000Z</time>
      </trkpt>
      <trkpt lat="43.71297" lon="6.0781">
        <ele>408.7</ele>
        <time>2025-09-14T09:42:08.000Z</time>
      </trkpt>
      <trkpt lat="43.71297" lon="6.0781">
        <ele>408.7</ele>
        <time>2025-09-14T09:42:09.000Z</time>
      </trkpt>
      <trkpt lat="43.71297" lon="6.0781">
        <ele>408.7</ele>
        <time>2025-09-14T09:42:10.000Z</time>
      </trkpt>
      <trkpt lat="43.71297" lon="6.0781">
        <ele>408.7</ele>
        <time>2025-09-14T09:42:11.000Z</time>
      </trkpt>
      <trkpt lat="43.71297" lon="6.0781">
        <ele>408.7</ele>
        <time>2025-09-14T09:42:28.000Z</time>
      </trkpt>
      <trkpt lat="43.71297" lon="6.0781">
        <ele>408.7</ele>
        <time>2025-09-14T09:42:29.000Z</time>
      </trkpt>
      <trkpt lat="43.71297" lon="6.0781">
        <ele>408.7</ele>
        <time>2025-09-14T09:42:32.000Z</time>
      </trkpt>
      <trkpt lat="43.71297" lon="6.0781">
        <ele>408.6</ele>
        <time>2025-09-14T09:42:33.000Z</time>
      </trkpt>
      <trkpt lat="43.71297" lon="6.0781">
        <ele>408.6</ele>
        <time>2025-09-14T09:42:34.000Z</time>
      </trkpt>
      <trkpt lat="43.71296" lon="6.0781">
        <ele>408.6</ele>
        <time>2025-09-14T09:42:45.000Z</time>
      </trkpt>
      <trkpt lat="43.71296" lon="6.0781">
        <ele>408.6</ele>
        <time>2025-09-14T09:42:46.000Z</time>
      </trkpt>
      <trkpt lat="43.71296" lon="6.0781">
        <ele>408.6</ele>
        <time>2025-09-14T09:42:50.000Z</time>
      </trkpt>
      <trkpt lat="43.71296" lon="6.0781">
        <ele>408.6</ele>
        <time>2025-09-14T09:42:51.000Z</time>
      </trkpt>
      <trkpt lat="43.71296" lon="6.07811">
        <ele>408.6</ele>
        <time>2025-09-14T09:42:52.000Z</time>
      </trkpt>
      <trkpt lat="43.71296" lon="6.07811">
        <ele>408.6</ele>
        <time>2025-09-14T09:42:53.000Z</time>
      </trkpt>
      <trkpt lat="43.71295" lon="6.07811">
        <ele>408.6</ele>
        <time>2025-09-14T09:42:54.000Z</time>
      </trkpt>
      <trkpt lat="43.71295" lon="6.07816">
        <ele>408.5</ele>
        <time>2025-09-14T09:43:02.000Z</time>
      </trkpt>
      <trkpt lat="43.71295" lon="6.07816">
        <ele>408.5</ele>
        <time>2025-09-14T09:43:03.000Z</time>
      </trkpt>
      <trkpt lat="43.71295" lon="6.07816">
        <ele>408.5</ele>
        <time>2025-09-14T09:43:04.000Z</time>
      </trkpt>
      <trkpt lat="43.71295" lon="6.07816">
        <ele>408.5</ele>
        <time>2025-09-14T09:43:05.000Z</time>
      </trkpt>
      <trkpt lat="43.71295" lon="6.07816">
        <ele>408.5</ele>
        <time>2025-09-14T09:43:06.000Z</time>
      </trkpt>
      <trkpt lat="43.71298" lon="6.07828">
        <ele>408.2</ele>
        <time>2025-09-14T09:43:24.000Z</time>
      </trkpt>
      <trkpt lat="43.71306" lon="6.07835">
        <ele>407.4</ele>
        <time>2025-09-14T09:43:37.000Z</time>
      </trkpt>
      <trkpt lat="43.71315" lon="6.07841">
        <ele>406.2</ele>
        <time>2025-09-14T09:43:51.000Z</time>
      </trkpt>
      <trkpt lat="43.71317" lon="6.07841">
        <ele>405.7</ele>
        <time>2025-09-14T09:43:57.000Z</time>
      </trkpt>
      <trkpt lat="43.71317" lon="6.07841">
        <ele>405.7</ele>
        <time>2025-09-14T09:43:58.000Z</time>
      </trkpt>
      <trkpt lat="43.71318" lon="6.07841">
        <ele>405.6</ele>
        <time>2025-09-14T09:43:59.000Z</time>
      </trkpt>
      <trkpt lat="43.71319" lon="6.0784">
        <ele>405.4</ele>
        <time>2025-09-14T09:44:02.000Z</time>
      </trkpt>
      <trkpt lat="43.71319" lon="6.0784">
        <ele>405.3</ele>
        <time>2025-09-14T09:44:03.000Z</time>
      </trkpt>
      <trkpt lat="43.71319" lon="6.0784">
        <ele>405.2</ele>
        <time>2025-09-14T09:44:04.000Z</time>
      </trkpt>
      <trkpt lat="43.71319" lon="6.0784">
        <ele>405.1</ele>
        <time>2025-09-14T09:44:07.000Z</time>
      </trkpt>
      <trkpt lat="43.71319" lon="6.0784">
        <ele>405.1</ele>
        <time>2025-09-14T09:44:08.000Z</time>
      </trkpt>
      <trkpt lat="43.71319" lon="6.0784">
        <ele>405.1</ele>
        <time>2025-09-14T09:44:09.000Z</time>
      </trkpt>
      <trkpt lat="43.71319" lon="6.0784">
        <ele>405.4</ele>
        <time>2025-09-14T09:44:30.000Z</time>
      </trkpt>
      <trkpt lat="43.71319" lon="6.07841">
        <ele>405.4</ele>
        <time>2025-09-14T09:44:31.000Z</time>
      </trkpt>
      <trkpt lat="43.71327" lon="6.07847">
        <ele>405.2</ele>
        <time>2025-09-14T09:44:43.000Z</time>
      </trkpt>
      <trkpt lat="43.71331" lon="6.0785">
        <ele>404.6</ele>
        <time>2025-09-14T09:44:57.000Z</time>
      </trkpt>
      <trkpt lat="43.71331" lon="6.0785">
        <ele>404.6</ele>
        <time>2025-09-14T09:44:58.000Z</time>
      </trkpt>
      <trkpt lat="43.71331" lon="6.0785">
        <ele>404.6</ele>
        <time>2025-09-14T09:44:59.000Z</time>
      </trkpt>
      <trkpt lat="43.71331" lon="6.0785">
        <ele>404.5</ele>
        <time>2025-09-14T09:45:05.000Z</time>
      </trkpt>
      <trkpt lat="43.71331" lon="6.0785">
        <ele>404.5</ele>
        <time>2025-09-14T09:45:06.000Z</time>
      </trkpt>
      <trkpt lat="43.71332" lon="6.07851">
        <ele>404.5</ele>
        <time>2025-09-14T09:45:07.000Z</time>
      </trkpt>
      <trkpt lat="43.71334" lon="6.07864">
        <ele>404.5</ele>
        <time>2025-09-14T09:45:16.000Z</time>
      </trkpt>
      <trkpt lat="43.71326" lon="6.07871">
        <ele>404.5</ele>
        <time>2025-09-14T09:45:25.000Z</time>
      </trkpt>
      <trkpt lat="43.7132" lon="6.0788">
        <ele>404.9</ele>
        <time>2025-09-14T09:45:36.000Z</time>
      </trkpt>
      <trkpt lat="43.71313" lon="6.07889">
        <ele>405.8</ele>
        <time>2025-09-14T09:45:46.000Z</time>
      </trkpt>
      <trkpt lat="43.71306" lon="6.07898">
        <ele>406.8</ele>
        <time>2025-09-14T09:45:56.000Z</time>
      </trkpt>
      <trkpt lat="43.71296" lon="6.07899">
        <ele>407.8</ele>
        <time>2025-09-14T09:46:12.000Z</time>
      </trkpt>
      <trkpt lat="43.71295" lon="6.07899">
        <ele>407.9</ele>
        <time>2025-09-14T09:46:17.000Z</time>
      </trkpt>
      <trkpt lat="43.71295" lon="6.07899">
        <ele>407.9</ele>
        <time>2025-09-14T09:46:18.000Z</time>
      </trkpt>
      <trkpt lat="43.71295" lon="6.07899">
        <ele>408</ele>
        <time>2025-09-14T09:46:19.000Z</time>
      </trkpt>
      <trkpt lat="43.71295" lon="6.07899">
        <ele>408.1</ele>
        <time>2025-09-14T09:46:31.000Z</time>
      </trkpt>
      <trkpt lat="43.71294" lon="6.079">
        <ele>408.1</ele>
        <time>2025-09-14T09:46:32.000Z</time>
      </trkpt>
      <trkpt lat="43.71291" lon="6.07913">
        <ele>408.2</ele>
        <time>2025-09-14T09:46:43.000Z</time>
      </trkpt>
      <trkpt lat="43.71291" lon="6.07915">
        <ele>408.2</ele>
        <time>2025-09-14T09:46:48.000Z</time>
      </trkpt>
      <trkpt lat="43.71291" lon="6.07915">
        <ele>408.2</ele>
        <time>2025-09-14T09:46:49.000Z</time>
      </trkpt>
      <trkpt lat="43.71291" lon="6.07915">
        <ele>408.3</ele>
        <time>2025-09-14T09:46:50.000Z</time>
      </trkpt>
      <trkpt lat="43.71291" lon="6.07915">
        <ele>408.3</ele>
        <time>2025-09-14T09:46:51.000Z</time>
      </trkpt>
      <trkpt lat="43.71291" lon="6.07915">
        <ele>408.2</ele>
        <time>2025-09-14T09:46:52.000Z</time>
      </trkpt>
      <trkpt lat="43.71291" lon="6.07916">
        <ele>408.2</ele>
        <time>2025-09-14T09:46:56.000Z</time>
      </trkpt>
      <trkpt lat="43.71291" lon="6.07916">
        <ele>408.2</ele>
        <time>2025-09-14T09:46:57.000Z</time>
      </trkpt>
      <trkpt lat="43.7129" lon="6.07916">
        <ele>408.3</ele>
        <time>2025-09-14T09:47:05.000Z</time>
      </trkpt>
      <trkpt lat="43.71289" lon="6.07916">
        <ele>408.3</ele>
        <time>2025-09-14T09:47:06.000Z</time>
      </trkpt>
      <trkpt lat="43.71288" lon="6.07917">
        <ele>408.3</ele>
        <time>2025-09-14T09:47:07.000Z</time>
      </trkpt>
      <trkpt lat="43.71288" lon="6.07931">
        <ele>408.4</ele>
        <time>2025-09-14T09:47:19.000Z</time>
      </trkpt>
      <trkpt lat="43.71286" lon="6.07943">
        <ele>408.6</ele>
        <time>2025-09-14T09:47:30.000Z</time>
      </trkpt>
      <trkpt lat="43.7128" lon="6.07954">
        <ele>408.8</ele>
        <time>2025-09-14T09:47:40.000Z</time>
      </trkpt>
      <trkpt lat="43.71277" lon="6.07967">
        <ele>408.9</ele>
        <time>2025-09-14T09:47:51.000Z</time>
      </trkpt>
      <trkpt lat="43.71279" lon="6.07979">
        <ele>409</ele>
        <time>2025-09-14T09:48:04.000Z</time>
      </trkpt>
      <trkpt lat="43.71282" lon="6.07992">
        <ele>409.2</ele>
        <time>2025-09-14T09:48:17.000Z</time>
      </trkpt>
      <trkpt lat="43.71288" lon="6.08002">
        <ele>409.3</ele>
        <time>2025-09-14T09:48:35.000Z</time>
      </trkpt>
      <trkpt lat="43.71294" lon="6.08011">
        <ele>409.4</ele>
        <time>2025-09-14T09:48:53.000Z</time>
      </trkpt>
      <trkpt lat="43.71302" lon="6.08018">
        <ele>409.5</ele>
        <time>2025-09-14T09:49:07.000Z</time>
      </trkpt>
      <trkpt lat="43.7131" lon="6.08024">
        <ele>409.5</ele>
        <time>2025-09-14T09:49:21.000Z</time>
      </trkpt>
      <trkpt lat="43.71316" lon="6.08032">
        <ele>409.5</ele>
        <time>2025-09-14T09:49:38.000Z</time>
      </trkpt>
      <trkpt lat="43.71316" lon="6.08032">
        <ele>409.5</ele>
        <time>2025-09-14T09:49:39.000Z</time>
      </trkpt>
      <trkpt lat="43.71316" lon="6.08032">
        <ele>409.5</ele>
        <time>2025-09-14T09:49:40.000Z</time>
      </trkpt>
      <trkpt lat="43.71318" lon="6.08033">
        <ele>409.5</ele>
        <time>2025-09-14T09:49:45.000Z</time>
      </trkpt>
      <trkpt lat="43.71319" lon="6.08033">
        <ele>409.5</ele>
        <time>2025-09-14T09:49:46.000Z</time>
      </trkpt>
      <trkpt lat="43.7132" lon="6.08032">
        <ele>409.5</ele>
        <time>2025-09-14T09:49:47.000Z</time>
      </trkpt>
      <trkpt lat="43.71321" lon="6.0803">
        <ele>409.5</ele>
        <time>2025-09-14T09:49:56.000Z</time>
      </trkpt>
      <trkpt lat="43.71321" lon="6.0803">
        <ele>409.5</ele>
        <time>2025-09-14T09:49:57.000Z</time>
      </trkpt>
      <trkpt lat="43.71321" lon="6.0803">
        <ele>409.5</ele>
        <time>2025-09-14T09:50:03.000Z</time>
      </trkpt>
      <trkpt lat="43.7132" lon="6.0803">
        <ele>409.5</ele>
        <time>2025-09-14T09:50:04.000Z</time>
      </trkpt>
      <trkpt lat="43.71328" lon="6.08038">
        <ele>409.4</ele>
        <time>2025-09-14T09:50:14.000Z</time>
      </trkpt>
      <trkpt lat="43.71337" lon="6.08042">
        <ele>409.4</ele>
        <time>2025-09-14T09:50:21.000Z</time>
      </trkpt>
      <trkpt lat="43.71346" lon="6.08044">
        <ele>409.4</ele>
        <time>2025-09-14T09:50:29.000Z</time>
      </trkpt>
      <trkpt lat="43.71355" lon="6.08047">
        <ele>409.5</ele>
        <time>2025-09-14T09:50:37.000Z</time>
      </trkpt>
      <trkpt lat="43.71363" lon="6.08047">
        <ele>409.6</ele>
        <time>2025-09-14T09:50:48.000Z</time>
      </trkpt>
      <trkpt lat="43.71363" lon="6.08047">
        <ele>409.6</ele>
        <time>2025-09-14T09:50:49.000Z</time>
      </trkpt>
      <trkpt lat="43.71363" lon="6.08047">
        <ele>409.6</ele>
        <time>2025-09-14T09:50:50.000Z</time>
      </trkpt>
      <trkpt lat="43.71363" lon="6.08047">
        <ele>409.7</ele>
        <time>2025-09-14T09:50:58.000Z</time>
      </trkpt>
      <trkpt lat="43.71364" lon="6.08047">
        <ele>409.7</ele>
        <time>2025-09-14T09:50:59.000Z</time>
      </trkpt>
      <trkpt lat="43.71364" lon="6.08047">
        <ele>409.7</ele>
        <time>2025-09-14T09:51:00.000Z</time>
      </trkpt>
      <trkpt lat="43.71373" lon="6.08043">
        <ele>410</ele>
        <time>2025-09-14T09:51:10.000Z</time>
      </trkpt>
      <trkpt lat="43.7138" lon="6.08052">
        <ele>410.2</ele>
        <time>2025-09-14T09:51:18.000Z</time>
      </trkpt>
      <trkpt lat="43.71389" lon="6.08057">
        <ele>410.4</ele>
        <time>2025-09-14T09:51:27.000Z</time>
      </trkpt>
      <trkpt lat="43.71391" lon="6.0807">
        <ele>410.4</ele>
        <time>2025-09-14T09:51:37.000Z</time>
      </trkpt>
      <trkpt lat="43.71398" lon="6.08079">
        <ele>410.2</ele>
        <time>2025-09-14T09:51:49.000Z</time>
      </trkpt>
      <trkpt lat="43.71407" lon="6.08083">
        <ele>409.8</ele>
        <time>2025-09-14T09:52:00.000Z</time>
      </trkpt>
      <trkpt lat="43.71416" lon="6.08083">
        <ele>409.5</ele>
        <time>2025-09-14T09:52:12.000Z</time>
      </trkpt>
      <trkpt lat="43.71424" lon="6.08077">
        <ele>409.4</ele>
        <time>2025-09-14T09:52:22.000Z</time>
      </trkpt>
      <trkpt lat="43.71434" lon="6.08078">
        <ele>409.5</ele>
        <time>2025-09-14T09:52:37.000Z</time>
      </trkpt>
      <trkpt lat="43.7144" lon="6.08088">
        <ele>409.5</ele>
        <time>2025-09-14T09:52:54.000Z</time>
      </trkpt>
      <trkpt lat="43.71446" lon="6.08093">
        <ele>409.5</ele>
        <time>2025-09-14T09:53:13.000Z</time>
      </trkpt>
      <trkpt lat="43.71446" lon="6.08094">
        <ele>409.5</ele>
        <time>2025-09-14T09:53:14.000Z</time>
      </trkpt>
      <trkpt lat="43.71446" lon="6.08095">
        <ele>409.5</ele>
        <time>2025-09-14T09:53:15.000Z</time>
      </trkpt>
      <trkpt lat="43.71446" lon="6.08096">
        <ele>409.5</ele>
        <time>2025-09-14T09:53:16.000Z</time>
      </trkpt>
      <trkpt lat="43.71453" lon="6.08105">
        <ele>409.5</ele>
        <time>2025-09-14T09:53:26.000Z</time>
      </trkpt>
      <trkpt lat="43.71458" lon="6.08116">
        <ele>409.5</ele>
        <time>2025-09-14T09:53:38.000Z</time>
      </trkpt>
      <trkpt lat="43.71458" lon="6.08123">
        <ele>409.5</ele>
        <time>2025-09-14T09:53:55.000Z</time>
      </trkpt>
      <trkpt lat="43.71458" lon="6.08123">
        <ele>409.5</ele>
        <time>2025-09-14T09:53:56.000Z</time>
      </trkpt>
      <trkpt lat="43.71458" lon="6.08124">
        <ele>409.4</ele>
        <time>2025-09-14T09:54:00.000Z</time>
      </trkpt>
      <trkpt lat="43.71458" lon="6.08125">
        <ele>409.4</ele>
        <time>2025-09-14T09:54:01.000Z</time>
      </trkpt>
      <trkpt lat="43.71463" lon="6.08135">
        <ele>408.4</ele>
        <time>2025-09-14T09:54:27.000Z</time>
      </trkpt>
      <trkpt lat="43.71466" lon="6.08147">
        <ele>407.7</ele>
        <time>2025-09-14T09:54:43.000Z</time>
      </trkpt>
      <trkpt lat="43.71469" lon="6.0816">
        <ele>406.8</ele>
        <time>2025-09-14T09:55:03.000Z</time>
      </trkpt>
      <trkpt lat="43.71474" lon="6.08171">
        <ele>405.6</ele>
        <time>2025-09-14T09:55:18.000Z</time>
      </trkpt>
      <trkpt lat="43.71479" lon="6.08182">
        <ele>404.7</ele>
        <time>2025-09-14T09:55:30.000Z</time>
      </trkpt>
      <trkpt lat="43.71482" lon="6.08194">
        <ele>403.9</ele>
        <time>2025-09-14T09:55:47.000Z</time>
      </trkpt>
      <trkpt lat="43.71485" lon="6.08206">
        <ele>402.9</ele>
        <time>2025-09-14T09:56:05.000Z</time>
      </trkpt>
      <trkpt lat="43.71492" lon="6.08215">
        <ele>402.4</ele>
        <time>2025-09-14T09:56:19.000Z</time>
      </trkpt>
      <trkpt lat="43.71498" lon="6.08225">
        <ele>402.4</ele>
        <time>2025-09-14T09:56:33.000Z</time>
      </trkpt>
      <trkpt lat="43.715" lon="6.08224">
        <ele>402.5</ele>
        <time>2025-09-14T09:56:47.000Z</time>
      </trkpt>
      <trkpt lat="43.715" lon="6.08224">
        <ele>402.5</ele>
        <time>2025-09-14T09:56:48.000Z</time>
      </trkpt>
      <trkpt lat="43.715" lon="6.08224">
        <ele>402.5</ele>
        <time>2025-09-14T09:56:49.000Z</time>
      </trkpt>
      <trkpt lat="43.715" lon="6.08224">
        <ele>402.6</ele>
        <time>2025-09-14T09:56:50.000Z</time>
      </trkpt>
      <trkpt lat="43.715" lon="6.08224">
        <ele>402.6</ele>
        <time>2025-09-14T09:56:51.000Z</time>
      </trkpt>
      <trkpt lat="43.715" lon="6.08224">
        <ele>402.6</ele>
        <time>2025-09-14T09:56:52.000Z</time>
      </trkpt>
      <trkpt lat="43.715" lon="6.08224">
        <ele>402.6</ele>
        <time>2025-09-14T09:56:53.000Z</time>
      </trkpt>
      <trkpt lat="43.715" lon="6.08224">
        <ele>402.6</ele>
        <time>2025-09-14T09:56:54.000Z</time>
      </trkpt>
      <trkpt lat="43.715" lon="6.08224">
        <ele>402.6</ele>
        <time>2025-09-14T09:56:57.000Z</time>
      </trkpt>
      <trkpt lat="43.715" lon="6.08224">
        <ele>402.6</ele>
        <time>2025-09-14T09:56:58.000Z</time>
      </trkpt>
      <trkpt lat="43.71499" lon="6.08224">
        <ele>402.5</ele>
        <time>2025-09-14T09:56:59.000Z</time>
      </trkpt>
      <trkpt lat="43.71502" lon="6.08237">
        <ele>402.6</ele>
        <time>2025-09-14T09:57:10.000Z</time>
      </trkpt>
      <trkpt lat="43.7151" lon="6.08244">
        <ele>402.7</ele>
        <time>2025-09-14T09:57:19.000Z</time>
      </trkpt>
      <trkpt lat="43.71519" lon="6.08248">
        <ele>403.1</ele>
        <time>2025-09-14T09:57:29.000Z</time>
      </trkpt>
      <trkpt lat="43.71528" lon="6.08249">
        <ele>403.7</ele>
        <time>2025-09-14T09:57:38.000Z</time>
      </trkpt>
      <trkpt lat="43.71534" lon="6.08254">
        <ele>404.3</ele>
        <time>2025-09-14T09:57:55.000Z</time>
      </trkpt>
      <trkpt lat="43.71534" lon="6.08254">
        <ele>404.3</ele>
        <time>2025-09-14T09:57:56.000Z</time>
      </trkpt>
      <trkpt lat="43.71534" lon="6.08254">
        <ele>404.3</ele>
        <time>2025-09-14T09:57:57.000Z</time>
      </trkpt>
      <trkpt lat="43.71534" lon="6.08254">
        <ele>404.3</ele>
        <time>2025-09-14T09:57:58.000Z</time>
      </trkpt>
      <trkpt lat="43.71534" lon="6.08254">
        <ele>404.3</ele>
        <time>2025-09-14T09:57:59.000Z</time>
      </trkpt>
      <trkpt lat="43.71534" lon="6.08254">
        <ele>404.3</ele>
        <time>2025-09-14T09:58:00.000Z</time>
      </trkpt>
      <trkpt lat="43.71534" lon="6.08254">
        <ele>404.3</ele>
        <time>2025-09-14T09:58:01.000Z</time>
      </trkpt>
      <trkpt lat="43.71534" lon="6.08254">
        <ele>404.3</ele>
        <time>2025-09-14T09:58:07.000Z</time>
      </trkpt>
      <trkpt lat="43.71534" lon="6.08254">
        <ele>404.3</ele>
        <time>2025-09-14T09:58:08.000Z</time>
      </trkpt>
      <trkpt lat="43.71534" lon="6.08253">
        <ele>404.3</ele>
        <time>2025-09-14T09:58:09.000Z</time>
      </trkpt>
      <trkpt lat="43.71543" lon="6.08258">
        <ele>404.2</ele>
        <time>2025-09-14T09:58:18.000Z</time>
      </trkpt>
      <trkpt lat="43.71551" lon="6.08265">
        <ele>404</ele>
        <time>2025-09-14T09:58:30.000Z</time>
      </trkpt>
      <trkpt lat="43.71555" lon="6.08276">
        <ele>403.9</ele>
        <time>2025-09-14T09:58:45.000Z</time>
      </trkpt>
      <trkpt lat="43.71562" lon="6.08284">
        <ele>404.4</ele>
        <time>2025-09-14T09:59:03.000Z</time>
      </trkpt>
      <trkpt lat="43.71565" lon="6.08296">
        <ele>405.5</ele>
        <time>2025-09-14T09:59:19.000Z</time>
      </trkpt>
      <trkpt lat="43.71569" lon="6.08308">
        <ele>406.2</ele>
        <time>2025-09-14T09:59:33.000Z</time>
      </trkpt>
      <trkpt lat="43.71571" lon="6.08311">
        <ele>406.6</ele>
        <time>2025-09-14T09:59:40.000Z</time>
      </trkpt>
      <trkpt lat="43.71571" lon="6.08311">
        <ele>406.6</ele>
        <time>2025-09-14T09:59:41.000Z</time>
      </trkpt>
      <trkpt lat="43.71571" lon="6.08311">
        <ele>406.7</ele>
        <time>2025-09-14T09:59:42.000Z</time>
      </trkpt>
      <trkpt lat="43.71572" lon="6.08313">
        <ele>406.7</ele>
        <time>2025-09-14T09:59:46.000Z</time>
      </trkpt>
      <trkpt lat="43.71572" lon="6.08313">
        <ele>406.7</ele>
        <time>2025-09-14T09:59:47.000Z</time>
      </trkpt>
      <trkpt lat="43.7157" lon="6.08326">
        <ele>406.7</ele>
        <time>2025-09-14T09:59:57.000Z</time>
      </trkpt>
      <trkpt lat="43.7157" lon="6.08332">
        <ele>406.6</ele>
        <time>2025-09-14T10:00:10.000Z</time>
      </trkpt>
      <trkpt lat="43.7157" lon="6.08332">
        <ele>406.6</ele>
        <time>2025-09-14T10:00:11.000Z</time>
      </trkpt>
      <trkpt lat="43.71571" lon="6.08331">
        <ele>406.6</ele>
        <time>2025-09-14T10:00:20.000Z</time>
      </trkpt>
      <trkpt lat="43.71571" lon="6.08331">
        <ele>406.6</ele>
        <time>2025-09-14T10:00:21.000Z</time>
      </trkpt>
      <trkpt lat="43.71571" lon="6.08331">
        <ele>406.6</ele>
        <time>2025-09-14T10:00:22.000Z</time>
      </trkpt>
      <trkpt lat="43.71571" lon="6.08331">
        <ele>406.6</ele>
        <time>2025-09-14T10:00:23.000Z</time>
      </trkpt>
      <trkpt lat="43.71571" lon="6.08331">
        <ele>406.6</ele>
        <time>2025-09-14T10:00:24.000Z</time>
      </trkpt>
      <trkpt lat="43.71571" lon="6.0833">
        <ele>406.6</ele>
        <time>2025-09-14T10:00:25.000Z</time>
      </trkpt>
      <trkpt lat="43.71571" lon="6.0833">
        <ele>406.6</ele>
        <time>2025-09-14T10:00:26.000Z</time>
      </trkpt>
      <trkpt lat="43.71571" lon="6.0833">
        <ele>406.6</ele>
        <time>2025-09-14T10:00:30.000Z</time>
      </trkpt>
      <trkpt lat="43.71571" lon="6.0833">
        <ele>406.6</ele>
        <time>2025-09-14T10:00:31.000Z</time>
      </trkpt>
      <trkpt lat="43.71572" lon="6.0833">
        <ele>406.5</ele>
        <time>2025-09-14T10:00:55.000Z</time>
      </trkpt>
      <trkpt lat="43.71573" lon="6.0833">
        <ele>406.5</ele>
        <time>2025-09-14T10:00:56.000Z</time>
      </trkpt>
      <trkpt lat="43.71574" lon="6.0833">
        <ele>406.6</ele>
        <time>2025-09-14T10:01:02.000Z</time>
      </trkpt>
      <trkpt lat="43.71574" lon="6.0833">
        <ele>406.6</ele>
        <time>2025-09-14T10:01:03.000Z</time>
      </trkpt>
      <trkpt lat="43.71574" lon="6.0833">
        <ele>406.6</ele>
        <time>2025-09-14T10:01:04.000Z</time>
      </trkpt>
      <trkpt lat="43.71574" lon="6.08331">
        <ele>406.6</ele>
        <time>2025-09-14T10:01:05.000Z</time>
      </trkpt>
      <trkpt lat="43.71574" lon="6.08331">
        <ele>406.6</ele>
        <time>2025-09-14T10:01:06.000Z</time>
      </trkpt>
      <trkpt lat="43.71575" lon="6.08331">
        <ele>406.6</ele>
        <time>2025-09-14T10:01:07.000Z</time>
      </trkpt>
      <trkpt lat="43.7158" lon="6.08341">
        <ele>406.8</ele>
        <time>2025-09-14T10:01:29.000Z</time>
      </trkpt>
      <trkpt lat="43.71582" lon="6.08347">
        <ele>407.1</ele>
        <time>2025-09-14T10:01:40.000Z</time>
      </trkpt>
      <trkpt lat="43.71582" lon="6.08347">
        <ele>407.1</ele>
        <time>2025-09-14T10:01:41.000Z</time>
      </trkpt>
      <trkpt lat="43.71583" lon="6.08346">
        <ele>407.2</ele>
        <time>2025-09-14T10:01:51.000Z</time>
      </trkpt>
      <trkpt lat="43.71584" lon="6.08346">
        <ele>407.2</ele>
        <time>2025-09-14T10:01:52.000Z</time>
      </trkpt>
      <trkpt lat="43.71586" lon="6.08346">
        <ele>407.3</ele>
        <time>2025-09-14T10:02:00.000Z</time>
      </trkpt>
      <trkpt lat="43.71586" lon="6.08346">
        <ele>407.3</ele>
        <time>2025-09-14T10:02:01.000Z</time>
      </trkpt>
      <trkpt lat="43.71588" lon="6.08347">
        <ele>407.4</ele>
        <time>2025-09-14T10:02:08.000Z</time>
      </trkpt>
      <trkpt lat="43.71589" lon="6.08347">
        <ele>407.4</ele>
        <time>2025-09-14T10:02:09.000Z</time>
      </trkpt>
      <trkpt lat="43.71593" lon="6.08359">
        <ele>407.6</ele>
        <time>2025-09-14T10:02:28.000Z</time>
      </trkpt>
      <trkpt lat="43.71599" lon="6.08369">
        <ele>408.4</ele>
        <time>2025-09-14T10:02:44.000Z</time>
      </trkpt>
      <trkpt lat="43.71601" lon="6.0838">
        <ele>408.9</ele>
        <time>2025-09-14T10:03:05.000Z</time>
      </trkpt>
      <trkpt lat="43.71601" lon="6.0838">
        <ele>408.9</ele>
        <time>2025-09-14T10:03:06.000Z</time>
      </trkpt>
      <trkpt lat="43.71602" lon="6.08381">
        <ele>408.9</ele>
        <time>2025-09-14T10:03:07.000Z</time>
      </trkpt>
      <trkpt lat="43.71602" lon="6.08382">
        <ele>408.9</ele>
        <time>2025-09-14T10:03:08.000Z</time>
      </trkpt>
      <trkpt lat="43.71602" lon="6.08382">
        <ele>408.9</ele>
        <time>2025-09-14T10:03:09.000Z</time>
      </trkpt>
      <trkpt lat="43.71605" lon="6.08394">
        <ele>408.9</ele>
        <time>2025-09-14T10:03:25.000Z</time>
      </trkpt>
      <trkpt lat="43.71612" lon="6.08403">
        <ele>408.9</ele>
        <time>2025-09-14T10:03:41.000Z</time>
      </trkpt>
      <trkpt lat="43.71615" lon="6.08408">
        <ele>409</ele>
        <time>2025-09-14T10:03:57.000Z</time>
      </trkpt>
      <trkpt lat="43.71615" lon="6.08408">
        <ele>409</ele>
        <time>2025-09-14T10:03:58.000Z</time>
      </trkpt>
      <trkpt lat="43.71615" lon="6.08409">
        <ele>409</ele>
        <time>2025-09-14T10:03:59.000Z</time>
      </trkpt>
      <trkpt lat="43.71615" lon="6.08409">
        <ele>409</ele>
        <time>2025-09-14T10:04:00.000Z</time>
      </trkpt>
      <trkpt lat="43.71615" lon="6.0841">
        <ele>409</ele>
        <time>2025-09-14T10:04:01.000Z</time>
      </trkpt>
      <trkpt lat="43.71624" lon="6.08415">
        <ele>408.9</ele>
        <time>2025-09-14T10:04:18.000Z</time>
      </trkpt>
      <trkpt lat="43.71633" lon="6.08421">
        <ele>409</ele>
        <time>2025-09-14T10:04:36.000Z</time>
      </trkpt>
      <trkpt lat="43.71641" lon="6.08426">
        <ele>409.5</ele>
        <time>2025-09-14T10:04:52.000Z</time>
      </trkpt>
      <trkpt lat="43.7165" lon="6.08431">
        <ele>409.9</ele>
        <time>2025-09-14T10:05:08.000Z</time>
      </trkpt>
      <trkpt lat="43.71658" lon="6.08438">
        <ele>410.2</ele>
        <time>2025-09-14T10:05:24.000Z</time>
      </trkpt>
      <trkpt lat="43.71666" lon="6.08444">
        <ele>410.4</ele>
        <time>2025-09-14T10:05:40.000Z</time>
      </trkpt>
      <trkpt lat="43.71674" lon="6.0845">
        <ele>410.5</ele>
        <time>2025-09-14T10:05:53.000Z</time>
      </trkpt>
      <trkpt lat="43.71682" lon="6.08457">
        <ele>410.6</ele>
        <time>2025-09-14T10:06:08.000Z</time>
      </trkpt>
      <trkpt lat="43.71688" lon="6.08466">
        <ele>410.7</ele>
        <time>2025-09-14T10:06:26.000Z</time>
      </trkpt>
      <trkpt lat="43.71691" lon="6.08479">
        <ele>410.6</ele>
        <time>2025-09-14T10:06:41.000Z</time>
      </trkpt>
      <trkpt lat="43.71693" lon="6.08492">
        <ele>410.4</ele>
        <time>2025-09-14T10:07:05.000Z</time>
      </trkpt>
      <trkpt lat="43.71696" lon="6.08504">
        <ele>409.9</ele>
        <time>2025-09-14T10:07:27.000Z</time>
      </trkpt>
      <trkpt lat="43.71702" lon="6.08515">
        <ele>409.6</ele>
        <time>2025-09-14T10:07:44.000Z</time>
      </trkpt>
      <trkpt lat="43.71704" lon="6.08527">
        <ele>409.6</ele>
        <time>2025-09-14T10:07:54.000Z</time>
      </trkpt>
      <trkpt lat="43.71705" lon="6.08539">
        <ele>409.2</ele>
        <time>2025-09-14T10:08:20.000Z</time>
      </trkpt>
      <trkpt lat="43.71713" lon="6.08546">
        <ele>409.1</ele>
        <time>2025-09-14T10:08:33.000Z</time>
      </trkpt>
      <trkpt lat="43.71719" lon="6.08557">
        <ele>409.1</ele>
        <time>2025-09-14T10:08:50.000Z</time>
      </trkpt>
      <trkpt lat="43.71728" lon="6.08556">
        <ele>409.5</ele>
        <time>2025-09-14T10:09:07.000Z</time>
      </trkpt>
      <trkpt lat="43.71736" lon="6.08563">
        <ele>410.1</ele>
        <time>2025-09-14T10:09:19.000Z</time>
      </trkpt>
      <trkpt lat="43.71744" lon="6.0857">
        <ele>410.5</ele>
        <time>2025-09-14T10:09:35.000Z</time>
      </trkpt>
      <trkpt lat="43.71747" lon="6.08583">
        <ele>410.9</ele>
        <time>2025-09-14T10:09:55.000Z</time>
      </trkpt>
      <trkpt lat="43.71755" lon="6.0859">
        <ele>411.1</ele>
        <time>2025-09-14T10:10:07.000Z</time>
      </trkpt>
      <trkpt lat="43.71762" lon="6.08598">
        <ele>411.3</ele>
        <time>2025-09-14T10:10:22.000Z</time>
      </trkpt>
      <trkpt lat="43.71769" lon="6.08606">
        <ele>411.8</ele>
        <time>2025-09-14T10:10:36.000Z</time>
      </trkpt>
      <trkpt lat="43.71776" lon="6.08614">
        <ele>412.1</ele>
        <time>2025-09-14T10:10:52.000Z</time>
      </trkpt>
      <trkpt lat="43.71783" lon="6.08624">
        <ele>412.7</ele>
        <time>2025-09-14T10:11:12.000Z</time>
      </trkpt>
      <trkpt lat="43.71784" lon="6.08637">
        <ele>412.8</ele>
        <time>2025-09-14T10:11:28.000Z</time>
      </trkpt>
      <trkpt lat="43.71784" lon="6.08639">
        <ele>412.8</ele>
        <time>2025-09-14T10:11:33.000Z</time>
      </trkpt>
      <trkpt lat="43.71785" lon="6.08639">
        <ele>412.8</ele>
        <time>2025-09-14T10:11:34.000Z</time>
      </trkpt>
      <trkpt lat="43.71785" lon="6.0864">
        <ele>412.8</ele>
        <time>2025-09-14T10:11:35.000Z</time>
      </trkpt>
      <trkpt lat="43.71786" lon="6.0864">
        <ele>412.8</ele>
        <time>2025-09-14T10:11:36.000Z</time>
      </trkpt>
      <trkpt lat="43.71786" lon="6.08641">
        <ele>412.8</ele>
        <time>2025-09-14T10:11:37.000Z</time>
      </trkpt>
      <trkpt lat="43.71795" lon="6.08647">
        <ele>412.8</ele>
        <time>2025-09-14T10:12:00.000Z</time>
      </trkpt>
      <trkpt lat="43.71799" lon="6.08649">
        <ele>412.8</ele>
        <time>2025-09-14T10:12:10.000Z</time>
      </trkpt>
      <trkpt lat="43.71799" lon="6.08649">
        <ele>412.8</ele>
        <time>2025-09-14T10:12:11.000Z</time>
      </trkpt>
      <trkpt lat="43.71799" lon="6.08649">
        <ele>412.8</ele>
        <time>2025-09-14T10:12:12.000Z</time>
      </trkpt>
      <trkpt lat="43.718" lon="6.08649">
        <ele>412.8</ele>
        <time>2025-09-14T10:12:13.000Z</time>
      </trkpt>
      <trkpt lat="43.718" lon="6.0865">
        <ele>412.8</ele>
        <time>2025-09-14T10:12:14.000Z</time>
      </trkpt>
      <trkpt lat="43.71809" lon="6.08654">
        <ele>413.4</ele>
        <time>2025-09-14T10:12:31.000Z</time>
      </trkpt>
      <trkpt lat="43.71811" lon="6.08658">
        <ele>414.3</ele>
        <time>2025-09-14T10:12:40.000Z</time>
      </trkpt>
      <trkpt lat="43.71811" lon="6.08658">
        <ele>414.4</ele>
        <time>2025-09-14T10:12:41.000Z</time>
      </trkpt>
      <trkpt lat="43.71811" lon="6.08658">
        <ele>414.6</ele>
        <time>2025-09-14T10:12:47.000Z</time>
      </trkpt>
      <trkpt lat="43.71812" lon="6.08658">
        <ele>414.7</ele>
        <time>2025-09-14T10:12:48.000Z</time>
      </trkpt>
      <trkpt lat="43.71812" lon="6.08659">
        <ele>414.7</ele>
        <time>2025-09-14T10:12:49.000Z</time>
      </trkpt>
      <trkpt lat="43.71813" lon="6.08658">
        <ele>414.8</ele>
        <time>2025-09-14T10:12:52.000Z</time>
      </trkpt>
      <trkpt lat="43.71813" lon="6.08658">
        <ele>414.8</ele>
        <time>2025-09-14T10:12:53.000Z</time>
      </trkpt>
      <trkpt lat="43.71813" lon="6.08658">
        <ele>414.8</ele>
        <time>2025-09-14T10:12:54.000Z</time>
      </trkpt>
      <trkpt lat="43.71813" lon="6.08658">
        <ele>415</ele>
        <time>2025-09-14T10:13:02.000Z</time>
      </trkpt>
      <trkpt lat="43.71813" lon="6.08658">
        <ele>415</ele>
        <time>2025-09-14T10:13:03.000Z</time>
      </trkpt>
      <trkpt lat="43.71813" lon="6.08658">
        <ele>415</ele>
        <time>2025-09-14T10:13:04.000Z</time>
      </trkpt>
      <trkpt lat="43.71813" lon="6.08658">
        <ele>415</ele>
        <time>2025-09-14T10:13:05.000Z</time>
      </trkpt>
      <trkpt lat="43.71813" lon="6.08658">
        <ele>415</ele>
        <time>2025-09-14T10:13:06.000Z</time>
      </trkpt>
      <trkpt lat="43.71813" lon="6.08658">
        <ele>415.1</ele>
        <time>2025-09-14T10:13:13.000Z</time>
      </trkpt>
      <trkpt lat="43.71813" lon="6.08658">
        <ele>415.1</ele>
        <time>2025-09-14T10:13:14.000Z</time>
      </trkpt>
      <trkpt lat="43.71813" lon="6.08658">
        <ele>415.1</ele>
        <time>2025-09-14T10:13:15.000Z</time>
      </trkpt>
      <trkpt lat="43.71813" lon="6.08658">
        <ele>415.1</ele>
        <time>2025-09-14T10:13:16.000Z</time>
      </trkpt>
      <trkpt lat="43.71813" lon="6.08658">
        <ele>415.1</ele>
        <time>2025-09-14T10:13:17.000Z</time>
      </trkpt>
      <trkpt lat="43.71813" lon="6.08658">
        <ele>415.1</ele>
        <time>2025-09-14T10:13:18.000Z</time>
      </trkpt>
      <trkpt lat="43.71814" lon="6.08658">
        <ele>415.2</ele>
        <time>2025-09-14T10:13:19.000Z</time>
      </trkpt>
      <trkpt lat="43.71815" lon="6.08657">
        <ele>415.2</ele>
        <time>2025-09-14T10:13:20.000Z</time>
      </trkpt>
      <trkpt lat="43.71823" lon="6.08649">
        <ele>415.4</ele>
        <time>2025-09-14T10:13:31.000Z</time>
      </trkpt>
      <trkpt lat="43.71823" lon="6.08649">
        <ele>415.5</ele>
        <time>2025-09-14T10:13:35.000Z</time>
      </trkpt>
      <trkpt lat="43.71824" lon="6.08649">
        <ele>415.5</ele>
        <time>2025-09-14T10:13:36.000Z</time>
      </trkpt>
      <trkpt lat="43.71824" lon="6.08649">
        <ele>415.5</ele>
        <time>2025-09-14T10:13:37.000Z</time>
      </trkpt>
      <trkpt lat="43.71825" lon="6.08648">
        <ele>415.6</ele>
        <time>2025-09-14T10:13:38.000Z</time>
      </trkpt>
      <trkpt lat="43.71826" lon="6.08648">
        <ele>415.6</ele>
        <time>2025-09-14T10:13:39.000Z</time>
      </trkpt>
      <trkpt lat="43.71827" lon="6.08648">
        <ele>415.6</ele>
        <time>2025-09-14T10:13:40.000Z</time>
      </trkpt>
      <trkpt lat="43.71836" lon="6.08647">
        <ele>416.3</ele>
        <time>2025-09-14T10:13:53.000Z</time>
      </trkpt>
      <trkpt lat="43.71846" lon="6.08647">
        <ele>416.7</ele>
        <time>2025-09-14T10:14:04.000Z</time>
      </trkpt>
      <trkpt lat="43.71855" lon="6.08647">
        <ele>416.9</ele>
        <time>2025-09-14T10:14:15.000Z</time>
      </trkpt>
      <trkpt lat="43.71863" lon="6.08638">
        <ele>417</ele>
        <time>2025-09-14T10:14:25.000Z</time>
      </trkpt>
      <trkpt lat="43.71864" lon="6.08625">
        <ele>417.5</ele>
        <time>2025-09-14T10:14:38.000Z</time>
      </trkpt>
      <trkpt lat="43.71862" lon="6.08612">
        <ele>418.6</ele>
        <time>2025-09-14T10:14:50.000Z</time>
      </trkpt>
      <trkpt lat="43.71862" lon="6.086">
        <ele>419.3</ele>
        <time>2025-09-14T10:15:00.000Z</time>
      </trkpt>
      <trkpt lat="43.71864" lon="6.08587">
        <ele>419.6</ele>
        <time>2025-09-14T10:15:11.000Z</time>
      </trkpt>
      <trkpt lat="43.71864" lon="6.08574">
        <ele>420</ele>
        <time>2025-09-14T10:15:23.000Z</time>
      </trkpt>
      <trkpt lat="43.71863" lon="6.08573">
        <ele>420</ele>
        <time>2025-09-14T10:15:26.000Z</time>
      </trkpt>
      <trkpt lat="43.71863" lon="6.08573">
        <ele>420</ele>
        <time>2025-09-14T10:15:27.000Z</time>
      </trkpt>
      <trkpt lat="43.71864" lon="6.08569">
        <ele>420</ele>
        <time>2025-09-14T10:15:31.000Z</time>
      </trkpt>
      <trkpt lat="43.71864" lon="6.08568">
        <ele>420.1</ele>
        <time>2025-09-14T10:15:32.000Z</time>
      </trkpt>
      <trkpt lat="43.71864" lon="6.08554">
        <ele>420.1</ele>
        <time>2025-09-14T10:15:43.000Z</time>
      </trkpt>
      <trkpt lat="43.71867" lon="6.08543">
        <ele>420.1</ele>
        <time>2025-09-14T10:15:58.000Z</time>
      </trkpt>
      <trkpt lat="43.71873" lon="6.08534">
        <ele>420.1</ele>
        <time>2025-09-14T10:16:13.000Z</time>
      </trkpt>
      <trkpt lat="43.71882" lon="6.08527">
        <ele>420.2</ele>
        <time>2025-09-14T10:16:34.000Z</time>
      </trkpt>
      <trkpt lat="43.71885" lon="6.08515">
        <ele>420.2</ele>
        <time>2025-09-14T10:16:43.000Z</time>
      </trkpt>
      <trkpt lat="43.7189" lon="6.08504">
        <ele>420.2</ele>
        <time>2025-09-14T10:16:54.000Z</time>
      </trkpt>
      <trkpt lat="43.71893" lon="6.08493">
        <ele>419.9</ele>
        <time>2025-09-14T10:17:11.000Z</time>
      </trkpt>
      <trkpt lat="43.71897" lon="6.08484">
        <ele>419.6</ele>
        <time>2025-09-14T10:17:25.000Z</time>
      </trkpt>
      <trkpt lat="43.71897" lon="6.08484">
        <ele>419.6</ele>
        <time>2025-09-14T10:17:26.000Z</time>
      </trkpt>
      <trkpt lat="43.71897" lon="6.08484">
        <ele>419.6</ele>
        <time>2025-09-14T10:17:27.000Z</time>
      </trkpt>
      <trkpt lat="43.71898" lon="6.08483">
        <ele>419.5</ele>
        <time>2025-09-14T10:17:31.000Z</time>
      </trkpt>
      <trkpt lat="43.71898" lon="6.08482">
        <ele>419.5</ele>
        <time>2025-09-14T10:17:32.000Z</time>
      </trkpt>
      <trkpt lat="43.71902" lon="6.0847">
        <ele>419.4</ele>
        <time>2025-09-14T10:17:42.000Z</time>
      </trkpt>
      <trkpt lat="43.71908" lon="6.0846">
        <ele>419.3</ele>
        <time>2025-09-14T10:17:51.000Z</time>
      </trkpt>
      <trkpt lat="43.71908" lon="6.0846">
        <ele>419.1</ele>
        <time>2025-09-14T10:17:56.000Z</time>
      </trkpt>
      <trkpt lat="43.71908" lon="6.0846">
        <ele>419.1</ele>
        <time>2025-09-14T10:17:57.000Z</time>
      </trkpt>
      <trkpt lat="43.71909" lon="6.08459">
        <ele>419</ele>
        <time>2025-09-14T10:18:02.000Z</time>
      </trkpt>
      <trkpt lat="43.71909" lon="6.08459">
        <ele>419</ele>
        <time>2025-09-14T10:18:03.000Z</time>
      </trkpt>
      <trkpt lat="43.71909" lon="6.08458">
        <ele>418.9</ele>
        <time>2025-09-14T10:18:04.000Z</time>
      </trkpt>
      <trkpt lat="43.7191" lon="6.08454">
        <ele>418.7</ele>
        <time>2025-09-14T10:18:13.000Z</time>
      </trkpt>
      <trkpt lat="43.7191" lon="6.08454">
        <ele>418.7</ele>
        <time>2025-09-14T10:18:14.000Z</time>
      </trkpt>
      <trkpt lat="43.71912" lon="6.08454">
        <ele>418.6</ele>
        <time>2025-09-14T10:18:46.000Z</time>
      </trkpt>
      <trkpt lat="43.71913" lon="6.08454">
        <ele>418.6</ele>
        <time>2025-09-14T10:18:47.000Z</time>
      </trkpt>
      <trkpt lat="43.71921" lon="6.08447">
        <ele>418.4</ele>
        <time>2025-09-14T10:18:56.000Z</time>
      </trkpt>
      <trkpt lat="43.71927" lon="6.08436">
        <ele>418</ele>
        <time>2025-09-14T10:19:04.000Z</time>
      </trkpt>
      <trkpt lat="43.71929" lon="6.08423">
        <ele>417.4</ele>
        <time>2025-09-14T10:19:12.000Z</time>
      </trkpt>
      <trkpt lat="43.71933" lon="6.08411">
        <ele>416.6</ele>
        <time>2025-09-14T10:19:21.000Z</time>
      </trkpt>
      <trkpt lat="43.71938" lon="6.084">
        <ele>415.7</ele>
        <time>2025-09-14T10:19:33.000Z</time>
      </trkpt>
      <trkpt lat="43.71942" lon="6.08389">
        <ele>414.9</ele>
        <time>2025-09-14T10:19:47.000Z</time>
      </trkpt>
      <trkpt lat="43.71947" lon="6.08378">
        <ele>414.1</ele>
        <time>2025-09-14T10:20:01.000Z</time>
      </trkpt>
      <trkpt lat="43.71952" lon="6.08368">
        <ele>413.3</ele>
        <time>2025-09-14T10:20:17.000Z</time>
      </trkpt>
      <trkpt lat="43.71957" lon="6.08356">
        <ele>412.5</ele>
        <time>2025-09-14T10:20:32.000Z</time>
      </trkpt>
      <trkpt lat="43.71958" lon="6.08349">
        <ele>411.9</ele>
        <time>2025-09-14T10:20:46.000Z</time>
      </trkpt>
      <trkpt lat="43.71958" lon="6.08349">
        <ele>411.9</ele>
        <time>2025-09-14T10:20:47.000Z</time>
      </trkpt>
      <trkpt lat="43.71958" lon="6.08349">
        <ele>411.9</ele>
        <time>2025-09-14T10:21:03.000Z</time>
      </trkpt>
      <trkpt lat="43.71958" lon="6.08349">
        <ele>411.8</ele>
        <time>2025-09-14T10:21:04.000Z</time>
      </trkpt>
      <trkpt lat="43.71958" lon="6.08349">
        <ele>411.8</ele>
        <time>2025-09-14T10:21:05.000Z</time>
      </trkpt>
      <trkpt lat="43.71958" lon="6.08349">
        <ele>411.8</ele>
        <time>2025-09-14T10:21:06.000Z</time>
      </trkpt>
      <trkpt lat="43.71958" lon="6.08349">
        <ele>411.8</ele>
        <time>2025-09-14T10:21:07.000Z</time>
      </trkpt>
      <trkpt lat="43.71958" lon="6.08348">
        <ele>412.3</ele>
        <time>2025-09-14T10:21:43.000Z</time>
      </trkpt>
      <trkpt lat="43.71959" lon="6.08348">
        <ele>412.3</ele>
        <time>2025-09-14T10:21:44.000Z</time>
      </trkpt>
      <trkpt lat="43.71959" lon="6.08347">
        <ele>412.3</ele>
        <time>2025-09-14T10:21:45.000Z</time>
      </trkpt>
      <trkpt lat="43.71967" lon="6.0834">
        <ele>411.9</ele>
        <time>2025-09-14T10:21:56.000Z</time>
      </trkpt>
      <trkpt lat="43.71974" lon="6.0833">
        <ele>409.6</ele>
        <time>2025-09-14T10:22:10.000Z</time>
      </trkpt>
      <trkpt lat="43.71983" lon="6.08324">
        <ele>407</ele>
        <time>2025-09-14T10:22:25.000Z</time>
      </trkpt>
      <trkpt lat="43.71989" lon="6.08315">
        <ele>405.3</ele>
        <time>2025-09-14T10:22:38.000Z</time>
      </trkpt>
      <trkpt lat="43.71991" lon="6.08315">
        <ele>404.8</ele>
        <time>2025-09-14T10:22:46.000Z</time>
      </trkpt>
      <trkpt lat="43.71991" lon="6.08315">
        <ele>404.7</ele>
        <time>2025-09-14T10:22:47.000Z</time>
      </trkpt>
      <trkpt lat="43.71992" lon="6.08316">
        <ele>404.7</ele>
        <time>2025-09-14T10:22:50.000Z</time>
      </trkpt>
      <trkpt lat="43.71993" lon="6.08317">
        <ele>404.6</ele>
        <time>2025-09-14T10:22:51.000Z</time>
      </trkpt>
      <trkpt lat="43.71993" lon="6.08317">
        <ele>404.6</ele>
        <time>2025-09-14T10:22:52.000Z</time>
      </trkpt>
      <trkpt lat="43.72002" lon="6.0831">
        <ele>404.4</ele>
        <time>2025-09-14T10:23:02.000Z</time>
      </trkpt>
      <trkpt lat="43.7201" lon="6.08302">
        <ele>404.1</ele>
        <time>2025-09-14T10:23:19.000Z</time>
      </trkpt>
      <trkpt lat="43.72017" lon="6.08294">
        <ele>404</ele>
        <time>2025-09-14T10:23:28.000Z</time>
      </trkpt>
      <trkpt lat="43.72023" lon="6.08284">
        <ele>404.1</ele>
        <time>2025-09-14T10:23:38.000Z</time>
      </trkpt>
      <trkpt lat="43.72031" lon="6.08278">
        <ele>404.5</ele>
        <time>2025-09-14T10:23:52.000Z</time>
      </trkpt>
      <trkpt lat="43.7204" lon="6.08273">
        <ele>405.1</ele>
        <time>2025-09-14T10:24:04.000Z</time>
      </trkpt>
      <trkpt lat="43.72049" lon="6.08274">
        <ele>405.4</ele>
        <time>2025-09-14T10:24:19.000Z</time>
      </trkpt>
      <trkpt lat="43.72058" lon="6.08272">
        <ele>405.5</ele>
        <time>2025-09-14T10:24:32.000Z</time>
      </trkpt>
      <trkpt lat="43.72067" lon="6.08273">
        <ele>405.4</ele>
        <time>2025-09-14T10:24:47.000Z</time>
      </trkpt>
      <trkpt lat="43.72077" lon="6.08272">
        <ele>405.2</ele>
        <time>2025-09-14T10:25:00.000Z</time>
      </trkpt>
      <trkpt lat="43.72087" lon="6.08272">
        <ele>404.9</ele>
        <time>2025-09-14T10:25:10.000Z</time>
      </trkpt>
      <trkpt lat="43.72096" lon="6.08274">
        <ele>404.8</ele>
        <time>2025-09-14T10:25:19.000Z</time>
      </trkpt>
      <trkpt lat="43.72105" lon="6.08277">
        <ele>404.8</ele>
        <time>2025-09-14T10:25:35.000Z</time>
      </trkpt>
      <trkpt lat="43.72115" lon="6.08278">
        <ele>404.9</ele>
        <time>2025-09-14T10:25:47.000Z</time>
      </trkpt>
      <trkpt lat="43.72123" lon="6.08274">
        <ele>405</ele>
        <time>2025-09-14T10:25:57.000Z</time>
      </trkpt>
      <trkpt lat="43.72132" lon="6.0827">
        <ele>405.2</ele>
        <time>2025-09-14T10:26:09.000Z</time>
      </trkpt>
      <trkpt lat="43.72141" lon="6.08271">
        <ele>405.4</ele>
        <time>2025-09-14T10:26:20.000Z</time>
      </trkpt>
      <trkpt lat="43.7215" lon="6.08271">
        <ele>405.7</ele>
        <time>2025-09-14T10:26:32.000Z</time>
      </trkpt>
      <trkpt lat="43.7216" lon="6.08271">
        <ele>406</ele>
        <time>2025-09-14T10:26:44.000Z</time>
      </trkpt>
      <trkpt lat="43.72168" lon="6.08265">
        <ele>406.4</ele>
        <time>2025-09-14T10:26:53.000Z</time>
      </trkpt>
      <trkpt lat="43.72177" lon="6.08261">
        <ele>407</ele>
        <time>2025-09-14T10:27:05.000Z</time>
      </trkpt>
      <trkpt lat="43.72186" lon="6.08258">
        <ele>407.5</ele>
        <time>2025-09-14T10:27:15.000Z</time>
      </trkpt>
      <trkpt lat="43.72189" lon="6.08257">
        <ele>407.8</ele>
        <time>2025-09-14T10:27:26.000Z</time>
      </trkpt>
      <trkpt lat="43.72189" lon="6.08257">
        <ele>407.8</ele>
        <time>2025-09-14T10:27:27.000Z</time>
      </trkpt>
      <trkpt lat="43.72191" lon="6.08256">
        <ele>407.9</ele>
        <time>2025-09-14T10:27:36.000Z</time>
      </trkpt>
      <trkpt lat="43.72191" lon="6.08255">
        <ele>408</ele>
        <time>2025-09-14T10:27:37.000Z</time>
      </trkpt>
      <trkpt lat="43.72201" lon="6.08254">
        <ele>408.3</ele>
        <time>2025-09-14T10:27:54.000Z</time>
      </trkpt>
      <trkpt lat="43.72207" lon="6.08249">
        <ele>408.5</ele>
        <time>2025-09-14T10:28:08.000Z</time>
      </trkpt>
      <trkpt lat="43.72208" lon="6.08249">
        <ele>408.5</ele>
        <time>2025-09-14T10:28:09.000Z</time>
      </trkpt>
      <trkpt lat="43.72208" lon="6.08249">
        <ele>408.5</ele>
        <time>2025-09-14T10:28:10.000Z</time>
      </trkpt>
      <trkpt lat="43.72209" lon="6.08249">
        <ele>408.5</ele>
        <time>2025-09-14T10:28:11.000Z</time>
      </trkpt>
      <trkpt lat="43.7221" lon="6.08249">
        <ele>408.5</ele>
        <time>2025-09-14T10:28:12.000Z</time>
      </trkpt>
      <trkpt lat="43.72214" lon="6.0825">
        <ele>408.6</ele>
        <time>2025-09-14T10:28:28.000Z</time>
      </trkpt>
      <trkpt lat="43.72214" lon="6.0825">
        <ele>408.6</ele>
        <time>2025-09-14T10:28:29.000Z</time>
      </trkpt>
      <trkpt lat="43.72214" lon="6.0825">
        <ele>408.6</ele>
        <time>2025-09-14T10:28:30.000Z</time>
      </trkpt>
      <trkpt lat="43.72214" lon="6.0825">
        <ele>408.6</ele>
        <time>2025-09-14T10:28:33.000Z</time>
      </trkpt>
      <trkpt lat="43.72214" lon="6.0825">
        <ele>408.6</ele>
        <time>2025-09-14T10:28:34.000Z</time>
      </trkpt>
      <trkpt lat="43.72214" lon="6.0825">
        <ele>408.6</ele>
        <time>2025-09-14T10:28:35.000Z</time>
      </trkpt>
      <trkpt lat="43.72214" lon="6.0825">
        <ele>408.6</ele>
        <time>2025-09-14T10:28:36.000Z</time>
      </trkpt>
      <trkpt lat="43.72214" lon="6.0825">
        <ele>408.6</ele>
        <time>2025-09-14T10:28:37.000Z</time>
      </trkpt>
      <trkpt lat="43.72214" lon="6.08251">
        <ele>408.6</ele>
        <time>2025-09-14T10:28:38.000Z</time>
      </trkpt>
      <trkpt lat="43.72214" lon="6.08251">
        <ele>408.6</ele>
        <time>2025-09-14T10:28:39.000Z</time>
      </trkpt>
      <trkpt lat="43.72216" lon="6.08252">
        <ele>408.5</ele>
        <time>2025-09-14T10:28:48.000Z</time>
      </trkpt>
      <trkpt lat="43.72216" lon="6.08252">
        <ele>408.5</ele>
        <time>2025-09-14T10:28:49.000Z</time>
      </trkpt>
      <trkpt lat="43.72216" lon="6.08252">
        <ele>408.5</ele>
        <time>2025-09-14T10:28:50.000Z</time>
      </trkpt>
      <trkpt lat="43.72216" lon="6.08252">
        <ele>408.5</ele>
        <time>2025-09-14T10:28:51.000Z</time>
      </trkpt>
      <trkpt lat="43.72215" lon="6.08251">
        <ele>408.4</ele>
        <time>2025-09-14T10:28:52.000Z</time>
      </trkpt>
      <trkpt lat="43.72215" lon="6.08252">
        <ele>408.3</ele>
        <time>2025-09-14T10:29:00.000Z</time>
      </trkpt>
      <trkpt lat="43.72215" lon="6.08252">
        <ele>408.3</ele>
        <time>2025-09-14T10:29:01.000Z</time>
      </trkpt>
      <trkpt lat="43.72215" lon="6.08252">
        <ele>408.2</ele>
        <time>2025-09-14T10:29:02.000Z</time>
      </trkpt>
      <trkpt lat="43.72215" lon="6.08253">
        <ele>408</ele>
        <time>2025-09-14T10:29:10.000Z</time>
      </trkpt>
      <trkpt lat="43.72215" lon="6.08253">
        <ele>408</ele>
        <time>2025-09-14T10:29:11.000Z</time>
      </trkpt>
      <trkpt lat="43.72216" lon="6.08256">
        <ele>408</ele>
        <time>2025-09-14T10:29:17.000Z</time>
      </trkpt>
      <trkpt lat="43.72216" lon="6.08256">
        <ele>408</ele>
        <time>2025-09-14T10:29:18.000Z</time>
      </trkpt>
      <trkpt lat="43.72216" lon="6.08256">
        <ele>407.9</ele>
        <time>2025-09-14T10:29:19.000Z</time>
      </trkpt>
      <trkpt lat="43.72216" lon="6.08256">
        <ele>407.9</ele>
        <time>2025-09-14T10:29:20.000Z</time>
      </trkpt>
      <trkpt lat="43.72216" lon="6.08256">
        <ele>407.9</ele>
        <time>2025-09-14T10:29:21.000Z</time>
      </trkpt>
      <trkpt lat="43.72216" lon="6.08256">
        <ele>407.9</ele>
        <time>2025-09-14T10:29:22.000Z</time>
      </trkpt>
      <trkpt lat="43.72216" lon="6.08256">
        <ele>407.9</ele>
        <time>2025-09-14T10:29:23.000Z</time>
      </trkpt>
      <trkpt lat="43.72216" lon="6.08256">
        <ele>407.9</ele>
        <time>2025-09-14T10:29:24.000Z</time>
      </trkpt>
      <trkpt lat="43.72217" lon="6.08257">
        <ele>407.9</ele>
        <time>2025-09-14T10:29:32.000Z</time>
      </trkpt>
      <trkpt lat="43.72217" lon="6.08257">
        <ele>407.9</ele>
        <time>2025-09-14T10:29:33.000Z</time>
      </trkpt>
      <trkpt lat="43.72218" lon="6.08257">
        <ele>407.9</ele>
        <time>2025-09-14T10:29:34.000Z</time>
      </trkpt>
      <trkpt lat="43.72218" lon="6.08256">
        <ele>408</ele>
        <time>2025-09-14T10:29:40.000Z</time>
      </trkpt>
      <trkpt lat="43.72218" lon="6.08256">
        <ele>408</ele>
        <time>2025-09-14T10:29:41.000Z</time>
      </trkpt>
      <trkpt lat="43.72218" lon="6.08257">
        <ele>408</ele>
        <time>2025-09-14T10:29:55.000Z</time>
      </trkpt>
      <trkpt lat="43.72218" lon="6.08258">
        <ele>408</ele>
        <time>2025-09-14T10:29:56.000Z</time>
      </trkpt>
      <trkpt lat="43.72219" lon="6.08258">
        <ele>408</ele>
        <time>2025-09-14T10:29:57.000Z</time>
      </trkpt>
      <trkpt lat="43.72219" lon="6.08258">
        <ele>408</ele>
        <time>2025-09-14T10:30:01.000Z</time>
      </trkpt>
      <trkpt lat="43.72219" lon="6.08258">
        <ele>408</ele>
        <time>2025-09-14T10:30:02.000Z</time>
      </trkpt>
      <trkpt lat="43.7222" lon="6.08258">
        <ele>407.9</ele>
        <time>2025-09-14T10:30:17.000Z</time>
      </trkpt>
      <trkpt lat="43.7222" lon="6.08257">
        <ele>407.9</ele>
        <time>2025-09-14T10:30:18.000Z</time>
      </trkpt>
      <trkpt lat="43.7222" lon="6.08257">
        <ele>408</ele>
        <time>2025-09-14T10:30:19.000Z</time>
      </trkpt>
      <trkpt lat="43.7222" lon="6.08257">
        <ele>408</ele>
        <time>2025-09-14T10:30:20.000Z</time>
      </trkpt>
      <trkpt lat="43.7222" lon="6.08257">
        <ele>408</ele>
        <time>2025-09-14T10:30:21.000Z</time>
      </trkpt>
      <trkpt lat="43.7222" lon="6.08257">
        <ele>408</ele>
        <time>2025-09-14T10:30:22.000Z</time>
      </trkpt>
      <trkpt lat="43.72221" lon="6.08257">
        <ele>408.1</ele>
        <time>2025-09-14T10:30:32.000Z</time>
      </trkpt>
      <trkpt lat="43.7222" lon="6.08257">
        <ele>408.1</ele>
        <time>2025-09-14T10:30:33.000Z</time>
      </trkpt>
      <trkpt lat="43.7222" lon="6.08257">
        <ele>408.1</ele>
        <time>2025-09-14T10:30:34.000Z</time>
      </trkpt>
      <trkpt lat="43.7222" lon="6.08257">
        <ele>408.1</ele>
        <time>2025-09-14T10:30:35.000Z</time>
      </trkpt>
      <trkpt lat="43.7222" lon="6.08257">
        <ele>408.1</ele>
        <time>2025-09-14T10:30:36.000Z</time>
      </trkpt>
      <trkpt lat="43.7222" lon="6.08257">
        <ele>408.1</ele>
        <time>2025-09-14T10:30:37.000Z</time>
      </trkpt>
      <trkpt lat="43.72221" lon="6.08257">
        <ele>408.1</ele>
        <time>2025-09-14T10:30:45.000Z</time>
      </trkpt>
      <trkpt lat="43.72221" lon="6.08257">
        <ele>408.1</ele>
        <time>2025-09-14T10:30:46.000Z</time>
      </trkpt>
      <trkpt lat="43.72221" lon="6.08257">
        <ele>408.1</ele>
        <time>2025-09-14T10:30:47.000Z</time>
      </trkpt>
      <trkpt lat="43.72221" lon="6.08257">
        <ele>408.2</ele>
        <time>2025-09-14T10:30:48.000Z</time>
      </trkpt>
      <trkpt lat="43.72221" lon="6.08257">
        <ele>408.2</ele>
        <time>2025-09-14T10:30:49.000Z</time>
      </trkpt>
      <trkpt lat="43.72221" lon="6.08257">
        <ele>408.2</ele>
        <time>2025-09-14T10:30:50.000Z</time>
      </trkpt>
      <trkpt lat="43.72221" lon="6.08257">
        <ele>408.2</ele>
        <time>2025-09-14T10:30:51.000Z</time>
      </trkpt>
      <trkpt lat="43.72221" lon="6.08257">
        <ele>408.2</ele>
        <time>2025-09-14T10:30:52.000Z</time>
      </trkpt>
      <trkpt lat="43.72221" lon="6.08257">
        <ele>408.2</ele>
        <time>2025-09-14T10:30:53.000Z</time>
      </trkpt>
      <trkpt lat="43.72221" lon="6.08257">
        <ele>408.2</ele>
        <time>2025-09-14T10:30:54.000Z</time>
      </trkpt>
      <trkpt lat="43.72221" lon="6.08257">
        <ele>408.2</ele>
        <time>2025-09-14T10:30:55.000Z</time>
      </trkpt>
      <trkpt lat="43.72221" lon="6.08257">
        <ele>408.2</ele>
        <time>2025-09-14T10:31:01.000Z</time>
      </trkpt>
      <trkpt lat="43.72221" lon="6.08257">
        <ele>408.2</ele>
        <time>2025-09-14T10:31:02.000Z</time>
      </trkpt>
      <trkpt lat="43.72221" lon="6.08257">
        <ele>408.2</ele>
        <time>2025-09-14T10:31:05.000Z</time>
      </trkpt>
      <trkpt lat="43.72221" lon="6.08257">
        <ele>408.2</ele>
        <time>2025-09-14T10:31:06.000Z</time>
      </trkpt>
      <trkpt lat="43.72221" lon="6.08257">
        <ele>408.4</ele>
        <time>2025-09-14T10:31:22.000Z</time>
      </trkpt>
      <trkpt lat="43.72221" lon="6.08257">
        <ele>408.4</ele>
        <time>2025-09-14T10:31:23.000Z</time>
      </trkpt>
      <trkpt lat="43.72221" lon="6.08257">
        <ele>408.4</ele>
        <time>2025-09-14T10:31:24.000Z</time>
      </trkpt>
      <trkpt lat="43.72221" lon="6.08257">
        <ele>408.4</ele>
        <time>2025-09-14T10:31:25.000Z</time>
      </trkpt>
      <trkpt lat="43.72221" lon="6.08257">
        <ele>408.4</ele>
        <time>2025-09-14T10:31:26.000Z</time>
      </trkpt>
      <trkpt lat="43.72221" lon="6.08257">
        <ele>408.4</ele>
        <time>2025-09-14T10:31:27.000Z</time>
      </trkpt>
      <trkpt lat="43.72221" lon="6.08257">
        <ele>408.4</ele>
        <time>2025-09-14T10:31:30.000Z</time>
      </trkpt>
      <trkpt lat="43.72221" lon="6.08257">
        <ele>408.4</ele>
        <time>2025-09-14T10:31:31.000Z</time>
      </trkpt>
      <trkpt lat="43.72221" lon="6.08257">
        <ele>408.4</ele>
        <time>2025-09-14T10:31:32.000Z</time>
      </trkpt>
      <trkpt lat="43.72221" lon="6.08257">
        <ele>408.5</ele>
        <time>2025-09-14T10:31:38.000Z</time>
      </trkpt>
      <trkpt lat="43.72221" lon="6.08257">
        <ele>408.5</ele>
        <time>2025-09-14T10:31:39.000Z</time>
      </trkpt>
      <trkpt lat="43.72221" lon="6.08257">
        <ele>408.5</ele>
        <time>2025-09-14T10:31:40.000Z</time>
      </trkpt>
      <trkpt lat="43.72221" lon="6.08257">
        <ele>408.6</ele>
        <time>2025-09-14T10:31:45.000Z</time>
      </trkpt>
      <trkpt lat="43.72221" lon="6.08256">
        <ele>408.6</ele>
        <time>2025-09-14T10:31:46.000Z</time>
      </trkpt>
      <trkpt lat="43.72221" lon="6.08256">
        <ele>408.6</ele>
        <time>2025-09-14T10:31:47.000Z</time>
      </trkpt>
      <trkpt lat="43.72222" lon="6.08257">
        <ele>409</ele>
        <time>2025-09-14T10:32:16.000Z</time>
      </trkpt>
      <trkpt lat="43.72222" lon="6.08257">
        <ele>408.9</ele>
        <time>2025-09-14T10:32:17.000Z</time>
      </trkpt>
      <trkpt lat="43.72222" lon="6.08257">
        <ele>408.9</ele>
        <time>2025-09-14T10:32:18.000Z</time>
      </trkpt>
      <trkpt lat="43.72222" lon="6.08257">
        <ele>409</ele>
        <time>2025-09-14T10:32:19.000Z</time>
      </trkpt>
      <trkpt lat="43.72218" lon="6.08251">
        <ele>409.2</ele>
        <time>2025-09-14T10:32:30.000Z</time>
      </trkpt>
      <trkpt lat="43.72218" lon="6.08251">
        <ele>409.3</ele>
        <time>2025-09-14T10:32:31.000Z</time>
      </trkpt>
      <trkpt lat="43.72218" lon="6.08252">
        <ele>409.3</ele>
        <time>2025-09-14T10:32:32.000Z</time>
      </trkpt>
      <trkpt lat="43.72218" lon="6.08252">
        <ele>409.3</ele>
        <time>2025-09-14T10:32:33.000Z</time>
      </trkpt>
      <trkpt lat="43.72219" lon="6.08253">
        <ele>409.3</ele>
        <time>2025-09-14T10:32:34.000Z</time>
      </trkpt>
      <trkpt lat="43.72218" lon="6.0825">
        <ele>409.5</ele>
        <time>2025-09-14T10:33:00.000Z</time>
      </trkpt>
      <trkpt lat="43.72218" lon="6.0825">
        <ele>409.6</ele>
        <time>2025-09-14T10:33:01.000Z</time>
      </trkpt>
      <trkpt lat="43.72218" lon="6.0825">
        <ele>410.2</ele>
        <time>2025-09-14T10:33:18.000Z</time>
      </trkpt>
      <trkpt lat="43.72218" lon="6.0825">
        <ele>410.2</ele>
        <time>2025-09-14T10:33:19.000Z</time>
      </trkpt>
      <trkpt lat="43.72218" lon="6.0825">
        <ele>410.2</ele>
        <time>2025-09-14T10:33:22.000Z</time>
      </trkpt>
      <trkpt lat="43.72218" lon="6.0825">
        <ele>410.2</ele>
        <time>2025-09-14T10:33:23.000Z</time>
      </trkpt>
      <trkpt lat="43.72218" lon="6.0825">
        <ele>410.2</ele>
        <time>2025-09-14T10:33:24.000Z</time>
      </trkpt>
      <trkpt lat="43.72218" lon="6.08251">
        <ele>410.2</ele>
        <time>2025-09-14T10:33:27.000Z</time>
      </trkpt>
      <trkpt lat="43.72218" lon="6.08252">
        <ele>410.2</ele>
        <time>2025-09-14T10:33:28.000Z</time>
      </trkpt>
      <trkpt lat="43.72218" lon="6.08253">
        <ele>410.2</ele>
        <time>2025-09-14T10:33:29.000Z</time>
      </trkpt>
      <trkpt lat="43.72216" lon="6.08263">
        <ele>410</ele>
        <time>2025-09-14T10:33:41.000Z</time>
      </trkpt>
      <trkpt lat="43.72217" lon="6.08263">
        <ele>410</ele>
        <time>2025-09-14T10:33:42.000Z</time>
      </trkpt>
      <trkpt lat="43.72216" lon="6.08264">
        <ele>409.4</ele>
        <time>2025-09-14T10:34:11.000Z</time>
      </trkpt>
      <trkpt lat="43.72216" lon="6.08263">
        <ele>409.4</ele>
        <time>2025-09-14T10:34:12.000Z</time>
      </trkpt>
      <trkpt lat="43.72216" lon="6.08261">
        <ele>409.3</ele>
        <time>2025-09-14T10:34:15.000Z</time>
      </trkpt>
      <trkpt lat="43.72216" lon="6.0826">
        <ele>409.3</ele>
        <time>2025-09-14T10:34:16.000Z</time>
      </trkpt>
      <trkpt lat="43.72216" lon="6.0826">
        <ele>409.3</ele>
        <time>2025-09-14T10:34:17.000Z</time>
      </trkpt>
      <trkpt lat="43.72216" lon="6.0826">
        <ele>409.3</ele>
        <time>2025-09-14T10:34:18.000Z</time>
      </trkpt>
      <trkpt lat="43.72216" lon="6.0826">
        <ele>409.3</ele>
        <time>2025-09-14T10:34:19.000Z</time>
      </trkpt>
      <trkpt lat="43.72216" lon="6.0826">
        <ele>409.3</ele>
        <time>2025-09-14T10:34:20.000Z</time>
      </trkpt>
      <trkpt lat="43.72216" lon="6.0826">
        <ele>409.3</ele>
        <time>2025-09-14T10:34:23.000Z</time>
      </trkpt>
      <trkpt lat="43.72216" lon="6.0826">
        <ele>409.3</ele>
        <time>2025-09-14T10:34:24.000Z</time>
      </trkpt>
      <trkpt lat="43.72216" lon="6.0826">
        <ele>409.4</ele>
        <time>2025-09-14T10:34:25.000Z</time>
      </trkpt>
      <trkpt lat="43.72215" lon="6.0826">
        <ele>409.5</ele>
        <time>2025-09-14T10:34:45.000Z</time>
      </trkpt>
      <trkpt lat="43.72214" lon="6.0826">
        <ele>409.5</ele>
        <time>2025-09-14T10:34:46.000Z</time>
      </trkpt>
      <trkpt lat="43.72214" lon="6.08259">
        <ele>409.5</ele>
        <time>2025-09-14T10:34:47.000Z</time>
      </trkpt>
      <trkpt lat="43.72213" lon="6.08252">
        <ele>409.9</ele>
        <time>2025-09-14T10:34:57.000Z</time>
      </trkpt>
      <trkpt lat="43.72213" lon="6.08252">
        <ele>409.9</ele>
        <time>2025-09-14T10:34:58.000Z</time>
      </trkpt>
      <trkpt lat="43.72213" lon="6.08252">
        <ele>409.9</ele>
        <time>2025-09-14T10:34:59.000Z</time>
      </trkpt>
      <trkpt lat="43.72213" lon="6.08252">
        <ele>410</ele>
        <time>2025-09-14T10:35:00.000Z</time>
      </trkpt>
      <trkpt lat="43.72213" lon="6.08252">
        <ele>410.1</ele>
        <time>2025-09-14T10:35:01.000Z</time>
      </trkpt>
      <trkpt lat="43.72213" lon="6.08252">
        <ele>410.2</ele>
        <time>2025-09-14T10:35:02.000Z</time>
      </trkpt>
      <trkpt lat="43.72213" lon="6.08252">
        <ele>410.3</ele>
        <time>2025-09-14T10:35:03.000Z</time>
      </trkpt>
      <trkpt lat="43.72213" lon="6.08252">
        <ele>410.4</ele>
        <time>2025-09-14T10:35:04.000Z</time>
      </trkpt>
      <trkpt lat="43.72215" lon="6.08252">
        <ele>411.6</ele>
        <time>2025-09-14T10:36:40.000Z</time>
      </trkpt>
      <trkpt lat="43.72215" lon="6.08252">
        <ele>411.7</ele>
        <time>2025-09-14T10:36:41.000Z</time>
      </trkpt>
      <trkpt lat="43.72215" lon="6.08252">
        <ele>411.7</ele>
        <time>2025-09-14T10:36:45.000Z</time>
      </trkpt>
      <trkpt lat="43.72215" lon="6.08252">
        <ele>411.7</ele>
        <time>2025-09-14T10:36:46.000Z</time>
      </trkpt>
      <trkpt lat="43.72215" lon="6.08252">
        <ele>411.7</ele>
        <time>2025-09-14T10:36:47.000Z</time>
      </trkpt>
      <trkpt lat="43.72215" lon="6.08252">
        <ele>411.7</ele>
        <time>2025-09-14T10:36:48.000Z</time>
      </trkpt>
      <trkpt lat="43.72215" lon="6.08252">
        <ele>411.7</ele>
        <time>2025-09-14T10:36:49.000Z</time>
      </trkpt>
      <trkpt lat="43.72215" lon="6.08252">
        <ele>411.8</ele>
        <time>2025-09-14T10:36:53.000Z</time>
      </trkpt>
      <trkpt lat="43.72215" lon="6.08252">
        <ele>411.8</ele>
        <time>2025-09-14T10:36:54.000Z</time>
      </trkpt>
      <trkpt lat="43.72215" lon="6.08251">
        <ele>411.8</ele>
        <time>2025-09-14T10:36:55.000Z</time>
      </trkpt>
      <trkpt lat="43.72215" lon="6.08251">
        <ele>411.8</ele>
        <time>2025-09-14T10:36:58.000Z</time>
      </trkpt>
      <trkpt lat="43.72215" lon="6.08251">
        <ele>411.8</ele>
        <time>2025-09-14T10:36:59.000Z</time>
      </trkpt>
      <trkpt lat="43.72215" lon="6.08251">
        <ele>411.8</ele>
        <time>2025-09-14T10:37:00.000Z</time>
      </trkpt>
      <trkpt lat="43.72215" lon="6.08251">
        <ele>411.8</ele>
        <time>2025-09-14T10:37:01.000Z</time>
      </trkpt>
      <trkpt lat="43.72215" lon="6.08251">
        <ele>411.9</ele>
        <time>2025-09-14T10:37:21.000Z</time>
      </trkpt>
      <trkpt lat="43.72215" lon="6.08251">
        <ele>411.9</ele>
        <time>2025-09-14T10:37:22.000Z</time>
      </trkpt>
      <trkpt lat="43.72215" lon="6.08251">
        <ele>411.9</ele>
        <time>2025-09-14T10:37:23.000Z</time>
      </trkpt>
      <trkpt lat="43.72215" lon="6.08251">
        <ele>411.9</ele>
        <time>2025-09-14T10:37:24.000Z</time>
      </trkpt>
      <trkpt lat="43.72215" lon="6.08252">
        <ele>411.9</ele>
        <time>2025-09-14T10:37:25.000Z</time>
      </trkpt>
      <trkpt lat="43.72215" lon="6.08252">
        <ele>411.9</ele>
        <time>2025-09-14T10:37:26.000Z</time>
      </trkpt>
      <trkpt lat="43.72214" lon="6.08253">
        <ele>411.9</ele>
        <time>2025-09-14T10:37:27.000Z</time>
      </trkpt>
      <trkpt lat="43.72214" lon="6.08256">
        <ele>411.9</ele>
        <time>2025-09-14T10:37:38.000Z</time>
      </trkpt>
      <trkpt lat="43.72214" lon="6.08256">
        <ele>411.9</ele>
        <time>2025-09-14T10:37:39.000Z</time>
      </trkpt>
      <trkpt lat="43.72214" lon="6.08256">
        <ele>411.9</ele>
        <time>2025-09-14T10:37:45.000Z</time>
      </trkpt>
      <trkpt lat="43.72215" lon="6.08255">
        <ele>411.9</ele>
        <time>2025-09-14T10:37:46.000Z</time>
      </trkpt>
      <trkpt lat="43.72216" lon="6.08251">
        <ele>412.1</ele>
        <time>2025-09-14T10:38:05.000Z</time>
      </trkpt>
      <trkpt lat="43.72216" lon="6.08251">
        <ele>412.2</ele>
        <time>2025-09-14T10:38:06.000Z</time>
      </trkpt>
      <trkpt lat="43.72216" lon="6.08251">
        <ele>412.2</ele>
        <time>2025-09-14T10:38:07.000Z</time>
      </trkpt>
      <trkpt lat="43.72216" lon="6.08251">
        <ele>412.2</ele>
        <time>2025-09-14T10:38:08.000Z</time>
      </trkpt>
      <trkpt lat="43.72216" lon="6.08251">
        <ele>412.2</ele>
        <time>2025-09-14T10:38:09.000Z</time>
      </trkpt>
      <trkpt lat="43.72216" lon="6.08251">
        <ele>412.2</ele>
        <time>2025-09-14T10:38:10.000Z</time>
      </trkpt>
      <trkpt lat="43.72216" lon="6.08251">
        <ele>412.2</ele>
        <time>2025-09-14T10:38:11.000Z</time>
      </trkpt>
      <trkpt lat="43.72216" lon="6.08251">
        <ele>412.3</ele>
        <time>2025-09-14T10:38:15.000Z</time>
      </trkpt>
      <trkpt lat="43.72216" lon="6.08251">
        <ele>412.3</ele>
        <time>2025-09-14T10:38:16.000Z</time>
      </trkpt>
      <trkpt lat="43.72216" lon="6.08251">
        <ele>412.3</ele>
        <time>2025-09-14T10:38:17.000Z</time>
      </trkpt>
      <trkpt lat="43.72216" lon="6.08251">
        <ele>412.3</ele>
        <time>2025-09-14T10:38:18.000Z</time>
      </trkpt>
      <trkpt lat="43.72216" lon="6.08251">
        <ele>412.3</ele>
        <time>2025-09-14T10:38:19.000Z</time>
      </trkpt>
      <trkpt lat="43.72216" lon="6.08251">
        <ele>412.3</ele>
        <time>2025-09-14T10:38:20.000Z</time>
      </trkpt>
      <trkpt lat="43.72216" lon="6.08251">
        <ele>412.3</ele>
        <time>2025-09-14T10:38:21.000Z</time>
      </trkpt>
      <trkpt lat="43.72216" lon="6.08251">
        <ele>412.3</ele>
        <time>2025-09-14T10:38:22.000Z</time>
      </trkpt>
      <trkpt lat="43.72216" lon="6.08251">
        <ele>412.3</ele>
        <time>2025-09-14T10:38:23.000Z</time>
      </trkpt>
      <trkpt lat="43.72216" lon="6.08251">
        <ele>412.3</ele>
        <time>2025-09-14T10:38:24.000Z</time>
      </trkpt>
      <trkpt lat="43.72216" lon="6.08251">
        <ele>412.3</ele>
        <time>2025-09-14T10:38:25.000Z</time>
      </trkpt>
      <trkpt lat="43.72215" lon="6.08251">
        <ele>412.5</ele>
        <time>2025-09-14T10:39:03.000Z</time>
      </trkpt>
      <trkpt lat="43.72215" lon="6.08251">
        <ele>412.5</ele>
        <time>2025-09-14T10:39:04.000Z</time>
      </trkpt>
      <trkpt lat="43.72215" lon="6.08251">
        <ele>412.5</ele>
        <time>2025-09-14T10:39:05.000Z</time>
      </trkpt>
      <trkpt lat="43.72215" lon="6.08251">
        <ele>412.5</ele>
        <time>2025-09-14T10:39:06.000Z</time>
      </trkpt>
      <trkpt lat="43.72215" lon="6.08251">
        <ele>412.5</ele>
        <time>2025-09-14T10:39:12.000Z</time>
      </trkpt>
      <trkpt lat="43.72215" lon="6.08251">
        <ele>412.5</ele>
        <time>2025-09-14T10:39:13.000Z</time>
      </trkpt>
      <trkpt lat="43.72215" lon="6.08251">
        <ele>412.5</ele>
        <time>2025-09-14T10:39:14.000Z</time>
      </trkpt>
      <trkpt lat="43.72215" lon="6.08251">
        <ele>412.5</ele>
        <time>2025-09-14T10:39:20.000Z</time>
      </trkpt>
      <trkpt lat="43.72215" lon="6.08251">
        <ele>412.5</ele>
        <time>2025-09-14T10:39:21.000Z</time>
      </trkpt>
      <trkpt lat="43.72215" lon="6.08251">
        <ele>412.5</ele>
        <time>2025-09-14T10:39:25.000Z</time>
      </trkpt>
      <trkpt lat="43.72215" lon="6.08251">
        <ele>412.5</ele>
        <time>2025-09-14T10:39:26.000Z</time>
      </trkpt>
      <trkpt lat="43.72215" lon="6.08251">
        <ele>412.5</ele>
        <time>2025-09-14T10:39:30.000Z</time>
      </trkpt>
      <trkpt lat="43.72215" lon="6.08251">
        <ele>412.5</ele>
        <time>2025-09-14T10:39:31.000Z</time>
      </trkpt>
      <trkpt lat="43.72215" lon="6.08251">
        <ele>412.5</ele>
        <time>2025-09-14T10:39:32.000Z</time>
      </trkpt>
      <trkpt lat="43.72215" lon="6.08251">
        <ele>412.6</ele>
        <time>2025-09-14T10:39:33.000Z</time>
      </trkpt>
      <trkpt lat="43.72215" lon="6.08251">
        <ele>412.6</ele>
        <time>2025-09-14T10:39:34.000Z</time>
      </trkpt>
      <trkpt lat="43.72215" lon="6.08251">
        <ele>412.6</ele>
        <time>2025-09-14T10:39:37.000Z</time>
      </trkpt>
      <trkpt lat="43.72215" lon="6.08251">
        <ele>412.6</ele>
        <time>2025-09-14T10:39:38.000Z</time>
      </trkpt>
      <trkpt lat="43.72215" lon="6.08251">
        <ele>412.6</ele>
        <time>2025-09-14T10:39:39.000Z</time>
      </trkpt>
      <trkpt lat="43.72215" lon="6.08251">
        <ele>412.7</ele>
        <time>2025-09-14T10:39:45.000Z</time>
      </trkpt>
      <trkpt lat="43.72215" lon="6.08251">
        <ele>412.7</ele>
        <time>2025-09-14T10:39:46.000Z</time>
      </trkpt>
      <trkpt lat="43.72215" lon="6.08249">
        <ele>412.7</ele>
        <time>2025-09-14T10:39:55.000Z</time>
      </trkpt>
      <trkpt lat="43.72215" lon="6.08249">
        <ele>412.7</ele>
        <time>2025-09-14T10:39:56.000Z</time>
      </trkpt>
      <trkpt lat="43.72215" lon="6.08249">
        <ele>412.7</ele>
        <time>2025-09-14T10:39:57.000Z</time>
      </trkpt>
      <trkpt lat="43.72215" lon="6.08249">
        <ele>412.7</ele>
        <time>2025-09-14T10:40:01.000Z</time>
      </trkpt>
      <trkpt lat="43.72215" lon="6.08249">
        <ele>412.7</ele>
        <time>2025-09-14T10:40:02.000Z</time>
      </trkpt>
      <trkpt lat="43.72215" lon="6.08249">
        <ele>412.7</ele>
        <time>2025-09-14T10:40:03.000Z</time>
      </trkpt>
      <trkpt lat="43.72215" lon="6.08249">
        <ele>412.7</ele>
        <time>2025-09-14T10:40:04.000Z</time>
      </trkpt>
      <trkpt lat="43.72215" lon="6.08249">
        <ele>412.7</ele>
        <time>2025-09-14T10:40:05.000Z</time>
      </trkpt>
      <trkpt lat="43.72215" lon="6.08249">
        <ele>412.7</ele>
        <time>2025-09-14T10:40:11.000Z</time>
      </trkpt>
      <trkpt lat="43.72215" lon="6.08249">
        <ele>412.7</ele>
        <time>2025-09-14T10:40:12.000Z</time>
      </trkpt>
      <trkpt lat="43.72215" lon="6.08249">
        <ele>412.6</ele>
        <time>2025-09-14T10:40:13.000Z</time>
      </trkpt>
      <trkpt lat="43.72215" lon="6.08249">
        <ele>412.6</ele>
        <time>2025-09-14T10:40:14.000Z</time>
      </trkpt>
      <trkpt lat="43.72215" lon="6.08249">
        <ele>412.6</ele>
        <time>2025-09-14T10:40:15.000Z</time>
      </trkpt>
      <trkpt lat="43.72214" lon="6.08249">
        <ele>412.5</ele>
        <time>2025-09-14T10:42:07.000Z</time>
      </trkpt>
      <trkpt lat="43.72214" lon="6.08249">
        <ele>412.5</ele>
        <time>2025-09-14T10:42:08.000Z</time>
      </trkpt>
      <trkpt lat="43.72214" lon="6.08249">
        <ele>412.5</ele>
        <time>2025-09-14T10:42:09.000Z</time>
      </trkpt>
      <trkpt lat="43.72214" lon="6.08249">
        <ele>412.5</ele>
        <time>2025-09-14T10:42:10.000Z</time>
      </trkpt>
      <trkpt lat="43.72214" lon="6.08249">
        <ele>412.5</ele>
        <time>2025-09-14T10:42:11.000Z</time>
      </trkpt>
      <trkpt lat="43.72213" lon="6.08249">
        <ele>412.5</ele>
        <time>2025-09-14T10:43:45.000Z</time>
      </trkpt>
      <trkpt lat="43.72213" lon="6.08249">
        <ele>412.5</ele>
        <time>2025-09-14T10:43:46.000Z</time>
      </trkpt>
      <trkpt lat="43.72213" lon="6.08249">
        <ele>412.5</ele>
        <time>2025-09-14T10:43:50.000Z</time>
      </trkpt>
      <trkpt lat="43.72213" lon="6.08249">
        <ele>412.5</ele>
        <time>2025-09-14T10:43:51.000Z</time>
      </trkpt>
      <trkpt lat="43.72212" lon="6.08249">
        <ele>412.5</ele>
        <time>2025-09-14T10:43:52.000Z</time>
      </trkpt>
      <trkpt lat="43.72213" lon="6.08249">
        <ele>412.5</ele>
        <time>2025-09-14T10:43:53.000Z</time>
      </trkpt>
      <trkpt lat="43.72213" lon="6.08249">
        <ele>412.5</ele>
        <time>2025-09-14T10:43:54.000Z</time>
      </trkpt>
      <trkpt lat="43.72213" lon="6.08249">
        <ele>412.5</ele>
        <time>2025-09-14T10:43:55.000Z</time>
      </trkpt>
      <trkpt lat="43.72213" lon="6.08249">
        <ele>412.6</ele>
        <time>2025-09-14T10:43:56.000Z</time>
      </trkpt>
      <trkpt lat="43.72213" lon="6.08249">
        <ele>412.6</ele>
        <time>2025-09-14T10:43:57.000Z</time>
      </trkpt>
      <trkpt lat="43.72213" lon="6.0825">
        <ele>412.6</ele>
        <time>2025-09-14T10:44:00.000Z</time>
      </trkpt>
      <trkpt lat="43.72213" lon="6.08251">
        <ele>412.6</ele>
        <time>2025-09-14T10:44:01.000Z</time>
      </trkpt>
      <trkpt lat="43.72215" lon="6.08249">
        <ele>412.5</ele>
        <time>2025-09-14T10:44:07.000Z</time>
      </trkpt>
      <trkpt lat="43.72215" lon="6.08249">
        <ele>412.5</ele>
        <time>2025-09-14T10:44:08.000Z</time>
      </trkpt>
      <trkpt lat="43.72215" lon="6.08249">
        <ele>412.5</ele>
        <time>2025-09-14T10:44:09.000Z</time>
      </trkpt>
      <trkpt lat="43.72215" lon="6.08249">
        <ele>412.4</ele>
        <time>2025-09-14T10:45:20.000Z</time>
      </trkpt>
      <trkpt lat="43.72215" lon="6.08249">
        <ele>412.4</ele>
        <time>2025-09-14T10:45:21.000Z</time>
      </trkpt>
      <trkpt lat="43.72215" lon="6.08249">
        <ele>412.4</ele>
        <time>2025-09-14T10:45:22.000Z</time>
      </trkpt>
      <trkpt lat="43.72215" lon="6.08249">
        <ele>412.4</ele>
        <time>2025-09-14T10:45:26.000Z</time>
      </trkpt>
      <trkpt lat="43.72215" lon="6.08249">
        <ele>412.3</ele>
        <time>2025-09-14T10:45:27.000Z</time>
      </trkpt>
      <trkpt lat="43.72215" lon="6.08249">
        <ele>412.3</ele>
        <time>2025-09-14T10:45:30.000Z</time>
      </trkpt>
      <trkpt lat="43.72215" lon="6.08249">
        <ele>412.3</ele>
        <time>2025-09-14T10:45:31.000Z</time>
      </trkpt>
      <trkpt lat="43.72215" lon="6.08249">
        <ele>412.3</ele>
        <time>2025-09-14T10:45:32.000Z</time>
      </trkpt>
      <trkpt lat="43.72215" lon="6.08249">
        <ele>412.3</ele>
        <time>2025-09-14T10:45:35.000Z</time>
      </trkpt>
      <trkpt lat="43.72215" lon="6.08249">
        <ele>412.3</ele>
        <time>2025-09-14T10:45:36.000Z</time>
      </trkpt>
      <trkpt lat="43.72215" lon="6.08249">
        <ele>412.3</ele>
        <time>2025-09-14T10:45:37.000Z</time>
      </trkpt>
      <trkpt lat="43.72215" lon="6.08249">
        <ele>412.3</ele>
        <time>2025-09-14T10:45:45.000Z</time>
      </trkpt>
      <trkpt lat="43.72214" lon="6.08249">
        <ele>412.3</ele>
        <time>2025-09-14T10:45:46.000Z</time>
      </trkpt>
      <trkpt lat="43.72214" lon="6.0825">
        <ele>412.2</ele>
        <time>2025-09-14T10:45:55.000Z</time>
      </trkpt>
      <trkpt lat="43.72214" lon="6.0825">
        <ele>412.2</ele>
        <time>2025-09-14T10:45:56.000Z</time>
      </trkpt>
      <trkpt lat="43.72214" lon="6.0825">
        <ele>412.2</ele>
        <time>2025-09-14T10:45:57.000Z</time>
      </trkpt>
      <trkpt lat="43.72214" lon="6.08251">
        <ele>412.1</ele>
        <time>2025-09-14T10:46:12.000Z</time>
      </trkpt>
      <trkpt lat="43.72214" lon="6.08251">
        <ele>412.1</ele>
        <time>2025-09-14T10:46:13.000Z</time>
      </trkpt>
      <trkpt lat="43.72214" lon="6.08251">
        <ele>412.1</ele>
        <time>2025-09-14T10:46:14.000Z</time>
      </trkpt>
      <trkpt lat="43.72214" lon="6.08251">
        <ele>412.1</ele>
        <time>2025-09-14T10:46:15.000Z</time>
      </trkpt>
      <trkpt lat="43.72214" lon="6.08251">
        <ele>412</ele>
        <time>2025-09-14T10:46:16.000Z</time>
      </trkpt>
      <trkpt lat="43.72214" lon="6.08251">
        <ele>412</ele>
        <time>2025-09-14T10:46:17.000Z</time>
      </trkpt>
      <trkpt lat="43.72214" lon="6.08251">
        <ele>412</ele>
        <time>2025-09-14T10:46:23.000Z</time>
      </trkpt>
      <trkpt lat="43.72214" lon="6.08252">
        <ele>412</ele>
        <time>2025-09-14T10:46:24.000Z</time>
      </trkpt>
      <trkpt lat="43.72214" lon="6.08252">
        <ele>412</ele>
        <time>2025-09-14T10:46:28.000Z</time>
      </trkpt>
      <trkpt lat="43.72214" lon="6.08252">
        <ele>412</ele>
        <time>2025-09-14T10:46:29.000Z</time>
      </trkpt>
      <trkpt lat="43.72215" lon="6.08253">
        <ele>412</ele>
        <time>2025-09-14T10:50:13.000Z</time>
      </trkpt>
      <trkpt lat="43.72215" lon="6.08253">
        <ele>412</ele>
        <time>2025-09-14T10:50:14.000Z</time>
      </trkpt>
      <trkpt lat="43.72215" lon="6.08253">
        <ele>412</ele>
        <time>2025-09-14T10:50:17.000Z</time>
      </trkpt>
      <trkpt lat="43.72215" lon="6.08253">
        <ele>412</ele>
        <time>2025-09-14T10:50:18.000Z</time>
      </trkpt>
      <trkpt lat="43.72215" lon="6.08253">
        <ele>412</ele>
        <time>2025-09-14T10:50:19.000Z</time>
      </trkpt>
      <trkpt lat="43.72215" lon="6.08253">
        <ele>412.2</ele>
        <time>2025-09-14T10:50:40.000Z</time>
      </trkpt>
      <trkpt lat="43.72215" lon="6.08252">
        <ele>412.2</ele>
        <time>2025-09-14T10:50:41.000Z</time>
      </trkpt>
      <trkpt lat="43.72215" lon="6.08252">
        <ele>412.2</ele>
        <time>2025-09-14T10:50:42.000Z</time>
      </trkpt>
      <trkpt lat="43.72215" lon="6.08252">
        <ele>412.2</ele>
        <time>2025-09-14T10:50:43.000Z</time>
      </trkpt>
      <trkpt lat="43.72215" lon="6.08252">
        <ele>412.2</ele>
        <time>2025-09-14T10:50:44.000Z</time>
      </trkpt>
      <trkpt lat="43.72216" lon="6.08252">
        <ele>412.3</ele>
        <time>2025-09-14T10:51:08.000Z</time>
      </trkpt>
      <trkpt lat="43.72216" lon="6.08252">
        <ele>412.3</ele>
        <time>2025-09-14T10:51:09.000Z</time>
      </trkpt>
      <trkpt lat="43.72216" lon="6.08252">
        <ele>412.4</ele>
        <time>2025-09-14T10:51:12.000Z</time>
      </trkpt>
      <trkpt lat="43.72216" lon="6.08252">
        <ele>412.4</ele>
        <time>2025-09-14T10:51:13.000Z</time>
      </trkpt>
      <trkpt lat="43.72216" lon="6.08252">
        <ele>412.4</ele>
        <time>2025-09-14T10:51:14.000Z</time>
      </trkpt>
      <trkpt lat="43.72216" lon="6.08252">
        <ele>412.4</ele>
        <time>2025-09-14T10:51:35.000Z</time>
      </trkpt>
      <trkpt lat="43.72216" lon="6.08252">
        <ele>412.4</ele>
        <time>2025-09-14T10:51:36.000Z</time>
      </trkpt>
      <trkpt lat="43.72216" lon="6.08252">
        <ele>412.4</ele>
        <time>2025-09-14T10:51:37.000Z</time>
      </trkpt>
      <trkpt lat="43.72216" lon="6.08252">
        <ele>412.4</ele>
        <time>2025-09-14T10:51:38.000Z</time>
      </trkpt>
      <trkpt lat="43.72216" lon="6.08252">
        <ele>412.4</ele>
        <time>2025-09-14T10:51:39.000Z</time>
      </trkpt>
      <trkpt lat="43.72216" lon="6.08252">
        <ele>412.4</ele>
        <time>2025-09-14T10:51:46.000Z</time>
      </trkpt>
      <trkpt lat="43.72216" lon="6.08252">
        <ele>412.4</ele>
        <time>2025-09-14T10:51:47.000Z</time>
      </trkpt>
      <trkpt lat="43.72216" lon="6.08252">
        <ele>412.4</ele>
        <time>2025-09-14T10:51:48.000Z</time>
      </trkpt>
      <trkpt lat="43.72216" lon="6.08252">
        <ele>412.4</ele>
        <time>2025-09-14T10:51:49.000Z</time>
      </trkpt>
      <trkpt lat="43.72216" lon="6.08252">
        <ele>412.5</ele>
        <time>2025-09-14T10:52:05.000Z</time>
      </trkpt>
      <trkpt lat="43.72216" lon="6.08252">
        <ele>412.5</ele>
        <time>2025-09-14T10:52:06.000Z</time>
      </trkpt>
      <trkpt lat="43.72216" lon="6.08252">
        <ele>412.5</ele>
        <time>2025-09-14T10:52:07.000Z</time>
      </trkpt>
      <trkpt lat="43.72216" lon="6.08252">
        <ele>412.5</ele>
        <time>2025-09-14T10:52:08.000Z</time>
      </trkpt>
      <trkpt lat="43.72216" lon="6.08252">
        <ele>412.5</ele>
        <time>2025-09-14T10:52:09.000Z</time>
      </trkpt>
      <trkpt lat="43.72215" lon="6.08252">
        <ele>412.3</ele>
        <time>2025-09-14T10:52:41.000Z</time>
      </trkpt>
      <trkpt lat="43.72216" lon="6.08252">
        <ele>412.3</ele>
        <time>2025-09-14T10:52:42.000Z</time>
      </trkpt>
      <trkpt lat="43.72216" lon="6.08252">
        <ele>412.3</ele>
        <time>2025-09-14T10:52:43.000Z</time>
      </trkpt>
      <trkpt lat="43.72216" lon="6.08252">
        <ele>412.3</ele>
        <time>2025-09-14T10:52:44.000Z</time>
      </trkpt>
      <trkpt lat="43.72216" lon="6.08252">
        <ele>412.5</ele>
        <time>2025-09-14T10:53:10.000Z</time>
      </trkpt>
      <trkpt lat="43.72216" lon="6.08252">
        <ele>412.5</ele>
        <time>2025-09-14T10:53:11.000Z</time>
      </trkpt>
      <trkpt lat="43.72216" lon="6.08252">
        <ele>412.5</ele>
        <time>2025-09-14T10:53:12.000Z</time>
      </trkpt>
      <trkpt lat="43.72216" lon="6.08252">
        <ele>412.5</ele>
        <time>2025-09-14T10:53:13.000Z</time>
      </trkpt>
      <trkpt lat="43.72216" lon="6.08252">
        <ele>412.6</ele>
        <time>2025-09-14T10:53:14.000Z</time>
      </trkpt>
      <trkpt lat="43.72216" lon="6.08252">
        <ele>412.6</ele>
        <time>2025-09-14T10:53:15.000Z</time>
      </trkpt>
      <trkpt lat="43.72215" lon="6.08252">
        <ele>412.6</ele>
        <time>2025-09-14T10:53:16.000Z</time>
      </trkpt>
      <trkpt lat="43.72215" lon="6.08252">
        <ele>412.6</ele>
        <time>2025-09-14T10:53:17.000Z</time>
      </trkpt>
      <trkpt lat="43.72217" lon="6.08254">
        <ele>412.5</ele>
        <time>2025-09-14T10:53:45.000Z</time>
      </trkpt>
      <trkpt lat="43.72217" lon="6.08254">
        <ele>412.5</ele>
        <time>2025-09-14T10:53:46.000Z</time>
      </trkpt>
      <trkpt lat="43.72217" lon="6.08254">
        <ele>412.5</ele>
        <time>2025-09-14T10:53:50.000Z</time>
      </trkpt>
      <trkpt lat="43.72217" lon="6.08254">
        <ele>412.5</ele>
        <time>2025-09-14T10:53:51.000Z</time>
      </trkpt>
      <trkpt lat="43.72217" lon="6.08254">
        <ele>412.5</ele>
        <time>2025-09-14T10:53:52.000Z</time>
      </trkpt>
      <trkpt lat="43.72217" lon="6.08254">
        <ele>412.5</ele>
        <time>2025-09-14T10:53:53.000Z</time>
      </trkpt>
      <trkpt lat="43.72217" lon="6.08254">
        <ele>412.5</ele>
        <time>2025-09-14T10:53:54.000Z</time>
      </trkpt>
      <trkpt lat="43.72217" lon="6.08254">
        <ele>412.5</ele>
        <time>2025-09-14T10:53:55.000Z</time>
      </trkpt>
      <trkpt lat="43.72217" lon="6.08254">
        <ele>412.5</ele>
        <time>2025-09-14T10:53:56.000Z</time>
      </trkpt>
      <trkpt lat="43.72217" lon="6.08254">
        <ele>412.5</ele>
        <time>2025-09-14T10:53:57.000Z</time>
      </trkpt>
      <trkpt lat="43.72217" lon="6.08254">
        <ele>412.5</ele>
        <time>2025-09-14T10:53:58.000Z</time>
      </trkpt>
      <trkpt lat="43.72217" lon="6.08254">
        <ele>412.5</ele>
        <time>2025-09-14T10:53:59.000Z</time>
      </trkpt>
      <trkpt lat="43.72217" lon="6.08254">
        <ele>412.5</ele>
        <time>2025-09-14T10:54:00.000Z</time>
      </trkpt>
      <trkpt lat="43.72217" lon="6.08254">
        <ele>412.6</ele>
        <time>2025-09-14T10:54:01.000Z</time>
      </trkpt>
      <trkpt lat="43.72217" lon="6.08254">
        <ele>412.6</ele>
        <time>2025-09-14T10:54:02.000Z</time>
      </trkpt>
      <trkpt lat="43.72217" lon="6.08254">
        <ele>412.6</ele>
        <time>2025-09-14T10:54:03.000Z</time>
      </trkpt>
      <trkpt lat="43.72217" lon="6.08254">
        <ele>412.6</ele>
        <time>2025-09-14T10:54:04.000Z</time>
      </trkpt>
      <trkpt lat="43.72216" lon="6.08254">
        <ele>412.6</ele>
        <time>2025-09-14T10:54:18.000Z</time>
      </trkpt>
      <trkpt lat="43.72217" lon="6.08255">
        <ele>412.6</ele>
        <time>2025-09-14T10:54:19.000Z</time>
      </trkpt>
      <trkpt lat="43.72219" lon="6.08255">
        <ele>412.6</ele>
        <time>2025-09-14T10:54:20.000Z</time>
      </trkpt>
      <trkpt lat="43.72225" lon="6.08251">
        <ele>412.6</ele>
        <time>2025-09-14T10:54:53.000Z</time>
      </trkpt>
      <trkpt lat="43.72226" lon="6.08251">
        <ele>412.6</ele>
        <time>2025-09-14T10:54:54.000Z</time>
      </trkpt>
      <trkpt lat="43.72226" lon="6.08251">
        <ele>412.6</ele>
        <time>2025-09-14T10:54:55.000Z</time>
      </trkpt>
      <trkpt lat="43.72226" lon="6.08251">
        <ele>412.6</ele>
        <time>2025-09-14T10:54:56.000Z</time>
      </trkpt>
      <trkpt lat="43.72226" lon="6.08251">
        <ele>412.6</ele>
        <time>2025-09-14T10:54:57.000Z</time>
      </trkpt>
      <trkpt lat="43.72226" lon="6.08251">
        <ele>412.6</ele>
        <time>2025-09-14T10:54:58.000Z</time>
      </trkpt>
      <trkpt lat="43.72226" lon="6.08251">
        <ele>412.6</ele>
        <time>2025-09-14T10:54:59.000Z</time>
      </trkpt>
      <trkpt lat="43.72226" lon="6.08251">
        <ele>412.6</ele>
        <time>2025-09-14T10:55:00.000Z</time>
      </trkpt>
      <trkpt lat="43.72225" lon="6.08251">
        <ele>412.6</ele>
        <time>2025-09-14T10:55:01.000Z</time>
      </trkpt>
      <trkpt lat="43.72225" lon="6.08251">
        <ele>412.6</ele>
        <time>2025-09-14T10:55:02.000Z</time>
      </trkpt>
      <trkpt lat="43.72225" lon="6.08251">
        <ele>412.6</ele>
        <time>2025-09-14T10:55:05.000Z</time>
      </trkpt>
      <trkpt lat="43.72225" lon="6.08251">
        <ele>412.6</ele>
        <time>2025-09-14T10:55:06.000Z</time>
      </trkpt>
      <trkpt lat="43.72225" lon="6.08251">
        <ele>412.6</ele>
        <time>2025-09-14T10:55:07.000Z</time>
      </trkpt>
      <trkpt lat="43.72226" lon="6.08251">
        <ele>412.6</ele>
        <time>2025-09-14T10:55:08.000Z</time>
      </trkpt>
      <trkpt lat="43.72225" lon="6.08251">
        <ele>412.6</ele>
        <time>2025-09-14T10:55:09.000Z</time>
      </trkpt>
      <trkpt lat="43.72226" lon="6.08251">
        <ele>412.6</ele>
        <time>2025-09-14T10:55:12.000Z</time>
      </trkpt>
      <trkpt lat="43.72226" lon="6.08251">
        <ele>412.6</ele>
        <time>2025-09-14T10:55:13.000Z</time>
      </trkpt>
      <trkpt lat="43.72226" lon="6.08251">
        <ele>412.6</ele>
        <time>2025-09-14T10:55:14.000Z</time>
      </trkpt>
      <trkpt lat="43.72226" lon="6.0825">
        <ele>412.6</ele>
        <time>2025-09-14T10:55:18.000Z</time>
      </trkpt>
      <trkpt lat="43.72225" lon="6.0825">
        <ele>412.6</ele>
        <time>2025-09-14T10:55:19.000Z</time>
      </trkpt>
      <trkpt lat="43.72216" lon="6.08249">
        <ele>412.6</ele>
        <time>2025-09-14T10:55:31.000Z</time>
      </trkpt>
      <trkpt lat="43.72216" lon="6.0825">
        <ele>412.6</ele>
        <time>2025-09-14T10:55:36.000Z</time>
      </trkpt>
      <trkpt lat="43.72216" lon="6.08251">
        <ele>412.5</ele>
        <time>2025-09-14T10:55:37.000Z</time>
      </trkpt>
      <trkpt lat="43.72216" lon="6.08251">
        <ele>412.5</ele>
        <time>2025-09-14T10:55:38.000Z</time>
      </trkpt>
      <trkpt lat="43.72216" lon="6.08252">
        <ele>412.5</ele>
        <time>2025-09-14T10:55:39.000Z</time>
      </trkpt>
      <trkpt lat="43.72217" lon="6.08259">
        <ele>412.5</ele>
        <time>2025-09-14T10:55:48.000Z</time>
      </trkpt>
      <trkpt lat="43.72217" lon="6.08259">
        <ele>412.4</ele>
        <time>2025-09-14T10:55:49.000Z</time>
      </trkpt>
      <trkpt lat="43.72217" lon="6.08259">
        <ele>412.4</ele>
        <time>2025-09-14T10:55:50.000Z</time>
      </trkpt>
      <trkpt lat="43.72217" lon="6.08258">
        <ele>412.4</ele>
        <time>2025-09-14T10:55:51.000Z</time>
      </trkpt>
      <trkpt lat="43.72217" lon="6.08258">
        <ele>412.4</ele>
        <time>2025-09-14T10:55:52.000Z</time>
      </trkpt>
      <trkpt lat="43.72216" lon="6.08256">
        <ele>412.4</ele>
        <time>2025-09-14T10:55:57.000Z</time>
      </trkpt>
      <trkpt lat="43.72216" lon="6.08256">
        <ele>412.3</ele>
        <time>2025-09-14T10:55:58.000Z</time>
      </trkpt>
      <trkpt lat="43.72216" lon="6.08256">
        <ele>412.3</ele>
        <time>2025-09-14T10:55:59.000Z</time>
      </trkpt>
      <trkpt lat="43.72216" lon="6.08255">
        <ele>412.3</ele>
        <time>2025-09-14T10:56:00.000Z</time>
      </trkpt>
      <trkpt lat="43.72216" lon="6.08255">
        <ele>412.3</ele>
        <time>2025-09-14T10:56:01.000Z</time>
      </trkpt>
      <trkpt lat="43.72216" lon="6.08251">
        <ele>412.3</ele>
        <time>2025-09-14T10:56:10.000Z</time>
      </trkpt>
      <trkpt lat="43.72216" lon="6.08251">
        <ele>412.3</ele>
        <time>2025-09-14T10:56:11.000Z</time>
      </trkpt>
      <trkpt lat="43.72217" lon="6.08251">
        <ele>412.9</ele>
        <time>2025-09-14T10:56:47.000Z</time>
      </trkpt>
      <trkpt lat="43.72218" lon="6.08251">
        <ele>412.9</ele>
        <time>2025-09-14T10:56:48.000Z</time>
      </trkpt>
      <trkpt lat="43.72218" lon="6.08251">
        <ele>412.9</ele>
        <time>2025-09-14T10:56:49.000Z</time>
      </trkpt>
      <trkpt lat="43.72218" lon="6.08251">
        <ele>412.9</ele>
        <time>2025-09-14T10:56:52.000Z</time>
      </trkpt>
      <trkpt lat="43.72218" lon="6.08251">
        <ele>412.9</ele>
        <time>2025-09-14T10:56:53.000Z</time>
      </trkpt>
      <trkpt lat="43.72218" lon="6.08251">
        <ele>412.9</ele>
        <time>2025-09-14T10:56:54.000Z</time>
      </trkpt>
      <trkpt lat="43.72218" lon="6.08251">
        <ele>412.9</ele>
        <time>2025-09-14T10:57:00.000Z</time>
      </trkpt>
      <trkpt lat="43.72218" lon="6.0825">
        <ele>412.9</ele>
        <time>2025-09-14T10:57:01.000Z</time>
      </trkpt>
      <trkpt lat="43.72217" lon="6.0825">
        <ele>412.9</ele>
        <time>2025-09-14T10:57:05.000Z</time>
      </trkpt>
      <trkpt lat="43.72217" lon="6.0825">
        <ele>412.9</ele>
        <time>2025-09-14T10:57:06.000Z</time>
      </trkpt>
      <trkpt lat="43.72215" lon="6.0825">
        <ele>413</ele>
        <time>2025-09-14T10:57:36.000Z</time>
      </trkpt>
      <trkpt lat="43.72214" lon="6.0825">
        <ele>413</ele>
        <time>2025-09-14T10:57:37.000Z</time>
      </trkpt>
      <trkpt lat="43.72213" lon="6.08251">
        <ele>412.9</ele>
        <time>2025-09-14T10:57:45.000Z</time>
      </trkpt>
      <trkpt lat="43.72213" lon="6.08251">
        <ele>412.9</ele>
        <time>2025-09-14T10:57:46.000Z</time>
      </trkpt>
      <trkpt lat="43.72213" lon="6.08251">
        <ele>412.9</ele>
        <time>2025-09-14T10:57:47.000Z</time>
      </trkpt>
      <trkpt lat="43.72213" lon="6.08251">
        <ele>412.8</ele>
        <time>2025-09-14T10:58:01.000Z</time>
      </trkpt>
      <trkpt lat="43.72213" lon="6.08251">
        <ele>412.8</ele>
        <time>2025-09-14T10:58:02.000Z</time>
      </trkpt>
      <trkpt lat="43.72213" lon="6.08251">
        <ele>412.8</ele>
        <time>2025-09-14T10:58:03.000Z</time>
      </trkpt>
      <trkpt lat="43.72213" lon="6.08251">
        <ele>412.8</ele>
        <time>2025-09-14T10:58:04.000Z</time>
      </trkpt>
      <trkpt lat="43.72213" lon="6.08251">
        <ele>412.8</ele>
        <time>2025-09-14T10:58:05.000Z</time>
      </trkpt>
      <trkpt lat="43.72213" lon="6.08251">
        <ele>412.8</ele>
        <time>2025-09-14T10:58:06.000Z</time>
      </trkpt>
      <trkpt lat="43.72213" lon="6.08251">
        <ele>412.8</ele>
        <time>2025-09-14T10:58:07.000Z</time>
      </trkpt>
      <trkpt lat="43.72213" lon="6.08251">
        <ele>412.8</ele>
        <time>2025-09-14T10:58:08.000Z</time>
      </trkpt>
      <trkpt lat="43.72213" lon="6.08251">
        <ele>412.8</ele>
        <time>2025-09-14T10:58:09.000Z</time>
      </trkpt>
      <trkpt lat="43.72213" lon="6.08254">
        <ele>412.8</ele>
        <time>2025-09-14T11:01:12.000Z</time>
      </trkpt>
      <trkpt lat="43.72213" lon="6.08254">
        <ele>412.8</ele>
        <time>2025-09-14T11:01:13.000Z</time>
      </trkpt>
      <trkpt lat="43.72213" lon="6.08254">
        <ele>412.8</ele>
        <time>2025-09-14T11:01:14.000Z</time>
      </trkpt>
      <trkpt lat="43.72214" lon="6.08256">
        <ele>412.8</ele>
        <time>2025-09-14T11:01:25.000Z</time>
      </trkpt>
      <trkpt lat="43.72214" lon="6.08256">
        <ele>412.8</ele>
        <time>2025-09-14T11:01:26.000Z</time>
      </trkpt>
      <trkpt lat="43.72214" lon="6.08256">
        <ele>412.8</ele>
        <time>2025-09-14T11:01:27.000Z</time>
      </trkpt>
      <trkpt lat="43.72214" lon="6.08255">
        <ele>412.7</ele>
        <time>2025-09-14T11:01:33.000Z</time>
      </trkpt>
      <trkpt lat="43.72214" lon="6.08255">
        <ele>412.7</ele>
        <time>2025-09-14T11:01:34.000Z</time>
      </trkpt>
      <trkpt lat="43.72214" lon="6.08255">
        <ele>412.7</ele>
        <time>2025-09-14T11:01:35.000Z</time>
      </trkpt>
      <trkpt lat="43.72214" lon="6.08255">
        <ele>412.7</ele>
        <time>2025-09-14T11:01:36.000Z</time>
      </trkpt>
      <trkpt lat="43.72214" lon="6.08255">
        <ele>412.7</ele>
        <time>2025-09-14T11:01:37.000Z</time>
      </trkpt>
      <trkpt lat="43.72214" lon="6.08255">
        <ele>412.8</ele>
        <time>2025-09-14T11:02:05.000Z</time>
      </trkpt>
      <trkpt lat="43.72214" lon="6.08255">
        <ele>412.8</ele>
        <time>2025-09-14T11:02:06.000Z</time>
      </trkpt>
      <trkpt lat="43.72215" lon="6.08255">
        <ele>412.8</ele>
        <time>2025-09-14T11:02:13.000Z</time>
      </trkpt>
      <trkpt lat="43.72215" lon="6.08255">
        <ele>412.8</ele>
        <time>2025-09-14T11:02:14.000Z</time>
      </trkpt>
      <trkpt lat="43.72217" lon="6.08254">
        <ele>412.8</ele>
        <time>2025-09-14T11:02:22.000Z</time>
      </trkpt>
      <trkpt lat="43.72217" lon="6.08253">
        <ele>412.8</ele>
        <time>2025-09-14T11:02:23.000Z</time>
      </trkpt>
      <trkpt lat="43.72218" lon="6.08253">
        <ele>412.8</ele>
        <time>2025-09-14T11:02:24.000Z</time>
      </trkpt>
      <trkpt lat="43.72222" lon="6.0825">
        <ele>412.9</ele>
        <time>2025-09-14T11:02:38.000Z</time>
      </trkpt>
      <trkpt lat="43.72222" lon="6.0825">
        <ele>412.9</ele>
        <time>2025-09-14T11:02:39.000Z</time>
      </trkpt>
      <trkpt lat="43.72223" lon="6.08249">
        <ele>413.2</ele>
        <time>2025-09-14T11:02:53.000Z</time>
      </trkpt>
      <trkpt lat="43.72223" lon="6.08248">
        <ele>413.2</ele>
        <time>2025-09-14T11:02:54.000Z</time>
      </trkpt>
      <trkpt lat="43.72223" lon="6.08248">
        <ele>413.2</ele>
        <time>2025-09-14T11:02:55.000Z</time>
      </trkpt>
      <trkpt lat="43.72223" lon="6.08248">
        <ele>413.2</ele>
        <time>2025-09-14T11:02:56.000Z</time>
      </trkpt>
      <trkpt lat="43.72223" lon="6.08246">
        <ele>413.6</ele>
        <time>2025-09-14T11:03:25.000Z</time>
      </trkpt>
      <trkpt lat="43.72223" lon="6.08246">
        <ele>413.6</ele>
        <time>2025-09-14T11:03:26.000Z</time>
      </trkpt>
      <trkpt lat="43.72222" lon="6.08245">
        <ele>413.6</ele>
        <time>2025-09-14T11:03:30.000Z</time>
      </trkpt>
      <trkpt lat="43.72222" lon="6.08245">
        <ele>413.6</ele>
        <time>2025-09-14T11:03:31.000Z</time>
      </trkpt>
      <trkpt lat="43.72222" lon="6.08245">
        <ele>413.6</ele>
        <time>2025-09-14T11:03:32.000Z</time>
      </trkpt>
      <trkpt lat="43.72222" lon="6.08245">
        <ele>413.6</ele>
        <time>2025-09-14T11:03:36.000Z</time>
      </trkpt>
      <trkpt lat="43.72222" lon="6.08245">
        <ele>413.6</ele>
        <time>2025-09-14T11:03:37.000Z</time>
      </trkpt>
      <trkpt lat="43.72222" lon="6.08245">
        <ele>413.6</ele>
        <time>2025-09-14T11:03:38.000Z</time>
      </trkpt>
      <trkpt lat="43.72222" lon="6.08245">
        <ele>413.6</ele>
        <time>2025-09-14T11:03:39.000Z</time>
      </trkpt>
      <trkpt lat="43.72221" lon="6.08245">
        <ele>413.6</ele>
        <time>2025-09-14T11:03:40.000Z</time>
      </trkpt>
      <trkpt lat="43.7222" lon="6.08243">
        <ele>413.6</ele>
        <time>2025-09-14T11:04:36.000Z</time>
      </trkpt>
      <trkpt lat="43.7222" lon="6.08243">
        <ele>413.6</ele>
        <time>2025-09-14T11:04:37.000Z</time>
      </trkpt>
      <trkpt lat="43.7222" lon="6.08243">
        <ele>413.6</ele>
        <time>2025-09-14T11:04:38.000Z</time>
      </trkpt>
      <trkpt lat="43.7222" lon="6.08243">
        <ele>413.6</ele>
        <time>2025-09-14T11:04:39.000Z</time>
      </trkpt>
      <trkpt lat="43.72221" lon="6.08244">
        <ele>413.6</ele>
        <time>2025-09-14T11:05:27.000Z</time>
      </trkpt>
      <trkpt lat="43.72222" lon="6.08244">
        <ele>413.6</ele>
        <time>2025-09-14T11:05:28.000Z</time>
      </trkpt>
      <trkpt lat="43.72223" lon="6.08244">
        <ele>413.6</ele>
        <time>2025-09-14T11:05:29.000Z</time>
      </trkpt>
      <trkpt lat="43.72224" lon="6.08244">
        <ele>413.6</ele>
        <time>2025-09-14T11:05:36.000Z</time>
      </trkpt>
      <trkpt lat="43.72225" lon="6.08244">
        <ele>413.6</ele>
        <time>2025-09-14T11:05:37.000Z</time>
      </trkpt>
      <trkpt lat="43.72225" lon="6.08244">
        <ele>413.6</ele>
        <time>2025-09-14T11:05:38.000Z</time>
      </trkpt>
      <trkpt lat="43.72226" lon="6.08245">
        <ele>413.6</ele>
        <time>2025-09-14T11:05:39.000Z</time>
      </trkpt>
      <trkpt lat="43.72226" lon="6.08245">
        <ele>413.6</ele>
        <time>2025-09-14T11:05:40.000Z</time>
      </trkpt>
      <trkpt lat="43.72235" lon="6.08244">
        <ele>413.6</ele>
        <time>2025-09-14T11:05:54.000Z</time>
      </trkpt>
      <trkpt lat="43.72237" lon="6.08244">
        <ele>413.6</ele>
        <time>2025-09-14T11:05:57.000Z</time>
      </trkpt>
      <trkpt lat="43.72237" lon="6.08244">
        <ele>413.6</ele>
        <time>2025-09-14T11:05:58.000Z</time>
      </trkpt>
      <trkpt lat="43.72237" lon="6.08244">
        <ele>413.6</ele>
        <time>2025-09-14T11:05:59.000Z</time>
      </trkpt>
      <trkpt lat="43.72237" lon="6.08244">
        <ele>413.6</ele>
        <time>2025-09-14T11:06:05.000Z</time>
      </trkpt>
      <trkpt lat="43.72237" lon="6.08244">
        <ele>413.6</ele>
        <time>2025-09-14T11:06:06.000Z</time>
      </trkpt>
      <trkpt lat="43.72238" lon="6.08244">
        <ele>413.6</ele>
        <time>2025-09-14T11:06:07.000Z</time>
      </trkpt>
      <trkpt lat="43.72247" lon="6.08243">
        <ele>413.7</ele>
        <time>2025-09-14T11:06:21.000Z</time>
      </trkpt>
      <trkpt lat="43.72255" lon="6.08236">
        <ele>413.6</ele>
        <time>2025-09-14T11:06:33.000Z</time>
      </trkpt>
      <trkpt lat="43.72255" lon="6.08236">
        <ele>413.6</ele>
        <time>2025-09-14T11:06:36.000Z</time>
      </trkpt>
      <trkpt lat="43.72255" lon="6.08236">
        <ele>413.6</ele>
        <time>2025-09-14T11:06:37.000Z</time>
      </trkpt>
      <trkpt lat="43.72255" lon="6.08235">
        <ele>413.6</ele>
        <time>2025-09-14T11:06:38.000Z</time>
      </trkpt>
      <trkpt lat="43.72256" lon="6.08235">
        <ele>413.6</ele>
        <time>2025-09-14T11:06:39.000Z</time>
      </trkpt>
      <trkpt lat="43.72264" lon="6.08226">
        <ele>413.6</ele>
        <time>2025-09-14T11:06:48.000Z</time>
      </trkpt>
      <trkpt lat="43.72269" lon="6.08215">
        <ele>413.5</ele>
        <time>2025-09-14T11:06:57.000Z</time>
      </trkpt>
      <trkpt lat="43.72276" lon="6.08206">
        <ele>413.4</ele>
        <time>2025-09-14T11:07:09.000Z</time>
      </trkpt>
      <trkpt lat="43.72285" lon="6.08207">
        <ele>413.3</ele>
        <time>2025-09-14T11:07:20.000Z</time>
      </trkpt>
      <trkpt lat="43.72295" lon="6.08207">
        <ele>413.2</ele>
        <time>2025-09-14T11:07:28.000Z</time>
      </trkpt>
      <trkpt lat="43.72297" lon="6.08206">
        <ele>413.2</ele>
        <time>2025-09-14T11:07:31.000Z</time>
      </trkpt>
      <trkpt lat="43.72297" lon="6.08206">
        <ele>413.2</ele>
        <time>2025-09-14T11:07:32.000Z</time>
      </trkpt>
      <trkpt lat="43.72297" lon="6.08206">
        <ele>413.2</ele>
        <time>2025-09-14T11:07:33.000Z</time>
      </trkpt>
      <trkpt lat="43.72297" lon="6.08206">
        <ele>413.2</ele>
        <time>2025-09-14T11:07:34.000Z</time>
      </trkpt>
      <trkpt lat="43.72306" lon="6.08211">
        <ele>413</ele>
        <time>2025-09-14T11:07:55.000Z</time>
      </trkpt>
      <trkpt lat="43.72307" lon="6.08211">
        <ele>413</ele>
        <time>2025-09-14T11:07:58.000Z</time>
      </trkpt>
      <trkpt lat="43.72307" lon="6.08211">
        <ele>413</ele>
        <time>2025-09-14T11:07:59.000Z</time>
      </trkpt>
      <trkpt lat="43.72307" lon="6.08211">
        <ele>413</ele>
        <time>2025-09-14T11:08:00.000Z</time>
      </trkpt>
      <trkpt lat="43.72309" lon="6.08212">
        <ele>413</ele>
        <time>2025-09-14T11:08:11.000Z</time>
      </trkpt>
      <trkpt lat="43.7231" lon="6.08212">
        <ele>412.9</ele>
        <time>2025-09-14T11:08:12.000Z</time>
      </trkpt>
      <trkpt lat="43.72315" lon="6.08222">
        <ele>412.9</ele>
        <time>2025-09-14T11:08:27.000Z</time>
      </trkpt>
      <trkpt lat="43.7232" lon="6.08233">
        <ele>412.9</ele>
        <time>2025-09-14T11:08:41.000Z</time>
      </trkpt>
      <trkpt lat="43.72326" lon="6.08243">
        <ele>412.9</ele>
        <time>2025-09-14T11:08:50.000Z</time>
      </trkpt>
      <trkpt lat="43.72332" lon="6.08254">
        <ele>413</ele>
        <time>2025-09-14T11:09:00.000Z</time>
      </trkpt>
      <trkpt lat="43.72341" lon="6.08259">
        <ele>413</ele>
        <time>2025-09-14T11:09:11.000Z</time>
      </trkpt>
      <trkpt lat="43.72349" lon="6.08267">
        <ele>413</ele>
        <time>2025-09-14T11:09:21.000Z</time>
      </trkpt>
      <trkpt lat="43.72358" lon="6.08273">
        <ele>413</ele>
        <time>2025-09-14T11:09:31.000Z</time>
      </trkpt>
      <trkpt lat="43.72367" lon="6.08279">
        <ele>413.1</ele>
        <time>2025-09-14T11:09:41.000Z</time>
      </trkpt>
      <trkpt lat="43.72377" lon="6.08282">
        <ele>413.1</ele>
        <time>2025-09-14T11:09:50.000Z</time>
      </trkpt>
      <trkpt lat="43.72386" lon="6.08285">
        <ele>413.1</ele>
        <time>2025-09-14T11:09:59.000Z</time>
      </trkpt>
      <trkpt lat="43.72395" lon="6.08287">
        <ele>413.1</ele>
        <time>2025-09-14T11:10:09.000Z</time>
      </trkpt>
      <trkpt lat="43.72404" lon="6.0829">
        <ele>413.1</ele>
        <time>2025-09-14T11:10:18.000Z</time>
      </trkpt>
      <trkpt lat="43.72413" lon="6.08294">
        <ele>413.1</ele>
        <time>2025-09-14T11:10:29.000Z</time>
      </trkpt>
      <trkpt lat="43.72421" lon="6.08301">
        <ele>413.1</ele>
        <time>2025-09-14T11:10:39.000Z</time>
      </trkpt>
      <trkpt lat="43.7243" lon="6.08307">
        <ele>413.1</ele>
        <time>2025-09-14T11:10:48.000Z</time>
      </trkpt>
      <trkpt lat="43.72438" lon="6.08315">
        <ele>413.1</ele>
        <time>2025-09-14T11:10:58.000Z</time>
      </trkpt>
      <trkpt lat="43.72446" lon="6.0832">
        <ele>413.2</ele>
        <time>2025-09-14T11:11:05.000Z</time>
      </trkpt>
      <trkpt lat="43.72455" lon="6.08323">
        <ele>413.2</ele>
        <time>2025-09-14T11:11:14.000Z</time>
      </trkpt>
      <trkpt lat="43.72465" lon="6.08324">
        <ele>413.2</ele>
        <time>2025-09-14T11:11:24.000Z</time>
      </trkpt>
      <trkpt lat="43.72474" lon="6.08324">
        <ele>413.2</ele>
        <time>2025-09-14T11:11:31.000Z</time>
      </trkpt>
      <trkpt lat="43.72484" lon="6.08319">
        <ele>413</ele>
        <time>2025-09-14T11:11:38.000Z</time>
      </trkpt>
      <trkpt lat="43.72492" lon="6.08313">
        <ele>412.7</ele>
        <time>2025-09-14T11:11:45.000Z</time>
      </trkpt>
      <trkpt lat="43.725" lon="6.08305">
        <ele>412.4</ele>
        <time>2025-09-14T11:11:54.000Z</time>
      </trkpt>
      <trkpt lat="43.72508" lon="6.083">
        <ele>412.3</ele>
        <time>2025-09-14T11:12:04.000Z</time>
      </trkpt>
      <trkpt lat="43.72517" lon="6.08302">
        <ele>412.3</ele>
        <time>2025-09-14T11:12:12.000Z</time>
      </trkpt>
      <trkpt lat="43.72525" lon="6.08308">
        <ele>412.2</ele>
        <time>2025-09-14T11:12:22.000Z</time>
      </trkpt>
      <trkpt lat="43.72532" lon="6.08317">
        <ele>412.1</ele>
        <time>2025-09-14T11:12:32.000Z</time>
      </trkpt>
      <trkpt lat="43.72537" lon="6.08328">
        <ele>412.1</ele>
        <time>2025-09-14T11:12:44.000Z</time>
      </trkpt>
      <trkpt lat="43.72539" lon="6.08341">
        <ele>411.9</ele>
        <time>2025-09-14T11:12:53.000Z</time>
      </trkpt>
      <trkpt lat="43.72542" lon="6.08354">
        <ele>411.6</ele>
        <time>2025-09-14T11:13:03.000Z</time>
      </trkpt>
      <trkpt lat="43.72545" lon="6.08366">
        <ele>411.2</ele>
        <time>2025-09-14T11:13:13.000Z</time>
      </trkpt>
      <trkpt lat="43.72549" lon="6.08378">
        <ele>411</ele>
        <time>2025-09-14T11:13:24.000Z</time>
      </trkpt>
      <trkpt lat="43.72548" lon="6.08391">
        <ele>410.9</ele>
        <time>2025-09-14T11:13:34.000Z</time>
      </trkpt>
      <trkpt lat="43.72546" lon="6.08404">
        <ele>410.8</ele>
        <time>2025-09-14T11:13:45.000Z</time>
      </trkpt>
      <trkpt lat="43.72545" lon="6.08416">
        <ele>410.7</ele>
        <time>2025-09-14T11:13:54.000Z</time>
      </trkpt>
      <trkpt lat="43.72542" lon="6.08428">
        <ele>410.7</ele>
        <time>2025-09-14T11:14:03.000Z</time>
      </trkpt>
      <trkpt lat="43.7254" lon="6.08442">
        <ele>410.8</ele>
        <time>2025-09-14T11:14:13.000Z</time>
      </trkpt>
      <trkpt lat="43.72538" lon="6.08454">
        <ele>410.8</ele>
        <time>2025-09-14T11:14:22.000Z</time>
      </trkpt>
      <trkpt lat="43.72538" lon="6.08455">
        <ele>410.8</ele>
        <time>2025-09-14T11:14:30.000Z</time>
      </trkpt>
      <trkpt lat="43.72538" lon="6.08455">
        <ele>410.8</ele>
        <time>2025-09-14T11:14:31.000Z</time>
      </trkpt>
      <trkpt lat="43.72538" lon="6.08455">
        <ele>410.8</ele>
        <time>2025-09-14T11:14:32.000Z</time>
      </trkpt>
      <trkpt lat="43.72538" lon="6.08455">
        <ele>410.8</ele>
        <time>2025-09-14T11:14:33.000Z</time>
      </trkpt>
      <trkpt lat="43.72538" lon="6.08455">
        <ele>410.8</ele>
        <time>2025-09-14T11:14:34.000Z</time>
      </trkpt>
      <trkpt lat="43.72538" lon="6.08454">
        <ele>410.8</ele>
        <time>2025-09-14T11:14:40.000Z</time>
      </trkpt>
      <trkpt lat="43.72538" lon="6.08454">
        <ele>410.8</ele>
        <time>2025-09-14T11:14:41.000Z</time>
      </trkpt>
      <trkpt lat="43.72538" lon="6.08454">
        <ele>410.8</ele>
        <time>2025-09-14T11:15:18.000Z</time>
      </trkpt>
      <trkpt lat="43.72538" lon="6.08454">
        <ele>410.8</ele>
        <time>2025-09-14T11:15:19.000Z</time>
      </trkpt>
      <trkpt lat="43.72537" lon="6.08468">
        <ele>410.7</ele>
        <time>2025-09-14T11:15:39.000Z</time>
      </trkpt>
      <trkpt lat="43.72531" lon="6.08479">
        <ele>410.8</ele>
        <time>2025-09-14T11:15:53.000Z</time>
      </trkpt>
      <trkpt lat="43.72523" lon="6.08488">
        <ele>410.8</ele>
        <time>2025-09-14T11:16:01.000Z</time>
      </trkpt>
      <trkpt lat="43.72515" lon="6.08495">
        <ele>410.8</ele>
        <time>2025-09-14T11:16:09.000Z</time>
      </trkpt>
      <trkpt lat="43.72508" lon="6.08503">
        <ele>410.8</ele>
        <time>2025-09-14T11:16:16.000Z</time>
      </trkpt>
      <trkpt lat="43.72503" lon="6.08514">
        <ele>410.8</ele>
        <time>2025-09-14T11:16:24.000Z</time>
      </trkpt>
      <trkpt lat="43.72496" lon="6.08525">
        <ele>410.8</ele>
        <time>2025-09-14T11:16:32.000Z</time>
      </trkpt>
      <trkpt lat="43.72489" lon="6.08534">
        <ele>410.9</ele>
        <time>2025-09-14T11:16:40.000Z</time>
      </trkpt>
      <trkpt lat="43.72484" lon="6.08547">
        <ele>410.9</ele>
        <time>2025-09-14T11:16:47.000Z</time>
      </trkpt>
      <trkpt lat="43.7248" lon="6.08558">
        <ele>410.9</ele>
        <time>2025-09-14T11:16:54.000Z</time>
      </trkpt>
      <trkpt lat="43.72475" lon="6.0857">
        <ele>410.9</ele>
        <time>2025-09-14T11:17:03.000Z</time>
      </trkpt>
      <trkpt lat="43.7247" lon="6.08582">
        <ele>410.9</ele>
        <time>2025-09-14T11:17:14.000Z</time>
      </trkpt>
      <trkpt lat="43.72465" lon="6.08593">
        <ele>410.8</ele>
        <time>2025-09-14T11:17:25.000Z</time>
      </trkpt>
      <trkpt lat="43.7246" lon="6.08605">
        <ele>410.8</ele>
        <time>2025-09-14T11:17:36.000Z</time>
      </trkpt>
      <trkpt lat="43.72458" lon="6.08618">
        <ele>410.8</ele>
        <time>2025-09-14T11:17:46.000Z</time>
      </trkpt>
      <trkpt lat="43.72458" lon="6.08631">
        <ele>410.7</ele>
        <time>2025-09-14T11:17:54.000Z</time>
      </trkpt>
      <trkpt lat="43.72461" lon="6.08644">
        <ele>410.7</ele>
        <time>2025-09-14T11:18:03.000Z</time>
      </trkpt>
      <trkpt lat="43.72465" lon="6.08656">
        <ele>410.6</ele>
        <time>2025-09-14T11:18:13.000Z</time>
      </trkpt>
      <trkpt lat="43.72468" lon="6.08669">
        <ele>410.5</ele>
        <time>2025-09-14T11:18:23.000Z</time>
      </trkpt>
      <trkpt lat="43.72467" lon="6.08682">
        <ele>410.4</ele>
        <time>2025-09-14T11:18:34.000Z</time>
      </trkpt>
      <trkpt lat="43.72465" lon="6.08695">
        <ele>410.4</ele>
        <time>2025-09-14T11:18:44.000Z</time>
      </trkpt>
      <trkpt lat="43.72459" lon="6.08706">
        <ele>410.4</ele>
        <time>2025-09-14T11:18:55.000Z</time>
      </trkpt>
      <trkpt lat="43.72453" lon="6.08716">
        <ele>410.4</ele>
        <time>2025-09-14T11:19:07.000Z</time>
      </trkpt>
      <trkpt lat="43.72453" lon="6.08716">
        <ele>410.4</ele>
        <time>2025-09-14T11:19:12.000Z</time>
      </trkpt>
      <trkpt lat="43.72453" lon="6.08716">
        <ele>410.4</ele>
        <time>2025-09-14T11:19:13.000Z</time>
      </trkpt>
      <trkpt lat="43.72453" lon="6.08716">
        <ele>410.4</ele>
        <time>2025-09-14T11:19:14.000Z</time>
      </trkpt>
      <trkpt lat="43.72452" lon="6.08717">
        <ele>410.4</ele>
        <time>2025-09-14T11:19:17.000Z</time>
      </trkpt>
      <trkpt lat="43.72451" lon="6.08717">
        <ele>410.4</ele>
        <time>2025-09-14T11:19:18.000Z</time>
      </trkpt>
      <trkpt lat="43.7245" lon="6.08718">
        <ele>410.3</ele>
        <time>2025-09-14T11:19:19.000Z</time>
      </trkpt>
      <trkpt lat="43.72448" lon="6.08722">
        <ele>410.2</ele>
        <time>2025-09-14T11:19:35.000Z</time>
      </trkpt>
      <trkpt lat="43.72448" lon="6.08722">
        <ele>410.2</ele>
        <time>2025-09-14T11:19:36.000Z</time>
      </trkpt>
      <trkpt lat="43.72448" lon="6.08722">
        <ele>410.2</ele>
        <time>2025-09-14T11:19:37.000Z</time>
      </trkpt>
      <trkpt lat="43.72448" lon="6.08722">
        <ele>410</ele>
        <time>2025-09-14T11:20:18.000Z</time>
      </trkpt>
      <trkpt lat="43.72448" lon="6.08722">
        <ele>410</ele>
        <time>2025-09-14T11:20:19.000Z</time>
      </trkpt>
      <trkpt lat="43.72441" lon="6.08728">
        <ele>410</ele>
        <time>2025-09-14T11:20:35.000Z</time>
      </trkpt>
      <trkpt lat="43.72441" lon="6.08728">
        <ele>410</ele>
        <time>2025-09-14T11:20:36.000Z</time>
      </trkpt>
      <trkpt lat="43.72441" lon="6.08728">
        <ele>410</ele>
        <time>2025-09-14T11:20:37.000Z</time>
      </trkpt>
      <trkpt lat="43.72441" lon="6.08728">
        <ele>410</ele>
        <time>2025-09-14T11:20:38.000Z</time>
      </trkpt>
      <trkpt lat="43.7244" lon="6.08729">
        <ele>410</ele>
        <time>2025-09-14T11:20:39.000Z</time>
      </trkpt>
      <trkpt lat="43.72432" lon="6.08738">
        <ele>409.9</ele>
        <time>2025-09-14T11:20:49.000Z</time>
      </trkpt>
      <trkpt lat="43.72424" lon="6.08743">
        <ele>409.9</ele>
        <time>2025-09-14T11:20:59.000Z</time>
      </trkpt>
      <trkpt lat="43.72417" lon="6.08754">
        <ele>409.9</ele>
        <time>2025-09-14T11:21:07.000Z</time>
      </trkpt>
      <trkpt lat="43.72413" lon="6.08766">
        <ele>410</ele>
        <time>2025-09-14T11:21:16.000Z</time>
      </trkpt>
      <trkpt lat="43.72409" lon="6.08778">
        <ele>410</ele>
        <time>2025-09-14T11:21:24.000Z</time>
      </trkpt>
      <trkpt lat="43.72405" lon="6.0879">
        <ele>410</ele>
        <time>2025-09-14T11:21:32.000Z</time>
      </trkpt>
      <trkpt lat="43.72398" lon="6.08798">
        <ele>410</ele>
        <time>2025-09-14T11:21:41.000Z</time>
      </trkpt>
      <trkpt lat="43.7239" lon="6.08805">
        <ele>410.1</ele>
        <time>2025-09-14T11:21:53.000Z</time>
      </trkpt>
      <trkpt lat="43.72386" lon="6.08817">
        <ele>410.2</ele>
        <time>2025-09-14T11:22:02.000Z</time>
      </trkpt>
      <trkpt lat="43.72383" lon="6.08829">
        <ele>410.3</ele>
        <time>2025-09-14T11:22:10.000Z</time>
      </trkpt>
      <trkpt lat="43.72382" lon="6.08842">
        <ele>410.4</ele>
        <time>2025-09-14T11:22:19.000Z</time>
      </trkpt>
      <trkpt lat="43.72385" lon="6.08855">
        <ele>410.4</ele>
        <time>2025-09-14T11:22:27.000Z</time>
      </trkpt>
      <trkpt lat="43.72386" lon="6.08856">
        <ele>410.4</ele>
        <time>2025-09-14T11:22:32.000Z</time>
      </trkpt>
      <trkpt lat="43.72386" lon="6.08856">
        <ele>410.4</ele>
        <time>2025-09-14T11:22:33.000Z</time>
      </trkpt>
      <trkpt lat="43.72386" lon="6.08856">
        <ele>410.4</ele>
        <time>2025-09-14T11:22:34.000Z</time>
      </trkpt>
      <trkpt lat="43.72386" lon="6.08856">
        <ele>410.4</ele>
        <time>2025-09-14T11:22:43.000Z</time>
      </trkpt>
      <trkpt lat="43.72386" lon="6.08856">
        <ele>410.4</ele>
        <time>2025-09-14T11:22:44.000Z</time>
      </trkpt>
      <trkpt lat="43.72386" lon="6.08856">
        <ele>410.4</ele>
        <time>2025-09-14T11:22:45.000Z</time>
      </trkpt>
      <trkpt lat="43.72386" lon="6.08856">
        <ele>410.4</ele>
        <time>2025-09-14T11:22:48.000Z</time>
      </trkpt>
      <trkpt lat="43.72386" lon="6.08856">
        <ele>410.4</ele>
        <time>2025-09-14T11:22:49.000Z</time>
      </trkpt>
      <trkpt lat="43.72386" lon="6.08856">
        <ele>410.4</ele>
        <time>2025-09-14T11:22:50.000Z</time>
      </trkpt>
      <trkpt lat="43.72386" lon="6.08857">
        <ele>410.4</ele>
        <time>2025-09-14T11:22:55.000Z</time>
      </trkpt>
      <trkpt lat="43.72385" lon="6.08858">
        <ele>410.4</ele>
        <time>2025-09-14T11:22:56.000Z</time>
      </trkpt>
      <trkpt lat="43.72385" lon="6.08858">
        <ele>410.4</ele>
        <time>2025-09-14T11:22:57.000Z</time>
      </trkpt>
      <trkpt lat="43.72383" lon="6.08871">
        <ele>410.6</ele>
        <time>2025-09-14T11:23:11.000Z</time>
      </trkpt>
      <trkpt lat="43.72381" lon="6.08883">
        <ele>411</ele>
        <time>2025-09-14T11:23:23.000Z</time>
      </trkpt>
      <trkpt lat="43.72378" lon="6.08896">
        <ele>411.6</ele>
        <time>2025-09-14T11:23:35.000Z</time>
      </trkpt>
      <trkpt lat="43.72375" lon="6.08908">
        <ele>411.9</ele>
        <time>2025-09-14T11:23:45.000Z</time>
      </trkpt>
      <trkpt lat="43.7237" lon="6.0892">
        <ele>411.7</ele>
        <time>2025-09-14T11:23:59.000Z</time>
      </trkpt>
      <trkpt lat="43.72367" lon="6.08933">
        <ele>411.5</ele>
        <time>2025-09-14T11:24:07.000Z</time>
      </trkpt>
      <trkpt lat="43.72366" lon="6.08945">
        <ele>411.2</ele>
        <time>2025-09-14T11:24:20.000Z</time>
      </trkpt>
      <trkpt lat="43.72365" lon="6.08945">
        <ele>411.2</ele>
        <time>2025-09-14T11:24:25.000Z</time>
      </trkpt>
      <trkpt lat="43.72366" lon="6.08946">
        <ele>411.2</ele>
        <time>2025-09-14T11:24:26.000Z</time>
      </trkpt>
      <trkpt lat="43.72367" lon="6.08947">
        <ele>411.1</ele>
        <time>2025-09-14T11:24:27.000Z</time>
      </trkpt>
      <trkpt lat="43.72367" lon="6.08948">
        <ele>411.1</ele>
        <time>2025-09-14T11:24:28.000Z</time>
      </trkpt>
      <trkpt lat="43.72368" lon="6.08949">
        <ele>411.1</ele>
        <time>2025-09-14T11:24:29.000Z</time>
      </trkpt>
      <trkpt lat="43.72373" lon="6.08959">
        <ele>411.1</ele>
        <time>2025-09-14T11:24:38.000Z</time>
      </trkpt>
      <trkpt lat="43.72375" lon="6.08972">
        <ele>411.4</ele>
        <time>2025-09-14T11:24:47.000Z</time>
      </trkpt>
      <trkpt lat="43.72381" lon="6.08983">
        <ele>412.1</ele>
        <time>2025-09-14T11:24:59.000Z</time>
      </trkpt>
      <trkpt lat="43.7239" lon="6.08985">
        <ele>413</ele>
        <time>2025-09-14T11:25:14.000Z</time>
      </trkpt>
      <trkpt lat="43.724" lon="6.08985">
        <ele>414</ele>
        <time>2025-09-14T11:25:28.000Z</time>
      </trkpt>
      <trkpt lat="43.72404" lon="6.08988">
        <ele>414.8</ele>
        <time>2025-09-14T11:25:42.000Z</time>
      </trkpt>
      <trkpt lat="43.72404" lon="6.08988">
        <ele>414.9</ele>
        <time>2025-09-14T11:25:43.000Z</time>
      </trkpt>
      <trkpt lat="43.72404" lon="6.08988">
        <ele>414.9</ele>
        <time>2025-09-14T11:25:44.000Z</time>
      </trkpt>
      <trkpt lat="43.72404" lon="6.08988">
        <ele>414.9</ele>
        <time>2025-09-14T11:25:45.000Z</time>
      </trkpt>
      <trkpt lat="43.72404" lon="6.08988">
        <ele>415</ele>
        <time>2025-09-14T11:25:46.000Z</time>
      </trkpt>
      <trkpt lat="43.72404" lon="6.08988">
        <ele>415</ele>
        <time>2025-09-14T11:25:47.000Z</time>
      </trkpt>
      <trkpt lat="43.72404" lon="6.08988">
        <ele>415</ele>
        <time>2025-09-14T11:25:48.000Z</time>
      </trkpt>
      <trkpt lat="43.72404" lon="6.08988">
        <ele>415.1</ele>
        <time>2025-09-14T11:25:49.000Z</time>
      </trkpt>
      <trkpt lat="43.72404" lon="6.08988">
        <ele>415.2</ele>
        <time>2025-09-14T11:26:00.000Z</time>
      </trkpt>
      <trkpt lat="43.72404" lon="6.08988">
        <ele>415.2</ele>
        <time>2025-09-14T11:26:01.000Z</time>
      </trkpt>
      <trkpt lat="43.72404" lon="6.08988">
        <ele>415.2</ele>
        <time>2025-09-14T11:26:02.000Z</time>
      </trkpt>
      <trkpt lat="43.72404" lon="6.08988">
        <ele>415.2</ele>
        <time>2025-09-14T11:26:03.000Z</time>
      </trkpt>
      <trkpt lat="43.72404" lon="6.08988">
        <ele>415.2</ele>
        <time>2025-09-14T11:26:04.000Z</time>
      </trkpt>
      <trkpt lat="43.72404" lon="6.08988">
        <ele>415.2</ele>
        <time>2025-09-14T11:26:05.000Z</time>
      </trkpt>
      <trkpt lat="43.72404" lon="6.08988">
        <ele>415.3</ele>
        <time>2025-09-14T11:26:18.000Z</time>
      </trkpt>
      <trkpt lat="43.72404" lon="6.08988">
        <ele>415.3</ele>
        <time>2025-09-14T11:26:19.000Z</time>
      </trkpt>
      <trkpt lat="43.72404" lon="6.08987">
        <ele>415.3</ele>
        <time>2025-09-14T11:26:25.000Z</time>
      </trkpt>
      <trkpt lat="43.72404" lon="6.08987">
        <ele>415.3</ele>
        <time>2025-09-14T11:26:26.000Z</time>
      </trkpt>
      <trkpt lat="43.72404" lon="6.08987">
        <ele>415.4</ele>
        <time>2025-09-14T11:26:35.000Z</time>
      </trkpt>
      <trkpt lat="43.72404" lon="6.08987">
        <ele>415.4</ele>
        <time>2025-09-14T11:26:36.000Z</time>
      </trkpt>
      <trkpt lat="43.72404" lon="6.08987">
        <ele>415.4</ele>
        <time>2025-09-14T11:26:37.000Z</time>
      </trkpt>
      <trkpt lat="43.72414" lon="6.08986">
        <ele>415.6</ele>
        <time>2025-09-14T11:26:49.000Z</time>
      </trkpt>
      <trkpt lat="43.72423" lon="6.08983">
        <ele>416.2</ele>
        <time>2025-09-14T11:26:59.000Z</time>
      </trkpt>
      <trkpt lat="43.72432" lon="6.08988">
        <ele>417.8</ele>
        <time>2025-09-14T11:27:10.000Z</time>
      </trkpt>
      <trkpt lat="43.72431" lon="6.09002">
        <ele>418.7</ele>
        <time>2025-09-14T11:27:20.000Z</time>
      </trkpt>
      <trkpt lat="43.72432" lon="6.09016">
        <ele>420</ele>
        <time>2025-09-14T11:27:32.000Z</time>
      </trkpt>
      <trkpt lat="43.72438" lon="6.09026">
        <ele>420.9</ele>
        <time>2025-09-14T11:27:41.000Z</time>
      </trkpt>
      <trkpt lat="43.72444" lon="6.09037">
        <ele>421.7</ele>
        <time>2025-09-14T11:27:50.000Z</time>
      </trkpt>
      <trkpt lat="43.72453" lon="6.09041">
        <ele>422.7</ele>
        <time>2025-09-14T11:28:01.000Z</time>
      </trkpt>
      <trkpt lat="43.72462" lon="6.09045">
        <ele>423.9</ele>
        <time>2025-09-14T11:28:12.000Z</time>
      </trkpt>
      <trkpt lat="43.7247" lon="6.09054">
        <ele>424.7</ele>
        <time>2025-09-14T11:28:24.000Z</time>
      </trkpt>
      <trkpt lat="43.72474" lon="6.09064">
        <ele>425.5</ele>
        <time>2025-09-14T11:28:43.000Z</time>
      </trkpt>
      <trkpt lat="43.72474" lon="6.09063">
        <ele>425.6</ele>
        <time>2025-09-14T11:28:44.000Z</time>
      </trkpt>
      <trkpt lat="43.72475" lon="6.09064">
        <ele>425.7</ele>
        <time>2025-09-14T11:28:50.000Z</time>
      </trkpt>
      <trkpt lat="43.72476" lon="6.09064">
        <ele>425.7</ele>
        <time>2025-09-14T11:28:51.000Z</time>
      </trkpt>
      <trkpt lat="43.72477" lon="6.09065">
        <ele>425.7</ele>
        <time>2025-09-14T11:28:52.000Z</time>
      </trkpt>
      <trkpt lat="43.72486" lon="6.09067">
        <ele>426</ele>
        <time>2025-09-14T11:29:01.000Z</time>
      </trkpt>
      <trkpt lat="43.72495" lon="6.09071">
        <ele>426.7</ele>
        <time>2025-09-14T11:29:14.000Z</time>
      </trkpt>
      <trkpt lat="43.72499" lon="6.09072">
        <ele>427.4</ele>
        <time>2025-09-14T11:29:26.000Z</time>
      </trkpt>
      <trkpt lat="43.72499" lon="6.09072">
        <ele>427.4</ele>
        <time>2025-09-14T11:29:27.000Z</time>
      </trkpt>
      <trkpt lat="43.72499" lon="6.09072">
        <ele>427.6</ele>
        <time>2025-09-14T11:29:41.000Z</time>
      </trkpt>
      <trkpt lat="43.72499" lon="6.09072">
        <ele>427.7</ele>
        <time>2025-09-14T11:29:42.000Z</time>
      </trkpt>
      <trkpt lat="43.72507" lon="6.09078">
        <ele>427.8</ele>
        <time>2025-09-14T11:29:54.000Z</time>
      </trkpt>
      <trkpt lat="43.72516" lon="6.09081">
        <ele>427.9</ele>
        <time>2025-09-14T11:30:07.000Z</time>
      </trkpt>
      <trkpt lat="43.72524" lon="6.09087">
        <ele>428.3</ele>
        <time>2025-09-14T11:30:20.000Z</time>
      </trkpt>
      <trkpt lat="43.72533" lon="6.09091">
        <ele>428.5</ele>
        <time>2025-09-14T11:30:32.000Z</time>
      </trkpt>
      <trkpt lat="43.72541" lon="6.09097">
        <ele>428.9</ele>
        <time>2025-09-14T11:30:45.000Z</time>
      </trkpt>
      <trkpt lat="43.7255" lon="6.09101">
        <ele>429.1</ele>
        <time>2025-09-14T11:30:55.000Z</time>
      </trkpt>
      <trkpt lat="43.7256" lon="6.09103">
        <ele>429.3</ele>
        <time>2025-09-14T11:31:06.000Z</time>
      </trkpt>
      <trkpt lat="43.72569" lon="6.09107">
        <ele>429.6</ele>
        <time>2025-09-14T11:31:17.000Z</time>
      </trkpt>
      <trkpt lat="43.72577" lon="6.09113">
        <ele>430</ele>
        <time>2025-09-14T11:31:28.000Z</time>
      </trkpt>
      <trkpt lat="43.72586" lon="6.09117">
        <ele>430.3</ele>
        <time>2025-09-14T11:31:43.000Z</time>
      </trkpt>
      <trkpt lat="43.72587" lon="6.09117">
        <ele>430.4</ele>
        <time>2025-09-14T11:31:47.000Z</time>
      </trkpt>
      <trkpt lat="43.72587" lon="6.09117">
        <ele>430.4</ele>
        <time>2025-09-14T11:31:48.000Z</time>
      </trkpt>
      <trkpt lat="43.72587" lon="6.09117">
        <ele>430.4</ele>
        <time>2025-09-14T11:31:49.000Z</time>
      </trkpt>
      <trkpt lat="43.72589" lon="6.09117">
        <ele>430.5</ele>
        <time>2025-09-14T11:31:53.000Z</time>
      </trkpt>
      <trkpt lat="43.7259" lon="6.09117">
        <ele>430.5</ele>
        <time>2025-09-14T11:31:54.000Z</time>
      </trkpt>
      <trkpt lat="43.72598" lon="6.09121">
        <ele>430.7</ele>
        <time>2025-09-14T11:32:06.000Z</time>
      </trkpt>
      <trkpt lat="43.72608" lon="6.09119">
        <ele>431</ele>
        <time>2025-09-14T11:32:24.000Z</time>
      </trkpt>
      <trkpt lat="43.72617" lon="6.0912">
        <ele>431.4</ele>
        <time>2025-09-14T11:32:34.000Z</time>
      </trkpt>
      <trkpt lat="43.72626" lon="6.09121">
        <ele>431.8</ele>
        <time>2025-09-14T11:32:44.000Z</time>
      </trkpt>
      <trkpt lat="43.72635" lon="6.09125">
        <ele>432</ele>
        <time>2025-09-14T11:32:55.000Z</time>
      </trkpt>
      <trkpt lat="43.72644" lon="6.09127">
        <ele>432.1</ele>
        <time>2025-09-14T11:33:09.000Z</time>
      </trkpt>
      <trkpt lat="43.72653" lon="6.09126">
        <ele>432.1</ele>
        <time>2025-09-14T11:33:19.000Z</time>
      </trkpt>
      <trkpt lat="43.72662" lon="6.09124">
        <ele>432.2</ele>
        <time>2025-09-14T11:33:30.000Z</time>
      </trkpt>
      <trkpt lat="43.72672" lon="6.09124">
        <ele>432.3</ele>
        <time>2025-09-14T11:33:41.000Z</time>
      </trkpt>
      <trkpt lat="43.72681" lon="6.09124">
        <ele>432.2</ele>
        <time>2025-09-14T11:33:52.000Z</time>
      </trkpt>
      <trkpt lat="43.72691" lon="6.09126">
        <ele>432.2</ele>
        <time>2025-09-14T11:34:03.000Z</time>
      </trkpt>
      <trkpt lat="43.727" lon="6.09124">
        <ele>432.2</ele>
        <time>2025-09-14T11:34:14.000Z</time>
      </trkpt>
      <trkpt lat="43.72705" lon="6.09123">
        <ele>432.1</ele>
        <time>2025-09-14T11:34:25.000Z</time>
      </trkpt>
      <trkpt lat="43.72705" lon="6.09123">
        <ele>432</ele>
        <time>2025-09-14T11:34:26.000Z</time>
      </trkpt>
      <trkpt lat="43.72705" lon="6.09123">
        <ele>432</ele>
        <time>2025-09-14T11:34:27.000Z</time>
      </trkpt>
      <trkpt lat="43.72705" lon="6.09123">
        <ele>432</ele>
        <time>2025-09-14T11:34:32.000Z</time>
      </trkpt>
      <trkpt lat="43.72705" lon="6.09124">
        <ele>432</ele>
        <time>2025-09-14T11:34:33.000Z</time>
      </trkpt>
      <trkpt lat="43.72705" lon="6.09124">
        <ele>431.9</ele>
        <time>2025-09-14T11:34:34.000Z</time>
      </trkpt>
      <trkpt lat="43.72705" lon="6.09124">
        <ele>431.9</ele>
        <time>2025-09-14T11:34:35.000Z</time>
      </trkpt>
      <trkpt lat="43.72705" lon="6.09124">
        <ele>431.9</ele>
        <time>2025-09-14T11:34:36.000Z</time>
      </trkpt>
      <trkpt lat="43.72705" lon="6.09124">
        <ele>431.9</ele>
        <time>2025-09-14T11:34:37.000Z</time>
      </trkpt>
      <trkpt lat="43.72706" lon="6.09124">
        <ele>431.8</ele>
        <time>2025-09-14T11:34:52.000Z</time>
      </trkpt>
      <trkpt lat="43.72706" lon="6.09125">
        <ele>431.8</ele>
        <time>2025-09-14T11:34:53.000Z</time>
      </trkpt>
      <trkpt lat="43.72707" lon="6.09125">
        <ele>431.8</ele>
        <time>2025-09-14T11:34:54.000Z</time>
      </trkpt>
      <trkpt lat="43.72717" lon="6.09123">
        <ele>431.6</ele>
        <time>2025-09-14T11:35:07.000Z</time>
      </trkpt>
      <trkpt lat="43.72726" lon="6.09124">
        <ele>431.3</ele>
        <time>2025-09-14T11:35:20.000Z</time>
      </trkpt>
      <trkpt lat="43.72727" lon="6.09124">
        <ele>431.1</ele>
        <time>2025-09-14T11:35:25.000Z</time>
      </trkpt>
      <trkpt lat="43.72727" lon="6.09124">
        <ele>431</ele>
        <time>2025-09-14T11:35:26.000Z</time>
      </trkpt>
      <trkpt lat="43.72727" lon="6.09124">
        <ele>431</ele>
        <time>2025-09-14T11:35:27.000Z</time>
      </trkpt>
      <trkpt lat="43.72727" lon="6.09123">
        <ele>430.9</ele>
        <time>2025-09-14T11:35:28.000Z</time>
      </trkpt>
      <trkpt lat="43.72727" lon="6.09123">
        <ele>430.9</ele>
        <time>2025-09-14T11:35:29.000Z</time>
      </trkpt>
      <trkpt lat="43.72728" lon="6.09123">
        <ele>430.6</ele>
        <time>2025-09-14T11:35:35.000Z</time>
      </trkpt>
      <trkpt lat="43.72728" lon="6.09123">
        <ele>430.5</ele>
        <time>2025-09-14T11:35:36.000Z</time>
      </trkpt>
      <trkpt lat="43.72728" lon="6.09123">
        <ele>430.2</ele>
        <time>2025-09-14T11:35:46.000Z</time>
      </trkpt>
      <trkpt lat="43.72728" lon="6.09123">
        <ele>430.2</ele>
        <time>2025-09-14T11:35:47.000Z</time>
      </trkpt>
      <trkpt lat="43.72728" lon="6.09123">
        <ele>430.2</ele>
        <time>2025-09-14T11:35:48.000Z</time>
      </trkpt>
      <trkpt lat="43.72728" lon="6.09123">
        <ele>430.2</ele>
        <time>2025-09-14T11:35:49.000Z</time>
      </trkpt>
      <trkpt lat="43.72729" lon="6.09122">
        <ele>430.2</ele>
        <time>2025-09-14T11:36:05.000Z</time>
      </trkpt>
      <trkpt lat="43.72729" lon="6.09122">
        <ele>430.2</ele>
        <time>2025-09-14T11:36:06.000Z</time>
      </trkpt>
      <trkpt lat="43.72735" lon="6.09111">
        <ele>430.7</ele>
        <time>2025-09-14T11:36:22.000Z</time>
      </trkpt>
      <trkpt lat="43.72743" lon="6.09107">
        <ele>431.1</ele>
        <time>2025-09-14T11:36:36.000Z</time>
      </trkpt>
      <trkpt lat="43.72752" lon="6.09102">
        <ele>431.7</ele>
        <time>2025-09-14T11:36:54.000Z</time>
      </trkpt>
      <trkpt lat="43.72761" lon="6.09101">
        <ele>431.9</ele>
        <time>2025-09-14T11:37:09.000Z</time>
      </trkpt>
      <trkpt lat="43.72769" lon="6.09093">
        <ele>432</ele>
        <time>2025-09-14T11:37:21.000Z</time>
      </trkpt>
      <trkpt lat="43.72771" lon="6.0908">
        <ele>432.2</ele>
        <time>2025-09-14T11:37:34.000Z</time>
      </trkpt>
      <trkpt lat="43.72777" lon="6.09071">
        <ele>432.8</ele>
        <time>2025-09-14T11:37:47.000Z</time>
      </trkpt>
      <trkpt lat="43.72781" lon="6.09059">
        <ele>433.9</ele>
        <time>2025-09-14T11:38:02.000Z</time>
      </trkpt>
      <trkpt lat="43.72788" lon="6.09051">
        <ele>435.3</ele>
        <time>2025-09-14T11:38:18.000Z</time>
      </trkpt>
      <trkpt lat="43.72798" lon="6.09048">
        <ele>435.8</ele>
        <time>2025-09-14T11:38:38.000Z</time>
      </trkpt>
      <trkpt lat="43.72801" lon="6.09044">
        <ele>436.1</ele>
        <time>2025-09-14T11:38:53.000Z</time>
      </trkpt>
      <trkpt lat="43.72801" lon="6.09044">
        <ele>436.1</ele>
        <time>2025-09-14T11:38:54.000Z</time>
      </trkpt>
      <trkpt lat="43.72801" lon="6.09044">
        <ele>436.2</ele>
        <time>2025-09-14T11:38:55.000Z</time>
      </trkpt>
      <trkpt lat="43.72801" lon="6.09044">
        <ele>436.3</ele>
        <time>2025-09-14T11:39:02.000Z</time>
      </trkpt>
      <trkpt lat="43.72801" lon="6.09044">
        <ele>436.3</ele>
        <time>2025-09-14T11:39:03.000Z</time>
      </trkpt>
      <trkpt lat="43.72801" lon="6.09044">
        <ele>436.3</ele>
        <time>2025-09-14T11:39:04.000Z</time>
      </trkpt>
      <trkpt lat="43.72801" lon="6.09044">
        <ele>436.4</ele>
        <time>2025-09-14T11:39:08.000Z</time>
      </trkpt>
      <trkpt lat="43.72801" lon="6.09044">
        <ele>436.4</ele>
        <time>2025-09-14T11:39:09.000Z</time>
      </trkpt>
      <trkpt lat="43.72802" lon="6.09043">
        <ele>436.4</ele>
        <time>2025-09-14T11:39:10.000Z</time>
      </trkpt>
      <trkpt lat="43.72802" lon="6.09043">
        <ele>436.5</ele>
        <time>2025-09-14T11:39:11.000Z</time>
      </trkpt>
      <trkpt lat="43.72802" lon="6.09042">
        <ele>436.5</ele>
        <time>2025-09-14T11:39:12.000Z</time>
      </trkpt>
      <trkpt lat="43.72807" lon="6.09031">
        <ele>437.5</ele>
        <time>2025-09-14T11:39:42.000Z</time>
      </trkpt>
      <trkpt lat="43.7281" lon="6.0902">
        <ele>439.4</ele>
        <time>2025-09-14T11:40:02.000Z</time>
      </trkpt>
      <trkpt lat="43.72819" lon="6.09014">
        <ele>441.1</ele>
        <time>2025-09-14T11:40:23.000Z</time>
      </trkpt>
      <trkpt lat="43.7282" lon="6.09002">
        <ele>443.2</ele>
        <time>2025-09-14T11:40:53.000Z</time>
      </trkpt>
      <trkpt lat="43.72827" lon="6.08993">
        <ele>445.2</ele>
        <time>2025-09-14T11:41:19.000Z</time>
      </trkpt>
      <trkpt lat="43.72836" lon="6.08991">
        <ele>446.6</ele>
        <time>2025-09-14T11:41:43.000Z</time>
      </trkpt>
      <trkpt lat="43.72838" lon="6.08978">
        <ele>448.7</ele>
        <time>2025-09-14T11:42:25.000Z</time>
      </trkpt>
      <trkpt lat="43.72832" lon="6.08968">
        <ele>450</ele>
        <time>2025-09-14T11:42:46.000Z</time>
      </trkpt>
      <trkpt lat="43.72832" lon="6.08955">
        <ele>451.3</ele>
        <time>2025-09-14T11:43:04.000Z</time>
      </trkpt>
      <trkpt lat="43.72831" lon="6.08943">
        <ele>453.6</ele>
        <time>2025-09-14T11:43:26.000Z</time>
      </trkpt>
      <trkpt lat="43.72828" lon="6.08939">
        <ele>454.6</ele>
        <time>2025-09-14T11:43:41.000Z</time>
      </trkpt>
      <trkpt lat="43.72828" lon="6.08939">
        <ele>454.6</ele>
        <time>2025-09-14T11:43:42.000Z</time>
      </trkpt>
      <trkpt lat="43.72827" lon="6.08939">
        <ele>454.8</ele>
        <time>2025-09-14T11:44:20.000Z</time>
      </trkpt>
      <trkpt lat="43.72827" lon="6.08939">
        <ele>454.8</ele>
        <time>2025-09-14T11:44:21.000Z</time>
      </trkpt>
      <trkpt lat="43.72827" lon="6.08939">
        <ele>454.8</ele>
        <time>2025-09-14T11:44:22.000Z</time>
      </trkpt>
      <trkpt lat="43.72828" lon="6.08939">
        <ele>454.8</ele>
        <time>2025-09-14T11:44:23.000Z</time>
      </trkpt>
      <trkpt lat="43.72827" lon="6.08938">
        <ele>454.8</ele>
        <time>2025-09-14T11:44:24.000Z</time>
      </trkpt>
      <trkpt lat="43.72827" lon="6.08938">
        <ele>454.8</ele>
        <time>2025-09-14T11:44:25.000Z</time>
      </trkpt>
      <trkpt lat="43.72827" lon="6.08938">
        <ele>454.8</ele>
        <time>2025-09-14T11:44:26.000Z</time>
      </trkpt>
      <trkpt lat="43.72827" lon="6.08938">
        <ele>454.8</ele>
        <time>2025-09-14T11:44:30.000Z</time>
      </trkpt>
      <trkpt lat="43.72827" lon="6.08938">
        <ele>454.8</ele>
        <time>2025-09-14T11:44:31.000Z</time>
      </trkpt>
      <trkpt lat="43.72827" lon="6.08938">
        <ele>454.9</ele>
        <time>2025-09-14T11:45:55.000Z</time>
      </trkpt>
      <trkpt lat="43.72827" lon="6.08938">
        <ele>454.9</ele>
        <time>2025-09-14T11:45:56.000Z</time>
      </trkpt>
      <trkpt lat="43.72827" lon="6.08938">
        <ele>454.9</ele>
        <time>2025-09-14T11:45:57.000Z</time>
      </trkpt>
      <trkpt lat="43.72827" lon="6.08938">
        <ele>454.9</ele>
        <time>2025-09-14T11:45:58.000Z</time>
      </trkpt>
      <trkpt lat="43.72827" lon="6.08938">
        <ele>454.9</ele>
        <time>2025-09-14T11:45:59.000Z</time>
      </trkpt>
      <trkpt lat="43.72827" lon="6.08938">
        <ele>455</ele>
        <time>2025-09-14T11:47:05.000Z</time>
      </trkpt>
      <trkpt lat="43.72827" lon="6.08938">
        <ele>455</ele>
        <time>2025-09-14T11:47:06.000Z</time>
      </trkpt>
      <trkpt lat="43.72827" lon="6.08938">
        <ele>455</ele>
        <time>2025-09-14T11:47:07.000Z</time>
      </trkpt>
      <trkpt lat="43.72827" lon="6.08938">
        <ele>455</ele>
        <time>2025-09-14T11:47:08.000Z</time>
      </trkpt>
      <trkpt lat="43.72827" lon="6.08938">
        <ele>455</ele>
        <time>2025-09-14T11:47:09.000Z</time>
      </trkpt>
      <trkpt lat="43.72827" lon="6.08938">
        <ele>455</ele>
        <time>2025-09-14T11:47:15.000Z</time>
      </trkpt>
      <trkpt lat="43.72827" lon="6.08938">
        <ele>455</ele>
        <time>2025-09-14T11:47:16.000Z</time>
      </trkpt>
      <trkpt lat="43.72827" lon="6.08938">
        <ele>455</ele>
        <time>2025-09-14T11:47:17.000Z</time>
      </trkpt>
      <trkpt lat="43.72827" lon="6.08938">
        <ele>455</ele>
        <time>2025-09-14T11:47:18.000Z</time>
      </trkpt>
      <trkpt lat="43.72827" lon="6.08938">
        <ele>455</ele>
        <time>2025-09-14T11:47:19.000Z</time>
      </trkpt>
      <trkpt lat="43.72827" lon="6.08938">
        <ele>454.9</ele>
        <time>2025-09-14T11:48:25.000Z</time>
      </trkpt>
      <trkpt lat="43.72827" lon="6.08938">
        <ele>454.9</ele>
        <time>2025-09-14T11:48:26.000Z</time>
      </trkpt>
      <trkpt lat="43.72827" lon="6.08937">
        <ele>454.9</ele>
        <time>2025-09-14T11:48:27.000Z</time>
      </trkpt>
      <trkpt lat="43.72827" lon="6.08937">
        <ele>454.9</ele>
        <time>2025-09-14T11:48:30.000Z</time>
      </trkpt>
      <trkpt lat="43.72827" lon="6.08937">
        <ele>454.9</ele>
        <time>2025-09-14T11:48:31.000Z</time>
      </trkpt>
      <trkpt lat="43.72827" lon="6.08937">
        <ele>454.9</ele>
        <time>2025-09-14T11:48:32.000Z</time>
      </trkpt>
      <trkpt lat="43.72827" lon="6.08937">
        <ele>454.9</ele>
        <time>2025-09-14T11:48:33.000Z</time>
      </trkpt>
      <trkpt lat="43.72827" lon="6.08937">
        <ele>454.9</ele>
        <time>2025-09-14T11:48:34.000Z</time>
      </trkpt>
      <trkpt lat="43.72827" lon="6.08937">
        <ele>454.9</ele>
        <time>2025-09-14T11:48:35.000Z</time>
      </trkpt>
      <trkpt lat="43.72827" lon="6.08937">
        <ele>454.9</ele>
        <time>2025-09-14T11:48:36.000Z</time>
      </trkpt>
      <trkpt lat="43.72827" lon="6.08937">
        <ele>454.9</ele>
        <time>2025-09-14T11:48:37.000Z</time>
      </trkpt>
      <trkpt lat="43.72827" lon="6.08938">
        <ele>455</ele>
        <time>2025-09-14T11:48:51.000Z</time>
      </trkpt>
      <trkpt lat="43.72827" lon="6.08938">
        <ele>455</ele>
        <time>2025-09-14T11:48:52.000Z</time>
      </trkpt>
      <trkpt lat="43.72827" lon="6.08938">
        <ele>455</ele>
        <time>2025-09-14T11:48:55.000Z</time>
      </trkpt>
      <trkpt lat="43.72827" lon="6.08938">
        <ele>455</ele>
        <time>2025-09-14T11:48:56.000Z</time>
      </trkpt>
      <trkpt lat="43.72827" lon="6.08938">
        <ele>455</ele>
        <time>2025-09-14T11:48:57.000Z</time>
      </trkpt>
      <trkpt lat="43.72827" lon="6.08938">
        <ele>455</ele>
        <time>2025-09-14T11:48:58.000Z</time>
      </trkpt>
      <trkpt lat="43.72827" lon="6.08938">
        <ele>455</ele>
        <time>2025-09-14T11:48:59.000Z</time>
      </trkpt>
      <trkpt lat="43.72827" lon="6.08938">
        <ele>455</ele>
        <time>2025-09-14T11:49:02.000Z</time>
      </trkpt>
      <trkpt lat="43.72827" lon="6.08938">
        <ele>455</ele>
        <time>2025-09-14T11:49:03.000Z</time>
      </trkpt>
      <trkpt lat="43.72827" lon="6.08938">
        <ele>455</ele>
        <time>2025-09-14T11:49:04.000Z</time>
      </trkpt>
      <trkpt lat="43.72827" lon="6.08938">
        <ele>455</ele>
        <time>2025-09-14T11:49:16.000Z</time>
      </trkpt>
      <trkpt lat="43.72827" lon="6.08938">
        <ele>455.1</ele>
        <time>2025-09-14T11:49:17.000Z</time>
      </trkpt>
      <trkpt lat="43.72827" lon="6.08938">
        <ele>455.1</ele>
        <time>2025-09-14T11:49:18.000Z</time>
      </trkpt>
      <trkpt lat="43.72827" lon="6.08937">
        <ele>455.1</ele>
        <time>2025-09-14T11:49:19.000Z</time>
      </trkpt>
      <trkpt lat="43.72827" lon="6.08937">
        <ele>455.1</ele>
        <time>2025-09-14T11:49:20.000Z</time>
      </trkpt>
      <trkpt lat="43.72827" lon="6.08937">
        <ele>455.1</ele>
        <time>2025-09-14T11:49:21.000Z</time>
      </trkpt>
      <trkpt lat="43.72827" lon="6.08937">
        <ele>455.1</ele>
        <time>2025-09-14T11:49:22.000Z</time>
      </trkpt>
      <trkpt lat="43.72827" lon="6.08937">
        <ele>455.1</ele>
        <time>2025-09-14T11:49:23.000Z</time>
      </trkpt>
      <trkpt lat="43.72827" lon="6.08937">
        <ele>455.1</ele>
        <time>2025-09-14T11:49:24.000Z</time>
      </trkpt>
      <trkpt lat="43.72827" lon="6.08937">
        <ele>455.1</ele>
        <time>2025-09-14T11:49:25.000Z</time>
      </trkpt>
      <trkpt lat="43.72827" lon="6.08937">
        <ele>455.1</ele>
        <time>2025-09-14T11:49:28.000Z</time>
      </trkpt>
      <trkpt lat="43.72827" lon="6.08937">
        <ele>455.1</ele>
        <time>2025-09-14T11:49:29.000Z</time>
      </trkpt>
      <trkpt lat="43.72827" lon="6.08937">
        <ele>455.1</ele>
        <time>2025-09-14T11:49:30.000Z</time>
      </trkpt>
      <trkpt lat="43.72827" lon="6.08937">
        <ele>455.1</ele>
        <time>2025-09-14T11:49:31.000Z</time>
      </trkpt>
      <trkpt lat="43.72827" lon="6.08937">
        <ele>455.1</ele>
        <time>2025-09-14T11:49:38.000Z</time>
      </trkpt>
      <trkpt lat="43.72826" lon="6.08936">
        <ele>455.1</ele>
        <time>2025-09-14T11:49:39.000Z</time>
      </trkpt>
      <trkpt lat="43.72826" lon="6.08929">
        <ele>455.3</ele>
        <time>2025-09-14T11:49:57.000Z</time>
      </trkpt>
      <trkpt lat="43.72826" lon="6.08929">
        <ele>455.4</ele>
        <time>2025-09-14T11:49:58.000Z</time>
      </trkpt>
      <trkpt lat="43.72826" lon="6.08929">
        <ele>455.4</ele>
        <time>2025-09-14T11:49:59.000Z</time>
      </trkpt>
      <trkpt lat="43.72826" lon="6.08929">
        <ele>455.4</ele>
        <time>2025-09-14T11:50:00.000Z</time>
      </trkpt>
      <trkpt lat="43.72826" lon="6.08929">
        <ele>455.5</ele>
        <time>2025-09-14T11:50:01.000Z</time>
      </trkpt>
      <trkpt lat="43.72827" lon="6.08928">
        <ele>456</ele>
        <time>2025-09-14T11:50:10.000Z</time>
      </trkpt>
      <trkpt lat="43.72827" lon="6.08928">
        <ele>456</ele>
        <time>2025-09-14T11:50:11.000Z</time>
      </trkpt>
      <trkpt lat="43.72827" lon="6.08928">
        <ele>456.1</ele>
        <time>2025-09-14T11:50:12.000Z</time>
      </trkpt>
      <trkpt lat="43.72828" lon="6.08927">
        <ele>456.2</ele>
        <time>2025-09-14T11:50:13.000Z</time>
      </trkpt>
      <trkpt lat="43.72828" lon="6.08927">
        <ele>456.2</ele>
        <time>2025-09-14T11:50:14.000Z</time>
      </trkpt>
      <trkpt lat="43.72837" lon="6.08928">
        <ele>457.7</ele>
        <time>2025-09-14T11:50:33.000Z</time>
      </trkpt>
      <trkpt lat="43.72838" lon="6.08927">
        <ele>458.1</ele>
        <time>2025-09-14T11:50:41.000Z</time>
      </trkpt>
      <trkpt lat="43.72838" lon="6.08927">
        <ele>458.1</ele>
        <time>2025-09-14T11:50:42.000Z</time>
      </trkpt>
      <trkpt lat="43.72838" lon="6.08927">
        <ele>458.2</ele>
        <time>2025-09-14T11:50:43.000Z</time>
      </trkpt>
      <trkpt lat="43.72838" lon="6.08927">
        <ele>458.2</ele>
        <time>2025-09-14T11:50:44.000Z</time>
      </trkpt>
      <trkpt lat="43.72838" lon="6.08927">
        <ele>458.3</ele>
        <time>2025-09-14T11:50:47.000Z</time>
      </trkpt>
      <trkpt lat="43.72838" lon="6.08927">
        <ele>458.3</ele>
        <time>2025-09-14T11:50:48.000Z</time>
      </trkpt>
      <trkpt lat="43.72838" lon="6.08927">
        <ele>458.3</ele>
        <time>2025-09-14T11:50:49.000Z</time>
      </trkpt>
      <trkpt lat="43.72839" lon="6.08926">
        <ele>458.4</ele>
        <time>2025-09-14T11:50:50.000Z</time>
      </trkpt>
      <trkpt lat="43.72839" lon="6.08926">
        <ele>458.4</ele>
        <time>2025-09-14T11:50:51.000Z</time>
      </trkpt>
      <trkpt lat="43.72842" lon="6.08914">
        <ele>459.5</ele>
        <time>2025-09-14T11:51:13.000Z</time>
      </trkpt>
      <trkpt lat="43.72838" lon="6.08909">
        <ele>460.1</ele>
        <time>2025-09-14T11:51:25.000Z</time>
      </trkpt>
      <trkpt lat="43.72838" lon="6.08909">
        <ele>460.1</ele>
        <time>2025-09-14T11:51:26.000Z</time>
      </trkpt>
      <trkpt lat="43.72838" lon="6.08909">
        <ele>460.3</ele>
        <time>2025-09-14T11:51:32.000Z</time>
      </trkpt>
      <trkpt lat="43.72838" lon="6.08908">
        <ele>460.3</ele>
        <time>2025-09-14T11:51:33.000Z</time>
      </trkpt>
      <trkpt lat="43.72838" lon="6.08908">
        <ele>460.3</ele>
        <time>2025-09-14T11:51:34.000Z</time>
      </trkpt>
      <trkpt lat="43.72838" lon="6.08908">
        <ele>460.3</ele>
        <time>2025-09-14T11:51:37.000Z</time>
      </trkpt>
      <trkpt lat="43.72838" lon="6.08908">
        <ele>460.3</ele>
        <time>2025-09-14T11:51:38.000Z</time>
      </trkpt>
      <trkpt lat="43.72838" lon="6.08908">
        <ele>460.3</ele>
        <time>2025-09-14T11:51:39.000Z</time>
      </trkpt>
      <trkpt lat="43.72838" lon="6.08908">
        <ele>460.6</ele>
        <time>2025-09-14T11:53:43.000Z</time>
      </trkpt>
      <trkpt lat="43.72838" lon="6.08907">
        <ele>460.6</ele>
        <time>2025-09-14T11:53:44.000Z</time>
      </trkpt>
      <trkpt lat="43.72845" lon="6.08898">
        <ele>461.3</ele>
        <time>2025-09-14T11:54:03.000Z</time>
      </trkpt>
      <trkpt lat="43.72851" lon="6.0889">
        <ele>463.1</ele>
        <time>2025-09-14T11:54:21.000Z</time>
      </trkpt>
      <trkpt lat="43.72852" lon="6.0889">
        <ele>463.4</ele>
        <time>2025-09-14T11:54:25.000Z</time>
      </trkpt>
      <trkpt lat="43.72852" lon="6.0889">
        <ele>463.5</ele>
        <time>2025-09-14T11:54:26.000Z</time>
      </trkpt>
      <trkpt lat="43.72852" lon="6.0889">
        <ele>463.5</ele>
        <time>2025-09-14T11:54:27.000Z</time>
      </trkpt>
      <trkpt lat="43.72852" lon="6.0889">
        <ele>463.9</ele>
        <time>2025-09-14T11:54:35.000Z</time>
      </trkpt>
      <trkpt lat="43.72852" lon="6.0889">
        <ele>463.9</ele>
        <time>2025-09-14T11:54:36.000Z</time>
      </trkpt>
      <trkpt lat="43.72855" lon="6.0889">
        <ele>464.1</ele>
        <time>2025-09-14T11:54:46.000Z</time>
      </trkpt>
      <trkpt lat="43.72855" lon="6.0889">
        <ele>464.1</ele>
        <time>2025-09-14T11:54:47.000Z</time>
      </trkpt>
      <trkpt lat="43.72855" lon="6.0889">
        <ele>464.1</ele>
        <time>2025-09-14T11:54:50.000Z</time>
      </trkpt>
      <trkpt lat="43.72856" lon="6.08889">
        <ele>464.1</ele>
        <time>2025-09-14T11:54:51.000Z</time>
      </trkpt>
      <trkpt lat="43.72855" lon="6.08888">
        <ele>464.2</ele>
        <time>2025-09-14T11:55:03.000Z</time>
      </trkpt>
      <trkpt lat="43.72855" lon="6.08888">
        <ele>464.2</ele>
        <time>2025-09-14T11:55:04.000Z</time>
      </trkpt>
      <trkpt lat="43.72855" lon="6.08887">
        <ele>464.3</ele>
        <time>2025-09-14T11:55:48.000Z</time>
      </trkpt>
      <trkpt lat="43.72855" lon="6.08887">
        <ele>464.3</ele>
        <time>2025-09-14T11:55:49.000Z</time>
      </trkpt>
      <trkpt lat="43.72855" lon="6.08887">
        <ele>464.3</ele>
        <time>2025-09-14T11:55:52.000Z</time>
      </trkpt>
      <trkpt lat="43.72855" lon="6.08887">
        <ele>464.3</ele>
        <time>2025-09-14T11:55:53.000Z</time>
      </trkpt>
      <trkpt lat="43.72855" lon="6.08887">
        <ele>464.3</ele>
        <time>2025-09-14T11:55:54.000Z</time>
      </trkpt>
      <trkpt lat="43.72855" lon="6.08887">
        <ele>464.3</ele>
        <time>2025-09-14T11:56:25.000Z</time>
      </trkpt>
      <trkpt lat="43.72855" lon="6.08887">
        <ele>464.3</ele>
        <time>2025-09-14T11:56:26.000Z</time>
      </trkpt>
      <trkpt lat="43.72855" lon="6.08887">
        <ele>464.3</ele>
        <time>2025-09-14T11:56:27.000Z</time>
      </trkpt>
      <trkpt lat="43.72855" lon="6.08887">
        <ele>464.3</ele>
        <time>2025-09-14T11:56:31.000Z</time>
      </trkpt>
      <trkpt lat="43.72855" lon="6.08887">
        <ele>464.3</ele>
        <time>2025-09-14T11:56:32.000Z</time>
      </trkpt>
      <trkpt lat="43.72855" lon="6.08887">
        <ele>464.4</ele>
        <time>2025-09-14T11:57:15.000Z</time>
      </trkpt>
      <trkpt lat="43.72855" lon="6.08887">
        <ele>464.4</ele>
        <time>2025-09-14T11:57:16.000Z</time>
      </trkpt>
      <trkpt lat="43.72855" lon="6.08887">
        <ele>464.4</ele>
        <time>2025-09-14T11:57:17.000Z</time>
      </trkpt>
      <trkpt lat="43.72855" lon="6.08887">
        <ele>464.4</ele>
        <time>2025-09-14T11:57:18.000Z</time>
      </trkpt>
      <trkpt lat="43.72855" lon="6.08887">
        <ele>464.4</ele>
        <time>2025-09-14T11:57:19.000Z</time>
      </trkpt>
      <trkpt lat="43.72855" lon="6.08887">
        <ele>464.4</ele>
        <time>2025-09-14T11:57:22.000Z</time>
      </trkpt>
      <trkpt lat="43.72855" lon="6.08887">
        <ele>464.4</ele>
        <time>2025-09-14T11:57:23.000Z</time>
      </trkpt>
      <trkpt lat="43.72855" lon="6.08887">
        <ele>464.4</ele>
        <time>2025-09-14T11:57:24.000Z</time>
      </trkpt>
      <trkpt lat="43.72855" lon="6.08887">
        <ele>464.4</ele>
        <time>2025-09-14T11:57:25.000Z</time>
      </trkpt>
      <trkpt lat="43.72855" lon="6.08887">
        <ele>464.4</ele>
        <time>2025-09-14T11:57:26.000Z</time>
      </trkpt>
      <trkpt lat="43.72854" lon="6.08887">
        <ele>464.6</ele>
        <time>2025-09-14T11:58:50.000Z</time>
      </trkpt>
      <trkpt lat="43.72854" lon="6.08887">
        <ele>464.6</ele>
        <time>2025-09-14T11:58:51.000Z</time>
      </trkpt>
      <trkpt lat="43.72855" lon="6.08884">
        <ele>464.6</ele>
        <time>2025-09-14T11:59:00.000Z</time>
      </trkpt>
      <trkpt lat="43.72855" lon="6.08884">
        <ele>464.6</ele>
        <time>2025-09-14T11:59:01.000Z</time>
      </trkpt>
      <trkpt lat="43.72856" lon="6.08882">
        <ele>464.6</ele>
        <time>2025-09-14T11:59:05.000Z</time>
      </trkpt>
      <trkpt lat="43.72856" lon="6.08882">
        <ele>464.7</ele>
        <time>2025-09-14T11:59:06.000Z</time>
      </trkpt>
      <trkpt lat="43.72863" lon="6.08873">
        <ele>465</ele>
        <time>2025-09-14T11:59:25.000Z</time>
      </trkpt>
      <trkpt lat="43.72867" lon="6.08872">
        <ele>465.6</ele>
        <time>2025-09-14T11:59:36.000Z</time>
      </trkpt>
      <trkpt lat="43.72867" lon="6.08872">
        <ele>465.6</ele>
        <time>2025-09-14T11:59:37.000Z</time>
      </trkpt>
      <trkpt lat="43.72867" lon="6.08872">
        <ele>465.8</ele>
        <time>2025-09-14T11:59:42.000Z</time>
      </trkpt>
      <trkpt lat="43.72867" lon="6.08872">
        <ele>465.8</ele>
        <time>2025-09-14T11:59:43.000Z</time>
      </trkpt>
      <trkpt lat="43.72868" lon="6.08871">
        <ele>465.9</ele>
        <time>2025-09-14T11:59:44.000Z</time>
      </trkpt>
      <trkpt lat="43.72876" lon="6.08865">
        <ele>466.3</ele>
        <time>2025-09-14T11:59:58.000Z</time>
      </trkpt>
      <trkpt lat="43.72885" lon="6.08861">
        <ele>466.3</ele>
        <time>2025-09-14T12:00:14.000Z</time>
      </trkpt>
      <trkpt lat="43.72894" lon="6.08855">
        <ele>466.2</ele>
        <time>2025-09-14T12:00:25.000Z</time>
      </trkpt>
      <trkpt lat="43.72901" lon="6.08847">
        <ele>466</ele>
        <time>2025-09-14T12:00:36.000Z</time>
      </trkpt>
      <trkpt lat="43.72908" lon="6.08838">
        <ele>466</ele>
        <time>2025-09-14T12:00:53.000Z</time>
      </trkpt>
      <trkpt lat="43.72917" lon="6.08834">
        <ele>465.9</ele>
        <time>2025-09-14T12:01:04.000Z</time>
      </trkpt>
      <trkpt lat="43.72927" lon="6.08834">
        <ele>465.2</ele>
        <time>2025-09-14T12:01:19.000Z</time>
      </trkpt>
      <trkpt lat="43.72928" lon="6.08832">
        <ele>464.8</ele>
        <time>2025-09-14T12:01:25.000Z</time>
      </trkpt>
      <trkpt lat="43.72928" lon="6.08832">
        <ele>464.8</ele>
        <time>2025-09-14T12:01:26.000Z</time>
      </trkpt>
      <trkpt lat="43.72928" lon="6.08832">
        <ele>464.8</ele>
        <time>2025-09-14T12:01:27.000Z</time>
      </trkpt>
      <trkpt lat="43.72928" lon="6.08832">
        <ele>464.7</ele>
        <time>2025-09-14T12:01:28.000Z</time>
      </trkpt>
      <trkpt lat="43.72928" lon="6.08832">
        <ele>464.7</ele>
        <time>2025-09-14T12:01:29.000Z</time>
      </trkpt>
      <trkpt lat="43.72928" lon="6.08832">
        <ele>464.7</ele>
        <time>2025-09-14T12:01:30.000Z</time>
      </trkpt>
      <trkpt lat="43.72936" lon="6.08832">
        <ele>463.4</ele>
        <time>2025-09-14T12:01:50.000Z</time>
      </trkpt>
      <trkpt lat="43.72936" lon="6.08832">
        <ele>463.4</ele>
        <time>2025-09-14T12:01:51.000Z</time>
      </trkpt>
      <trkpt lat="43.72936" lon="6.08832">
        <ele>463.3</ele>
        <time>2025-09-14T12:01:52.000Z</time>
      </trkpt>
      <trkpt lat="43.72936" lon="6.08832">
        <ele>463.3</ele>
        <time>2025-09-14T12:01:53.000Z</time>
      </trkpt>
      <trkpt lat="43.72936" lon="6.08832">
        <ele>463.3</ele>
        <time>2025-09-14T12:01:54.000Z</time>
      </trkpt>
      <trkpt lat="43.72936" lon="6.08832">
        <ele>463.2</ele>
        <time>2025-09-14T12:01:55.000Z</time>
      </trkpt>
      <trkpt lat="43.72936" lon="6.08832">
        <ele>463.2</ele>
        <time>2025-09-14T12:01:56.000Z</time>
      </trkpt>
      <trkpt lat="43.72936" lon="6.08832">
        <ele>463.2</ele>
        <time>2025-09-14T12:01:57.000Z</time>
      </trkpt>
      <trkpt lat="43.72936" lon="6.08832">
        <ele>463</ele>
        <time>2025-09-14T12:02:02.000Z</time>
      </trkpt>
      <trkpt lat="43.72936" lon="6.08832">
        <ele>463</ele>
        <time>2025-09-14T12:02:03.000Z</time>
      </trkpt>
      <trkpt lat="43.72936" lon="6.08832">
        <ele>463</ele>
        <time>2025-09-14T12:02:04.000Z</time>
      </trkpt>
      <trkpt lat="43.72929" lon="6.08824">
        <ele>463.8</ele>
        <time>2025-09-14T12:02:25.000Z</time>
      </trkpt>
      <trkpt lat="43.72937" lon="6.08815">
        <ele>464.9</ele>
        <time>2025-09-14T12:02:36.000Z</time>
      </trkpt>
      <trkpt lat="43.72943" lon="6.08805">
        <ele>465.3</ele>
        <time>2025-09-14T12:02:45.000Z</time>
      </trkpt>
      <trkpt lat="43.72946" lon="6.08798">
        <ele>465.6</ele>
        <time>2025-09-14T12:02:58.000Z</time>
      </trkpt>
      <trkpt lat="43.72946" lon="6.08798">
        <ele>465.6</ele>
        <time>2025-09-14T12:02:59.000Z</time>
      </trkpt>
      <trkpt lat="43.72946" lon="6.08798">
        <ele>465.6</ele>
        <time>2025-09-14T12:03:03.000Z</time>
      </trkpt>
      <trkpt lat="43.72946" lon="6.08798">
        <ele>465.6</ele>
        <time>2025-09-14T12:03:04.000Z</time>
      </trkpt>
      <trkpt lat="43.72946" lon="6.08797">
        <ele>465.6</ele>
        <time>2025-09-14T12:03:05.000Z</time>
      </trkpt>
      <trkpt lat="43.72955" lon="6.08789">
        <ele>465.4</ele>
        <time>2025-09-14T12:03:16.000Z</time>
      </trkpt>
      <trkpt lat="43.72961" lon="6.08778">
        <ele>465</ele>
        <time>2025-09-14T12:03:24.000Z</time>
      </trkpt>
      <trkpt lat="43.72967" lon="6.08769">
        <ele>464.8</ele>
        <time>2025-09-14T12:03:33.000Z</time>
      </trkpt>
      <trkpt lat="43.72975" lon="6.08762">
        <ele>464.5</ele>
        <time>2025-09-14T12:03:42.000Z</time>
      </trkpt>
      <trkpt lat="43.72984" lon="6.08761">
        <ele>463.9</ele>
        <time>2025-09-14T12:03:53.000Z</time>
      </trkpt>
      <trkpt lat="43.72992" lon="6.08767">
        <ele>462.8</ele>
        <time>2025-09-14T12:04:03.000Z</time>
      </trkpt>
      <trkpt lat="43.72997" lon="6.08767">
        <ele>461.7</ele>
        <time>2025-09-14T12:04:12.000Z</time>
      </trkpt>
      <trkpt lat="43.72997" lon="6.08767">
        <ele>461.6</ele>
        <time>2025-09-14T12:04:13.000Z</time>
      </trkpt>
      <trkpt lat="43.72997" lon="6.08767">
        <ele>461.6</ele>
        <time>2025-09-14T12:04:14.000Z</time>
      </trkpt>
      <trkpt lat="43.72997" lon="6.08767">
        <ele>461.5</ele>
        <time>2025-09-14T12:04:17.000Z</time>
      </trkpt>
      <trkpt lat="43.72998" lon="6.08768">
        <ele>461.5</ele>
        <time>2025-09-14T12:04:18.000Z</time>
      </trkpt>
      <trkpt lat="43.72999" lon="6.08768">
        <ele>461.4</ele>
        <time>2025-09-14T12:04:19.000Z</time>
      </trkpt>
      <trkpt lat="43.73008" lon="6.08765">
        <ele>461.3</ele>
        <time>2025-09-14T12:04:28.000Z</time>
      </trkpt>
      <trkpt lat="43.73017" lon="6.0876">
        <ele>461.3</ele>
        <time>2025-09-14T12:04:37.000Z</time>
      </trkpt>
      <trkpt lat="43.73026" lon="6.08761">
        <ele>461.1</ele>
        <time>2025-09-14T12:04:51.000Z</time>
      </trkpt>
      <trkpt lat="43.73035" lon="6.08756">
        <ele>460.7</ele>
        <time>2025-09-14T12:05:00.000Z</time>
      </trkpt>
      <trkpt lat="43.73043" lon="6.08748">
        <ele>460.5</ele>
        <time>2025-09-14T12:05:08.000Z</time>
      </trkpt>
      <trkpt lat="43.73051" lon="6.0874">
        <ele>460.3</ele>
        <time>2025-09-14T12:05:19.000Z</time>
      </trkpt>
      <trkpt lat="43.7306" lon="6.08743">
        <ele>459.6</ele>
        <time>2025-09-14T12:05:39.000Z</time>
      </trkpt>
      <trkpt lat="43.73064" lon="6.08752">
        <ele>456.8</ele>
        <time>2025-09-14T12:06:05.000Z</time>
      </trkpt>
      <trkpt lat="43.73065" lon="6.08752">
        <ele>456.7</ele>
        <time>2025-09-14T12:06:06.000Z</time>
      </trkpt>
      <trkpt lat="43.73065" lon="6.08752">
        <ele>456.7</ele>
        <time>2025-09-14T12:06:07.000Z</time>
      </trkpt>
      <trkpt lat="43.73065" lon="6.08752">
        <ele>456.7</ele>
        <time>2025-09-14T12:06:08.000Z</time>
      </trkpt>
      <trkpt lat="43.73065" lon="6.08752">
        <ele>456.6</ele>
        <time>2025-09-14T12:06:09.000Z</time>
      </trkpt>
      <trkpt lat="43.73065" lon="6.08752">
        <ele>456.6</ele>
        <time>2025-09-14T12:06:12.000Z</time>
      </trkpt>
      <trkpt lat="43.73065" lon="6.08752">
        <ele>456.6</ele>
        <time>2025-09-14T12:06:13.000Z</time>
      </trkpt>
      <trkpt lat="43.73065" lon="6.08752">
        <ele>456.6</ele>
        <time>2025-09-14T12:06:14.000Z</time>
      </trkpt>
      <trkpt lat="43.73065" lon="6.08752">
        <ele>456.7</ele>
        <time>2025-09-14T12:06:20.000Z</time>
      </trkpt>
      <trkpt lat="43.73065" lon="6.08751">
        <ele>456.6</ele>
        <time>2025-09-14T12:06:21.000Z</time>
      </trkpt>
      <trkpt lat="43.73074" lon="6.08748">
        <ele>456.7</ele>
        <time>2025-09-14T12:06:32.000Z</time>
      </trkpt>
      <trkpt lat="43.73083" lon="6.08747">
        <ele>456.4</ele>
        <time>2025-09-14T12:06:41.000Z</time>
      </trkpt>
      <trkpt lat="43.73092" lon="6.08741">
        <ele>456.2</ele>
        <time>2025-09-14T12:06:50.000Z</time>
      </trkpt>
      <trkpt lat="43.73101" lon="6.0874">
        <ele>456</ele>
        <time>2025-09-14T12:07:00.000Z</time>
      </trkpt>
      <trkpt lat="43.73111" lon="6.08739">
        <ele>455.5</ele>
        <time>2025-09-14T12:07:09.000Z</time>
      </trkpt>
      <trkpt lat="43.7312" lon="6.08737">
        <ele>454.6</ele>
        <time>2025-09-14T12:07:22.000Z</time>
      </trkpt>
      <trkpt lat="43.73129" lon="6.08731">
        <ele>454</ele>
        <time>2025-09-14T12:07:31.000Z</time>
      </trkpt>
      <trkpt lat="43.73138" lon="6.08736">
        <ele>452.7</ele>
        <time>2025-09-14T12:07:52.000Z</time>
      </trkpt>
      <trkpt lat="43.73147" lon="6.08738">
        <ele>451.6</ele>
        <time>2025-09-14T12:08:04.000Z</time>
      </trkpt>
      <trkpt lat="43.73156" lon="6.08737">
        <ele>451</ele>
        <time>2025-09-14T12:08:14.000Z</time>
      </trkpt>
      <trkpt lat="43.73165" lon="6.08736">
        <ele>450.4</ele>
        <time>2025-09-14T12:08:30.000Z</time>
      </trkpt>
      <trkpt lat="43.73174" lon="6.08742">
        <ele>449.4</ele>
        <time>2025-09-14T12:08:47.000Z</time>
      </trkpt>
      <trkpt lat="43.73183" lon="6.08745">
        <ele>448.9</ele>
        <time>2025-09-14T12:08:57.000Z</time>
      </trkpt>
      <trkpt lat="43.73192" lon="6.08747">
        <ele>448.5</ele>
        <time>2025-09-14T12:09:07.000Z</time>
      </trkpt>
      <trkpt lat="43.73201" lon="6.08751">
        <ele>447.8</ele>
        <time>2025-09-14T12:09:17.000Z</time>
      </trkpt>
      <trkpt lat="43.73211" lon="6.08752">
        <ele>447.1</ele>
        <time>2025-09-14T12:09:27.000Z</time>
      </trkpt>
      <trkpt lat="43.7322" lon="6.08753">
        <ele>446.2</ele>
        <time>2025-09-14T12:09:39.000Z</time>
      </trkpt>
      <trkpt lat="43.73229" lon="6.08751">
        <ele>445.4</ele>
        <time>2025-09-14T12:09:51.000Z</time>
      </trkpt>
      <trkpt lat="43.73237" lon="6.08747">
        <ele>444.6</ele>
        <time>2025-09-14T12:10:05.000Z</time>
      </trkpt>
      <trkpt lat="43.73238" lon="6.08746">
        <ele>444.3</ele>
        <time>2025-09-14T12:10:10.000Z</time>
      </trkpt>
      <trkpt lat="43.73238" lon="6.08746">
        <ele>444.3</ele>
        <time>2025-09-14T12:10:11.000Z</time>
      </trkpt>
      <trkpt lat="43.73238" lon="6.08745">
        <ele>444.1</ele>
        <time>2025-09-14T12:10:28.000Z</time>
      </trkpt>
      <trkpt lat="43.73239" lon="6.08744">
        <ele>444.1</ele>
        <time>2025-09-14T12:10:29.000Z</time>
      </trkpt>
      <trkpt lat="43.73242" lon="6.08738">
        <ele>444</ele>
        <time>2025-09-14T12:10:43.000Z</time>
      </trkpt>
      <trkpt lat="43.73242" lon="6.08738">
        <ele>444</ele>
        <time>2025-09-14T12:10:44.000Z</time>
      </trkpt>
      <trkpt lat="43.73243" lon="6.08737">
        <ele>443.9</ele>
        <time>2025-09-14T12:10:48.000Z</time>
      </trkpt>
      <trkpt lat="43.73244" lon="6.08736">
        <ele>443.9</ele>
        <time>2025-09-14T12:10:49.000Z</time>
      </trkpt>
      <trkpt lat="43.73244" lon="6.08735">
        <ele>443.8</ele>
        <time>2025-09-14T12:10:55.000Z</time>
      </trkpt>
      <trkpt lat="43.73244" lon="6.08735">
        <ele>443.8</ele>
        <time>2025-09-14T12:10:56.000Z</time>
      </trkpt>
      <trkpt lat="43.73245" lon="6.08733">
        <ele>443.7</ele>
        <time>2025-09-14T12:11:00.000Z</time>
      </trkpt>
      <trkpt lat="43.73245" lon="6.08732">
        <ele>443.7</ele>
        <time>2025-09-14T12:11:01.000Z</time>
      </trkpt>
      <trkpt lat="43.73252" lon="6.08723">
        <ele>443.5</ele>
        <time>2025-09-14T12:11:09.000Z</time>
      </trkpt>
      <trkpt lat="43.73256" lon="6.0871">
        <ele>443.2</ele>
        <time>2025-09-14T12:11:17.000Z</time>
      </trkpt>
      <trkpt lat="43.73261" lon="6.08698">
        <ele>442.4</ele>
        <time>2025-09-14T12:11:25.000Z</time>
      </trkpt>
      <trkpt lat="43.73264" lon="6.08689">
        <ele>440.7</ele>
        <time>2025-09-14T12:11:36.000Z</time>
      </trkpt>
      <trkpt lat="43.73264" lon="6.08689">
        <ele>440.6</ele>
        <time>2025-09-14T12:11:37.000Z</time>
      </trkpt>
      <trkpt lat="43.73264" lon="6.08687">
        <ele>440.2</ele>
        <time>2025-09-14T12:11:42.000Z</time>
      </trkpt>
      <trkpt lat="43.73264" lon="6.08686">
        <ele>440.2</ele>
        <time>2025-09-14T12:11:43.000Z</time>
      </trkpt>
      <trkpt lat="43.73265" lon="6.08684">
        <ele>440.1</ele>
        <time>2025-09-14T12:11:44.000Z</time>
      </trkpt>
      <trkpt lat="43.73266" lon="6.08672">
        <ele>439.7</ele>
        <time>2025-09-14T12:11:53.000Z</time>
      </trkpt>
      <trkpt lat="43.73268" lon="6.08661">
        <ele>439.4</ele>
        <time>2025-09-14T12:12:05.000Z</time>
      </trkpt>
      <trkpt lat="43.73268" lon="6.08661">
        <ele>439.4</ele>
        <time>2025-09-14T12:12:06.000Z</time>
      </trkpt>
      <trkpt lat="43.73269" lon="6.0866">
        <ele>439.3</ele>
        <time>2025-09-14T12:12:12.000Z</time>
      </trkpt>
      <trkpt lat="43.73269" lon="6.08658">
        <ele>439.3</ele>
        <time>2025-09-14T12:12:13.000Z</time>
      </trkpt>
      <trkpt lat="43.73269" lon="6.08657">
        <ele>439.2</ele>
        <time>2025-09-14T12:12:14.000Z</time>
      </trkpt>
      <trkpt lat="43.7327" lon="6.08644">
        <ele>439.1</ele>
        <time>2025-09-14T12:12:21.000Z</time>
      </trkpt>
      <trkpt lat="43.7327" lon="6.08633">
        <ele>438.9</ele>
        <time>2025-09-14T12:12:33.000Z</time>
      </trkpt>
      <trkpt lat="43.7327" lon="6.08633">
        <ele>438.9</ele>
        <time>2025-09-14T12:12:34.000Z</time>
      </trkpt>
      <trkpt lat="43.7327" lon="6.08633">
        <ele>438.8</ele>
        <time>2025-09-14T12:12:35.000Z</time>
      </trkpt>
      <trkpt lat="43.73271" lon="6.08634">
        <ele>438.8</ele>
        <time>2025-09-14T12:12:36.000Z</time>
      </trkpt>
      <trkpt lat="43.73271" lon="6.08634">
        <ele>438.8</ele>
        <time>2025-09-14T12:12:37.000Z</time>
      </trkpt>
      <trkpt lat="43.73277" lon="6.08624">
        <ele>438.3</ele>
        <time>2025-09-14T12:12:48.000Z</time>
      </trkpt>
      <trkpt lat="43.73281" lon="6.08615">
        <ele>437.3</ele>
        <time>2025-09-14T12:13:02.000Z</time>
      </trkpt>
      <trkpt lat="43.73281" lon="6.08615">
        <ele>437.2</ele>
        <time>2025-09-14T12:13:03.000Z</time>
      </trkpt>
      <trkpt lat="43.73281" lon="6.08615">
        <ele>437.1</ele>
        <time>2025-09-14T12:13:04.000Z</time>
      </trkpt>
      <trkpt lat="43.73281" lon="6.08615">
        <ele>436.9</ele>
        <time>2025-09-14T12:13:07.000Z</time>
      </trkpt>
      <trkpt lat="43.73281" lon="6.08615">
        <ele>436.9</ele>
        <time>2025-09-14T12:13:08.000Z</time>
      </trkpt>
      <trkpt lat="43.73282" lon="6.08614">
        <ele>436.8</ele>
        <time>2025-09-14T12:13:09.000Z</time>
      </trkpt>
      <trkpt lat="43.73286" lon="6.08602">
        <ele>436.5</ele>
        <time>2025-09-14T12:13:18.000Z</time>
      </trkpt>
      <trkpt lat="43.73291" lon="6.08591">
        <ele>436.1</ele>
        <time>2025-09-14T12:13:28.000Z</time>
      </trkpt>
      <trkpt lat="43.73294" lon="6.08579">
        <ele>435.7</ele>
        <time>2025-09-14T12:13:44.000Z</time>
      </trkpt>
      <trkpt lat="43.73297" lon="6.08578">
        <ele>435.4</ele>
        <time>2025-09-14T12:13:53.000Z</time>
      </trkpt>
      <trkpt lat="43.73297" lon="6.08578">
        <ele>435.3</ele>
        <time>2025-09-14T12:13:54.000Z</time>
      </trkpt>
      <trkpt lat="43.73297" lon="6.08578">
        <ele>435.3</ele>
        <time>2025-09-14T12:13:55.000Z</time>
      </trkpt>
      <trkpt lat="43.73297" lon="6.08578">
        <ele>435.2</ele>
        <time>2025-09-14T12:13:58.000Z</time>
      </trkpt>
      <trkpt lat="43.73297" lon="6.08578">
        <ele>435.1</ele>
        <time>2025-09-14T12:13:59.000Z</time>
      </trkpt>
      <trkpt lat="43.73297" lon="6.08578">
        <ele>435.1</ele>
        <time>2025-09-14T12:14:00.000Z</time>
      </trkpt>
      <trkpt lat="43.73297" lon="6.08578">
        <ele>435</ele>
        <time>2025-09-14T12:14:01.000Z</time>
      </trkpt>
      <trkpt lat="43.73297" lon="6.08578">
        <ele>435</ele>
        <time>2025-09-14T12:14:02.000Z</time>
      </trkpt>
      <trkpt lat="43.73296" lon="6.08578">
        <ele>434.5</ele>
        <time>2025-09-14T12:14:31.000Z</time>
      </trkpt>
      <trkpt lat="43.73296" lon="6.08578">
        <ele>434.5</ele>
        <time>2025-09-14T12:14:32.000Z</time>
      </trkpt>
      <trkpt lat="43.73296" lon="6.08578">
        <ele>434.5</ele>
        <time>2025-09-14T12:14:33.000Z</time>
      </trkpt>
      <trkpt lat="43.73296" lon="6.08578">
        <ele>434.5</ele>
        <time>2025-09-14T12:14:34.000Z</time>
      </trkpt>
      <trkpt lat="43.73296" lon="6.08578">
        <ele>434.5</ele>
        <time>2025-09-14T12:14:35.000Z</time>
      </trkpt>
      <trkpt lat="43.73295" lon="6.08578">
        <ele>434.4</ele>
        <time>2025-09-14T12:14:51.000Z</time>
      </trkpt>
      <trkpt lat="43.73295" lon="6.08578">
        <ele>434.4</ele>
        <time>2025-09-14T12:14:52.000Z</time>
      </trkpt>
      <trkpt lat="43.73294" lon="6.08579">
        <ele>434.2</ele>
        <time>2025-09-14T12:15:03.000Z</time>
      </trkpt>
      <trkpt lat="43.73294" lon="6.08579">
        <ele>434.2</ele>
        <time>2025-09-14T12:15:04.000Z</time>
      </trkpt>
      <trkpt lat="43.73294" lon="6.08579">
        <ele>434.2</ele>
        <time>2025-09-14T12:15:05.000Z</time>
      </trkpt>
      <trkpt lat="43.73294" lon="6.08579">
        <ele>434.1</ele>
        <time>2025-09-14T12:15:08.000Z</time>
      </trkpt>
      <trkpt lat="43.73294" lon="6.08579">
        <ele>434.1</ele>
        <time>2025-09-14T12:15:09.000Z</time>
      </trkpt>
      <trkpt lat="43.73295" lon="6.08578">
        <ele>434.1</ele>
        <time>2025-09-14T12:15:18.000Z</time>
      </trkpt>
      <trkpt lat="43.73295" lon="6.08578">
        <ele>434.1</ele>
        <time>2025-09-14T12:15:19.000Z</time>
      </trkpt>
      <trkpt lat="43.73295" lon="6.08578">
        <ele>434</ele>
        <time>2025-09-14T12:15:30.000Z</time>
      </trkpt>
      <trkpt lat="43.73295" lon="6.08578">
        <ele>434</ele>
        <time>2025-09-14T12:15:31.000Z</time>
      </trkpt>
      <trkpt lat="43.73303" lon="6.0857">
        <ele>433.5</ele>
        <time>2025-09-14T12:15:50.000Z</time>
      </trkpt>
      <trkpt lat="43.73305" lon="6.08569">
        <ele>433.2</ele>
        <time>2025-09-14T12:15:57.000Z</time>
      </trkpt>
      <trkpt lat="43.73305" lon="6.08569">
        <ele>433.2</ele>
        <time>2025-09-14T12:15:58.000Z</time>
      </trkpt>
      <trkpt lat="43.73305" lon="6.08569">
        <ele>433.1</ele>
        <time>2025-09-14T12:15:59.000Z</time>
      </trkpt>
      <trkpt lat="43.73305" lon="6.08569">
        <ele>432.9</ele>
        <time>2025-09-14T12:16:05.000Z</time>
      </trkpt>
      <trkpt lat="43.73305" lon="6.08568">
        <ele>432.9</ele>
        <time>2025-09-14T12:16:06.000Z</time>
      </trkpt>
      <trkpt lat="43.7331" lon="6.08557">
        <ele>432.8</ele>
        <time>2025-09-14T12:16:16.000Z</time>
      </trkpt>
      <trkpt lat="43.73317" lon="6.08548">
        <ele>432.3</ele>
        <time>2025-09-14T12:16:28.000Z</time>
      </trkpt>
      <trkpt lat="43.73323" lon="6.08541">
        <ele>430.3</ele>
        <time>2025-09-14T12:16:50.000Z</time>
      </trkpt>
      <trkpt lat="43.73323" lon="6.08541">
        <ele>430.2</ele>
        <time>2025-09-14T12:16:51.000Z</time>
      </trkpt>
      <trkpt lat="43.73323" lon="6.08541">
        <ele>430.1</ele>
        <time>2025-09-14T12:16:55.000Z</time>
      </trkpt>
      <trkpt lat="43.73323" lon="6.08541">
        <ele>430.1</ele>
        <time>2025-09-14T12:16:56.000Z</time>
      </trkpt>
      <trkpt lat="43.73323" lon="6.08541">
        <ele>430</ele>
        <time>2025-09-14T12:17:00.000Z</time>
      </trkpt>
      <trkpt lat="43.73323" lon="6.08541">
        <ele>429.9</ele>
        <time>2025-09-14T12:17:01.000Z</time>
      </trkpt>
      <trkpt lat="43.73323" lon="6.08541">
        <ele>429.9</ele>
        <time>2025-09-14T12:17:05.000Z</time>
      </trkpt>
      <trkpt lat="43.73323" lon="6.08541">
        <ele>429.8</ele>
        <time>2025-09-14T12:17:06.000Z</time>
      </trkpt>
      <trkpt lat="43.73323" lon="6.0854">
        <ele>429.7</ele>
        <time>2025-09-14T12:17:10.000Z</time>
      </trkpt>
      <trkpt lat="43.73323" lon="6.0854">
        <ele>429.7</ele>
        <time>2025-09-14T12:17:11.000Z</time>
      </trkpt>
      <trkpt lat="43.73324" lon="6.0854">
        <ele>429.6</ele>
        <time>2025-09-14T12:17:20.000Z</time>
      </trkpt>
      <trkpt lat="43.73325" lon="6.0854">
        <ele>429.6</ele>
        <time>2025-09-14T12:17:21.000Z</time>
      </trkpt>
      <trkpt lat="43.73325" lon="6.08539">
        <ele>429.5</ele>
        <time>2025-09-14T12:17:27.000Z</time>
      </trkpt>
      <trkpt lat="43.73325" lon="6.08539">
        <ele>429.5</ele>
        <time>2025-09-14T12:17:28.000Z</time>
      </trkpt>
      <trkpt lat="43.73325" lon="6.08539">
        <ele>429.5</ele>
        <time>2025-09-14T12:17:29.000Z</time>
      </trkpt>
      <trkpt lat="43.73325" lon="6.08539">
        <ele>429.4</ele>
        <time>2025-09-14T12:17:38.000Z</time>
      </trkpt>
      <trkpt lat="43.73325" lon="6.08539">
        <ele>429.4</ele>
        <time>2025-09-14T12:17:39.000Z</time>
      </trkpt>
      <trkpt lat="43.73326" lon="6.08538">
        <ele>429.2</ele>
        <time>2025-09-14T12:17:50.000Z</time>
      </trkpt>
      <trkpt lat="43.73326" lon="6.08538">
        <ele>429.2</ele>
        <time>2025-09-14T12:17:51.000Z</time>
      </trkpt>
      <trkpt lat="43.73326" lon="6.08538">
        <ele>429.2</ele>
        <time>2025-09-14T12:17:52.000Z</time>
      </trkpt>
      <trkpt lat="43.73327" lon="6.08536">
        <ele>428.9</ele>
        <time>2025-09-14T12:18:10.000Z</time>
      </trkpt>
      <trkpt lat="43.73327" lon="6.08536">
        <ele>428.9</ele>
        <time>2025-09-14T12:18:11.000Z</time>
      </trkpt>
      <trkpt lat="43.73327" lon="6.08536">
        <ele>428.9</ele>
        <time>2025-09-14T12:18:12.000Z</time>
      </trkpt>
      <trkpt lat="43.73327" lon="6.08536">
        <ele>428.9</ele>
        <time>2025-09-14T12:18:13.000Z</time>
      </trkpt>
      <trkpt lat="43.73327" lon="6.08536">
        <ele>428.9</ele>
        <time>2025-09-14T12:18:14.000Z</time>
      </trkpt>
      <trkpt lat="43.73328" lon="6.08535">
        <ele>428.8</ele>
        <time>2025-09-14T12:18:21.000Z</time>
      </trkpt>
      <trkpt lat="43.73329" lon="6.08535">
        <ele>428.8</ele>
        <time>2025-09-14T12:18:22.000Z</time>
      </trkpt>
      <trkpt lat="43.73329" lon="6.08535">
        <ele>428.8</ele>
        <time>2025-09-14T12:18:23.000Z</time>
      </trkpt>
      <trkpt lat="43.73329" lon="6.08535">
        <ele>428.8</ele>
        <time>2025-09-14T12:18:24.000Z</time>
      </trkpt>
      <trkpt lat="43.73329" lon="6.08534">
        <ele>428.7</ele>
        <time>2025-09-14T12:18:31.000Z</time>
      </trkpt>
      <trkpt lat="43.73329" lon="6.08534">
        <ele>428.7</ele>
        <time>2025-09-14T12:18:32.000Z</time>
      </trkpt>
      <trkpt lat="43.73329" lon="6.08534">
        <ele>428.7</ele>
        <time>2025-09-14T12:18:36.000Z</time>
      </trkpt>
      <trkpt lat="43.73329" lon="6.08534">
        <ele>428.7</ele>
        <time>2025-09-14T12:18:37.000Z</time>
      </trkpt>
      <trkpt lat="43.7333" lon="6.08534">
        <ele>428.5</ele>
        <time>2025-09-14T12:18:45.000Z</time>
      </trkpt>
      <trkpt lat="43.7333" lon="6.08534">
        <ele>428.5</ele>
        <time>2025-09-14T12:18:46.000Z</time>
      </trkpt>
      <trkpt lat="43.7333" lon="6.08534">
        <ele>428.3</ele>
        <time>2025-09-14T12:18:53.000Z</time>
      </trkpt>
      <trkpt lat="43.7333" lon="6.08533">
        <ele>428.3</ele>
        <time>2025-09-14T12:18:54.000Z</time>
      </trkpt>
      <trkpt lat="43.7333" lon="6.08533">
        <ele>428.3</ele>
        <time>2025-09-14T12:18:55.000Z</time>
      </trkpt>
      <trkpt lat="43.7333" lon="6.08533">
        <ele>428.3</ele>
        <time>2025-09-14T12:18:56.000Z</time>
      </trkpt>
      <trkpt lat="43.7333" lon="6.08533">
        <ele>428.2</ele>
        <time>2025-09-14T12:18:57.000Z</time>
      </trkpt>
      <trkpt lat="43.7333" lon="6.08533">
        <ele>428.2</ele>
        <time>2025-09-14T12:19:00.000Z</time>
      </trkpt>
      <trkpt lat="43.7333" lon="6.08533">
        <ele>428.1</ele>
        <time>2025-09-14T12:19:01.000Z</time>
      </trkpt>
      <trkpt lat="43.7333" lon="6.08533">
        <ele>428.1</ele>
        <time>2025-09-14T12:19:02.000Z</time>
      </trkpt>
      <trkpt lat="43.7333" lon="6.08533">
        <ele>428.1</ele>
        <time>2025-09-14T12:19:03.000Z</time>
      </trkpt>
      <trkpt lat="43.7333" lon="6.08533">
        <ele>428.1</ele>
        <time>2025-09-14T12:19:04.000Z</time>
      </trkpt>
      <trkpt lat="43.73332" lon="6.08531">
        <ele>427</ele>
        <time>2025-09-14T12:19:31.000Z</time>
      </trkpt>
      <trkpt lat="43.73332" lon="6.08531">
        <ele>426.9</ele>
        <time>2025-09-14T12:19:32.000Z</time>
      </trkpt>
      <trkpt lat="43.73331" lon="6.0853">
        <ele>426.7</ele>
        <time>2025-09-14T12:19:38.000Z</time>
      </trkpt>
      <trkpt lat="43.73331" lon="6.0853">
        <ele>426.7</ele>
        <time>2025-09-14T12:19:39.000Z</time>
      </trkpt>
      <trkpt lat="43.73331" lon="6.0853">
        <ele>426.7</ele>
        <time>2025-09-14T12:19:40.000Z</time>
      </trkpt>
      <trkpt lat="43.73331" lon="6.0853">
        <ele>426.7</ele>
        <time>2025-09-14T12:19:41.000Z</time>
      </trkpt>
      <trkpt lat="43.73331" lon="6.0853">
        <ele>426.7</ele>
        <time>2025-09-14T12:19:42.000Z</time>
      </trkpt>
      <trkpt lat="43.73331" lon="6.0853">
        <ele>426.7</ele>
        <time>2025-09-14T12:19:43.000Z</time>
      </trkpt>
      <trkpt lat="43.73331" lon="6.0853">
        <ele>426.6</ele>
        <time>2025-09-14T12:19:44.000Z</time>
      </trkpt>
      <trkpt lat="43.73331" lon="6.0853">
        <ele>426.6</ele>
        <time>2025-09-14T12:19:45.000Z</time>
      </trkpt>
      <trkpt lat="43.73331" lon="6.0853">
        <ele>426.6</ele>
        <time>2025-09-14T12:19:46.000Z</time>
      </trkpt>
      <trkpt lat="43.73331" lon="6.0853">
        <ele>426.6</ele>
        <time>2025-09-14T12:19:47.000Z</time>
      </trkpt>
      <trkpt lat="43.73331" lon="6.0853">
        <ele>426.5</ele>
        <time>2025-09-14T12:19:48.000Z</time>
      </trkpt>
      <trkpt lat="43.73331" lon="6.0853">
        <ele>426.5</ele>
        <time>2025-09-14T12:19:49.000Z</time>
      </trkpt>
      <trkpt lat="43.73331" lon="6.0853">
        <ele>426.5</ele>
        <time>2025-09-14T12:19:50.000Z</time>
      </trkpt>
      <trkpt lat="43.73331" lon="6.0853">
        <ele>426.5</ele>
        <time>2025-09-14T12:19:51.000Z</time>
      </trkpt>
      <trkpt lat="43.73331" lon="6.0853">
        <ele>426.5</ele>
        <time>2025-09-14T12:19:52.000Z</time>
      </trkpt>
      <trkpt lat="43.7333" lon="6.0853">
        <ele>426.4</ele>
        <time>2025-09-14T12:19:53.000Z</time>
      </trkpt>
      <trkpt lat="43.7333" lon="6.0853">
        <ele>426.4</ele>
        <time>2025-09-14T12:19:54.000Z</time>
      </trkpt>
      <trkpt lat="43.7333" lon="6.0853">
        <ele>426.4</ele>
        <time>2025-09-14T12:19:55.000Z</time>
      </trkpt>
      <trkpt lat="43.7333" lon="6.08531">
        <ele>426.1</ele>
        <time>2025-09-14T12:20:01.000Z</time>
      </trkpt>
      <trkpt lat="43.7333" lon="6.08531">
        <ele>426</ele>
        <time>2025-09-14T12:20:02.000Z</time>
      </trkpt>
      <trkpt lat="43.7333" lon="6.08531">
        <ele>426</ele>
        <time>2025-09-14T12:20:03.000Z</time>
      </trkpt>
      <trkpt lat="43.7333" lon="6.08531">
        <ele>425.9</ele>
        <time>2025-09-14T12:20:04.000Z</time>
      </trkpt>
      <trkpt lat="43.73331" lon="6.08531">
        <ele>425.9</ele>
        <time>2025-09-14T12:20:05.000Z</time>
      </trkpt>
      <trkpt lat="43.73333" lon="6.0853">
        <ele>424.6</ele>
        <time>2025-09-14T12:20:28.000Z</time>
      </trkpt>
      <trkpt lat="43.73333" lon="6.0853">
        <ele>424.6</ele>
        <time>2025-09-14T12:20:29.000Z</time>
      </trkpt>
      <trkpt lat="43.73334" lon="6.08529">
        <ele>424.6</ele>
        <time>2025-09-14T12:20:30.000Z</time>
      </trkpt>
      <trkpt lat="43.73334" lon="6.08529">
        <ele>424.5</ele>
        <time>2025-09-14T12:20:31.000Z</time>
      </trkpt>
      <trkpt lat="43.73334" lon="6.08529">
        <ele>424.4</ele>
        <time>2025-09-14T12:20:35.000Z</time>
      </trkpt>
      <trkpt lat="43.73334" lon="6.08529">
        <ele>424.3</ele>
        <time>2025-09-14T12:20:36.000Z</time>
      </trkpt>
      <trkpt lat="43.73335" lon="6.08528">
        <ele>424.2</ele>
        <time>2025-09-14T12:20:52.000Z</time>
      </trkpt>
      <trkpt lat="43.73335" lon="6.08528">
        <ele>424.2</ele>
        <time>2025-09-14T12:20:53.000Z</time>
      </trkpt>
      <trkpt lat="43.73335" lon="6.08528">
        <ele>424.2</ele>
        <time>2025-09-14T12:20:54.000Z</time>
      </trkpt>
      <trkpt lat="43.73335" lon="6.08528">
        <ele>424.2</ele>
        <time>2025-09-14T12:20:55.000Z</time>
      </trkpt>
      <trkpt lat="43.73335" lon="6.08528">
        <ele>424.1</ele>
        <time>2025-09-14T12:20:56.000Z</time>
      </trkpt>
      <trkpt lat="43.73335" lon="6.08528">
        <ele>424.1</ele>
        <time>2025-09-14T12:20:57.000Z</time>
      </trkpt>
      <trkpt lat="43.73336" lon="6.08527">
        <ele>424.1</ele>
        <time>2025-09-14T12:21:00.000Z</time>
      </trkpt>
      <trkpt lat="43.73336" lon="6.08527">
        <ele>424.1</ele>
        <time>2025-09-14T12:21:01.000Z</time>
      </trkpt>
      <trkpt lat="43.73336" lon="6.08527">
        <ele>424.1</ele>
        <time>2025-09-14T12:21:02.000Z</time>
      </trkpt>
      <trkpt lat="43.73345" lon="6.08521">
        <ele>422.7</ele>
        <time>2025-09-14T12:21:37.000Z</time>
      </trkpt>
      <trkpt lat="43.73352" lon="6.08516">
        <ele>422</ele>
        <time>2025-09-14T12:21:48.000Z</time>
      </trkpt>
      <trkpt lat="43.73352" lon="6.08516">
        <ele>421.9</ele>
        <time>2025-09-14T12:21:49.000Z</time>
      </trkpt>
      <trkpt lat="43.73352" lon="6.08515">
        <ele>421.8</ele>
        <time>2025-09-14T12:21:58.000Z</time>
      </trkpt>
      <trkpt lat="43.73353" lon="6.08515">
        <ele>421.8</ele>
        <time>2025-09-14T12:21:59.000Z</time>
      </trkpt>
      <trkpt lat="43.73353" lon="6.08515">
        <ele>421.8</ele>
        <time>2025-09-14T12:22:00.000Z</time>
      </trkpt>
      <trkpt lat="43.73353" lon="6.08515">
        <ele>421.7</ele>
        <time>2025-09-14T12:22:03.000Z</time>
      </trkpt>
      <trkpt lat="43.73353" lon="6.08515">
        <ele>421.7</ele>
        <time>2025-09-14T12:22:04.000Z</time>
      </trkpt>
      <trkpt lat="43.73353" lon="6.08515">
        <ele>421.7</ele>
        <time>2025-09-14T12:22:05.000Z</time>
      </trkpt>
      <trkpt lat="43.73354" lon="6.08513">
        <ele>421.8</ele>
        <time>2025-09-14T12:22:18.000Z</time>
      </trkpt>
      <trkpt lat="43.73354" lon="6.08513">
        <ele>421.8</ele>
        <time>2025-09-14T12:22:19.000Z</time>
      </trkpt>
      <trkpt lat="43.73354" lon="6.08513">
        <ele>421.8</ele>
        <time>2025-09-14T12:22:20.000Z</time>
      </trkpt>
      <trkpt lat="43.7336" lon="6.08505">
        <ele>421.7</ele>
        <time>2025-09-14T12:22:42.000Z</time>
      </trkpt>
      <trkpt lat="43.7336" lon="6.08505">
        <ele>421.7</ele>
        <time>2025-09-14T12:22:43.000Z</time>
      </trkpt>
      <trkpt lat="43.7336" lon="6.08504">
        <ele>421.7</ele>
        <time>2025-09-14T12:22:44.000Z</time>
      </trkpt>
      <trkpt lat="43.73361" lon="6.08504">
        <ele>421.7</ele>
        <time>2025-09-14T12:22:45.000Z</time>
      </trkpt>
      <trkpt lat="43.73361" lon="6.08504">
        <ele>421.7</ele>
        <time>2025-09-14T12:22:46.000Z</time>
      </trkpt>
      <trkpt lat="43.73361" lon="6.08504">
        <ele>421.6</ele>
        <time>2025-09-14T12:22:47.000Z</time>
      </trkpt>
      <trkpt lat="43.7337" lon="6.08502">
        <ele>420.1</ele>
        <time>2025-09-14T12:23:13.000Z</time>
      </trkpt>
      <trkpt lat="43.7338" lon="6.08498">
        <ele>419.3</ele>
        <time>2025-09-14T12:23:22.000Z</time>
      </trkpt>
      <trkpt lat="43.73389" lon="6.0849">
        <ele>418.6</ele>
        <time>2025-09-14T12:23:31.000Z</time>
      </trkpt>
      <trkpt lat="43.73397" lon="6.08485">
        <ele>418</ele>
        <time>2025-09-14T12:23:42.000Z</time>
      </trkpt>
      <trkpt lat="43.73406" lon="6.0848">
        <ele>417.5</ele>
        <time>2025-09-14T12:23:51.000Z</time>
      </trkpt>
      <trkpt lat="43.73415" lon="6.08476">
        <ele>416.9</ele>
        <time>2025-09-14T12:24:10.000Z</time>
      </trkpt>
      <trkpt lat="43.73424" lon="6.08472">
        <ele>416.6</ele>
        <time>2025-09-14T12:24:21.000Z</time>
      </trkpt>
      <trkpt lat="43.73432" lon="6.08466">
        <ele>416.5</ele>
        <time>2025-09-14T12:24:29.000Z</time>
      </trkpt>
      <trkpt lat="43.73441" lon="6.0846">
        <ele>416.4</ele>
        <time>2025-09-14T12:24:40.000Z</time>
      </trkpt>
      <trkpt lat="43.73449" lon="6.08457">
        <ele>416</ele>
        <time>2025-09-14T12:24:56.000Z</time>
      </trkpt>
      <trkpt lat="43.73459" lon="6.08458">
        <ele>415.1</ele>
        <time>2025-09-14T12:25:13.000Z</time>
      </trkpt>
      <trkpt lat="43.73468" lon="6.08455">
        <ele>414.5</ele>
        <time>2025-09-14T12:25:23.000Z</time>
      </trkpt>
      <trkpt lat="43.73476" lon="6.08447">
        <ele>414.2</ele>
        <time>2025-09-14T12:25:33.000Z</time>
      </trkpt>
      <trkpt lat="43.73479" lon="6.08448">
        <ele>414.1</ele>
        <time>2025-09-14T12:25:42.000Z</time>
      </trkpt>
      <trkpt lat="43.73479" lon="6.08448">
        <ele>414</ele>
        <time>2025-09-14T12:25:43.000Z</time>
      </trkpt>
      <trkpt lat="43.73479" lon="6.08448">
        <ele>414</ele>
        <time>2025-09-14T12:25:44.000Z</time>
      </trkpt>
      <trkpt lat="43.73481" lon="6.08448">
        <ele>414</ele>
        <time>2025-09-14T12:25:48.000Z</time>
      </trkpt>
      <trkpt lat="43.73481" lon="6.08447">
        <ele>414</ele>
        <time>2025-09-14T12:25:49.000Z</time>
      </trkpt>
      <trkpt lat="43.73488" lon="6.08441">
        <ele>413.9</ele>
        <time>2025-09-14T12:26:05.000Z</time>
      </trkpt>
      <trkpt lat="43.73488" lon="6.08441">
        <ele>413.9</ele>
        <time>2025-09-14T12:26:06.000Z</time>
      </trkpt>
      <trkpt lat="43.73488" lon="6.08441">
        <ele>413.9</ele>
        <time>2025-09-14T12:26:23.000Z</time>
      </trkpt>
      <trkpt lat="43.73488" lon="6.08441">
        <ele>413.9</ele>
        <time>2025-09-14T12:26:24.000Z</time>
      </trkpt>
      <trkpt lat="43.73488" lon="6.08441">
        <ele>413.9</ele>
        <time>2025-09-14T12:26:25.000Z</time>
      </trkpt>
      <trkpt lat="43.73488" lon="6.08441">
        <ele>413.9</ele>
        <time>2025-09-14T12:26:26.000Z</time>
      </trkpt>
      <trkpt lat="43.73488" lon="6.08441">
        <ele>413.9</ele>
        <time>2025-09-14T12:26:27.000Z</time>
      </trkpt>
      <trkpt lat="43.73487" lon="6.08443">
        <ele>414</ele>
        <time>2025-09-14T12:27:30.000Z</time>
      </trkpt>
      <trkpt lat="43.73487" lon="6.08443">
        <ele>414</ele>
        <time>2025-09-14T12:27:31.000Z</time>
      </trkpt>
      <trkpt lat="43.73487" lon="6.08443">
        <ele>414.1</ele>
        <time>2025-09-14T12:27:35.000Z</time>
      </trkpt>
      <trkpt lat="43.73487" lon="6.08443">
        <ele>414.1</ele>
        <time>2025-09-14T12:27:36.000Z</time>
      </trkpt>
      <trkpt lat="43.73487" lon="6.08443">
        <ele>414.1</ele>
        <time>2025-09-14T12:27:37.000Z</time>
      </trkpt>
      <trkpt lat="43.73487" lon="6.08443">
        <ele>414.2</ele>
        <time>2025-09-14T12:28:30.000Z</time>
      </trkpt>
      <trkpt lat="43.73487" lon="6.08443">
        <ele>414.3</ele>
        <time>2025-09-14T12:28:31.000Z</time>
      </trkpt>
      <trkpt lat="43.73487" lon="6.08443">
        <ele>414.3</ele>
        <time>2025-09-14T12:28:32.000Z</time>
      </trkpt>
      <trkpt lat="43.73487" lon="6.08443">
        <ele>414.3</ele>
        <time>2025-09-14T12:28:33.000Z</time>
      </trkpt>
      <trkpt lat="43.73487" lon="6.08443">
        <ele>414.3</ele>
        <time>2025-09-14T12:28:34.000Z</time>
      </trkpt>
      <trkpt lat="43.73488" lon="6.08441">
        <ele>414.4</ele>
        <time>2025-09-14T12:29:08.000Z</time>
      </trkpt>
      <trkpt lat="43.73488" lon="6.08441">
        <ele>414.4</ele>
        <time>2025-09-14T12:29:09.000Z</time>
      </trkpt>
      <trkpt lat="43.73488" lon="6.08441">
        <ele>414.4</ele>
        <time>2025-09-14T12:29:10.000Z</time>
      </trkpt>
      <trkpt lat="43.73488" lon="6.08441">
        <ele>414.4</ele>
        <time>2025-09-14T12:29:13.000Z</time>
      </trkpt>
      <trkpt lat="43.73488" lon="6.08442">
        <ele>414.4</ele>
        <time>2025-09-14T12:29:14.000Z</time>
      </trkpt>
      <trkpt lat="43.73488" lon="6.08441">
        <ele>414.4</ele>
        <time>2025-09-14T12:29:58.000Z</time>
      </trkpt>
      <trkpt lat="43.73488" lon="6.08441">
        <ele>414.4</ele>
        <time>2025-09-14T12:29:59.000Z</time>
      </trkpt>
      <trkpt lat="43.73488" lon="6.08441">
        <ele>414.4</ele>
        <time>2025-09-14T12:30:03.000Z</time>
      </trkpt>
      <trkpt lat="43.73488" lon="6.08441">
        <ele>414.5</ele>
        <time>2025-09-14T12:30:04.000Z</time>
      </trkpt>
      <trkpt lat="43.73488" lon="6.08441">
        <ele>414.5</ele>
        <time>2025-09-14T12:30:05.000Z</time>
      </trkpt>
      <trkpt lat="43.73488" lon="6.08441">
        <ele>414.6</ele>
        <time>2025-09-14T12:31:10.000Z</time>
      </trkpt>
      <trkpt lat="43.73488" lon="6.08441">
        <ele>414.6</ele>
        <time>2025-09-14T12:31:11.000Z</time>
      </trkpt>
      <trkpt lat="43.73489" lon="6.0844">
        <ele>414.6</ele>
        <time>2025-09-14T12:31:12.000Z</time>
      </trkpt>
      <trkpt lat="43.73495" lon="6.08431">
        <ele>414.6</ele>
        <time>2025-09-14T12:31:24.000Z</time>
      </trkpt>
      <trkpt lat="43.73498" lon="6.08425">
        <ele>414.6</ele>
        <time>2025-09-14T12:31:35.000Z</time>
      </trkpt>
      <trkpt lat="43.73498" lon="6.08425">
        <ele>414.6</ele>
        <time>2025-09-14T12:31:36.000Z</time>
      </trkpt>
      <trkpt lat="43.73498" lon="6.08425">
        <ele>414.6</ele>
        <time>2025-09-14T12:31:37.000Z</time>
      </trkpt>
      <trkpt lat="43.73498" lon="6.08425">
        <ele>414.6</ele>
        <time>2025-09-14T12:31:38.000Z</time>
      </trkpt>
      <trkpt lat="43.73498" lon="6.08425">
        <ele>414.6</ele>
        <time>2025-09-14T12:31:39.000Z</time>
      </trkpt>
      <trkpt lat="43.73498" lon="6.08425">
        <ele>414.6</ele>
        <time>2025-09-14T12:31:40.000Z</time>
      </trkpt>
      <trkpt lat="43.73498" lon="6.08425">
        <ele>414.6</ele>
        <time>2025-09-14T12:31:41.000Z</time>
      </trkpt>
      <trkpt lat="43.73498" lon="6.08424">
        <ele>414.6</ele>
        <time>2025-09-14T12:31:48.000Z</time>
      </trkpt>
      <trkpt lat="43.73498" lon="6.08424">
        <ele>414.6</ele>
        <time>2025-09-14T12:31:49.000Z</time>
      </trkpt>
      <trkpt lat="43.73498" lon="6.08424">
        <ele>414.6</ele>
        <time>2025-09-14T12:31:52.000Z</time>
      </trkpt>
      <trkpt lat="43.73498" lon="6.08424">
        <ele>414.6</ele>
        <time>2025-09-14T12:31:53.000Z</time>
      </trkpt>
      <trkpt lat="43.73498" lon="6.08424">
        <ele>414.6</ele>
        <time>2025-09-14T12:31:54.000Z</time>
      </trkpt>
      <trkpt lat="43.73498" lon="6.08423">
        <ele>414.6</ele>
        <time>2025-09-14T12:31:58.000Z</time>
      </trkpt>
      <trkpt lat="43.73498" lon="6.08422">
        <ele>414.6</ele>
        <time>2025-09-14T12:31:59.000Z</time>
      </trkpt>
      <trkpt lat="43.73502" lon="6.08411">
        <ele>414.6</ele>
        <time>2025-09-14T12:32:13.000Z</time>
      </trkpt>
      <trkpt lat="43.73503" lon="6.08398">
        <ele>414.5</ele>
        <time>2025-09-14T12:32:26.000Z</time>
      </trkpt>
      <trkpt lat="43.73497" lon="6.08387">
        <ele>414.4</ele>
        <time>2025-09-14T12:32:35.000Z</time>
      </trkpt>
      <trkpt lat="43.73491" lon="6.08377">
        <ele>414.2</ele>
        <time>2025-09-14T12:32:46.000Z</time>
      </trkpt>
      <trkpt lat="43.73483" lon="6.08369">
        <ele>414.1</ele>
        <time>2025-09-14T12:32:57.000Z</time>
      </trkpt>
      <trkpt lat="43.73475" lon="6.08361">
        <ele>414</ele>
        <time>2025-09-14T12:33:10.000Z</time>
      </trkpt>
      <trkpt lat="43.73468" lon="6.08354">
        <ele>413.9</ele>
        <time>2025-09-14T12:33:20.000Z</time>
      </trkpt>
      <trkpt lat="43.73459" lon="6.08348">
        <ele>413.7</ele>
        <time>2025-09-14T12:33:33.000Z</time>
      </trkpt>
      <trkpt lat="43.7345" lon="6.08344">
        <ele>413.6</ele>
        <time>2025-09-14T12:33:48.000Z</time>
      </trkpt>
      <trkpt lat="43.73441" lon="6.08343">
        <ele>413.4</ele>
        <time>2025-09-14T12:33:59.000Z</time>
      </trkpt>
      <trkpt lat="43.73432" lon="6.08345">
        <ele>413.4</ele>
        <time>2025-09-14T12:34:11.000Z</time>
      </trkpt>
      <trkpt lat="43.73423" lon="6.08346">
        <ele>413.5</ele>
        <time>2025-09-14T12:34:24.000Z</time>
      </trkpt>
      <trkpt lat="43.73413" lon="6.08344">
        <ele>413.6</ele>
        <time>2025-09-14T12:34:35.000Z</time>
      </trkpt>
      <trkpt lat="43.73404" lon="6.08342">
        <ele>413.6</ele>
        <time>2025-09-14T12:34:48.000Z</time>
      </trkpt>
      <trkpt lat="43.73395" lon="6.08338">
        <ele>413.6</ele>
        <time>2025-09-14T12:35:00.000Z</time>
      </trkpt>
      <trkpt lat="43.73387" lon="6.08333">
        <ele>413.6</ele>
        <time>2025-09-14T12:35:12.000Z</time>
      </trkpt>
      <trkpt lat="43.73378" lon="6.0833">
        <ele>413.6</ele>
        <time>2025-09-14T12:35:26.000Z</time>
      </trkpt>
      <trkpt lat="43.73369" lon="6.08327">
        <ele>413.6</ele>
        <time>2025-09-14T12:35:44.000Z</time>
      </trkpt>
      <trkpt lat="43.7336" lon="6.08321">
        <ele>413.7</ele>
        <time>2025-09-14T12:35:58.000Z</time>
      </trkpt>
      <trkpt lat="43.73353" lon="6.08313">
        <ele>413.7</ele>
        <time>2025-09-14T12:36:10.000Z</time>
      </trkpt>
      <trkpt lat="43.73343" lon="6.08311">
        <ele>413.7</ele>
        <time>2025-09-14T12:36:21.000Z</time>
      </trkpt>
      <trkpt lat="43.73334" lon="6.08314">
        <ele>414</ele>
        <time>2025-09-14T12:36:35.000Z</time>
      </trkpt>
      <trkpt lat="43.73326" lon="6.08321">
        <ele>414.7</ele>
        <time>2025-09-14T12:36:47.000Z</time>
      </trkpt>
      <trkpt lat="43.7332" lon="6.08331">
        <ele>416</ele>
        <time>2025-09-14T12:36:59.000Z</time>
      </trkpt>
      <trkpt lat="43.73319" lon="6.08336">
        <ele>416.7</ele>
        <time>2025-09-14T12:37:08.000Z</time>
      </trkpt>
      <trkpt lat="43.73319" lon="6.08336">
        <ele>416.7</ele>
        <time>2025-09-14T12:37:09.000Z</time>
      </trkpt>
      <trkpt lat="43.73319" lon="6.08336">
        <ele>416.8</ele>
        <time>2025-09-14T12:37:12.000Z</time>
      </trkpt>
      <trkpt lat="43.73318" lon="6.08337">
        <ele>416.8</ele>
        <time>2025-09-14T12:37:13.000Z</time>
      </trkpt>
      <trkpt lat="43.73318" lon="6.08337">
        <ele>416.9</ele>
        <time>2025-09-14T12:37:14.000Z</time>
      </trkpt>
      <trkpt lat="43.73315" lon="6.08338">
        <ele>417.2</ele>
        <time>2025-09-14T12:37:23.000Z</time>
      </trkpt>
      <trkpt lat="43.73315" lon="6.08338">
        <ele>417.2</ele>
        <time>2025-09-14T12:37:24.000Z</time>
      </trkpt>
      <trkpt lat="43.73314" lon="6.0834">
        <ele>417.5</ele>
        <time>2025-09-14T12:37:33.000Z</time>
      </trkpt>
      <trkpt lat="43.73313" lon="6.0834">
        <ele>417.6</ele>
        <time>2025-09-14T12:37:34.000Z</time>
      </trkpt>
      <trkpt lat="43.73312" lon="6.08341">
        <ele>417.6</ele>
        <time>2025-09-14T12:37:35.000Z</time>
      </trkpt>
      <trkpt lat="43.73303" lon="6.08345">
        <ele>418.1</ele>
        <time>2025-09-14T12:37:47.000Z</time>
      </trkpt>
      <trkpt lat="43.73293" lon="6.08346">
        <ele>418.9</ele>
        <time>2025-09-14T12:37:58.000Z</time>
      </trkpt>
      <trkpt lat="43.73284" lon="6.08348">
        <ele>420</ele>
        <time>2025-09-14T12:38:11.000Z</time>
      </trkpt>
      <trkpt lat="43.73275" lon="6.08348">
        <ele>420.9</ele>
        <time>2025-09-14T12:38:25.000Z</time>
      </trkpt>
      <trkpt lat="43.73266" lon="6.08348">
        <ele>421.5</ele>
        <time>2025-09-14T12:38:37.000Z</time>
      </trkpt>
      <trkpt lat="43.73256" lon="6.08348">
        <ele>421.9</ele>
        <time>2025-09-14T12:38:49.000Z</time>
      </trkpt>
      <trkpt lat="43.73247" lon="6.08346">
        <ele>422.2</ele>
        <time>2025-09-14T12:39:00.000Z</time>
      </trkpt>
      <trkpt lat="43.73244" lon="6.08346">
        <ele>422.4</ele>
        <time>2025-09-14T12:39:10.000Z</time>
      </trkpt>
      <trkpt lat="43.73244" lon="6.08346">
        <ele>422.4</ele>
        <time>2025-09-14T12:39:11.000Z</time>
      </trkpt>
      <trkpt lat="43.73244" lon="6.08346">
        <ele>422.5</ele>
        <time>2025-09-14T12:39:15.000Z</time>
      </trkpt>
      <trkpt lat="43.73243" lon="6.08346">
        <ele>422.5</ele>
        <time>2025-09-14T12:39:16.000Z</time>
      </trkpt>
      <trkpt lat="43.73242" lon="6.08346">
        <ele>422.5</ele>
        <time>2025-09-14T12:39:17.000Z</time>
      </trkpt>
      <trkpt lat="43.73241" lon="6.08346">
        <ele>422.6</ele>
        <time>2025-09-14T12:39:22.000Z</time>
      </trkpt>
      <trkpt lat="43.73241" lon="6.08346">
        <ele>422.6</ele>
        <time>2025-09-14T12:39:23.000Z</time>
      </trkpt>
      <trkpt lat="43.73241" lon="6.08346">
        <ele>422.6</ele>
        <time>2025-09-14T12:39:24.000Z</time>
      </trkpt>
      <trkpt lat="43.73241" lon="6.08346">
        <ele>422.6</ele>
        <time>2025-09-14T12:39:27.000Z</time>
      </trkpt>
      <trkpt lat="43.73241" lon="6.08346">
        <ele>422.7</ele>
        <time>2025-09-14T12:39:28.000Z</time>
      </trkpt>
      <trkpt lat="43.73241" lon="6.08346">
        <ele>422.7</ele>
        <time>2025-09-14T12:39:29.000Z</time>
      </trkpt>
      <trkpt lat="43.73241" lon="6.08347">
        <ele>422.7</ele>
        <time>2025-09-14T12:39:30.000Z</time>
      </trkpt>
      <trkpt lat="43.73241" lon="6.08348">
        <ele>422.7</ele>
        <time>2025-09-14T12:39:31.000Z</time>
      </trkpt>
      <trkpt lat="43.73241" lon="6.08348">
        <ele>422.7</ele>
        <time>2025-09-14T12:39:32.000Z</time>
      </trkpt>
      <trkpt lat="43.73241" lon="6.08348">
        <ele>422.7</ele>
        <time>2025-09-14T12:39:33.000Z</time>
      </trkpt>
      <trkpt lat="43.73241" lon="6.08348">
        <ele>422.7</ele>
        <time>2025-09-14T12:39:34.000Z</time>
      </trkpt>
      <trkpt lat="43.7324" lon="6.08348">
        <ele>422.7</ele>
        <time>2025-09-14T12:39:35.000Z</time>
      </trkpt>
      <trkpt lat="43.7324" lon="6.08349">
        <ele>422.7</ele>
        <time>2025-09-14T12:39:36.000Z</time>
      </trkpt>
      <trkpt lat="43.7324" lon="6.0835">
        <ele>422.8</ele>
        <time>2025-09-14T12:39:37.000Z</time>
      </trkpt>
      <trkpt lat="43.7324" lon="6.08351">
        <ele>422.8</ele>
        <time>2025-09-14T12:39:38.000Z</time>
      </trkpt>
      <trkpt lat="43.7324" lon="6.0835">
        <ele>422.8</ele>
        <time>2025-09-14T12:39:39.000Z</time>
      </trkpt>
      <trkpt lat="43.7324" lon="6.08351">
        <ele>422.8</ele>
        <time>2025-09-14T12:39:40.000Z</time>
      </trkpt>
      <trkpt lat="43.7324" lon="6.08351">
        <ele>422.8</ele>
        <time>2025-09-14T12:39:41.000Z</time>
      </trkpt>
      <trkpt lat="43.7324" lon="6.08351">
        <ele>423</ele>
        <time>2025-09-14T12:41:17.000Z</time>
      </trkpt>
      <trkpt lat="43.7324" lon="6.08351">
        <ele>423</ele>
        <time>2025-09-14T12:41:18.000Z</time>
      </trkpt>
      <trkpt lat="43.7324" lon="6.08351">
        <ele>423</ele>
        <time>2025-09-14T12:41:19.000Z</time>
      </trkpt>
      <trkpt lat="43.7324" lon="6.08351">
        <ele>423</ele>
        <time>2025-09-14T12:41:22.000Z</time>
      </trkpt>
      <trkpt lat="43.7324" lon="6.08351">
        <ele>423.1</ele>
        <time>2025-09-14T12:41:23.000Z</time>
      </trkpt>
      <trkpt lat="43.7324" lon="6.08351">
        <ele>423.1</ele>
        <time>2025-09-14T12:41:24.000Z</time>
      </trkpt>
      <trkpt lat="43.7324" lon="6.08351">
        <ele>423.2</ele>
        <time>2025-09-14T12:42:10.000Z</time>
      </trkpt>
      <trkpt lat="43.7324" lon="6.08351">
        <ele>423.2</ele>
        <time>2025-09-14T12:42:11.000Z</time>
      </trkpt>
      <trkpt lat="43.7324" lon="6.08351">
        <ele>423.2</ele>
        <time>2025-09-14T12:42:12.000Z</time>
      </trkpt>
      <trkpt lat="43.7324" lon="6.08351">
        <ele>423.2</ele>
        <time>2025-09-14T12:42:13.000Z</time>
      </trkpt>
      <trkpt lat="43.7324" lon="6.08351">
        <ele>423.2</ele>
        <time>2025-09-14T12:42:14.000Z</time>
      </trkpt>
      <trkpt lat="43.7324" lon="6.08351">
        <ele>423.2</ele>
        <time>2025-09-14T12:42:18.000Z</time>
      </trkpt>
      <trkpt lat="43.7324" lon="6.08351">
        <ele>423.2</ele>
        <time>2025-09-14T12:42:19.000Z</time>
      </trkpt>
      <trkpt lat="43.7324" lon="6.08351">
        <ele>423.2</ele>
        <time>2025-09-14T12:42:23.000Z</time>
      </trkpt>
      <trkpt lat="43.73241" lon="6.08351">
        <ele>423.2</ele>
        <time>2025-09-14T12:42:24.000Z</time>
      </trkpt>
      <trkpt lat="43.73241" lon="6.08351">
        <ele>423.2</ele>
        <time>2025-09-14T12:42:35.000Z</time>
      </trkpt>
      <trkpt lat="43.73241" lon="6.08351">
        <ele>423.2</ele>
        <time>2025-09-14T12:42:36.000Z</time>
      </trkpt>
      <trkpt lat="43.73241" lon="6.08351">
        <ele>423.2</ele>
        <time>2025-09-14T12:42:40.000Z</time>
      </trkpt>
      <trkpt lat="43.73241" lon="6.08351">
        <ele>423.2</ele>
        <time>2025-09-14T12:42:41.000Z</time>
      </trkpt>
      <trkpt lat="43.73241" lon="6.08351">
        <ele>423</ele>
        <time>2025-09-14T12:43:20.000Z</time>
      </trkpt>
      <trkpt lat="43.73241" lon="6.08351">
        <ele>423</ele>
        <time>2025-09-14T12:43:21.000Z</time>
      </trkpt>
      <trkpt lat="43.73241" lon="6.08351">
        <ele>423</ele>
        <time>2025-09-14T12:43:22.000Z</time>
      </trkpt>
      <trkpt lat="43.73241" lon="6.08351">
        <ele>423</ele>
        <time>2025-09-14T12:43:23.000Z</time>
      </trkpt>
      <trkpt lat="43.73241" lon="6.08351">
        <ele>423.1</ele>
        <time>2025-09-14T12:43:24.000Z</time>
      </trkpt>
      <trkpt lat="43.73241" lon="6.08351">
        <ele>423.1</ele>
        <time>2025-09-14T12:43:48.000Z</time>
      </trkpt>
      <trkpt lat="43.73241" lon="6.08351">
        <ele>423.1</ele>
        <time>2025-09-14T12:43:49.000Z</time>
      </trkpt>
      <trkpt lat="43.73241" lon="6.08351">
        <ele>423.1</ele>
        <time>2025-09-14T12:44:01.000Z</time>
      </trkpt>
      <trkpt lat="43.73241" lon="6.08351">
        <ele>423.1</ele>
        <time>2025-09-14T12:44:02.000Z</time>
      </trkpt>
      <trkpt lat="43.73241" lon="6.08351">
        <ele>423.1</ele>
        <time>2025-09-14T12:44:03.000Z</time>
      </trkpt>
      <trkpt lat="43.73241" lon="6.08351">
        <ele>423.1</ele>
        <time>2025-09-14T12:44:04.000Z</time>
      </trkpt>
      <trkpt lat="43.73241" lon="6.08351">
        <ele>423.1</ele>
        <time>2025-09-14T12:44:05.000Z</time>
      </trkpt>
      <trkpt lat="43.73241" lon="6.08351">
        <ele>423.1</ele>
        <time>2025-09-14T12:44:06.000Z</time>
      </trkpt>
      <trkpt lat="43.73241" lon="6.08351">
        <ele>423.1</ele>
        <time>2025-09-14T12:44:07.000Z</time>
      </trkpt>
      <trkpt lat="43.73241" lon="6.08351">
        <ele>423.1</ele>
        <time>2025-09-14T12:44:11.000Z</time>
      </trkpt>
      <trkpt lat="43.73241" lon="6.08351">
        <ele>423.1</ele>
        <time>2025-09-14T12:44:12.000Z</time>
      </trkpt>
      <trkpt lat="43.73241" lon="6.08351">
        <ele>423.1</ele>
        <time>2025-09-14T12:44:18.000Z</time>
      </trkpt>
      <trkpt lat="43.73241" lon="6.08351">
        <ele>423.1</ele>
        <time>2025-09-14T12:44:19.000Z</time>
      </trkpt>
      <trkpt lat="43.73241" lon="6.0835">
        <ele>423.1</ele>
        <time>2025-09-14T12:44:22.000Z</time>
      </trkpt>
      <trkpt lat="43.73241" lon="6.08349">
        <ele>423.1</ele>
        <time>2025-09-14T12:44:23.000Z</time>
      </trkpt>
      <trkpt lat="43.73241" lon="6.08349">
        <ele>423.1</ele>
        <time>2025-09-14T12:44:24.000Z</time>
      </trkpt>
      <trkpt lat="43.73234" lon="6.0834">
        <ele>423.1</ele>
        <time>2025-09-14T12:44:37.000Z</time>
      </trkpt>
      <trkpt lat="43.73226" lon="6.08335">
        <ele>423</ele>
        <time>2025-09-14T12:44:48.000Z</time>
      </trkpt>
      <trkpt lat="43.73225" lon="6.08322">
        <ele>422.3</ele>
        <time>2025-09-14T12:45:06.000Z</time>
      </trkpt>
      <trkpt lat="43.73223" lon="6.08309">
        <ele>421.4</ele>
        <time>2025-09-14T12:45:19.000Z</time>
      </trkpt>
      <trkpt lat="43.73219" lon="6.08298">
        <ele>420.5</ele>
        <time>2025-09-14T12:45:31.000Z</time>
      </trkpt>
      <trkpt lat="43.73215" lon="6.08286">
        <ele>420</ele>
        <time>2025-09-14T12:45:40.000Z</time>
      </trkpt>
      <trkpt lat="43.73209" lon="6.08276">
        <ele>419.8</ele>
        <time>2025-09-14T12:45:50.000Z</time>
      </trkpt>
      <trkpt lat="43.73205" lon="6.08263">
        <ele>419.7</ele>
        <time>2025-09-14T12:46:01.000Z</time>
      </trkpt>
      <trkpt lat="43.73201" lon="6.08251">
        <ele>419.7</ele>
        <time>2025-09-14T12:46:11.000Z</time>
      </trkpt>
      <trkpt lat="43.73199" lon="6.08238">
        <ele>419.7</ele>
        <time>2025-09-14T12:46:22.000Z</time>
      </trkpt>
      <trkpt lat="43.73199" lon="6.08226">
        <ele>419.7</ele>
        <time>2025-09-14T12:46:33.000Z</time>
      </trkpt>
      <trkpt lat="43.73199" lon="6.08213">
        <ele>419.8</ele>
        <time>2025-09-14T12:46:43.000Z</time>
      </trkpt>
      <trkpt lat="43.732" lon="6.08201">
        <ele>420.1</ele>
        <time>2025-09-14T12:46:54.000Z</time>
      </trkpt>
      <trkpt lat="43.73201" lon="6.08187">
        <ele>420.6</ele>
        <time>2025-09-14T12:47:05.000Z</time>
      </trkpt>
      <trkpt lat="43.73201" lon="6.08174">
        <ele>421.1</ele>
        <time>2025-09-14T12:47:17.000Z</time>
      </trkpt>
      <trkpt lat="43.73197" lon="6.08162">
        <ele>421.6</ele>
        <time>2025-09-14T12:47:28.000Z</time>
      </trkpt>
      <trkpt lat="43.73192" lon="6.08152">
        <ele>422</ele>
        <time>2025-09-14T12:47:38.000Z</time>
      </trkpt>
      <trkpt lat="43.73185" lon="6.08143">
        <ele>422.6</ele>
        <time>2025-09-14T12:47:50.000Z</time>
      </trkpt>
      <trkpt lat="43.73177" lon="6.08134">
        <ele>423.1</ele>
        <time>2025-09-14T12:48:00.000Z</time>
      </trkpt>
      <trkpt lat="43.73172" lon="6.08124">
        <ele>423.6</ele>
        <time>2025-09-14T12:48:12.000Z</time>
      </trkpt>
      <trkpt lat="43.73165" lon="6.08116">
        <ele>423.9</ele>
        <time>2025-09-14T12:48:23.000Z</time>
      </trkpt>
      <trkpt lat="43.73158" lon="6.08107">
        <ele>424.2</ele>
        <time>2025-09-14T12:48:34.000Z</time>
      </trkpt>
      <trkpt lat="43.73152" lon="6.08098">
        <ele>424.4</ele>
        <time>2025-09-14T12:48:46.000Z</time>
      </trkpt>
      <trkpt lat="43.73147" lon="6.08086">
        <ele>424.8</ele>
        <time>2025-09-14T12:48:58.000Z</time>
      </trkpt>
      <trkpt lat="43.73144" lon="6.08074">
        <ele>425.3</ele>
        <time>2025-09-14T12:49:10.000Z</time>
      </trkpt>
      <trkpt lat="43.7314" lon="6.08063">
        <ele>426.2</ele>
        <time>2025-09-14T12:49:22.000Z</time>
      </trkpt>
      <trkpt lat="43.73136" lon="6.0805">
        <ele>427.2</ele>
        <time>2025-09-14T12:49:35.000Z</time>
      </trkpt>
      <trkpt lat="43.73131" lon="6.0804">
        <ele>427.5</ele>
        <time>2025-09-14T12:49:45.000Z</time>
      </trkpt>
      <trkpt lat="43.73126" lon="6.08028">
        <ele>427.9</ele>
        <time>2025-09-14T12:50:01.000Z</time>
      </trkpt>
      <trkpt lat="43.73121" lon="6.08017">
        <ele>428.3</ele>
        <time>2025-09-14T12:50:15.000Z</time>
      </trkpt>
      <trkpt lat="43.7312" lon="6.08004">
        <ele>428.8</ele>
        <time>2025-09-14T12:50:26.000Z</time>
      </trkpt>
      <trkpt lat="43.73117" lon="6.07992">
        <ele>429.2</ele>
        <time>2025-09-14T12:50:38.000Z</time>
      </trkpt>
      <trkpt lat="43.73116" lon="6.07978">
        <ele>429.6</ele>
        <time>2025-09-14T12:50:50.000Z</time>
      </trkpt>
      <trkpt lat="43.73118" lon="6.07966">
        <ele>429.9</ele>
        <time>2025-09-14T12:51:01.000Z</time>
      </trkpt>
      <trkpt lat="43.73112" lon="6.07956">
        <ele>430.3</ele>
        <time>2025-09-14T12:51:11.000Z</time>
      </trkpt>
      <trkpt lat="43.73104" lon="6.07949">
        <ele>430.9</ele>
        <time>2025-09-14T12:51:24.000Z</time>
      </trkpt>
      <trkpt lat="43.73096" lon="6.07942">
        <ele>431.5</ele>
        <time>2025-09-14T12:51:38.000Z</time>
      </trkpt>
      <trkpt lat="43.73089" lon="6.07934">
        <ele>432</ele>
        <time>2025-09-14T12:51:48.000Z</time>
      </trkpt>
      <trkpt lat="43.73081" lon="6.07927">
        <ele>432.6</ele>
        <time>2025-09-14T12:52:00.000Z</time>
      </trkpt>
      <trkpt lat="43.73074" lon="6.07919">
        <ele>433.1</ele>
        <time>2025-09-14T12:52:12.000Z</time>
      </trkpt>
      <trkpt lat="43.73067" lon="6.0791">
        <ele>433.4</ele>
        <time>2025-09-14T12:52:24.000Z</time>
      </trkpt>
      <trkpt lat="43.73061" lon="6.079">
        <ele>433.8</ele>
        <time>2025-09-14T12:52:36.000Z</time>
      </trkpt>
      <trkpt lat="43.73057" lon="6.07888">
        <ele>434.2</ele>
        <time>2025-09-14T12:52:48.000Z</time>
      </trkpt>
      <trkpt lat="43.7305" lon="6.0788">
        <ele>434.8</ele>
        <time>2025-09-14T12:53:01.000Z</time>
      </trkpt>
      <trkpt lat="43.73041" lon="6.07876">
        <ele>435.2</ele>
        <time>2025-09-14T12:53:09.000Z</time>
      </trkpt>
      <trkpt lat="43.73033" lon="6.0787">
        <ele>436.2</ele>
        <time>2025-09-14T12:53:26.000Z</time>
      </trkpt>
      <trkpt lat="43.73024" lon="6.07868">
        <ele>437.3</ele>
        <time>2025-09-14T12:53:42.000Z</time>
      </trkpt>
      <trkpt lat="43.73015" lon="6.07871">
        <ele>439</ele>
        <time>2025-09-14T12:53:59.000Z</time>
      </trkpt>
      <trkpt lat="43.73007" lon="6.07878">
        <ele>440.4</ele>
        <time>2025-09-14T12:54:17.000Z</time>
      </trkpt>
      <trkpt lat="43.73007" lon="6.07878">
        <ele>440.8</ele>
        <time>2025-09-14T12:54:23.000Z</time>
      </trkpt>
      <trkpt lat="43.73007" lon="6.07878">
        <ele>440.9</ele>
        <time>2025-09-14T12:54:24.000Z</time>
      </trkpt>
      <trkpt lat="43.73007" lon="6.07879">
        <ele>441.1</ele>
        <time>2025-09-14T12:54:32.000Z</time>
      </trkpt>
      <trkpt lat="43.73006" lon="6.07879">
        <ele>441.2</ele>
        <time>2025-09-14T12:54:33.000Z</time>
      </trkpt>
      <trkpt lat="43.73007" lon="6.07879">
        <ele>441.2</ele>
        <time>2025-09-14T12:54:34.000Z</time>
      </trkpt>
      <trkpt lat="43.72998" lon="6.07881">
        <ele>442.9</ele>
        <time>2025-09-14T12:54:51.000Z</time>
      </trkpt>
      <trkpt lat="43.72988" lon="6.07881">
        <ele>446</ele>
        <time>2025-09-14T12:55:16.000Z</time>
      </trkpt>
      <trkpt lat="43.72981" lon="6.07876">
        <ele>447.7</ele>
        <time>2025-09-14T12:55:32.000Z</time>
      </trkpt>
      <trkpt lat="43.72981" lon="6.07877">
        <ele>447.8</ele>
        <time>2025-09-14T12:55:33.000Z</time>
      </trkpt>
      <trkpt lat="43.7298" lon="6.07876">
        <ele>447.9</ele>
        <time>2025-09-14T12:55:34.000Z</time>
      </trkpt>
      <trkpt lat="43.7298" lon="6.07876">
        <ele>448</ele>
        <time>2025-09-14T12:55:35.000Z</time>
      </trkpt>
      <trkpt lat="43.7298" lon="6.07875">
        <ele>448.1</ele>
        <time>2025-09-14T12:55:36.000Z</time>
      </trkpt>
      <trkpt lat="43.72979" lon="6.07875">
        <ele>448.2</ele>
        <time>2025-09-14T12:55:37.000Z</time>
      </trkpt>
      <trkpt lat="43.72971" lon="6.07868">
        <ele>449.8</ele>
        <time>2025-09-14T12:55:55.000Z</time>
      </trkpt>
      <trkpt lat="43.72971" lon="6.07868">
        <ele>450</ele>
        <time>2025-09-14T12:55:58.000Z</time>
      </trkpt>
      <trkpt lat="43.72971" lon="6.07868">
        <ele>450</ele>
        <time>2025-09-14T12:55:59.000Z</time>
      </trkpt>
      <trkpt lat="43.72971" lon="6.07868">
        <ele>450.1</ele>
        <time>2025-09-14T12:56:00.000Z</time>
      </trkpt>
      <trkpt lat="43.72971" lon="6.07868">
        <ele>450.1</ele>
        <time>2025-09-14T12:56:01.000Z</time>
      </trkpt>
      <trkpt lat="43.72971" lon="6.07868">
        <ele>450.1</ele>
        <time>2025-09-14T12:56:02.000Z</time>
      </trkpt>
      <trkpt lat="43.72971" lon="6.07868">
        <ele>450.2</ele>
        <time>2025-09-14T12:56:03.000Z</time>
      </trkpt>
      <trkpt lat="43.72971" lon="6.07868">
        <ele>450.2</ele>
        <time>2025-09-14T12:56:04.000Z</time>
      </trkpt>
      <trkpt lat="43.7297" lon="6.07869">
        <ele>450.5</ele>
        <time>2025-09-14T12:56:32.000Z</time>
      </trkpt>
      <trkpt lat="43.7297" lon="6.07869">
        <ele>450.5</ele>
        <time>2025-09-14T12:56:33.000Z</time>
      </trkpt>
      <trkpt lat="43.7297" lon="6.07869">
        <ele>450.5</ele>
        <time>2025-09-14T12:56:34.000Z</time>
      </trkpt>
      <trkpt lat="43.7297" lon="6.07869">
        <ele>450.5</ele>
        <time>2025-09-14T12:56:38.000Z</time>
      </trkpt>
      <trkpt lat="43.7297" lon="6.07869">
        <ele>450.5</ele>
        <time>2025-09-14T12:56:39.000Z</time>
      </trkpt>
      <trkpt lat="43.7297" lon="6.07869">
        <ele>450.5</ele>
        <time>2025-09-14T12:56:40.000Z</time>
      </trkpt>
      <trkpt lat="43.7297" lon="6.07869">
        <ele>450.5</ele>
        <time>2025-09-14T12:57:47.000Z</time>
      </trkpt>
      <trkpt lat="43.7297" lon="6.07869">
        <ele>450.5</ele>
        <time>2025-09-14T12:57:48.000Z</time>
      </trkpt>
      <trkpt lat="43.7297" lon="6.07869">
        <ele>450.5</ele>
        <time>2025-09-14T12:57:49.000Z</time>
      </trkpt>
      <trkpt lat="43.7297" lon="6.07869">
        <ele>450.5</ele>
        <time>2025-09-14T12:57:50.000Z</time>
      </trkpt>
      <trkpt lat="43.7297" lon="6.07869">
        <ele>450.6</ele>
        <time>2025-09-14T12:57:51.000Z</time>
      </trkpt>
      <trkpt lat="43.72969" lon="6.07869">
        <ele>450.6</ele>
        <time>2025-09-14T12:58:46.000Z</time>
      </trkpt>
      <trkpt lat="43.72968" lon="6.07869">
        <ele>450.6</ele>
        <time>2025-09-14T12:58:47.000Z</time>
      </trkpt>
      <trkpt lat="43.72959" lon="6.0787">
        <ele>450.4</ele>
        <time>2025-09-14T12:59:09.000Z</time>
      </trkpt>
      <trkpt lat="43.72959" lon="6.0787">
        <ele>450.4</ele>
        <time>2025-09-14T12:59:13.000Z</time>
      </trkpt>
      <trkpt lat="43.72959" lon="6.0787">
        <ele>450.4</ele>
        <time>2025-09-14T12:59:14.000Z</time>
      </trkpt>
      <trkpt lat="43.72959" lon="6.0787">
        <ele>450.4</ele>
        <time>2025-09-14T12:59:15.000Z</time>
      </trkpt>
      <trkpt lat="43.72959" lon="6.0787">
        <ele>450.4</ele>
        <time>2025-09-14T12:59:20.000Z</time>
      </trkpt>
      <trkpt lat="43.72959" lon="6.0787">
        <ele>450.4</ele>
        <time>2025-09-14T12:59:21.000Z</time>
      </trkpt>
      <trkpt lat="43.72959" lon="6.0787">
        <ele>450.4</ele>
        <time>2025-09-14T12:59:22.000Z</time>
      </trkpt>
      <trkpt lat="43.72959" lon="6.0787">
        <ele>450.4</ele>
        <time>2025-09-14T12:59:23.000Z</time>
      </trkpt>
      <trkpt lat="43.72959" lon="6.0787">
        <ele>450.4</ele>
        <time>2025-09-14T12:59:24.000Z</time>
      </trkpt>
      <trkpt lat="43.72959" lon="6.0787">
        <ele>450.5</ele>
        <time>2025-09-14T13:00:05.000Z</time>
      </trkpt>
      <trkpt lat="43.72959" lon="6.0787">
        <ele>450.5</ele>
        <time>2025-09-14T13:00:06.000Z</time>
      </trkpt>
      <trkpt lat="43.72959" lon="6.0787">
        <ele>450.5</ele>
        <time>2025-09-14T13:00:07.000Z</time>
      </trkpt>
      <trkpt lat="43.72959" lon="6.0787">
        <ele>450.5</ele>
        <time>2025-09-14T13:00:08.000Z</time>
      </trkpt>
      <trkpt lat="43.72959" lon="6.0787">
        <ele>450.5</ele>
        <time>2025-09-14T13:00:09.000Z</time>
      </trkpt>
      <trkpt lat="43.72958" lon="6.07869">
        <ele>450.7</ele>
        <time>2025-09-14T13:01:20.000Z</time>
      </trkpt>
      <trkpt lat="43.72957" lon="6.07869">
        <ele>450.7</ele>
        <time>2025-09-14T13:01:21.000Z</time>
      </trkpt>
      <trkpt lat="43.72955" lon="6.07857">
        <ele>450.8</ele>
        <time>2025-09-14T13:01:40.000Z</time>
      </trkpt>
      <trkpt lat="43.72955" lon="6.07857">
        <ele>450.9</ele>
        <time>2025-09-14T13:01:46.000Z</time>
      </trkpt>
      <trkpt lat="43.72955" lon="6.07857">
        <ele>450.9</ele>
        <time>2025-09-14T13:01:47.000Z</time>
      </trkpt>
      <trkpt lat="43.72955" lon="6.07856">
        <ele>451</ele>
        <time>2025-09-14T13:01:50.000Z</time>
      </trkpt>
      <trkpt lat="43.72955" lon="6.07856">
        <ele>451</ele>
        <time>2025-09-14T13:01:51.000Z</time>
      </trkpt>
      <trkpt lat="43.72954" lon="6.07855">
        <ele>451</ele>
        <time>2025-09-14T13:01:52.000Z</time>
      </trkpt>
      <trkpt lat="43.72954" lon="6.07855">
        <ele>451</ele>
        <time>2025-09-14T13:01:56.000Z</time>
      </trkpt>
      <trkpt lat="43.72954" lon="6.07855">
        <ele>451.1</ele>
        <time>2025-09-14T13:01:57.000Z</time>
      </trkpt>
      <trkpt lat="43.72952" lon="6.07853">
        <ele>451.1</ele>
        <time>2025-09-14T13:02:01.000Z</time>
      </trkpt>
      <trkpt lat="43.72952" lon="6.07852">
        <ele>451.1</ele>
        <time>2025-09-14T13:02:02.000Z</time>
      </trkpt>
      <trkpt lat="43.72951" lon="6.07839">
        <ele>451.4</ele>
        <time>2025-09-14T13:02:18.000Z</time>
      </trkpt>
      <trkpt lat="43.72951" lon="6.07833">
        <ele>451.5</ele>
        <time>2025-09-14T13:02:32.000Z</time>
      </trkpt>
      <trkpt lat="43.72951" lon="6.07833">
        <ele>451.6</ele>
        <time>2025-09-14T13:02:33.000Z</time>
      </trkpt>
      <trkpt lat="43.72951" lon="6.07833">
        <ele>451.6</ele>
        <time>2025-09-14T13:02:34.000Z</time>
      </trkpt>
      <trkpt lat="43.72951" lon="6.07833">
        <ele>451.5</ele>
        <time>2025-09-14T13:02:40.000Z</time>
      </trkpt>
      <trkpt lat="43.72951" lon="6.07832">
        <ele>451.5</ele>
        <time>2025-09-14T13:02:41.000Z</time>
      </trkpt>
      <trkpt lat="43.72951" lon="6.07832">
        <ele>451.5</ele>
        <time>2025-09-14T13:02:42.000Z</time>
      </trkpt>
      <trkpt lat="43.72951" lon="6.07832">
        <ele>451.5</ele>
        <time>2025-09-14T13:02:43.000Z</time>
      </trkpt>
      <trkpt lat="43.72951" lon="6.07832">
        <ele>451.5</ele>
        <time>2025-09-14T13:02:44.000Z</time>
      </trkpt>
      <trkpt lat="43.72951" lon="6.07832">
        <ele>451.5</ele>
        <time>2025-09-14T13:02:45.000Z</time>
      </trkpt>
      <trkpt lat="43.72951" lon="6.0783">
        <ele>451.5</ele>
        <time>2025-09-14T13:02:46.000Z</time>
      </trkpt>
      <trkpt lat="43.7295" lon="6.07818">
        <ele>451.5</ele>
        <time>2025-09-14T13:02:55.000Z</time>
      </trkpt>
      <trkpt lat="43.7295" lon="6.07805">
        <ele>451.5</ele>
        <time>2025-09-14T13:03:03.000Z</time>
      </trkpt>
      <trkpt lat="43.7295" lon="6.07791">
        <ele>451.6</ele>
        <time>2025-09-14T13:03:14.000Z</time>
      </trkpt>
      <trkpt lat="43.72947" lon="6.07779">
        <ele>451.6</ele>
        <time>2025-09-14T13:03:25.000Z</time>
      </trkpt>
      <trkpt lat="43.72943" lon="6.07767">
        <ele>451.6</ele>
        <time>2025-09-14T13:03:37.000Z</time>
      </trkpt>
      <trkpt lat="43.72941" lon="6.07755">
        <ele>451.7</ele>
        <time>2025-09-14T13:03:47.000Z</time>
      </trkpt>
      <trkpt lat="43.72936" lon="6.07743">
        <ele>451.7</ele>
        <time>2025-09-14T13:04:00.000Z</time>
      </trkpt>
      <trkpt lat="43.7293" lon="6.07733">
        <ele>451.8</ele>
        <time>2025-09-14T13:04:13.000Z</time>
      </trkpt>
      <trkpt lat="43.72922" lon="6.07728">
        <ele>452</ele>
        <time>2025-09-14T13:04:24.000Z</time>
      </trkpt>
      <trkpt lat="43.72914" lon="6.07721">
        <ele>452.2</ele>
        <time>2025-09-14T13:04:36.000Z</time>
      </trkpt>
      <trkpt lat="43.72906" lon="6.07715">
        <ele>453</ele>
        <time>2025-09-14T13:04:50.000Z</time>
      </trkpt>
      <trkpt lat="43.72899" lon="6.07706">
        <ele>453.6</ele>
        <time>2025-09-14T13:05:01.000Z</time>
      </trkpt>
      <trkpt lat="43.72895" lon="6.07694">
        <ele>454.5</ele>
        <time>2025-09-14T13:05:15.000Z</time>
      </trkpt>
      <trkpt lat="43.72893" lon="6.07681">
        <ele>455.2</ele>
        <time>2025-09-14T13:05:29.000Z</time>
      </trkpt>
      <trkpt lat="43.72892" lon="6.07668">
        <ele>455.5</ele>
        <time>2025-09-14T13:05:43.000Z</time>
      </trkpt>
      <trkpt lat="43.72891" lon="6.07655">
        <ele>455.7</ele>
        <time>2025-09-14T13:05:54.000Z</time>
      </trkpt>
      <trkpt lat="43.7289" lon="6.07642">
        <ele>456.1</ele>
        <time>2025-09-14T13:06:07.000Z</time>
      </trkpt>
      <trkpt lat="43.72883" lon="6.07632">
        <ele>456.4</ele>
        <time>2025-09-14T13:06:19.000Z</time>
      </trkpt>
      <trkpt lat="43.72875" lon="6.07627">
        <ele>456.8</ele>
        <time>2025-09-14T13:06:30.000Z</time>
      </trkpt>
      <trkpt lat="43.72866" lon="6.07621">
        <ele>457.5</ele>
        <time>2025-09-14T13:06:42.000Z</time>
      </trkpt>
      <trkpt lat="43.72862" lon="6.07609">
        <ele>458.5</ele>
        <time>2025-09-14T13:07:06.000Z</time>
      </trkpt>
      <trkpt lat="43.72858" lon="6.07601">
        <ele>459.1</ele>
        <time>2025-09-14T13:07:18.000Z</time>
      </trkpt>
      <trkpt lat="43.72858" lon="6.07601">
        <ele>459.1</ele>
        <time>2025-09-14T13:07:19.000Z</time>
      </trkpt>
      <trkpt lat="43.72858" lon="6.076">
        <ele>459.2</ele>
        <time>2025-09-14T13:07:20.000Z</time>
      </trkpt>
      <trkpt lat="43.72858" lon="6.076">
        <ele>459.2</ele>
        <time>2025-09-14T13:07:21.000Z</time>
      </trkpt>
      <trkpt lat="43.72858" lon="6.076">
        <ele>459.2</ele>
        <time>2025-09-14T13:07:22.000Z</time>
      </trkpt>
      <trkpt lat="43.72853" lon="6.07588">
        <ele>459.6</ele>
        <time>2025-09-14T13:07:34.000Z</time>
      </trkpt>
      <trkpt lat="43.72849" lon="6.07577">
        <ele>460.1</ele>
        <time>2025-09-14T13:07:45.000Z</time>
      </trkpt>
      <trkpt lat="43.72848" lon="6.07564">
        <ele>460.5</ele>
        <time>2025-09-14T13:07:56.000Z</time>
      </trkpt>
      <trkpt lat="43.72846" lon="6.07551">
        <ele>461</ele>
        <time>2025-09-14T13:08:08.000Z</time>
      </trkpt>
      <trkpt lat="43.72843" lon="6.07538">
        <ele>461.7</ele>
        <time>2025-09-14T13:08:20.000Z</time>
      </trkpt>
      <trkpt lat="43.72843" lon="6.07525">
        <ele>462.3</ele>
        <time>2025-09-14T13:08:32.000Z</time>
      </trkpt>
      <trkpt lat="43.72842" lon="6.07513">
        <ele>462.8</ele>
        <time>2025-09-14T13:08:43.000Z</time>
      </trkpt>
      <trkpt lat="43.72841" lon="6.075">
        <ele>463.3</ele>
        <time>2025-09-14T13:08:54.000Z</time>
      </trkpt>
      <trkpt lat="43.72839" lon="6.07487">
        <ele>463.9</ele>
        <time>2025-09-14T13:09:07.000Z</time>
      </trkpt>
      <trkpt lat="43.72837" lon="6.07475">
        <ele>464.5</ele>
        <time>2025-09-14T13:09:18.000Z</time>
      </trkpt>
      <trkpt lat="43.72835" lon="6.07462">
        <ele>465.1</ele>
        <time>2025-09-14T13:09:30.000Z</time>
      </trkpt>
      <trkpt lat="43.72831" lon="6.07451">
        <ele>465.7</ele>
        <time>2025-09-14T13:09:40.000Z</time>
      </trkpt>
      <trkpt lat="43.72828" lon="6.07439">
        <ele>467</ele>
        <time>2025-09-14T13:09:54.000Z</time>
      </trkpt>
      <trkpt lat="43.72823" lon="6.07428">
        <ele>468.1</ele>
        <time>2025-09-14T13:10:06.000Z</time>
      </trkpt>
      <trkpt lat="43.72822" lon="6.07415">
        <ele>468.3</ele>
        <time>2025-09-14T13:10:20.000Z</time>
      </trkpt>
      <trkpt lat="43.72821" lon="6.07402">
        <ele>468.4</ele>
        <time>2025-09-14T13:10:31.000Z</time>
      </trkpt>
      <trkpt lat="43.72823" lon="6.0739">
        <ele>468.9</ele>
        <time>2025-09-14T13:10:43.000Z</time>
      </trkpt>
      <trkpt lat="43.72826" lon="6.07378">
        <ele>470</ele>
        <time>2025-09-14T13:10:57.000Z</time>
      </trkpt>
      <trkpt lat="43.72833" lon="6.07368">
        <ele>470.9</ele>
        <time>2025-09-14T13:11:11.000Z</time>
      </trkpt>
      <trkpt lat="43.72837" lon="6.07357">
        <ele>471.4</ele>
        <time>2025-09-14T13:11:26.000Z</time>
      </trkpt>
      <trkpt lat="43.7284" lon="6.07344">
        <ele>472.3</ele>
        <time>2025-09-14T13:11:42.000Z</time>
      </trkpt>
      <trkpt lat="43.72845" lon="6.07335">
        <ele>473.4</ele>
        <time>2025-09-14T13:11:57.000Z</time>
      </trkpt>
      <trkpt lat="43.72845" lon="6.07331">
        <ele>474.1</ele>
        <time>2025-09-14T13:12:05.000Z</time>
      </trkpt>
      <trkpt lat="43.72845" lon="6.07331">
        <ele>474.1</ele>
        <time>2025-09-14T13:12:06.000Z</time>
      </trkpt>
      <trkpt lat="43.72845" lon="6.0733">
        <ele>474.3</ele>
        <time>2025-09-14T13:12:10.000Z</time>
      </trkpt>
      <trkpt lat="43.72845" lon="6.07329">
        <ele>474.3</ele>
        <time>2025-09-14T13:12:11.000Z</time>
      </trkpt>
      <trkpt lat="43.72846" lon="6.07328">
        <ele>474.4</ele>
        <time>2025-09-14T13:12:12.000Z</time>
      </trkpt>
      <trkpt lat="43.72848" lon="6.07315">
        <ele>475.2</ele>
        <time>2025-09-14T13:12:25.000Z</time>
      </trkpt>
      <trkpt lat="43.72847" lon="6.07302">
        <ele>475.8</ele>
        <time>2025-09-14T13:12:36.000Z</time>
      </trkpt>
      <trkpt lat="43.72846" lon="6.0729">
        <ele>476.3</ele>
        <time>2025-09-14T13:12:46.000Z</time>
      </trkpt>
      <trkpt lat="43.72845" lon="6.07277">
        <ele>477</ele>
        <time>2025-09-14T13:12:58.000Z</time>
      </trkpt>
      <trkpt lat="43.72845" lon="6.07264">
        <ele>477.6</ele>
        <time>2025-09-14T13:13:11.000Z</time>
      </trkpt>
      <trkpt lat="43.7285" lon="6.07253">
        <ele>478.3</ele>
        <time>2025-09-14T13:13:23.000Z</time>
      </trkpt>
      <trkpt lat="43.72855" lon="6.07242">
        <ele>479</ele>
        <time>2025-09-14T13:13:36.000Z</time>
      </trkpt>
      <trkpt lat="43.72862" lon="6.07233">
        <ele>479.5</ele>
        <time>2025-09-14T13:13:50.000Z</time>
      </trkpt>
      <trkpt lat="43.7287" lon="6.07225">
        <ele>480</ele>
        <time>2025-09-14T13:14:02.000Z</time>
      </trkpt>
      <trkpt lat="43.72877" lon="6.07215">
        <ele>480.5</ele>
        <time>2025-09-14T13:14:14.000Z</time>
      </trkpt>
      <trkpt lat="43.72883" lon="6.07206">
        <ele>480.7</ele>
        <time>2025-09-14T13:14:25.000Z</time>
      </trkpt>
      <trkpt lat="43.72891" lon="6.07197">
        <ele>480.8</ele>
        <time>2025-09-14T13:14:37.000Z</time>
      </trkpt>
      <trkpt lat="43.72897" lon="6.07187">
        <ele>481</ele>
        <time>2025-09-14T13:14:48.000Z</time>
      </trkpt>
      <trkpt lat="43.72904" lon="6.07179">
        <ele>481.2</ele>
        <time>2025-09-14T13:15:01.000Z</time>
      </trkpt>
      <trkpt lat="43.72911" lon="6.07171">
        <ele>481.2</ele>
        <time>2025-09-14T13:15:12.000Z</time>
      </trkpt>
      <trkpt lat="43.72919" lon="6.07164">
        <ele>481.3</ele>
        <time>2025-09-14T13:15:26.000Z</time>
      </trkpt>
      <trkpt lat="43.72928" lon="6.07161">
        <ele>481.5</ele>
        <time>2025-09-14T13:15:39.000Z</time>
      </trkpt>
      <trkpt lat="43.72935" lon="6.07159">
        <ele>481.6</ele>
        <time>2025-09-14T13:15:53.000Z</time>
      </trkpt>
      <trkpt lat="43.72935" lon="6.07159">
        <ele>481.6</ele>
        <time>2025-09-14T13:15:54.000Z</time>
      </trkpt>
      <trkpt lat="43.72935" lon="6.07159">
        <ele>481.6</ele>
        <time>2025-09-14T13:15:55.000Z</time>
      </trkpt>
      <trkpt lat="43.72935" lon="6.07159">
        <ele>481.6</ele>
        <time>2025-09-14T13:15:56.000Z</time>
      </trkpt>
      <trkpt lat="43.72935" lon="6.07158">
        <ele>481.6</ele>
        <time>2025-09-14T13:15:57.000Z</time>
      </trkpt>
      <trkpt lat="43.72936" lon="6.07157">
        <ele>482</ele>
        <time>2025-09-14T13:16:21.000Z</time>
      </trkpt>
      <trkpt lat="43.72936" lon="6.07156">
        <ele>482.1</ele>
        <time>2025-09-14T13:16:22.000Z</time>
      </trkpt>
      <trkpt lat="43.72936" lon="6.07156">
        <ele>482.1</ele>
        <time>2025-09-14T13:16:23.000Z</time>
      </trkpt>
      <trkpt lat="43.72936" lon="6.07157">
        <ele>482.1</ele>
        <time>2025-09-14T13:16:24.000Z</time>
      </trkpt>
      <trkpt lat="43.72935" lon="6.07157">
        <ele>482.1</ele>
        <time>2025-09-14T13:16:25.000Z</time>
      </trkpt>
      <trkpt lat="43.72932" lon="6.07156">
        <ele>482.1</ele>
        <time>2025-09-14T13:16:32.000Z</time>
      </trkpt>
      <trkpt lat="43.72932" lon="6.07156">
        <ele>482.1</ele>
        <time>2025-09-14T13:16:33.000Z</time>
      </trkpt>
      <trkpt lat="43.72932" lon="6.07156">
        <ele>482.1</ele>
        <time>2025-09-14T13:16:34.000Z</time>
      </trkpt>
      <trkpt lat="43.72933" lon="6.07156">
        <ele>482.1</ele>
        <time>2025-09-14T13:16:45.000Z</time>
      </trkpt>
      <trkpt lat="43.72934" lon="6.07156">
        <ele>482.1</ele>
        <time>2025-09-14T13:16:46.000Z</time>
      </trkpt>
      <trkpt lat="43.72934" lon="6.07156">
        <ele>482.1</ele>
        <time>2025-09-14T13:16:47.000Z</time>
      </trkpt>
      <trkpt lat="43.72934" lon="6.07156">
        <ele>482.1</ele>
        <time>2025-09-14T13:16:48.000Z</time>
      </trkpt>
      <trkpt lat="43.72933" lon="6.07156">
        <ele>482.1</ele>
        <time>2025-09-14T13:16:49.000Z</time>
      </trkpt>
      <trkpt lat="43.72937" lon="6.07156">
        <ele>482.1</ele>
        <time>2025-09-14T13:16:58.000Z</time>
      </trkpt>
      <trkpt lat="43.72937" lon="6.07156">
        <ele>482.2</ele>
        <time>2025-09-14T13:16:59.000Z</time>
      </trkpt>
      <trkpt lat="43.72937" lon="6.07156">
        <ele>482.1</ele>
        <time>2025-09-14T13:17:00.000Z</time>
      </trkpt>
      <trkpt lat="43.72938" lon="6.07156">
        <ele>482.1</ele>
        <time>2025-09-14T13:17:01.000Z</time>
      </trkpt>
      <trkpt lat="43.72938" lon="6.07155">
        <ele>482.2</ele>
        <time>2025-09-14T13:17:57.000Z</time>
      </trkpt>
      <trkpt lat="43.72938" lon="6.07155">
        <ele>482.2</ele>
        <time>2025-09-14T13:17:58.000Z</time>
      </trkpt>
      <trkpt lat="43.72938" lon="6.07155">
        <ele>482.2</ele>
        <time>2025-09-14T13:17:59.000Z</time>
      </trkpt>
      <trkpt lat="43.72937" lon="6.07155">
        <ele>482.2</ele>
        <time>2025-09-14T13:18:00.000Z</time>
      </trkpt>
      <trkpt lat="43.72936" lon="6.07155">
        <ele>482.2</ele>
        <time>2025-09-14T13:18:01.000Z</time>
      </trkpt>
      <trkpt lat="43.72936" lon="6.07156">
        <ele>482.2</ele>
        <time>2025-09-14T13:18:02.000Z</time>
      </trkpt>
      <trkpt lat="43.72936" lon="6.07155">
        <ele>482.2</ele>
        <time>2025-09-14T13:18:03.000Z</time>
      </trkpt>
      <trkpt lat="43.72936" lon="6.07155">
        <ele>482.2</ele>
        <time>2025-09-14T13:18:04.000Z</time>
      </trkpt>
      <trkpt lat="43.72937" lon="6.07155">
        <ele>482.2</ele>
        <time>2025-09-14T13:18:05.000Z</time>
      </trkpt>
      <trkpt lat="43.72937" lon="6.07154">
        <ele>482.2</ele>
        <time>2025-09-14T13:18:06.000Z</time>
      </trkpt>
      <trkpt lat="43.72945" lon="6.07149">
        <ele>482.2</ele>
        <time>2025-09-14T13:18:30.000Z</time>
      </trkpt>
      <trkpt lat="43.72944" lon="6.07149">
        <ele>482.2</ele>
        <time>2025-09-14T13:18:31.000Z</time>
      </trkpt>
      <trkpt lat="43.72944" lon="6.0715">
        <ele>482.2</ele>
        <time>2025-09-14T13:18:35.000Z</time>
      </trkpt>
      <trkpt lat="43.72944" lon="6.0715">
        <ele>482.2</ele>
        <time>2025-09-14T13:18:36.000Z</time>
      </trkpt>
      <trkpt lat="43.72945" lon="6.07149">
        <ele>482.2</ele>
        <time>2025-09-14T13:18:56.000Z</time>
      </trkpt>
      <trkpt lat="43.72944" lon="6.07148">
        <ele>482.2</ele>
        <time>2025-09-14T13:18:57.000Z</time>
      </trkpt>
      <trkpt lat="43.72936" lon="6.07141">
        <ele>482.2</ele>
        <time>2025-09-14T13:19:06.000Z</time>
      </trkpt>
      <trkpt lat="43.72933" lon="6.0714">
        <ele>482.3</ele>
        <time>2025-09-14T13:19:11.000Z</time>
      </trkpt>
      <trkpt lat="43.72933" lon="6.0714">
        <ele>482.3</ele>
        <time>2025-09-14T13:19:12.000Z</time>
      </trkpt>
      <trkpt lat="43.72932" lon="6.0714">
        <ele>482.3</ele>
        <time>2025-09-14T13:19:13.000Z</time>
      </trkpt>
      <trkpt lat="43.72931" lon="6.07139">
        <ele>482.3</ele>
        <time>2025-09-14T13:19:14.000Z</time>
      </trkpt>
      <trkpt lat="43.72929" lon="6.07139">
        <ele>482.4</ele>
        <time>2025-09-14T13:19:20.000Z</time>
      </trkpt>
      <trkpt lat="43.72928" lon="6.07139">
        <ele>482.4</ele>
        <time>2025-09-14T13:19:21.000Z</time>
      </trkpt>
      <trkpt lat="43.72928" lon="6.07139">
        <ele>482.4</ele>
        <time>2025-09-14T13:19:22.000Z</time>
      </trkpt>
      <trkpt lat="43.72927" lon="6.07138">
        <ele>482.4</ele>
        <time>2025-09-14T13:19:23.000Z</time>
      </trkpt>
      <trkpt lat="43.72926" lon="6.07138">
        <ele>482.4</ele>
        <time>2025-09-14T13:19:24.000Z</time>
      </trkpt>
      <trkpt lat="43.72926" lon="6.07137">
        <ele>482.4</ele>
        <time>2025-09-14T13:19:25.000Z</time>
      </trkpt>
      <trkpt lat="43.72917" lon="6.07133">
        <ele>482.6</ele>
        <time>2025-09-14T13:19:35.000Z</time>
      </trkpt>
      <trkpt lat="43.72908" lon="6.0713">
        <ele>482.8</ele>
        <time>2025-09-14T13:19:42.000Z</time>
      </trkpt>
      <trkpt lat="43.72899" lon="6.07125">
        <ele>483.2</ele>
        <time>2025-09-14T13:19:51.000Z</time>
      </trkpt>
      <trkpt lat="43.72891" lon="6.07119">
        <ele>483.8</ele>
        <time>2025-09-14T13:20:01.000Z</time>
      </trkpt>
      <trkpt lat="43.72882" lon="6.07117">
        <ele>484</ele>
        <time>2025-09-14T13:20:13.000Z</time>
      </trkpt>
      <trkpt lat="43.72872" lon="6.07115">
        <ele>483.9</ele>
        <time>2025-09-14T13:20:21.000Z</time>
      </trkpt>
      <trkpt lat="43.72863" lon="6.07111">
        <ele>483.8</ele>
        <time>2025-09-14T13:20:28.000Z</time>
      </trkpt>
      <trkpt lat="43.72855" lon="6.07108">
        <ele>483.5</ele>
        <time>2025-09-14T13:20:40.000Z</time>
      </trkpt>
      <trkpt lat="43.72855" lon="6.07108">
        <ele>483.5</ele>
        <time>2025-09-14T13:20:41.000Z</time>
      </trkpt>
      <trkpt lat="43.72854" lon="6.07108">
        <ele>483.4</ele>
        <time>2025-09-14T13:20:47.000Z</time>
      </trkpt>
      <trkpt lat="43.72853" lon="6.07108">
        <ele>483.4</ele>
        <time>2025-09-14T13:20:48.000Z</time>
      </trkpt>
      <trkpt lat="43.72852" lon="6.07108">
        <ele>483.3</ele>
        <time>2025-09-14T13:20:49.000Z</time>
      </trkpt>
      <trkpt lat="43.72844" lon="6.07104">
        <ele>483.1</ele>
        <time>2025-09-14T13:20:58.000Z</time>
      </trkpt>
      <trkpt lat="43.72835" lon="6.071">
        <ele>482.8</ele>
        <time>2025-09-14T13:21:07.000Z</time>
      </trkpt>
      <trkpt lat="43.72826" lon="6.07097">
        <ele>482.5</ele>
        <time>2025-09-14T13:21:18.000Z</time>
      </trkpt>
      <trkpt lat="43.72817" lon="6.07092">
        <ele>482.3</ele>
        <time>2025-09-14T13:21:27.000Z</time>
      </trkpt>
      <trkpt lat="43.72808" lon="6.07089">
        <ele>482.1</ele>
        <time>2025-09-14T13:21:37.000Z</time>
      </trkpt>
      <trkpt lat="43.72799" lon="6.07086">
        <ele>481.8</ele>
        <time>2025-09-14T13:21:47.000Z</time>
      </trkpt>
      <trkpt lat="43.72791" lon="6.07082">
        <ele>481.3</ele>
        <time>2025-09-14T13:22:01.000Z</time>
      </trkpt>
      <trkpt lat="43.72781" lon="6.07079">
        <ele>480.7</ele>
        <time>2025-09-14T13:22:17.000Z</time>
      </trkpt>
      <trkpt lat="43.72771" lon="6.07074">
        <ele>480.5</ele>
        <time>2025-09-14T13:22:28.000Z</time>
      </trkpt>
      <trkpt lat="43.72769" lon="6.07073">
        <ele>480.4</ele>
        <time>2025-09-14T13:22:35.000Z</time>
      </trkpt>
      <trkpt lat="43.72769" lon="6.07073">
        <ele>480.3</ele>
        <time>2025-09-14T13:22:36.000Z</time>
      </trkpt>
      <trkpt lat="43.72769" lon="6.07073">
        <ele>480.3</ele>
        <time>2025-09-14T13:22:37.000Z</time>
      </trkpt>
      <trkpt lat="43.72768" lon="6.07073">
        <ele>480.3</ele>
        <time>2025-09-14T13:22:38.000Z</time>
      </trkpt>
      <trkpt lat="43.72768" lon="6.07073">
        <ele>480.3</ele>
        <time>2025-09-14T13:22:39.000Z</time>
      </trkpt>
      <trkpt lat="43.72767" lon="6.07073">
        <ele>480.3</ele>
        <time>2025-09-14T13:22:40.000Z</time>
      </trkpt>
      <trkpt lat="43.72758" lon="6.07069">
        <ele>479.9</ele>
        <time>2025-09-14T13:22:50.000Z</time>
      </trkpt>
      <trkpt lat="43.72749" lon="6.07068">
        <ele>479.5</ele>
        <time>2025-09-14T13:23:00.000Z</time>
      </trkpt>
      <trkpt lat="43.72739" lon="6.07066">
        <ele>479.1</ele>
        <time>2025-09-14T13:23:11.000Z</time>
      </trkpt>
      <trkpt lat="43.7273" lon="6.07062">
        <ele>478.7</ele>
        <time>2025-09-14T13:23:20.000Z</time>
      </trkpt>
      <trkpt lat="43.72721" lon="6.07059">
        <ele>478.3</ele>
        <time>2025-09-14T13:23:30.000Z</time>
      </trkpt>
      <trkpt lat="43.72712" lon="6.07056">
        <ele>478.1</ele>
        <time>2025-09-14T13:23:40.000Z</time>
      </trkpt>
      <trkpt lat="43.72702" lon="6.07054">
        <ele>477.9</ele>
        <time>2025-09-14T13:23:50.000Z</time>
      </trkpt>
      <trkpt lat="43.72693" lon="6.07053">
        <ele>477.7</ele>
        <time>2025-09-14T13:24:02.000Z</time>
      </trkpt>
      <trkpt lat="43.72684" lon="6.07051">
        <ele>477.7</ele>
        <time>2025-09-14T13:24:11.000Z</time>
      </trkpt>
      <trkpt lat="43.72675" lon="6.07046">
        <ele>477.5</ele>
        <time>2025-09-14T13:24:22.000Z</time>
      </trkpt>
      <trkpt lat="43.72666" lon="6.07043">
        <ele>477.5</ele>
        <time>2025-09-14T13:24:31.000Z</time>
      </trkpt>
      <trkpt lat="43.72657" lon="6.07042">
        <ele>477.5</ele>
        <time>2025-09-14T13:24:43.000Z</time>
      </trkpt>
      <trkpt lat="43.72648" lon="6.0704">
        <ele>477.5</ele>
        <time>2025-09-14T13:24:51.000Z</time>
      </trkpt>
      <trkpt lat="43.72639" lon="6.07037">
        <ele>477.5</ele>
        <time>2025-09-14T13:25:03.000Z</time>
      </trkpt>
      <trkpt lat="43.7263" lon="6.07033">
        <ele>477.6</ele>
        <time>2025-09-14T13:25:14.000Z</time>
      </trkpt>
      <trkpt lat="43.72621" lon="6.07027">
        <ele>477.6</ele>
        <time>2025-09-14T13:25:24.000Z</time>
      </trkpt>
      <trkpt lat="43.72613" lon="6.07022">
        <ele>477.7</ele>
        <time>2025-09-14T13:25:33.000Z</time>
      </trkpt>
      <trkpt lat="43.72606" lon="6.07015">
        <ele>478.1</ele>
        <time>2025-09-14T13:25:48.000Z</time>
      </trkpt>
      <trkpt lat="43.72606" lon="6.07015">
        <ele>478.1</ele>
        <time>2025-09-14T13:25:49.000Z</time>
      </trkpt>
      <trkpt lat="43.72606" lon="6.07015">
        <ele>478.1</ele>
        <time>2025-09-14T13:25:50.000Z</time>
      </trkpt>
      <trkpt lat="43.72605" lon="6.07015">
        <ele>478.2</ele>
        <time>2025-09-14T13:25:51.000Z</time>
      </trkpt>
      <trkpt lat="43.72605" lon="6.07014">
        <ele>478.2</ele>
        <time>2025-09-14T13:25:52.000Z</time>
      </trkpt>
      <trkpt lat="43.72599" lon="6.07013">
        <ele>478.6</ele>
        <time>2025-09-14T13:26:03.000Z</time>
      </trkpt>
      <trkpt lat="43.72599" lon="6.07013">
        <ele>478.6</ele>
        <time>2025-09-14T13:26:04.000Z</time>
      </trkpt>
      <trkpt lat="43.72599" lon="6.07013">
        <ele>478.6</ele>
        <time>2025-09-14T13:26:05.000Z</time>
      </trkpt>
      <trkpt lat="43.72599" lon="6.07012">
        <ele>478.6</ele>
        <time>2025-09-14T13:26:06.000Z</time>
      </trkpt>
      <trkpt lat="43.72599" lon="6.07012">
        <ele>478.6</ele>
        <time>2025-09-14T13:26:07.000Z</time>
      </trkpt>
      <trkpt lat="43.72599" lon="6.07012">
        <ele>478.6</ele>
        <time>2025-09-14T13:26:08.000Z</time>
      </trkpt>
      <trkpt lat="43.72599" lon="6.07012">
        <ele>478.6</ele>
        <time>2025-09-14T13:26:09.000Z</time>
      </trkpt>
      <trkpt lat="43.72598" lon="6.07012">
        <ele>478.8</ele>
        <time>2025-09-14T13:26:25.000Z</time>
      </trkpt>
      <trkpt lat="43.72598" lon="6.07013">
        <ele>478.8</ele>
        <time>2025-09-14T13:26:26.000Z</time>
      </trkpt>
      <trkpt lat="43.72598" lon="6.07013">
        <ele>478.8</ele>
        <time>2025-09-14T13:26:30.000Z</time>
      </trkpt>
      <trkpt lat="43.72598" lon="6.07013">
        <ele>478.8</ele>
        <time>2025-09-14T13:26:31.000Z</time>
      </trkpt>
      <trkpt lat="43.72598" lon="6.07013">
        <ele>478.8</ele>
        <time>2025-09-14T13:26:32.000Z</time>
      </trkpt>
      <trkpt lat="43.72598" lon="6.07012">
        <ele>478.8</ele>
        <time>2025-09-14T13:26:35.000Z</time>
      </trkpt>
      <trkpt lat="43.72598" lon="6.07011">
        <ele>478.8</ele>
        <time>2025-09-14T13:26:36.000Z</time>
      </trkpt>
      <trkpt lat="43.72591" lon="6.07001">
        <ele>479</ele>
        <time>2025-09-14T13:26:49.000Z</time>
      </trkpt>
      <trkpt lat="43.72585" lon="6.06991">
        <ele>479.4</ele>
        <time>2025-09-14T13:26:59.000Z</time>
      </trkpt>
      <trkpt lat="43.72579" lon="6.06982">
        <ele>479.4</ele>
        <time>2025-09-14T13:27:08.000Z</time>
      </trkpt>
      <trkpt lat="43.72572" lon="6.06972">
        <ele>479.3</ele>
        <time>2025-09-14T13:27:21.000Z</time>
      </trkpt>
      <trkpt lat="43.72565" lon="6.06963">
        <ele>479.2</ele>
        <time>2025-09-14T13:27:30.000Z</time>
      </trkpt>
      <trkpt lat="43.72558" lon="6.06955">
        <ele>479.1</ele>
        <time>2025-09-14T13:27:39.000Z</time>
      </trkpt>
      <trkpt lat="43.72551" lon="6.06946">
        <ele>479</ele>
        <time>2025-09-14T13:27:48.000Z</time>
      </trkpt>
      <trkpt lat="43.72543" lon="6.06937">
        <ele>478.9</ele>
        <time>2025-09-14T13:28:03.000Z</time>
      </trkpt>
      <trkpt lat="43.72536" lon="6.06928">
        <ele>479</ele>
        <time>2025-09-14T13:28:13.000Z</time>
      </trkpt>
      <trkpt lat="43.7253" lon="6.06917">
        <ele>478.9</ele>
        <time>2025-09-14T13:28:23.000Z</time>
      </trkpt>
      <trkpt lat="43.72525" lon="6.06906">
        <ele>478.8</ele>
        <time>2025-09-14T13:28:33.000Z</time>
      </trkpt>
      <trkpt lat="43.72518" lon="6.06897">
        <ele>478.8</ele>
        <time>2025-09-14T13:28:43.000Z</time>
      </trkpt>
      <trkpt lat="43.72509" lon="6.06898">
        <ele>478.7</ele>
        <time>2025-09-14T13:28:51.000Z</time>
      </trkpt>
      <trkpt lat="43.725" lon="6.06903">
        <ele>478.5</ele>
        <time>2025-09-14T13:28:59.000Z</time>
      </trkpt>
      <trkpt lat="43.72499" lon="6.06903">
        <ele>478.5</ele>
        <time>2025-09-14T13:29:08.000Z</time>
      </trkpt>
      <trkpt lat="43.72499" lon="6.06903">
        <ele>478.5</ele>
        <time>2025-09-14T13:29:09.000Z</time>
      </trkpt>
      <trkpt lat="43.72499" lon="6.06903">
        <ele>478.5</ele>
        <time>2025-09-14T13:29:10.000Z</time>
      </trkpt>
      <trkpt lat="43.72499" lon="6.06903">
        <ele>478.5</ele>
        <time>2025-09-14T13:29:13.000Z</time>
      </trkpt>
      <trkpt lat="43.72499" lon="6.06903">
        <ele>478.5</ele>
        <time>2025-09-14T13:29:14.000Z</time>
      </trkpt>
      <trkpt lat="43.72499" lon="6.06903">
        <ele>478.5</ele>
        <time>2025-09-14T13:29:15.000Z</time>
      </trkpt>
      <trkpt lat="43.72499" lon="6.06903">
        <ele>478.5</ele>
        <time>2025-09-14T13:29:15.000Z</time>
      </trkpt>
      <trkpt lat="43.72499" lon="6.06903">
        <ele>478.5</ele>
        <time>2025-09-14T13:29:15.000Z</time>
      </trkpt>
      <trkpt lat="43.72499" lon="6.06903">
        <ele>478.5</ele>
        <time>2025-09-14T13:29:15.000Z</time>
      </trkpt>
    </trkseg>
  </trk>
</gpx>